<?xml version="1.0" encoding="UTF-8" standalone="no" ?>
<gpx xmlns="http://www.topografix.com/GPX/1/1" xmlns:xsi="http://www.w3.org/2001/XMLSchema-instance" xsi:schemaLocation="http://www.topografix.com/GPX/1/1 http://www.topografix.com/GPX/1/1/gpx.xsd" version="1.1" creator="VisuGPX - https://www.visugpx.com">
  <metadata>
    <name>Messimy - Yzeron - le Jaricot</name>
    <desc><![CDATA[Une ballade classique agrémentée de l\'incontournable descente du Jaricot...]]></desc>
  </metadata>
  <trk>
    <name><![CDATA[TracÃ© actuel: 06 NOV 2011 14:06]]></name>
    <trkseg>
      <trkpt lat="45.6978" lon="4.67759">
        <ele>358</ele>
        <time>2011-11-06T13:06:49Z</time>
      </trkpt>
      <trkpt lat="45.6978" lon="4.67759">
        <ele>354</ele>
        <time>2011-11-06T13:06:55Z</time>
      </trkpt>
      <trkpt lat="45.6978" lon="4.67759">
        <ele>358</ele>
        <time>2011-11-06T13:06:56Z</time>
      </trkpt>
      <trkpt lat="45.6978" lon="4.67759">
        <ele>355</ele>
        <time>2011-11-06T13:06:59Z</time>
      </trkpt>
      <trkpt lat="45.6978" lon="4.67759">
        <ele>358</ele>
        <time>2011-11-06T13:07:02Z</time>
      </trkpt>
      <trkpt lat="45.6977" lon="4.67759">
        <ele>357</ele>
        <time>2011-11-06T13:07:07Z</time>
      </trkpt>
      <trkpt lat="45.69765" lon="4.67763">
        <ele>358</ele>
        <time>2011-11-06T13:07:08Z</time>
      </trkpt>
      <trkpt lat="45.69761" lon="4.67767">
        <ele>357</ele>
        <time>2011-11-06T13:07:09Z</time>
      </trkpt>
      <trkpt lat="45.69739" lon="4.67768">
        <ele>358</ele>
        <time>2011-11-06T13:07:14Z</time>
      </trkpt>
      <trkpt lat="45.69728" lon="4.67758">
        <ele>357</ele>
        <time>2011-11-06T13:07:18Z</time>
      </trkpt>
      <trkpt lat="45.69728" lon="4.67755">
        <ele>358</ele>
        <time>2011-11-06T13:07:19Z</time>
      </trkpt>
      <trkpt lat="45.69732" lon="4.67724">
        <ele>358</ele>
        <time>2011-11-06T13:07:25Z</time>
      </trkpt>
      <trkpt lat="45.69732" lon="4.67718">
        <ele>359</ele>
        <time>2011-11-06T13:07:26Z</time>
      </trkpt>
      <trkpt lat="45.69734" lon="4.67683">
        <ele>360</ele>
        <time>2011-11-06T13:07:33Z</time>
      </trkpt>
      <trkpt lat="45.69746" lon="4.67652">
        <ele>361</ele>
        <time>2011-11-06T13:07:41Z</time>
      </trkpt>
      <trkpt lat="45.69756" lon="4.67629">
        <ele>363</ele>
        <time>2011-11-06T13:07:48Z</time>
      </trkpt>
      <trkpt lat="45.69767" lon="4.67607">
        <ele>364</ele>
        <time>2011-11-06T13:07:55Z</time>
      </trkpt>
      <trkpt lat="45.69775" lon="4.67585">
        <ele>365</ele>
        <time>2011-11-06T13:08:02Z</time>
      </trkpt>
      <trkpt lat="45.69779" lon="4.67562">
        <ele>366</ele>
        <time>2011-11-06T13:08:08Z</time>
      </trkpt>
      <trkpt lat="45.6978" lon="4.67541">
        <ele>367</ele>
        <time>2011-11-06T13:08:15Z</time>
      </trkpt>
      <trkpt lat="45.69784" lon="4.6751">
        <ele>368</ele>
        <time>2011-11-06T13:08:24Z</time>
      </trkpt>
      <trkpt lat="45.69787" lon="4.67487">
        <ele>369</ele>
        <time>2011-11-06T13:08:31Z</time>
      </trkpt>
      <trkpt lat="45.69786" lon="4.67461">
        <ele>370</ele>
        <time>2011-11-06T13:08:39Z</time>
      </trkpt>
      <trkpt lat="45.69784" lon="4.67459">
        <ele>370</ele>
        <time>2011-11-06T13:08:40Z</time>
      </trkpt>
      <trkpt lat="45.69782" lon="4.67457">
        <ele>371</ele>
        <time>2011-11-06T13:08:41Z</time>
      </trkpt>
      <trkpt lat="45.6978" lon="4.67455">
        <ele>371</ele>
        <time>2011-11-06T13:08:42Z</time>
      </trkpt>
      <trkpt lat="45.69778" lon="4.67455">
        <ele>371</ele>
        <time>2011-11-06T13:08:43Z</time>
      </trkpt>
      <trkpt lat="45.69776" lon="4.67454">
        <ele>371</ele>
        <time>2011-11-06T13:08:44Z</time>
      </trkpt>
      <trkpt lat="45.69774" lon="4.67453">
        <ele>371</ele>
        <time>2011-11-06T13:08:45Z</time>
      </trkpt>
      <trkpt lat="45.69772" lon="4.67452">
        <ele>371</ele>
        <time>2011-11-06T13:08:46Z</time>
      </trkpt>
      <trkpt lat="45.69769" lon="4.67452">
        <ele>371</ele>
        <time>2011-11-06T13:08:47Z</time>
      </trkpt>
      <trkpt lat="45.69767" lon="4.67452">
        <ele>371</ele>
        <time>2011-11-06T13:08:48Z</time>
      </trkpt>
      <trkpt lat="45.69764" lon="4.67451">
        <ele>371</ele>
        <time>2011-11-06T13:08:49Z</time>
      </trkpt>
      <trkpt lat="45.69762" lon="4.67451">
        <ele>371</ele>
        <time>2011-11-06T13:08:50Z</time>
      </trkpt>
      <trkpt lat="45.69753" lon="4.67447">
        <ele>372</ele>
        <time>2011-11-06T13:08:54Z</time>
      </trkpt>
      <trkpt lat="45.69751" lon="4.67445">
        <ele>371</ele>
        <time>2011-11-06T13:08:55Z</time>
      </trkpt>
      <trkpt lat="45.69751" lon="4.67442">
        <ele>371</ele>
        <time>2011-11-06T13:08:56Z</time>
      </trkpt>
      <trkpt lat="45.69751" lon="4.6744">
        <ele>371</ele>
        <time>2011-11-06T13:08:57Z</time>
      </trkpt>
      <trkpt lat="45.6975" lon="4.67438">
        <ele>372</ele>
        <time>2011-11-06T13:08:58Z</time>
      </trkpt>
      <trkpt lat="45.69749" lon="4.67437">
        <ele>371</ele>
        <time>2011-11-06T13:08:59Z</time>
      </trkpt>
      <trkpt lat="45.69747" lon="4.67436">
        <ele>371</ele>
        <time>2011-11-06T13:09:00Z</time>
      </trkpt>
      <trkpt lat="45.69745" lon="4.67434">
        <ele>371</ele>
        <time>2011-11-06T13:09:01Z</time>
      </trkpt>
      <trkpt lat="45.69743" lon="4.67432">
        <ele>372</ele>
        <time>2011-11-06T13:09:02Z</time>
      </trkpt>
      <trkpt lat="45.69741" lon="4.67429">
        <ele>372</ele>
        <time>2011-11-06T13:09:03Z</time>
      </trkpt>
      <trkpt lat="45.69724" lon="4.67412">
        <ele>371</ele>
        <time>2011-11-06T13:09:11Z</time>
      </trkpt>
      <trkpt lat="45.69708" lon="4.67404">
        <ele>372</ele>
        <time>2011-11-06T13:09:18Z</time>
      </trkpt>
      <trkpt lat="45.69705" lon="4.67399">
        <ele>373</ele>
        <time>2011-11-06T13:09:20Z</time>
      </trkpt>
      <trkpt lat="45.69706" lon="4.67395">
        <ele>373</ele>
        <time>2011-11-06T13:09:21Z</time>
      </trkpt>
      <trkpt lat="45.69713" lon="4.67381">
        <ele>373</ele>
        <time>2011-11-06T13:09:25Z</time>
      </trkpt>
      <trkpt lat="45.69713" lon="4.67359">
        <ele>374</ele>
        <time>2011-11-06T13:09:31Z</time>
      </trkpt>
      <trkpt lat="45.69713" lon="4.67354">
        <ele>374</ele>
        <time>2011-11-06T13:09:33Z</time>
      </trkpt>
      <trkpt lat="45.6971" lon="4.67355">
        <ele>374</ele>
        <time>2011-11-06T13:09:36Z</time>
      </trkpt>
      <trkpt lat="45.6971" lon="4.67357">
        <ele>374</ele>
        <time>2011-11-06T13:09:37Z</time>
      </trkpt>
      <trkpt lat="45.6971" lon="4.6736">
        <ele>374</ele>
        <time>2011-11-06T13:09:43Z</time>
      </trkpt>
      <trkpt lat="45.69711" lon="4.67361">
        <ele>374</ele>
        <time>2011-11-06T13:09:56Z</time>
      </trkpt>
      <trkpt lat="45.69712" lon="4.67363">
        <ele>374</ele>
        <time>2011-11-06T13:09:57Z</time>
      </trkpt>
      <trkpt lat="45.69715" lon="4.67391">
        <ele>373</ele>
        <time>2011-11-06T13:10:04Z</time>
      </trkpt>
      <trkpt lat="45.6972" lon="4.67415">
        <ele>373</ele>
        <time>2011-11-06T13:10:09Z</time>
      </trkpt>
      <trkpt lat="45.69724" lon="4.67417">
        <ele>373</ele>
        <time>2011-11-06T13:10:10Z</time>
      </trkpt>
      <trkpt lat="45.69727" lon="4.6742">
        <ele>372</ele>
        <time>2011-11-06T13:10:11Z</time>
      </trkpt>
      <trkpt lat="45.69731" lon="4.67424">
        <ele>372</ele>
        <time>2011-11-06T13:10:12Z</time>
      </trkpt>
      <trkpt lat="45.69735" lon="4.67428">
        <ele>372</ele>
        <time>2011-11-06T13:10:13Z</time>
      </trkpt>
      <trkpt lat="45.69738" lon="4.67433">
        <ele>371</ele>
        <time>2011-11-06T13:10:14Z</time>
      </trkpt>
      <trkpt lat="45.69741" lon="4.67437">
        <ele>372</ele>
        <time>2011-11-06T13:10:15Z</time>
      </trkpt>
      <trkpt lat="45.69747" lon="4.67447">
        <ele>371</ele>
        <time>2011-11-06T13:10:17Z</time>
      </trkpt>
      <trkpt lat="45.6975" lon="4.67451">
        <ele>371</ele>
        <time>2011-11-06T13:10:18Z</time>
      </trkpt>
      <trkpt lat="45.69754" lon="4.67454">
        <ele>371</ele>
        <time>2011-11-06T13:10:19Z</time>
      </trkpt>
      <trkpt lat="45.69758" lon="4.67455">
        <ele>371</ele>
        <time>2011-11-06T13:10:20Z</time>
      </trkpt>
      <trkpt lat="45.69762" lon="4.67456">
        <ele>371</ele>
        <time>2011-11-06T13:10:21Z</time>
      </trkpt>
      <trkpt lat="45.69796" lon="4.67458">
        <ele>370</ele>
        <time>2011-11-06T13:10:29Z</time>
      </trkpt>
      <trkpt lat="45.6982" lon="4.67452">
        <ele>371</ele>
        <time>2011-11-06T13:10:36Z</time>
      </trkpt>
      <trkpt lat="45.69848" lon="4.67452">
        <ele>371</ele>
        <time>2011-11-06T13:10:45Z</time>
      </trkpt>
      <trkpt lat="45.69878" lon="4.67451">
        <ele>369</ele>
        <time>2011-11-06T13:10:53Z</time>
      </trkpt>
      <trkpt lat="45.69881" lon="4.67454">
        <ele>369</ele>
        <time>2011-11-06T13:10:54Z</time>
      </trkpt>
      <trkpt lat="45.69883" lon="4.67459">
        <ele>369</ele>
        <time>2011-11-06T13:10:55Z</time>
      </trkpt>
      <trkpt lat="45.69888" lon="4.67481">
        <ele>368</ele>
        <time>2011-11-06T13:10:59Z</time>
      </trkpt>
      <trkpt lat="45.69892" lon="4.67493">
        <ele>368</ele>
        <time>2011-11-06T13:11:01Z</time>
      </trkpt>
      <trkpt lat="45.69894" lon="4.67499">
        <ele>368</ele>
        <time>2011-11-06T13:11:02Z</time>
      </trkpt>
      <trkpt lat="45.69896" lon="4.67506">
        <ele>367</ele>
        <time>2011-11-06T13:11:03Z</time>
      </trkpt>
      <trkpt lat="45.69904" lon="4.67539">
        <ele>365</ele>
        <time>2011-11-06T13:11:07Z</time>
      </trkpt>
      <trkpt lat="45.69906" lon="4.67548">
        <ele>365</ele>
        <time>2011-11-06T13:11:08Z</time>
      </trkpt>
      <trkpt lat="45.69908" lon="4.67557">
        <ele>365</ele>
        <time>2011-11-06T13:11:09Z</time>
      </trkpt>
      <trkpt lat="45.69911" lon="4.67566">
        <ele>364</ele>
        <time>2011-11-06T13:11:10Z</time>
      </trkpt>
      <trkpt lat="45.69913" lon="4.67574">
        <ele>364</ele>
        <time>2011-11-06T13:11:11Z</time>
      </trkpt>
      <trkpt lat="45.69916" lon="4.67582">
        <ele>364</ele>
        <time>2011-11-06T13:11:12Z</time>
      </trkpt>
      <trkpt lat="45.6992" lon="4.67589">
        <ele>364</ele>
        <time>2011-11-06T13:11:13Z</time>
      </trkpt>
      <trkpt lat="45.69923" lon="4.67596">
        <ele>364</ele>
        <time>2011-11-06T13:11:14Z</time>
      </trkpt>
      <trkpt lat="45.69927" lon="4.67603">
        <ele>363</ele>
        <time>2011-11-06T13:11:15Z</time>
      </trkpt>
      <trkpt lat="45.6993" lon="4.6761">
        <ele>363</ele>
        <time>2011-11-06T13:11:16Z</time>
      </trkpt>
      <trkpt lat="45.69932" lon="4.67617">
        <ele>363</ele>
        <time>2011-11-06T13:11:17Z</time>
      </trkpt>
      <trkpt lat="45.69935" lon="4.67624">
        <ele>362</ele>
        <time>2011-11-06T13:11:18Z</time>
      </trkpt>
      <trkpt lat="45.69938" lon="4.6763">
        <ele>362</ele>
        <time>2011-11-06T13:11:19Z</time>
      </trkpt>
      <trkpt lat="45.69951" lon="4.67661">
        <ele>360</ele>
        <time>2011-11-06T13:11:23Z</time>
      </trkpt>
      <trkpt lat="45.69953" lon="4.67669">
        <ele>360</ele>
        <time>2011-11-06T13:11:24Z</time>
      </trkpt>
      <trkpt lat="45.69956" lon="4.67686">
        <ele>360</ele>
        <time>2011-11-06T13:11:26Z</time>
      </trkpt>
      <trkpt lat="45.69959" lon="4.67713">
        <ele>359</ele>
        <time>2011-11-06T13:11:29Z</time>
      </trkpt>
      <trkpt lat="45.6996" lon="4.67722">
        <ele>358</ele>
        <time>2011-11-06T13:11:30Z</time>
      </trkpt>
      <trkpt lat="45.69961" lon="4.67731">
        <ele>359</ele>
        <time>2011-11-06T13:11:31Z</time>
      </trkpt>
      <trkpt lat="45.69961" lon="4.67739">
        <ele>358</ele>
        <time>2011-11-06T13:11:32Z</time>
      </trkpt>
      <trkpt lat="45.69961" lon="4.67746">
        <ele>357</ele>
        <time>2011-11-06T13:11:33Z</time>
      </trkpt>
      <trkpt lat="45.69961" lon="4.67752">
        <ele>357</ele>
        <time>2011-11-06T13:11:34Z</time>
      </trkpt>
      <trkpt lat="45.69961" lon="4.67762">
        <ele>356</ele>
        <time>2011-11-06T13:11:39Z</time>
      </trkpt>
      <trkpt lat="45.69962" lon="4.67763">
        <ele>356</ele>
        <time>2011-11-06T13:11:40Z</time>
      </trkpt>
      <trkpt lat="45.69963" lon="4.67764">
        <ele>357</ele>
        <time>2011-11-06T13:11:41Z</time>
      </trkpt>
      <trkpt lat="45.69964" lon="4.67765">
        <ele>356</ele>
        <time>2011-11-06T13:11:42Z</time>
      </trkpt>
      <trkpt lat="45.69965" lon="4.67765">
        <ele>356</ele>
        <time>2011-11-06T13:11:43Z</time>
      </trkpt>
      <trkpt lat="45.69967" lon="4.67763">
        <ele>356</ele>
        <time>2011-11-06T13:11:44Z</time>
      </trkpt>
      <trkpt lat="45.69968" lon="4.6776">
        <ele>357</ele>
        <time>2011-11-06T13:11:45Z</time>
      </trkpt>
      <trkpt lat="45.6997" lon="4.67758">
        <ele>357</ele>
        <time>2011-11-06T13:11:46Z</time>
      </trkpt>
      <trkpt lat="45.69975" lon="4.67758">
        <ele>355</ele>
        <time>2011-11-06T13:11:48Z</time>
      </trkpt>
      <trkpt lat="45.69993" lon="4.6777">
        <ele>356</ele>
        <time>2011-11-06T13:11:56Z</time>
      </trkpt>
      <trkpt lat="45.70007" lon="4.67788">
        <ele>357</ele>
        <time>2011-11-06T13:12:02Z</time>
      </trkpt>
      <trkpt lat="45.70028" lon="4.67802">
        <ele>357</ele>
        <time>2011-11-06T13:12:08Z</time>
      </trkpt>
      <trkpt lat="45.70032" lon="4.67804">
        <ele>357</ele>
        <time>2011-11-06T13:12:09Z</time>
      </trkpt>
      <trkpt lat="45.70036" lon="4.67807">
        <ele>357</ele>
        <time>2011-11-06T13:12:10Z</time>
      </trkpt>
      <trkpt lat="45.70063" lon="4.67828">
        <ele>356</ele>
        <time>2011-11-06T13:12:18Z</time>
      </trkpt>
      <trkpt lat="45.70067" lon="4.67836">
        <ele>356</ele>
        <time>2011-11-06T13:12:20Z</time>
      </trkpt>
      <trkpt lat="45.70068" lon="4.67841">
        <ele>356</ele>
        <time>2011-11-06T13:12:21Z</time>
      </trkpt>
      <trkpt lat="45.7007" lon="4.67845">
        <ele>356</ele>
        <time>2011-11-06T13:12:22Z</time>
      </trkpt>
      <trkpt lat="45.70071" lon="4.6785">
        <ele>356</ele>
        <time>2011-11-06T13:12:23Z</time>
      </trkpt>
      <trkpt lat="45.70072" lon="4.67855">
        <ele>356</ele>
        <time>2011-11-06T13:12:24Z</time>
      </trkpt>
      <trkpt lat="45.70073" lon="4.67859">
        <ele>356</ele>
        <time>2011-11-06T13:12:25Z</time>
      </trkpt>
      <trkpt lat="45.70073" lon="4.67863">
        <ele>355</ele>
        <time>2011-11-06T13:12:26Z</time>
      </trkpt>
      <trkpt lat="45.7008" lon="4.67882">
        <ele>355</ele>
        <time>2011-11-06T13:12:31Z</time>
      </trkpt>
      <trkpt lat="45.70097" lon="4.67902">
        <ele>355</ele>
        <time>2011-11-06T13:12:37Z</time>
      </trkpt>
      <trkpt lat="45.7012" lon="4.6793">
        <ele>357</ele>
        <time>2011-11-06T13:12:46Z</time>
      </trkpt>
      <trkpt lat="45.70142" lon="4.67953">
        <ele>357</ele>
        <time>2011-11-06T13:12:55Z</time>
      </trkpt>
      <trkpt lat="45.70144" lon="4.67954">
        <ele>358</ele>
        <time>2011-11-06T13:12:56Z</time>
      </trkpt>
      <trkpt lat="45.70163" lon="4.67944">
        <ele>358</ele>
        <time>2011-11-06T13:13:03Z</time>
      </trkpt>
      <trkpt lat="45.70197" lon="4.67941">
        <ele>359</ele>
        <time>2011-11-06T13:13:13Z</time>
      </trkpt>
      <trkpt lat="45.70217" lon="4.67941">
        <ele>358</ele>
        <time>2011-11-06T13:13:18Z</time>
      </trkpt>
      <trkpt lat="45.70248" lon="4.6794">
        <ele>358</ele>
        <time>2011-11-06T13:13:25Z</time>
      </trkpt>
      <trkpt lat="45.70252" lon="4.67939">
        <ele>358</ele>
        <time>2011-11-06T13:13:26Z</time>
      </trkpt>
      <trkpt lat="45.70266" lon="4.67937">
        <ele>358</ele>
        <time>2011-11-06T13:13:29Z</time>
      </trkpt>
      <trkpt lat="45.7027" lon="4.67935">
        <ele>357</ele>
        <time>2011-11-06T13:13:30Z</time>
      </trkpt>
      <trkpt lat="45.70275" lon="4.67933">
        <ele>357</ele>
        <time>2011-11-06T13:13:31Z</time>
      </trkpt>
      <trkpt lat="45.70279" lon="4.6793">
        <ele>357</ele>
        <time>2011-11-06T13:13:32Z</time>
      </trkpt>
      <trkpt lat="45.70283" lon="4.67927">
        <ele>357</ele>
        <time>2011-11-06T13:13:33Z</time>
      </trkpt>
      <trkpt lat="45.70302" lon="4.67914">
        <ele>357</ele>
        <time>2011-11-06T13:13:38Z</time>
      </trkpt>
      <trkpt lat="45.70307" lon="4.67913">
        <ele>357</ele>
        <time>2011-11-06T13:13:39Z</time>
      </trkpt>
      <trkpt lat="45.70316" lon="4.6791">
        <ele>356</ele>
        <time>2011-11-06T13:13:41Z</time>
      </trkpt>
      <trkpt lat="45.70321" lon="4.6791">
        <ele>357</ele>
        <time>2011-11-06T13:13:42Z</time>
      </trkpt>
      <trkpt lat="45.70326" lon="4.6791">
        <ele>357</ele>
        <time>2011-11-06T13:13:43Z</time>
      </trkpt>
      <trkpt lat="45.70361" lon="4.67912">
        <ele>356</ele>
        <time>2011-11-06T13:13:51Z</time>
      </trkpt>
      <trkpt lat="45.70365" lon="4.67912">
        <ele>356</ele>
        <time>2011-11-06T13:13:52Z</time>
      </trkpt>
      <trkpt lat="45.70369" lon="4.67911">
        <ele>356</ele>
        <time>2011-11-06T13:13:53Z</time>
      </trkpt>
      <trkpt lat="45.70372" lon="4.67907">
        <ele>356</ele>
        <time>2011-11-06T13:13:54Z</time>
      </trkpt>
      <trkpt lat="45.70373" lon="4.67902">
        <ele>356</ele>
        <time>2011-11-06T13:13:55Z</time>
      </trkpt>
      <trkpt lat="45.70373" lon="4.67896">
        <ele>356</ele>
        <time>2011-11-06T13:13:56Z</time>
      </trkpt>
      <trkpt lat="45.70371" lon="4.67891">
        <ele>356</ele>
        <time>2011-11-06T13:13:57Z</time>
      </trkpt>
      <trkpt lat="45.7037" lon="4.67887">
        <ele>356</ele>
        <time>2011-11-06T13:13:58Z</time>
      </trkpt>
      <trkpt lat="45.70368" lon="4.67883">
        <ele>356</ele>
        <time>2011-11-06T13:13:59Z</time>
      </trkpt>
      <trkpt lat="45.70367" lon="4.67868">
        <ele>357</ele>
        <time>2011-11-06T13:14:03Z</time>
      </trkpt>
      <trkpt lat="45.70369" lon="4.67866">
        <ele>357</ele>
        <time>2011-11-06T13:14:04Z</time>
      </trkpt>
      <trkpt lat="45.70372" lon="4.67865">
        <ele>356</ele>
        <time>2011-11-06T13:14:05Z</time>
      </trkpt>
      <trkpt lat="45.70375" lon="4.67865">
        <ele>357</ele>
        <time>2011-11-06T13:14:06Z</time>
      </trkpt>
      <trkpt lat="45.70379" lon="4.67866">
        <ele>356</ele>
        <time>2011-11-06T13:14:07Z</time>
      </trkpt>
      <trkpt lat="45.70403" lon="4.67871">
        <ele>355</ele>
        <time>2011-11-06T13:14:12Z</time>
      </trkpt>
      <trkpt lat="45.70408" lon="4.67872">
        <ele>355</ele>
        <time>2011-11-06T13:14:13Z</time>
      </trkpt>
      <trkpt lat="45.70414" lon="4.67872">
        <ele>355</ele>
        <time>2011-11-06T13:14:14Z</time>
      </trkpt>
      <trkpt lat="45.70461" lon="4.6787">
        <ele>353</ele>
        <time>2011-11-06T13:14:22Z</time>
      </trkpt>
      <trkpt lat="45.70473" lon="4.67868">
        <ele>352</ele>
        <time>2011-11-06T13:14:24Z</time>
      </trkpt>
      <trkpt lat="45.70478" lon="4.67866">
        <ele>352</ele>
        <time>2011-11-06T13:14:25Z</time>
      </trkpt>
      <trkpt lat="45.70484" lon="4.67862">
        <ele>352</ele>
        <time>2011-11-06T13:14:26Z</time>
      </trkpt>
      <trkpt lat="45.70488" lon="4.67856">
        <ele>351</ele>
        <time>2011-11-06T13:14:27Z</time>
      </trkpt>
      <trkpt lat="45.70491" lon="4.67849">
        <ele>351</ele>
        <time>2011-11-06T13:14:28Z</time>
      </trkpt>
      <trkpt lat="45.70492" lon="4.67841">
        <ele>352</ele>
        <time>2011-11-06T13:14:29Z</time>
      </trkpt>
      <trkpt lat="45.70492" lon="4.67834">
        <ele>351</ele>
        <time>2011-11-06T13:14:30Z</time>
      </trkpt>
      <trkpt lat="45.70491" lon="4.67826">
        <ele>351</ele>
        <time>2011-11-06T13:14:31Z</time>
      </trkpt>
      <trkpt lat="45.7049" lon="4.67819">
        <ele>351</ele>
        <time>2011-11-06T13:14:32Z</time>
      </trkpt>
      <trkpt lat="45.7048" lon="4.6775">
        <ele>349</ele>
        <time>2011-11-06T13:14:40Z</time>
      </trkpt>
      <trkpt lat="45.70476" lon="4.67721">
        <ele>346</ele>
        <time>2011-11-06T13:14:43Z</time>
      </trkpt>
      <trkpt lat="45.70476" lon="4.67713">
        <ele>346</ele>
        <time>2011-11-06T13:14:44Z</time>
      </trkpt>
      <trkpt lat="45.70479" lon="4.67705">
        <ele>345</ele>
        <time>2011-11-06T13:14:45Z</time>
      </trkpt>
      <trkpt lat="45.70482" lon="4.67699">
        <ele>346</ele>
        <time>2011-11-06T13:14:46Z</time>
      </trkpt>
      <trkpt lat="45.70486" lon="4.67697">
        <ele>346</ele>
        <time>2011-11-06T13:14:47Z</time>
      </trkpt>
      <trkpt lat="45.7049" lon="4.67696">
        <ele>346</ele>
        <time>2011-11-06T13:14:48Z</time>
      </trkpt>
      <trkpt lat="45.70493" lon="4.67694">
        <ele>346</ele>
        <time>2011-11-06T13:14:49Z</time>
      </trkpt>
      <trkpt lat="45.70507" lon="4.67697">
        <ele>348</ele>
        <time>2011-11-06T13:14:55Z</time>
      </trkpt>
      <trkpt lat="45.70509" lon="4.67698">
        <ele>348</ele>
        <time>2011-11-06T13:14:56Z</time>
      </trkpt>
      <trkpt lat="45.7051" lon="4.67699">
        <ele>348</ele>
        <time>2011-11-06T13:14:57Z</time>
      </trkpt>
      <trkpt lat="45.70524" lon="4.67711">
        <ele>351</ele>
        <time>2011-11-06T13:15:06Z</time>
      </trkpt>
      <trkpt lat="45.70535" lon="4.67721">
        <ele>351</ele>
        <time>2011-11-06T13:15:14Z</time>
      </trkpt>
      <trkpt lat="45.70541" lon="4.67726">
        <ele>353</ele>
        <time>2011-11-06T13:15:20Z</time>
      </trkpt>
      <trkpt lat="45.70549" lon="4.67731">
        <ele>355</ele>
        <time>2011-11-06T13:15:26Z</time>
      </trkpt>
      <trkpt lat="45.70559" lon="4.67735">
        <ele>357</ele>
        <time>2011-11-06T13:15:33Z</time>
      </trkpt>
      <trkpt lat="45.70569" lon="4.6774">
        <ele>358</ele>
        <time>2011-11-06T13:15:40Z</time>
      </trkpt>
      <trkpt lat="45.70578" lon="4.67746">
        <ele>359</ele>
        <time>2011-11-06T13:15:47Z</time>
      </trkpt>
      <trkpt lat="45.7059" lon="4.67754">
        <ele>360</ele>
        <time>2011-11-06T13:15:53Z</time>
      </trkpt>
      <trkpt lat="45.70605" lon="4.67765">
        <ele>361</ele>
        <time>2011-11-06T13:16:01Z</time>
      </trkpt>
      <trkpt lat="45.70618" lon="4.67776">
        <ele>361</ele>
        <time>2011-11-06T13:16:09Z</time>
      </trkpt>
      <trkpt lat="45.70634" lon="4.67793">
        <ele>360</ele>
        <time>2011-11-06T13:16:15Z</time>
      </trkpt>
      <trkpt lat="45.70637" lon="4.67797">
        <ele>360</ele>
        <time>2011-11-06T13:16:16Z</time>
      </trkpt>
      <trkpt lat="45.7066" lon="4.67823">
        <ele>357</ele>
        <time>2011-11-06T13:16:21Z</time>
      </trkpt>
      <trkpt lat="45.70671" lon="4.67834">
        <ele>357</ele>
        <time>2011-11-06T13:16:23Z</time>
      </trkpt>
      <trkpt lat="45.70677" lon="4.67838">
        <ele>356</ele>
        <time>2011-11-06T13:16:24Z</time>
      </trkpt>
      <trkpt lat="45.70683" lon="4.67841">
        <ele>357</ele>
        <time>2011-11-06T13:16:25Z</time>
      </trkpt>
      <trkpt lat="45.70688" lon="4.67844">
        <ele>356</ele>
        <time>2011-11-06T13:16:26Z</time>
      </trkpt>
      <trkpt lat="45.70694" lon="4.67847">
        <ele>356</ele>
        <time>2011-11-06T13:16:27Z</time>
      </trkpt>
      <trkpt lat="45.70712" lon="4.67853">
        <ele>356</ele>
        <time>2011-11-06T13:16:31Z</time>
      </trkpt>
      <trkpt lat="45.70717" lon="4.67855">
        <ele>356</ele>
        <time>2011-11-06T13:16:32Z</time>
      </trkpt>
      <trkpt lat="45.70751" lon="4.67861">
        <ele>357</ele>
        <time>2011-11-06T13:16:40Z</time>
      </trkpt>
      <trkpt lat="45.70773" lon="4.67864">
        <ele>356</ele>
        <time>2011-11-06T13:16:45Z</time>
      </trkpt>
      <trkpt lat="45.70791" lon="4.67864">
        <ele>355</ele>
        <time>2011-11-06T13:16:49Z</time>
      </trkpt>
      <trkpt lat="45.70796" lon="4.67865">
        <ele>355</ele>
        <time>2011-11-06T13:16:50Z</time>
      </trkpt>
      <trkpt lat="45.70818" lon="4.67866">
        <ele>354</ele>
        <time>2011-11-06T13:16:55Z</time>
      </trkpt>
      <trkpt lat="45.70832" lon="4.67865">
        <ele>354</ele>
        <time>2011-11-06T13:16:58Z</time>
      </trkpt>
      <trkpt lat="45.70836" lon="4.67866">
        <ele>354</ele>
        <time>2011-11-06T13:16:59Z</time>
      </trkpt>
      <trkpt lat="45.70878" lon="4.67866">
        <ele>351</ele>
        <time>2011-11-06T13:17:07Z</time>
      </trkpt>
      <trkpt lat="45.709" lon="4.67871">
        <ele>351</ele>
        <time>2011-11-06T13:17:11Z</time>
      </trkpt>
      <trkpt lat="45.70935" lon="4.67889">
        <ele>350</ele>
        <time>2011-11-06T13:17:18Z</time>
      </trkpt>
      <trkpt lat="45.7094" lon="4.6789">
        <ele>350</ele>
        <time>2011-11-06T13:17:19Z</time>
      </trkpt>
      <trkpt lat="45.70969" lon="4.67889">
        <ele>351</ele>
        <time>2011-11-06T13:17:26Z</time>
      </trkpt>
      <trkpt lat="45.70991" lon="4.67883">
        <ele>352</ele>
        <time>2011-11-06T13:17:33Z</time>
      </trkpt>
      <trkpt lat="45.71008" lon="4.67877">
        <ele>353</ele>
        <time>2011-11-06T13:17:40Z</time>
      </trkpt>
      <trkpt lat="45.71008" lon="4.67873">
        <ele>354</ele>
        <time>2011-11-06T13:17:41Z</time>
      </trkpt>
      <trkpt lat="45.71007" lon="4.6787">
        <ele>354</ele>
        <time>2011-11-06T13:17:42Z</time>
      </trkpt>
      <trkpt lat="45.71007" lon="4.67866">
        <ele>354</ele>
        <time>2011-11-06T13:17:43Z</time>
      </trkpt>
      <trkpt lat="45.71006" lon="4.67862">
        <ele>354</ele>
        <time>2011-11-06T13:17:44Z</time>
      </trkpt>
      <trkpt lat="45.71004" lon="4.67828">
        <ele>356</ele>
        <time>2011-11-06T13:17:53Z</time>
      </trkpt>
      <trkpt lat="45.71003" lon="4.67795">
        <ele>357</ele>
        <time>2011-11-06T13:18:02Z</time>
      </trkpt>
      <trkpt lat="45.71005" lon="4.67762">
        <ele>359</ele>
        <time>2011-11-06T13:18:12Z</time>
      </trkpt>
      <trkpt lat="45.70996" lon="4.67729">
        <ele>361</ele>
        <time>2011-11-06T13:18:22Z</time>
      </trkpt>
      <trkpt lat="45.7099" lon="4.67695">
        <ele>362</ele>
        <time>2011-11-06T13:18:32Z</time>
      </trkpt>
      <trkpt lat="45.70986" lon="4.67678">
        <ele>363</ele>
        <time>2011-11-06T13:18:37Z</time>
      </trkpt>
      <trkpt lat="45.70985" lon="4.67674">
        <ele>363</ele>
        <time>2011-11-06T13:18:38Z</time>
      </trkpt>
      <trkpt lat="45.70984" lon="4.67671">
        <ele>363</ele>
        <time>2011-11-06T13:18:39Z</time>
      </trkpt>
      <trkpt lat="45.70983" lon="4.67667">
        <ele>364</ele>
        <time>2011-11-06T13:18:40Z</time>
      </trkpt>
      <trkpt lat="45.70983" lon="4.67664">
        <ele>364</ele>
        <time>2011-11-06T13:18:41Z</time>
      </trkpt>
      <trkpt lat="45.70976" lon="4.67642">
        <ele>365</ele>
        <time>2011-11-06T13:18:48Z</time>
      </trkpt>
      <trkpt lat="45.70975" lon="4.67636">
        <ele>366</ele>
        <time>2011-11-06T13:18:50Z</time>
      </trkpt>
      <trkpt lat="45.70971" lon="4.67614">
        <ele>367</ele>
        <time>2011-11-06T13:18:58Z</time>
      </trkpt>
      <trkpt lat="45.70967" lon="4.67586">
        <ele>369</ele>
        <time>2011-11-06T13:19:08Z</time>
      </trkpt>
      <trkpt lat="45.7096" lon="4.67554">
        <ele>371</ele>
        <time>2011-11-06T13:19:19Z</time>
      </trkpt>
      <trkpt lat="45.70956" lon="4.67534">
        <ele>373</ele>
        <time>2011-11-06T13:19:26Z</time>
      </trkpt>
      <trkpt lat="45.70953" lon="4.67509">
        <ele>374</ele>
        <time>2011-11-06T13:19:35Z</time>
      </trkpt>
      <trkpt lat="45.70957" lon="4.67486">
        <ele>375</ele>
        <time>2011-11-06T13:19:43Z</time>
      </trkpt>
      <trkpt lat="45.7096" lon="4.67463">
        <ele>376</ele>
        <time>2011-11-06T13:19:50Z</time>
      </trkpt>
      <trkpt lat="45.70961" lon="4.67437">
        <ele>375</ele>
        <time>2011-11-06T13:19:57Z</time>
      </trkpt>
      <trkpt lat="45.70962" lon="4.67411">
        <ele>374</ele>
        <time>2011-11-06T13:20:02Z</time>
      </trkpt>
      <trkpt lat="45.70962" lon="4.67392">
        <ele>374</ele>
        <time>2011-11-06T13:20:05Z</time>
      </trkpt>
      <trkpt lat="45.70961" lon="4.67386">
        <ele>373</ele>
        <time>2011-11-06T13:20:06Z</time>
      </trkpt>
      <trkpt lat="45.7096" lon="4.67379">
        <ele>373</ele>
        <time>2011-11-06T13:20:07Z</time>
      </trkpt>
      <trkpt lat="45.70956" lon="4.67367">
        <ele>373</ele>
        <time>2011-11-06T13:20:09Z</time>
      </trkpt>
      <trkpt lat="45.70953" lon="4.67362">
        <ele>373</ele>
        <time>2011-11-06T13:20:10Z</time>
      </trkpt>
      <trkpt lat="45.70951" lon="4.67356">
        <ele>372</ele>
        <time>2011-11-06T13:20:11Z</time>
      </trkpt>
      <trkpt lat="45.70931" lon="4.67318">
        <ele>373</ele>
        <time>2011-11-06T13:20:19Z</time>
      </trkpt>
      <trkpt lat="45.70915" lon="4.67282">
        <ele>374</ele>
        <time>2011-11-06T13:20:27Z</time>
      </trkpt>
      <trkpt lat="45.70907" lon="4.67257">
        <ele>376</ele>
        <time>2011-11-06T13:20:33Z</time>
      </trkpt>
      <trkpt lat="45.70903" lon="4.67225">
        <ele>376</ele>
        <time>2011-11-06T13:20:40Z</time>
      </trkpt>
      <trkpt lat="45.70899" lon="4.67182">
        <ele>375</ele>
        <time>2011-11-06T13:20:49Z</time>
      </trkpt>
      <trkpt lat="45.70901" lon="4.67177">
        <ele>375</ele>
        <time>2011-11-06T13:20:50Z</time>
      </trkpt>
      <trkpt lat="45.70905" lon="4.67175">
        <ele>375</ele>
        <time>2011-11-06T13:20:51Z</time>
      </trkpt>
      <trkpt lat="45.70943" lon="4.6716">
        <ele>373</ele>
        <time>2011-11-06T13:20:59Z</time>
      </trkpt>
      <trkpt lat="45.7097" lon="4.67149">
        <ele>371</ele>
        <time>2011-11-06T13:21:04Z</time>
      </trkpt>
      <trkpt lat="45.70974" lon="4.67147">
        <ele>370</ele>
        <time>2011-11-06T13:21:05Z</time>
      </trkpt>
      <trkpt lat="45.70977" lon="4.67144">
        <ele>370</ele>
        <time>2011-11-06T13:21:06Z</time>
      </trkpt>
      <trkpt lat="45.70979" lon="4.67141">
        <ele>370</ele>
        <time>2011-11-06T13:21:07Z</time>
      </trkpt>
      <trkpt lat="45.70978" lon="4.67137">
        <ele>370</ele>
        <time>2011-11-06T13:21:08Z</time>
      </trkpt>
      <trkpt lat="45.70977" lon="4.67134">
        <ele>370</ele>
        <time>2011-11-06T13:21:09Z</time>
      </trkpt>
      <trkpt lat="45.70976" lon="4.67131">
        <ele>370</ele>
        <time>2011-11-06T13:21:10Z</time>
      </trkpt>
      <trkpt lat="45.70975" lon="4.67129">
        <ele>370</ele>
        <time>2011-11-06T13:21:11Z</time>
      </trkpt>
      <trkpt lat="45.70974" lon="4.67126">
        <ele>371</ele>
        <time>2011-11-06T13:21:12Z</time>
      </trkpt>
      <trkpt lat="45.70972" lon="4.67124">
        <ele>371</ele>
        <time>2011-11-06T13:21:13Z</time>
      </trkpt>
      <trkpt lat="45.70971" lon="4.67121">
        <ele>371</ele>
        <time>2011-11-06T13:21:14Z</time>
      </trkpt>
      <trkpt lat="45.7097" lon="4.67118">
        <ele>371</ele>
        <time>2011-11-06T13:21:15Z</time>
      </trkpt>
      <trkpt lat="45.70968" lon="4.67114">
        <ele>372</ele>
        <time>2011-11-06T13:21:17Z</time>
      </trkpt>
      <trkpt lat="45.70968" lon="4.67112">
        <ele>372</ele>
        <time>2011-11-06T13:21:18Z</time>
      </trkpt>
      <trkpt lat="45.70967" lon="4.6711">
        <ele>372</ele>
        <time>2011-11-06T13:21:19Z</time>
      </trkpt>
      <trkpt lat="45.7096" lon="4.67096">
        <ele>373</ele>
        <time>2011-11-06T13:21:25Z</time>
      </trkpt>
      <trkpt lat="45.70956" lon="4.67085">
        <ele>375</ele>
        <time>2011-11-06T13:21:30Z</time>
      </trkpt>
      <trkpt lat="45.7095" lon="4.67073">
        <ele>376</ele>
        <time>2011-11-06T13:21:36Z</time>
      </trkpt>
      <trkpt lat="45.70945" lon="4.67061">
        <ele>377</ele>
        <time>2011-11-06T13:21:43Z</time>
      </trkpt>
      <trkpt lat="45.7094" lon="4.67052">
        <ele>378</ele>
        <time>2011-11-06T13:21:48Z</time>
      </trkpt>
      <trkpt lat="45.70939" lon="4.6705">
        <ele>378</ele>
        <time>2011-11-06T13:21:49Z</time>
      </trkpt>
      <trkpt lat="45.70938" lon="4.67048">
        <ele>378</ele>
        <time>2011-11-06T13:21:50Z</time>
      </trkpt>
      <trkpt lat="45.70933" lon="4.67034">
        <ele>380</ele>
        <time>2011-11-06T13:21:58Z</time>
      </trkpt>
      <trkpt lat="45.70932" lon="4.67032">
        <ele>380</ele>
        <time>2011-11-06T13:21:59Z</time>
      </trkpt>
      <trkpt lat="45.70931" lon="4.67029">
        <ele>380</ele>
        <time>2011-11-06T13:22:00Z</time>
      </trkpt>
      <trkpt lat="45.7093" lon="4.67027">
        <ele>381</ele>
        <time>2011-11-06T13:22:01Z</time>
      </trkpt>
      <trkpt lat="45.70929" lon="4.67024">
        <ele>381</ele>
        <time>2011-11-06T13:22:03Z</time>
      </trkpt>
      <trkpt lat="45.70928" lon="4.67021">
        <ele>381</ele>
        <time>2011-11-06T13:22:04Z</time>
      </trkpt>
      <trkpt lat="45.70927" lon="4.6702">
        <ele>381</ele>
        <time>2011-11-06T13:22:05Z</time>
      </trkpt>
      <trkpt lat="45.70926" lon="4.67017">
        <ele>381</ele>
        <time>2011-11-06T13:22:06Z</time>
      </trkpt>
      <trkpt lat="45.70926" lon="4.67015">
        <ele>381</ele>
        <time>2011-11-06T13:22:07Z</time>
      </trkpt>
      <trkpt lat="45.70925" lon="4.67013">
        <ele>381</ele>
        <time>2011-11-06T13:22:08Z</time>
      </trkpt>
      <trkpt lat="45.70924" lon="4.67011">
        <ele>382</ele>
        <time>2011-11-06T13:22:09Z</time>
      </trkpt>
      <trkpt lat="45.70923" lon="4.67008">
        <ele>382</ele>
        <time>2011-11-06T13:22:10Z</time>
      </trkpt>
      <trkpt lat="45.70923" lon="4.67005">
        <ele>382</ele>
        <time>2011-11-06T13:22:11Z</time>
      </trkpt>
      <trkpt lat="45.70922" lon="4.67002">
        <ele>383</ele>
        <time>2011-11-06T13:22:12Z</time>
      </trkpt>
      <trkpt lat="45.70922" lon="4.67">
        <ele>383</ele>
        <time>2011-11-06T13:22:13Z</time>
      </trkpt>
      <trkpt lat="45.70921" lon="4.66997">
        <ele>383</ele>
        <time>2011-11-06T13:22:14Z</time>
      </trkpt>
      <trkpt lat="45.7092" lon="4.66995">
        <ele>383</ele>
        <time>2011-11-06T13:22:15Z</time>
      </trkpt>
      <trkpt lat="45.7092" lon="4.66992">
        <ele>383</ele>
        <time>2011-11-06T13:22:16Z</time>
      </trkpt>
      <trkpt lat="45.70916" lon="4.6698">
        <ele>384</ele>
        <time>2011-11-06T13:22:22Z</time>
      </trkpt>
      <trkpt lat="45.70913" lon="4.66966">
        <ele>385</ele>
        <time>2011-11-06T13:22:29Z</time>
      </trkpt>
      <trkpt lat="45.70909" lon="4.66955">
        <ele>386</ele>
        <time>2011-11-06T13:22:35Z</time>
      </trkpt>
      <trkpt lat="45.70909" lon="4.66953">
        <ele>386</ele>
        <time>2011-11-06T13:22:36Z</time>
      </trkpt>
      <trkpt lat="45.70904" lon="4.66937">
        <ele>388</ele>
        <time>2011-11-06T13:22:43Z</time>
      </trkpt>
      <trkpt lat="45.70904" lon="4.66933">
        <ele>388</ele>
        <time>2011-11-06T13:22:45Z</time>
      </trkpt>
      <trkpt lat="45.70903" lon="4.66931">
        <ele>388</ele>
        <time>2011-11-06T13:22:46Z</time>
      </trkpt>
      <trkpt lat="45.70903" lon="4.66929">
        <ele>388</ele>
        <time>2011-11-06T13:22:47Z</time>
      </trkpt>
      <trkpt lat="45.70902" lon="4.66926">
        <ele>388</ele>
        <time>2011-11-06T13:22:48Z</time>
      </trkpt>
      <trkpt lat="45.70901" lon="4.66924">
        <ele>388</ele>
        <time>2011-11-06T13:22:49Z</time>
      </trkpt>
      <trkpt lat="45.70901" lon="4.66922">
        <ele>388</ele>
        <time>2011-11-06T13:22:50Z</time>
      </trkpt>
      <trkpt lat="45.70897" lon="4.66903">
        <ele>389</ele>
        <time>2011-11-06T13:22:57Z</time>
      </trkpt>
      <trkpt lat="45.70893" lon="4.66884">
        <ele>391</ele>
        <time>2011-11-06T13:23:05Z</time>
      </trkpt>
      <trkpt lat="45.70887" lon="4.66864">
        <ele>392</ele>
        <time>2011-11-06T13:23:14Z</time>
      </trkpt>
      <trkpt lat="45.70881" lon="4.66848">
        <ele>394</ele>
        <time>2011-11-06T13:23:22Z</time>
      </trkpt>
      <trkpt lat="45.70873" lon="4.66836">
        <ele>394</ele>
        <time>2011-11-06T13:23:29Z</time>
      </trkpt>
      <trkpt lat="45.70864" lon="4.66828">
        <ele>395</ele>
        <time>2011-11-06T13:23:36Z</time>
      </trkpt>
      <trkpt lat="45.70857" lon="4.66822">
        <ele>396</ele>
        <time>2011-11-06T13:23:41Z</time>
      </trkpt>
      <trkpt lat="45.70855" lon="4.66821">
        <ele>396</ele>
        <time>2011-11-06T13:23:42Z</time>
      </trkpt>
      <trkpt lat="45.70845" lon="4.66817">
        <ele>397</ele>
        <time>2011-11-06T13:23:48Z</time>
      </trkpt>
      <trkpt lat="45.70843" lon="4.66816">
        <ele>397</ele>
        <time>2011-11-06T13:23:49Z</time>
      </trkpt>
      <trkpt lat="45.70842" lon="4.66815">
        <ele>398</ele>
        <time>2011-11-06T13:23:50Z</time>
      </trkpt>
      <trkpt lat="45.70831" lon="4.66808">
        <ele>399</ele>
        <time>2011-11-06T13:23:57Z</time>
      </trkpt>
      <trkpt lat="45.7083" lon="4.66807">
        <ele>399</ele>
        <time>2011-11-06T13:23:58Z</time>
      </trkpt>
      <trkpt lat="45.7083" lon="4.66805">
        <ele>399</ele>
        <time>2011-11-06T13:23:59Z</time>
      </trkpt>
      <trkpt lat="45.70828" lon="4.66804">
        <ele>399</ele>
        <time>2011-11-06T13:24:00Z</time>
      </trkpt>
      <trkpt lat="45.70827" lon="4.66803">
        <ele>400</ele>
        <time>2011-11-06T13:24:01Z</time>
      </trkpt>
      <trkpt lat="45.70816" lon="4.66797">
        <ele>401</ele>
        <time>2011-11-06T13:24:08Z</time>
      </trkpt>
      <trkpt lat="45.70815" lon="4.66795">
        <ele>401</ele>
        <time>2011-11-06T13:24:09Z</time>
      </trkpt>
      <trkpt lat="45.70819" lon="4.66789">
        <ele>402</ele>
        <time>2011-11-06T13:24:13Z</time>
      </trkpt>
      <trkpt lat="45.70833" lon="4.66782">
        <ele>403</ele>
        <time>2011-11-06T13:24:21Z</time>
      </trkpt>
      <trkpt lat="45.70846" lon="4.66771">
        <ele>403</ele>
        <time>2011-11-06T13:24:28Z</time>
      </trkpt>
      <trkpt lat="45.70865" lon="4.66755">
        <ele>404</ele>
        <time>2011-11-06T13:24:37Z</time>
      </trkpt>
      <trkpt lat="45.70879" lon="4.66741">
        <ele>404</ele>
        <time>2011-11-06T13:24:44Z</time>
      </trkpt>
      <trkpt lat="45.70897" lon="4.66727">
        <ele>405</ele>
        <time>2011-11-06T13:24:52Z</time>
      </trkpt>
      <trkpt lat="45.70914" lon="4.66716">
        <ele>405</ele>
        <time>2011-11-06T13:25:00Z</time>
      </trkpt>
      <trkpt lat="45.70929" lon="4.66705">
        <ele>406</ele>
        <time>2011-11-06T13:25:07Z</time>
      </trkpt>
      <trkpt lat="45.70947" lon="4.66693">
        <ele>406</ele>
        <time>2011-11-06T13:25:15Z</time>
      </trkpt>
      <trkpt lat="45.70963" lon="4.66682">
        <ele>407</ele>
        <time>2011-11-06T13:25:23Z</time>
      </trkpt>
      <trkpt lat="45.7098" lon="4.66671">
        <ele>408</ele>
        <time>2011-11-06T13:25:32Z</time>
      </trkpt>
      <trkpt lat="45.70987" lon="4.66667">
        <ele>409</ele>
        <time>2011-11-06T13:25:39Z</time>
      </trkpt>
      <trkpt lat="45.70991" lon="4.66663">
        <ele>409</ele>
        <time>2011-11-06T13:25:45Z</time>
      </trkpt>
      <trkpt lat="45.70991" lon="4.66663">
        <ele>408</ele>
        <time>2011-11-06T13:26:01Z</time>
      </trkpt>
      <trkpt lat="45.70995" lon="4.66663">
        <ele>409</ele>
        <time>2011-11-06T13:26:14Z</time>
      </trkpt>
      <trkpt lat="45.7101" lon="4.66667">
        <ele>409</ele>
        <time>2011-11-06T13:26:20Z</time>
      </trkpt>
      <trkpt lat="45.71024" lon="4.66664">
        <ele>409</ele>
        <time>2011-11-06T13:26:26Z</time>
      </trkpt>
      <trkpt lat="45.71036" lon="4.66652">
        <ele>411</ele>
        <time>2011-11-06T13:26:33Z</time>
      </trkpt>
      <trkpt lat="45.71048" lon="4.66646">
        <ele>413</ele>
        <time>2011-11-06T13:26:39Z</time>
      </trkpt>
      <trkpt lat="45.71064" lon="4.66648">
        <ele>414</ele>
        <time>2011-11-06T13:26:46Z</time>
      </trkpt>
      <trkpt lat="45.71077" lon="4.6665">
        <ele>414</ele>
        <time>2011-11-06T13:26:51Z</time>
      </trkpt>
      <trkpt lat="45.71093" lon="4.66653">
        <ele>415</ele>
        <time>2011-11-06T13:26:57Z</time>
      </trkpt>
      <trkpt lat="45.7112" lon="4.66653">
        <ele>416</ele>
        <time>2011-11-06T13:27:07Z</time>
      </trkpt>
      <trkpt lat="45.71143" lon="4.66648">
        <ele>417</ele>
        <time>2011-11-06T13:27:15Z</time>
      </trkpt>
      <trkpt lat="45.71165" lon="4.66638">
        <ele>418</ele>
        <time>2011-11-06T13:27:23Z</time>
      </trkpt>
      <trkpt lat="45.71189" lon="4.66625">
        <ele>419</ele>
        <time>2011-11-06T13:27:32Z</time>
      </trkpt>
      <trkpt lat="45.71209" lon="4.66614">
        <ele>419</ele>
        <time>2011-11-06T13:27:40Z</time>
      </trkpt>
      <trkpt lat="45.71223" lon="4.66605">
        <ele>419</ele>
        <time>2011-11-06T13:27:46Z</time>
      </trkpt>
      <trkpt lat="45.71238" lon="4.66594">
        <ele>420</ele>
        <time>2011-11-06T13:27:52Z</time>
      </trkpt>
      <trkpt lat="45.7124" lon="4.66591">
        <ele>421</ele>
        <time>2011-11-06T13:27:53Z</time>
      </trkpt>
      <trkpt lat="45.71254" lon="4.66584">
        <ele>420</ele>
        <time>2011-11-06T13:27:58Z</time>
      </trkpt>
      <trkpt lat="45.71285" lon="4.66579">
        <ele>420</ele>
        <time>2011-11-06T13:28:07Z</time>
      </trkpt>
      <trkpt lat="45.71317" lon="4.66572">
        <ele>420</ele>
        <time>2011-11-06T13:28:16Z</time>
      </trkpt>
      <trkpt lat="45.71334" lon="4.66568">
        <ele>419</ele>
        <time>2011-11-06T13:28:21Z</time>
      </trkpt>
      <trkpt lat="45.71356" lon="4.66562">
        <ele>419</ele>
        <time>2011-11-06T13:28:28Z</time>
      </trkpt>
      <trkpt lat="45.71379" lon="4.66555">
        <ele>420</ele>
        <time>2011-11-06T13:28:35Z</time>
      </trkpt>
      <trkpt lat="45.71411" lon="4.66538">
        <ele>421</ele>
        <time>2011-11-06T13:28:45Z</time>
      </trkpt>
      <trkpt lat="45.71438" lon="4.66519">
        <ele>422</ele>
        <time>2011-11-06T13:28:54Z</time>
      </trkpt>
      <trkpt lat="45.71464" lon="4.66505">
        <ele>422</ele>
        <time>2011-11-06T13:29:03Z</time>
      </trkpt>
      <trkpt lat="45.7148" lon="4.66494">
        <ele>423</ele>
        <time>2011-11-06T13:29:09Z</time>
      </trkpt>
      <trkpt lat="45.715" lon="4.66477">
        <ele>426</ele>
        <time>2011-11-06T13:29:18Z</time>
      </trkpt>
      <trkpt lat="45.71514" lon="4.66465">
        <ele>426</ele>
        <time>2011-11-06T13:29:25Z</time>
      </trkpt>
      <trkpt lat="45.71529" lon="4.66451">
        <ele>428</ele>
        <time>2011-11-06T13:29:33Z</time>
      </trkpt>
      <trkpt lat="45.71544" lon="4.66437">
        <ele>429</ele>
        <time>2011-11-06T13:29:41Z</time>
      </trkpt>
      <trkpt lat="45.71558" lon="4.66422">
        <ele>430</ele>
        <time>2011-11-06T13:29:49Z</time>
      </trkpt>
      <trkpt lat="45.7157" lon="4.66405">
        <ele>431</ele>
        <time>2011-11-06T13:29:57Z</time>
      </trkpt>
      <trkpt lat="45.71579" lon="4.66391">
        <ele>433</ele>
        <time>2011-11-06T13:30:03Z</time>
      </trkpt>
      <trkpt lat="45.71588" lon="4.66374">
        <ele>434</ele>
        <time>2011-11-06T13:30:10Z</time>
      </trkpt>
      <trkpt lat="45.716" lon="4.66352">
        <ele>435</ele>
        <time>2011-11-06T13:30:19Z</time>
      </trkpt>
      <trkpt lat="45.71612" lon="4.66327">
        <ele>436</ele>
        <time>2011-11-06T13:30:29Z</time>
      </trkpt>
      <trkpt lat="45.71623" lon="4.66307">
        <ele>437</ele>
        <time>2011-11-06T13:30:37Z</time>
      </trkpt>
      <trkpt lat="45.71638" lon="4.66275">
        <ele>438</ele>
        <time>2011-11-06T13:30:48Z</time>
      </trkpt>
      <trkpt lat="45.71649" lon="4.66245">
        <ele>438</ele>
        <time>2011-11-06T13:30:57Z</time>
      </trkpt>
      <trkpt lat="45.71654" lon="4.66213">
        <ele>439</ele>
        <time>2011-11-06T13:31:05Z</time>
      </trkpt>
      <trkpt lat="45.71656" lon="4.66193">
        <ele>438</ele>
        <time>2011-11-06T13:31:10Z</time>
      </trkpt>
      <trkpt lat="45.71653" lon="4.66162">
        <ele>440</ele>
        <time>2011-11-06T13:31:18Z</time>
      </trkpt>
      <trkpt lat="45.71645" lon="4.66121">
        <ele>440</ele>
        <time>2011-11-06T13:31:27Z</time>
      </trkpt>
      <trkpt lat="45.71637" lon="4.66081">
        <ele>440</ele>
        <time>2011-11-06T13:31:35Z</time>
      </trkpt>
      <trkpt lat="45.71624" lon="4.66044">
        <ele>441</ele>
        <time>2011-11-06T13:31:43Z</time>
      </trkpt>
      <trkpt lat="45.71607" lon="4.66005">
        <ele>441</ele>
        <time>2011-11-06T13:31:52Z</time>
      </trkpt>
      <trkpt lat="45.71595" lon="4.65974">
        <ele>442</ele>
        <time>2011-11-06T13:31:59Z</time>
      </trkpt>
      <trkpt lat="45.7158" lon="4.6594">
        <ele>442</ele>
        <time>2011-11-06T13:32:07Z</time>
      </trkpt>
      <trkpt lat="45.71569" lon="4.65901">
        <ele>442</ele>
        <time>2011-11-06T13:32:15Z</time>
      </trkpt>
      <trkpt lat="45.71565" lon="4.6587">
        <ele>444</ele>
        <time>2011-11-06T13:32:22Z</time>
      </trkpt>
      <trkpt lat="45.71557" lon="4.65835">
        <ele>446</ele>
        <time>2011-11-06T13:32:31Z</time>
      </trkpt>
      <trkpt lat="45.71551" lon="4.65809">
        <ele>445</ele>
        <time>2011-11-06T13:32:38Z</time>
      </trkpt>
      <trkpt lat="45.71547" lon="4.65794">
        <ele>444</ele>
        <time>2011-11-06T13:32:41Z</time>
      </trkpt>
      <trkpt lat="45.71538" lon="4.65767">
        <ele>443</ele>
        <time>2011-11-06T13:32:46Z</time>
      </trkpt>
      <trkpt lat="45.71536" lon="4.65762">
        <ele>443</ele>
        <time>2011-11-06T13:32:47Z</time>
      </trkpt>
      <trkpt lat="45.71534" lon="4.65757">
        <ele>442</ele>
        <time>2011-11-06T13:32:48Z</time>
      </trkpt>
      <trkpt lat="45.71515" lon="4.65713">
        <ele>439</ele>
        <time>2011-11-06T13:32:55Z</time>
      </trkpt>
      <trkpt lat="45.71493" lon="4.65682">
        <ele>438</ele>
        <time>2011-11-06T13:32:59Z</time>
      </trkpt>
      <trkpt lat="45.71468" lon="4.65657">
        <ele>438</ele>
        <time>2011-11-06T13:33:04Z</time>
      </trkpt>
      <trkpt lat="45.71459" lon="4.65641">
        <ele>438</ele>
        <time>2011-11-06T13:33:07Z</time>
      </trkpt>
      <trkpt lat="45.71448" lon="4.65614">
        <ele>439</ele>
        <time>2011-11-06T13:33:13Z</time>
      </trkpt>
      <trkpt lat="45.71435" lon="4.65579">
        <ele>440</ele>
        <time>2011-11-06T13:33:21Z</time>
      </trkpt>
      <trkpt lat="45.71421" lon="4.65566">
        <ele>441</ele>
        <time>2011-11-06T13:33:28Z</time>
      </trkpt>
      <trkpt lat="45.7141" lon="4.65554">
        <ele>443</ele>
        <time>2011-11-06T13:33:35Z</time>
      </trkpt>
      <trkpt lat="45.71404" lon="4.65542">
        <ele>445</ele>
        <time>2011-11-06T13:33:42Z</time>
      </trkpt>
      <trkpt lat="45.71402" lon="4.65535">
        <ele>445</ele>
        <time>2011-11-06T13:33:45Z</time>
      </trkpt>
      <trkpt lat="45.71402" lon="4.65533">
        <ele>446</ele>
        <time>2011-11-06T13:33:46Z</time>
      </trkpt>
      <trkpt lat="45.71403" lon="4.65524">
        <ele>447</ele>
        <time>2011-11-06T13:33:50Z</time>
      </trkpt>
      <trkpt lat="45.71404" lon="4.65522">
        <ele>448</ele>
        <time>2011-11-06T13:33:51Z</time>
      </trkpt>
      <trkpt lat="45.71405" lon="4.6552">
        <ele>448</ele>
        <time>2011-11-06T13:33:52Z</time>
      </trkpt>
      <trkpt lat="45.71406" lon="4.65518">
        <ele>448</ele>
        <time>2011-11-06T13:33:53Z</time>
      </trkpt>
      <trkpt lat="45.71408" lon="4.65517">
        <ele>448</ele>
        <time>2011-11-06T13:33:54Z</time>
      </trkpt>
      <trkpt lat="45.71422" lon="4.65505">
        <ele>450</ele>
        <time>2011-11-06T13:34:03Z</time>
      </trkpt>
      <trkpt lat="45.71433" lon="4.65491">
        <ele>450</ele>
        <time>2011-11-06T13:34:10Z</time>
      </trkpt>
      <trkpt lat="45.71435" lon="4.6548">
        <ele>451</ele>
        <time>2011-11-06T13:34:14Z</time>
      </trkpt>
      <trkpt lat="45.71435" lon="4.65477">
        <ele>451</ele>
        <time>2011-11-06T13:34:15Z</time>
      </trkpt>
      <trkpt lat="45.71434" lon="4.65471">
        <ele>451</ele>
        <time>2011-11-06T13:34:17Z</time>
      </trkpt>
      <trkpt lat="45.71435" lon="4.65468">
        <ele>451</ele>
        <time>2011-11-06T13:34:18Z</time>
      </trkpt>
      <trkpt lat="45.71434" lon="4.65465">
        <ele>451</ele>
        <time>2011-11-06T13:34:19Z</time>
      </trkpt>
      <trkpt lat="45.71434" lon="4.65463">
        <ele>452</ele>
        <time>2011-11-06T13:34:20Z</time>
      </trkpt>
      <trkpt lat="45.71434" lon="4.6546">
        <ele>452</ele>
        <time>2011-11-06T13:34:21Z</time>
      </trkpt>
      <trkpt lat="45.71429" lon="4.65441">
        <ele>454</ele>
        <time>2011-11-06T13:34:29Z</time>
      </trkpt>
      <trkpt lat="45.71416" lon="4.65425">
        <ele>455</ele>
        <time>2011-11-06T13:34:38Z</time>
      </trkpt>
      <trkpt lat="45.71406" lon="4.65414">
        <ele>457</ele>
        <time>2011-11-06T13:34:45Z</time>
      </trkpt>
      <trkpt lat="45.71392" lon="4.654">
        <ele>458</ele>
        <time>2011-11-06T13:34:53Z</time>
      </trkpt>
      <trkpt lat="45.71379" lon="4.65385">
        <ele>459</ele>
        <time>2011-11-06T13:35:01Z</time>
      </trkpt>
      <trkpt lat="45.7137" lon="4.65376">
        <ele>459</ele>
        <time>2011-11-06T13:35:06Z</time>
      </trkpt>
      <trkpt lat="45.71368" lon="4.65374">
        <ele>459</ele>
        <time>2011-11-06T13:35:07Z</time>
      </trkpt>
      <trkpt lat="45.71367" lon="4.65372">
        <ele>459</ele>
        <time>2011-11-06T13:35:08Z</time>
      </trkpt>
      <trkpt lat="45.71365" lon="4.6537">
        <ele>459</ele>
        <time>2011-11-06T13:35:09Z</time>
      </trkpt>
      <trkpt lat="45.71364" lon="4.65368">
        <ele>459</ele>
        <time>2011-11-06T13:35:10Z</time>
      </trkpt>
      <trkpt lat="45.71363" lon="4.65366">
        <ele>459</ele>
        <time>2011-11-06T13:35:11Z</time>
      </trkpt>
      <trkpt lat="45.71358" lon="4.65358">
        <ele>460</ele>
        <time>2011-11-06T13:35:15Z</time>
      </trkpt>
      <trkpt lat="45.71359" lon="4.65356">
        <ele>460</ele>
        <time>2011-11-06T13:35:16Z</time>
      </trkpt>
      <trkpt lat="45.71358" lon="4.65354">
        <ele>460</ele>
        <time>2011-11-06T13:35:17Z</time>
      </trkpt>
      <trkpt lat="45.71359" lon="4.65351">
        <ele>459</ele>
        <time>2011-11-06T13:35:18Z</time>
      </trkpt>
      <trkpt lat="45.71359" lon="4.65349">
        <ele>460</ele>
        <time>2011-11-06T13:35:19Z</time>
      </trkpt>
      <trkpt lat="45.71361" lon="4.65346">
        <ele>460</ele>
        <time>2011-11-06T13:35:20Z</time>
      </trkpt>
      <trkpt lat="45.71362" lon="4.65344">
        <ele>460</ele>
        <time>2011-11-06T13:35:21Z</time>
      </trkpt>
      <trkpt lat="45.71364" lon="4.65342">
        <ele>460</ele>
        <time>2011-11-06T13:35:22Z</time>
      </trkpt>
      <trkpt lat="45.71365" lon="4.6534">
        <ele>460</ele>
        <time>2011-11-06T13:35:23Z</time>
      </trkpt>
      <trkpt lat="45.71367" lon="4.65338">
        <ele>460</ele>
        <time>2011-11-06T13:35:24Z</time>
      </trkpt>
      <trkpt lat="45.71369" lon="4.65337">
        <ele>460</ele>
        <time>2011-11-06T13:35:25Z</time>
      </trkpt>
      <trkpt lat="45.71371" lon="4.65335">
        <ele>460</ele>
        <time>2011-11-06T13:35:26Z</time>
      </trkpt>
      <trkpt lat="45.71373" lon="4.65334">
        <ele>460</ele>
        <time>2011-11-06T13:35:27Z</time>
      </trkpt>
      <trkpt lat="45.71375" lon="4.65332">
        <ele>460</ele>
        <time>2011-11-06T13:35:28Z</time>
      </trkpt>
      <trkpt lat="45.71377" lon="4.65331">
        <ele>460</ele>
        <time>2011-11-06T13:35:29Z</time>
      </trkpt>
      <trkpt lat="45.71379" lon="4.6533">
        <ele>460</ele>
        <time>2011-11-06T13:35:30Z</time>
      </trkpt>
      <trkpt lat="45.71386" lon="4.65322">
        <ele>460</ele>
        <time>2011-11-06T13:35:34Z</time>
      </trkpt>
      <trkpt lat="45.71387" lon="4.6532">
        <ele>460</ele>
        <time>2011-11-06T13:35:35Z</time>
      </trkpt>
      <trkpt lat="45.71389" lon="4.65318">
        <ele>460</ele>
        <time>2011-11-06T13:35:36Z</time>
      </trkpt>
      <trkpt lat="45.71391" lon="4.65317">
        <ele>461</ele>
        <time>2011-11-06T13:35:37Z</time>
      </trkpt>
      <trkpt lat="45.71393" lon="4.65314">
        <ele>461</ele>
        <time>2011-11-06T13:35:38Z</time>
      </trkpt>
      <trkpt lat="45.71395" lon="4.65312">
        <ele>461</ele>
        <time>2011-11-06T13:35:39Z</time>
      </trkpt>
      <trkpt lat="45.71396" lon="4.6531">
        <ele>461</ele>
        <time>2011-11-06T13:35:40Z</time>
      </trkpt>
      <trkpt lat="45.71398" lon="4.65308">
        <ele>461</ele>
        <time>2011-11-06T13:35:41Z</time>
      </trkpt>
      <trkpt lat="45.71403" lon="4.65299">
        <ele>463</ele>
        <time>2011-11-06T13:35:45Z</time>
      </trkpt>
      <trkpt lat="45.71404" lon="4.65297">
        <ele>463</ele>
        <time>2011-11-06T13:35:46Z</time>
      </trkpt>
      <trkpt lat="45.71404" lon="4.65295">
        <ele>463</ele>
        <time>2011-11-06T13:35:47Z</time>
      </trkpt>
      <trkpt lat="45.71405" lon="4.65293">
        <ele>463</ele>
        <time>2011-11-06T13:35:48Z</time>
      </trkpt>
      <trkpt lat="45.71407" lon="4.6529">
        <ele>464</ele>
        <time>2011-11-06T13:35:49Z</time>
      </trkpt>
      <trkpt lat="45.71408" lon="4.65287">
        <ele>464</ele>
        <time>2011-11-06T13:35:50Z</time>
      </trkpt>
      <trkpt lat="45.71414" lon="4.65279">
        <ele>464</ele>
        <time>2011-11-06T13:35:54Z</time>
      </trkpt>
      <trkpt lat="45.71423" lon="4.65263">
        <ele>464</ele>
        <time>2011-11-06T13:36:00Z</time>
      </trkpt>
      <trkpt lat="45.71424" lon="4.65261">
        <ele>464</ele>
        <time>2011-11-06T13:36:01Z</time>
      </trkpt>
      <trkpt lat="45.71424" lon="4.65257">
        <ele>464</ele>
        <time>2011-11-06T13:36:02Z</time>
      </trkpt>
      <trkpt lat="45.7143" lon="4.65234">
        <ele>463</ele>
        <time>2011-11-06T13:36:08Z</time>
      </trkpt>
      <trkpt lat="45.71441" lon="4.65222">
        <ele>464</ele>
        <time>2011-11-06T13:36:13Z</time>
      </trkpt>
      <trkpt lat="45.71454" lon="4.65204">
        <ele>464</ele>
        <time>2011-11-06T13:36:19Z</time>
      </trkpt>
      <trkpt lat="45.71456" lon="4.65201">
        <ele>463</ele>
        <time>2011-11-06T13:36:20Z</time>
      </trkpt>
      <trkpt lat="45.71456" lon="4.65181">
        <ele>463</ele>
        <time>2011-11-06T13:36:28Z</time>
      </trkpt>
      <trkpt lat="45.71454" lon="4.65174">
        <ele>463</ele>
        <time>2011-11-06T13:36:34Z</time>
      </trkpt>
      <trkpt lat="45.71454" lon="4.65174">
        <ele>463</ele>
        <time>2011-11-06T13:36:48Z</time>
      </trkpt>
      <trkpt lat="45.71456" lon="4.65167">
        <ele>463</ele>
        <time>2011-11-06T13:36:56Z</time>
      </trkpt>
      <trkpt lat="45.71458" lon="4.65163">
        <ele>462</ele>
        <time>2011-11-06T13:37:00Z</time>
      </trkpt>
      <trkpt lat="45.71469" lon="4.65164">
        <ele>460</ele>
        <time>2011-11-06T13:37:04Z</time>
      </trkpt>
      <trkpt lat="45.71474" lon="4.65163">
        <ele>459</ele>
        <time>2011-11-06T13:37:05Z</time>
      </trkpt>
      <trkpt lat="45.71481" lon="4.65163">
        <ele>458</ele>
        <time>2011-11-06T13:37:06Z</time>
      </trkpt>
      <trkpt lat="45.71489" lon="4.65163">
        <ele>457</ele>
        <time>2011-11-06T13:37:07Z</time>
      </trkpt>
      <trkpt lat="45.71505" lon="4.65163">
        <ele>456</ele>
        <time>2011-11-06T13:37:09Z</time>
      </trkpt>
      <trkpt lat="45.71513" lon="4.6516">
        <ele>457</ele>
        <time>2011-11-06T13:37:10Z</time>
      </trkpt>
      <trkpt lat="45.7152" lon="4.65155">
        <ele>456</ele>
        <time>2011-11-06T13:37:11Z</time>
      </trkpt>
      <trkpt lat="45.71526" lon="4.6515">
        <ele>456</ele>
        <time>2011-11-06T13:37:12Z</time>
      </trkpt>
      <trkpt lat="45.71532" lon="4.65143">
        <ele>456</ele>
        <time>2011-11-06T13:37:13Z</time>
      </trkpt>
      <trkpt lat="45.71536" lon="4.65135">
        <ele>456</ele>
        <time>2011-11-06T13:37:14Z</time>
      </trkpt>
      <trkpt lat="45.71539" lon="4.65129">
        <ele>456</ele>
        <time>2011-11-06T13:37:15Z</time>
      </trkpt>
      <trkpt lat="45.71541" lon="4.65123">
        <ele>456</ele>
        <time>2011-11-06T13:37:16Z</time>
      </trkpt>
      <trkpt lat="45.7155" lon="4.65104">
        <ele>456</ele>
        <time>2011-11-06T13:37:19Z</time>
      </trkpt>
      <trkpt lat="45.71554" lon="4.65098">
        <ele>456</ele>
        <time>2011-11-06T13:37:20Z</time>
      </trkpt>
      <trkpt lat="45.71585" lon="4.65067">
        <ele>452</ele>
        <time>2011-11-06T13:37:25Z</time>
      </trkpt>
      <trkpt lat="45.7161" lon="4.65042">
        <ele>450</ele>
        <time>2011-11-06T13:37:28Z</time>
      </trkpt>
      <trkpt lat="45.71628" lon="4.65021">
        <ele>447</ele>
        <time>2011-11-06T13:37:30Z</time>
      </trkpt>
      <trkpt lat="45.71646" lon="4.6499">
        <ele>445</ele>
        <time>2011-11-06T13:37:32Z</time>
      </trkpt>
      <trkpt lat="45.7165" lon="4.64976">
        <ele>443</ele>
        <time>2011-11-06T13:37:33Z</time>
      </trkpt>
      <trkpt lat="45.71652" lon="4.64963">
        <ele>443</ele>
        <time>2011-11-06T13:37:34Z</time>
      </trkpt>
      <trkpt lat="45.71651" lon="4.64952">
        <ele>443</ele>
        <time>2011-11-06T13:37:35Z</time>
      </trkpt>
      <trkpt lat="45.7165" lon="4.64942">
        <ele>443</ele>
        <time>2011-11-06T13:37:36Z</time>
      </trkpt>
      <trkpt lat="45.71648" lon="4.64926">
        <ele>444</ele>
        <time>2011-11-06T13:37:38Z</time>
      </trkpt>
      <trkpt lat="45.71645" lon="4.64905">
        <ele>444</ele>
        <time>2011-11-06T13:37:41Z</time>
      </trkpt>
      <trkpt lat="45.7164" lon="4.64885">
        <ele>444</ele>
        <time>2011-11-06T13:37:46Z</time>
      </trkpt>
      <trkpt lat="45.71636" lon="4.64855">
        <ele>445</ele>
        <time>2011-11-06T13:37:52Z</time>
      </trkpt>
      <trkpt lat="45.7163" lon="4.64819">
        <ele>444</ele>
        <time>2011-11-06T13:37:58Z</time>
      </trkpt>
      <trkpt lat="45.71613" lon="4.64765">
        <ele>442</ele>
        <time>2011-11-06T13:38:06Z</time>
      </trkpt>
      <trkpt lat="45.71609" lon="4.64757">
        <ele>441</ele>
        <time>2011-11-06T13:38:07Z</time>
      </trkpt>
      <trkpt lat="45.71605" lon="4.64751">
        <ele>441</ele>
        <time>2011-11-06T13:38:08Z</time>
      </trkpt>
      <trkpt lat="45.71592" lon="4.64732">
        <ele>440</ele>
        <time>2011-11-06T13:38:11Z</time>
      </trkpt>
      <trkpt lat="45.71579" lon="4.64714">
        <ele>439</ele>
        <time>2011-11-06T13:38:14Z</time>
      </trkpt>
      <trkpt lat="45.71576" lon="4.64706">
        <ele>438</ele>
        <time>2011-11-06T13:38:15Z</time>
      </trkpt>
      <trkpt lat="45.71574" lon="4.64698">
        <ele>439</ele>
        <time>2011-11-06T13:38:16Z</time>
      </trkpt>
      <trkpt lat="45.71572" lon="4.64689">
        <ele>438</ele>
        <time>2011-11-06T13:38:17Z</time>
      </trkpt>
      <trkpt lat="45.7157" lon="4.64681">
        <ele>439</ele>
        <time>2011-11-06T13:38:18Z</time>
      </trkpt>
      <trkpt lat="45.71569" lon="4.64673">
        <ele>439</ele>
        <time>2011-11-06T13:38:19Z</time>
      </trkpt>
      <trkpt lat="45.71565" lon="4.64659">
        <ele>439</ele>
        <time>2011-11-06T13:38:21Z</time>
      </trkpt>
      <trkpt lat="45.71552" lon="4.64625">
        <ele>438</ele>
        <time>2011-11-06T13:38:26Z</time>
      </trkpt>
      <trkpt lat="45.71545" lon="4.64611">
        <ele>437</ele>
        <time>2011-11-06T13:38:28Z</time>
      </trkpt>
      <trkpt lat="45.71541" lon="4.64605">
        <ele>437</ele>
        <time>2011-11-06T13:38:29Z</time>
      </trkpt>
      <trkpt lat="45.71538" lon="4.64598">
        <ele>437</ele>
        <time>2011-11-06T13:38:30Z</time>
      </trkpt>
      <trkpt lat="45.71529" lon="4.64577">
        <ele>437</ele>
        <time>2011-11-06T13:38:33Z</time>
      </trkpt>
      <trkpt lat="45.71527" lon="4.6457">
        <ele>436</ele>
        <time>2011-11-06T13:38:34Z</time>
      </trkpt>
      <trkpt lat="45.71527" lon="4.64562">
        <ele>436</ele>
        <time>2011-11-06T13:38:35Z</time>
      </trkpt>
      <trkpt lat="45.71528" lon="4.64556">
        <ele>437</ele>
        <time>2011-11-06T13:38:36Z</time>
      </trkpt>
      <trkpt lat="45.71531" lon="4.64551">
        <ele>437</ele>
        <time>2011-11-06T13:38:37Z</time>
      </trkpt>
      <trkpt lat="45.71533" lon="4.64547">
        <ele>437</ele>
        <time>2011-11-06T13:38:38Z</time>
      </trkpt>
      <trkpt lat="45.71536" lon="4.64544">
        <ele>437</ele>
        <time>2011-11-06T13:38:39Z</time>
      </trkpt>
      <trkpt lat="45.71553" lon="4.64529">
        <ele>439</ele>
        <time>2011-11-06T13:38:46Z</time>
      </trkpt>
      <trkpt lat="45.7156" lon="4.64524">
        <ele>440</ele>
        <time>2011-11-06T13:38:50Z</time>
      </trkpt>
      <trkpt lat="45.71571" lon="4.64511">
        <ele>441</ele>
        <time>2011-11-06T13:38:57Z</time>
      </trkpt>
      <trkpt lat="45.71576" lon="4.64509">
        <ele>443</ele>
        <time>2011-11-06T13:39:00Z</time>
      </trkpt>
      <trkpt lat="45.71578" lon="4.6451">
        <ele>443</ele>
        <time>2011-11-06T13:39:01Z</time>
      </trkpt>
      <trkpt lat="45.71584" lon="4.64511">
        <ele>444</ele>
        <time>2011-11-06T13:39:04Z</time>
      </trkpt>
      <trkpt lat="45.71585" lon="4.64512">
        <ele>444</ele>
        <time>2011-11-06T13:39:05Z</time>
      </trkpt>
      <trkpt lat="45.71586" lon="4.64513">
        <ele>444</ele>
        <time>2011-11-06T13:39:06Z</time>
      </trkpt>
      <trkpt lat="45.71588" lon="4.64514">
        <ele>444</ele>
        <time>2011-11-06T13:39:07Z</time>
      </trkpt>
      <trkpt lat="45.71589" lon="4.64515">
        <ele>444</ele>
        <time>2011-11-06T13:39:08Z</time>
      </trkpt>
      <trkpt lat="45.71591" lon="4.64517">
        <ele>444</ele>
        <time>2011-11-06T13:39:09Z</time>
      </trkpt>
      <trkpt lat="45.71592" lon="4.64518">
        <ele>445</ele>
        <time>2011-11-06T13:39:10Z</time>
      </trkpt>
      <trkpt lat="45.71594" lon="4.64519">
        <ele>445</ele>
        <time>2011-11-06T13:39:11Z</time>
      </trkpt>
      <trkpt lat="45.71595" lon="4.6452">
        <ele>445</ele>
        <time>2011-11-06T13:39:12Z</time>
      </trkpt>
      <trkpt lat="45.71597" lon="4.64521">
        <ele>445</ele>
        <time>2011-11-06T13:39:13Z</time>
      </trkpt>
      <trkpt lat="45.71604" lon="4.64525">
        <ele>447</ele>
        <time>2011-11-06T13:39:18Z</time>
      </trkpt>
      <trkpt lat="45.71605" lon="4.64525">
        <ele>447</ele>
        <time>2011-11-06T13:39:19Z</time>
      </trkpt>
      <trkpt lat="45.71607" lon="4.64524">
        <ele>447</ele>
        <time>2011-11-06T13:39:20Z</time>
      </trkpt>
      <trkpt lat="45.71608" lon="4.64523">
        <ele>447</ele>
        <time>2011-11-06T13:39:21Z</time>
      </trkpt>
      <trkpt lat="45.71618" lon="4.64521">
        <ele>449</ele>
        <time>2011-11-06T13:39:28Z</time>
      </trkpt>
      <trkpt lat="45.7163" lon="4.64521">
        <ele>451</ele>
        <time>2011-11-06T13:39:36Z</time>
      </trkpt>
      <trkpt lat="45.71635" lon="4.64522">
        <ele>451</ele>
        <time>2011-11-06T13:39:39Z</time>
      </trkpt>
      <trkpt lat="45.71637" lon="4.64522">
        <ele>452</ele>
        <time>2011-11-06T13:39:40Z</time>
      </trkpt>
      <trkpt lat="45.71638" lon="4.64522">
        <ele>452</ele>
        <time>2011-11-06T13:39:41Z</time>
      </trkpt>
      <trkpt lat="45.71652" lon="4.64514">
        <ele>453</ele>
        <time>2011-11-06T13:39:50Z</time>
      </trkpt>
      <trkpt lat="45.71656" lon="4.64512">
        <ele>454</ele>
        <time>2011-11-06T13:39:53Z</time>
      </trkpt>
      <trkpt lat="45.71656" lon="4.6451">
        <ele>454</ele>
        <time>2011-11-06T13:39:54Z</time>
      </trkpt>
      <trkpt lat="45.71658" lon="4.64506">
        <ele>454</ele>
        <time>2011-11-06T13:39:56Z</time>
      </trkpt>
      <trkpt lat="45.71657" lon="4.64504">
        <ele>454</ele>
        <time>2011-11-06T13:39:57Z</time>
      </trkpt>
      <trkpt lat="45.71656" lon="4.645">
        <ele>454</ele>
        <time>2011-11-06T13:39:59Z</time>
      </trkpt>
      <trkpt lat="45.71649" lon="4.64486">
        <ele>458</ele>
        <time>2011-11-06T13:40:07Z</time>
      </trkpt>
      <trkpt lat="45.71645" lon="4.64479">
        <ele>460</ele>
        <time>2011-11-06T13:40:13Z</time>
      </trkpt>
      <trkpt lat="45.71642" lon="4.64473">
        <ele>460</ele>
        <time>2011-11-06T13:40:19Z</time>
      </trkpt>
      <trkpt lat="45.71642" lon="4.64473">
        <ele>460</ele>
        <time>2011-11-06T13:40:27Z</time>
      </trkpt>
      <trkpt lat="45.71642" lon="4.64473">
        <ele>460</ele>
        <time>2011-11-06T13:40:35Z</time>
      </trkpt>
      <trkpt lat="45.71642" lon="4.64473">
        <ele>460</ele>
        <time>2011-11-06T13:40:49Z</time>
      </trkpt>
      <trkpt lat="45.71642" lon="4.64472">
        <ele>460</ele>
        <time>2011-11-06T13:41:01Z</time>
      </trkpt>
      <trkpt lat="45.71642" lon="4.64472">
        <ele>460</ele>
        <time>2011-11-06T13:41:10Z</time>
      </trkpt>
      <trkpt lat="45.71648" lon="4.64485">
        <ele>458</ele>
        <time>2011-11-06T13:41:16Z</time>
      </trkpt>
      <trkpt lat="45.71658" lon="4.64502">
        <ele>454</ele>
        <time>2011-11-06T13:41:22Z</time>
      </trkpt>
      <trkpt lat="45.71668" lon="4.64494">
        <ele>453</ele>
        <time>2011-11-06T13:41:27Z</time>
      </trkpt>
      <trkpt lat="45.7168" lon="4.64474">
        <ele>453</ele>
        <time>2011-11-06T13:41:33Z</time>
      </trkpt>
      <trkpt lat="45.71691" lon="4.64448">
        <ele>452</ele>
        <time>2011-11-06T13:41:39Z</time>
      </trkpt>
      <trkpt lat="45.71702" lon="4.64412">
        <ele>450</ele>
        <time>2011-11-06T13:41:44Z</time>
      </trkpt>
      <trkpt lat="45.7171" lon="4.64382">
        <ele>446</ele>
        <time>2011-11-06T13:41:47Z</time>
      </trkpt>
      <trkpt lat="45.71712" lon="4.64371">
        <ele>445</ele>
        <time>2011-11-06T13:41:48Z</time>
      </trkpt>
      <trkpt lat="45.71713" lon="4.6436">
        <ele>443</ele>
        <time>2011-11-06T13:41:49Z</time>
      </trkpt>
      <trkpt lat="45.71714" lon="4.64349">
        <ele>442</ele>
        <time>2011-11-06T13:41:50Z</time>
      </trkpt>
      <trkpt lat="45.71715" lon="4.64337">
        <ele>439</ele>
        <time>2011-11-06T13:41:51Z</time>
      </trkpt>
      <trkpt lat="45.71714" lon="4.64327">
        <ele>438</ele>
        <time>2011-11-06T13:41:52Z</time>
      </trkpt>
      <trkpt lat="45.71711" lon="4.64317">
        <ele>437</ele>
        <time>2011-11-06T13:41:53Z</time>
      </trkpt>
      <trkpt lat="45.71708" lon="4.64307">
        <ele>436</ele>
        <time>2011-11-06T13:41:54Z</time>
      </trkpt>
      <trkpt lat="45.717" lon="4.64285">
        <ele>434</ele>
        <time>2011-11-06T13:41:56Z</time>
      </trkpt>
      <trkpt lat="45.71698" lon="4.64273">
        <ele>434</ele>
        <time>2011-11-06T13:41:57Z</time>
      </trkpt>
      <trkpt lat="45.71697" lon="4.64262">
        <ele>433</ele>
        <time>2011-11-06T13:41:58Z</time>
      </trkpt>
      <trkpt lat="45.71697" lon="4.64251">
        <ele>433</ele>
        <time>2011-11-06T13:41:59Z</time>
      </trkpt>
      <trkpt lat="45.71697" lon="4.6424">
        <ele>432</ele>
        <time>2011-11-06T13:42:00Z</time>
      </trkpt>
      <trkpt lat="45.71697" lon="4.6423">
        <ele>431</ele>
        <time>2011-11-06T13:42:01Z</time>
      </trkpt>
      <trkpt lat="45.71695" lon="4.6422">
        <ele>431</ele>
        <time>2011-11-06T13:42:02Z</time>
      </trkpt>
      <trkpt lat="45.71693" lon="4.6421">
        <ele>430</ele>
        <time>2011-11-06T13:42:03Z</time>
      </trkpt>
      <trkpt lat="45.71689" lon="4.64193">
        <ele>429</ele>
        <time>2011-11-06T13:42:05Z</time>
      </trkpt>
      <trkpt lat="45.71686" lon="4.64185">
        <ele>427</ele>
        <time>2011-11-06T13:42:06Z</time>
      </trkpt>
      <trkpt lat="45.71675" lon="4.64158">
        <ele>424</ele>
        <time>2011-11-06T13:42:09Z</time>
      </trkpt>
      <trkpt lat="45.71673" lon="4.64148">
        <ele>423</ele>
        <time>2011-11-06T13:42:10Z</time>
      </trkpt>
      <trkpt lat="45.71671" lon="4.64137">
        <ele>421</ele>
        <time>2011-11-06T13:42:11Z</time>
      </trkpt>
      <trkpt lat="45.71668" lon="4.64101">
        <ele>417</ele>
        <time>2011-11-06T13:42:14Z</time>
      </trkpt>
      <trkpt lat="45.71663" lon="4.64059">
        <ele>413</ele>
        <time>2011-11-06T13:42:17Z</time>
      </trkpt>
      <trkpt lat="45.71663" lon="4.64031">
        <ele>413</ele>
        <time>2011-11-06T13:42:19Z</time>
      </trkpt>
      <trkpt lat="45.71665" lon="4.64017">
        <ele>412</ele>
        <time>2011-11-06T13:42:20Z</time>
      </trkpt>
      <trkpt lat="45.71669" lon="4.64006">
        <ele>411</ele>
        <time>2011-11-06T13:42:21Z</time>
      </trkpt>
      <trkpt lat="45.71673" lon="4.63996">
        <ele>411</ele>
        <time>2011-11-06T13:42:22Z</time>
      </trkpt>
      <trkpt lat="45.71679" lon="4.63988">
        <ele>410</ele>
        <time>2011-11-06T13:42:23Z</time>
      </trkpt>
      <trkpt lat="45.71686" lon="4.63983">
        <ele>410</ele>
        <time>2011-11-06T13:42:24Z</time>
      </trkpt>
      <trkpt lat="45.71694" lon="4.6398">
        <ele>409</ele>
        <time>2011-11-06T13:42:25Z</time>
      </trkpt>
      <trkpt lat="45.71708" lon="4.63971">
        <ele>407</ele>
        <time>2011-11-06T13:42:27Z</time>
      </trkpt>
      <trkpt lat="45.71713" lon="4.63964">
        <ele>406</ele>
        <time>2011-11-06T13:42:28Z</time>
      </trkpt>
      <trkpt lat="45.71717" lon="4.63956">
        <ele>405</ele>
        <time>2011-11-06T13:42:29Z</time>
      </trkpt>
      <trkpt lat="45.71721" lon="4.63948">
        <ele>405</ele>
        <time>2011-11-06T13:42:30Z</time>
      </trkpt>
      <trkpt lat="45.71724" lon="4.6394">
        <ele>404</ele>
        <time>2011-11-06T13:42:31Z</time>
      </trkpt>
      <trkpt lat="45.71725" lon="4.63931">
        <ele>404</ele>
        <time>2011-11-06T13:42:32Z</time>
      </trkpt>
      <trkpt lat="45.71727" lon="4.63922">
        <ele>404</ele>
        <time>2011-11-06T13:42:33Z</time>
      </trkpt>
      <trkpt lat="45.71729" lon="4.63903">
        <ele>403</ele>
        <time>2011-11-06T13:42:35Z</time>
      </trkpt>
      <trkpt lat="45.71729" lon="4.63893">
        <ele>402</ele>
        <time>2011-11-06T13:42:36Z</time>
      </trkpt>
      <trkpt lat="45.71729" lon="4.63875">
        <ele>401</ele>
        <time>2011-11-06T13:42:38Z</time>
      </trkpt>
      <trkpt lat="45.71728" lon="4.63866">
        <ele>401</ele>
        <time>2011-11-06T13:42:39Z</time>
      </trkpt>
      <trkpt lat="45.71727" lon="4.63857">
        <ele>401</ele>
        <time>2011-11-06T13:42:40Z</time>
      </trkpt>
      <trkpt lat="45.71727" lon="4.63849">
        <ele>401</ele>
        <time>2011-11-06T13:42:41Z</time>
      </trkpt>
      <trkpt lat="45.71726" lon="4.63842">
        <ele>401</ele>
        <time>2011-11-06T13:42:42Z</time>
      </trkpt>
      <trkpt lat="45.71719" lon="4.63788">
        <ele>398</ele>
        <time>2011-11-06T13:42:48Z</time>
      </trkpt>
      <trkpt lat="45.71718" lon="4.6378">
        <ele>397</ele>
        <time>2011-11-06T13:42:49Z</time>
      </trkpt>
      <trkpt lat="45.71712" lon="4.63754">
        <ele>396</ele>
        <time>2011-11-06T13:42:52Z</time>
      </trkpt>
      <trkpt lat="45.71711" lon="4.63743">
        <ele>396</ele>
        <time>2011-11-06T13:42:53Z</time>
      </trkpt>
      <trkpt lat="45.71708" lon="4.63721">
        <ele>392</ele>
        <time>2011-11-06T13:42:55Z</time>
      </trkpt>
      <trkpt lat="45.71707" lon="4.63714">
        <ele>391</ele>
        <time>2011-11-06T13:42:56Z</time>
      </trkpt>
      <trkpt lat="45.71709" lon="4.63711">
        <ele>391</ele>
        <time>2011-11-06T13:42:57Z</time>
      </trkpt>
      <trkpt lat="45.7171" lon="4.63712">
        <ele>391</ele>
        <time>2011-11-06T13:42:58Z</time>
      </trkpt>
      <trkpt lat="45.71713" lon="4.63718">
        <ele>390</ele>
        <time>2011-11-06T13:43:00Z</time>
      </trkpt>
      <trkpt lat="45.71731" lon="4.63748">
        <ele>390</ele>
        <time>2011-11-06T13:43:05Z</time>
      </trkpt>
      <trkpt lat="45.71739" lon="4.63759">
        <ele>390</ele>
        <time>2011-11-06T13:43:07Z</time>
      </trkpt>
      <trkpt lat="45.71742" lon="4.63765">
        <ele>389</ele>
        <time>2011-11-06T13:43:08Z</time>
      </trkpt>
      <trkpt lat="45.71745" lon="4.63772">
        <ele>390</ele>
        <time>2011-11-06T13:43:09Z</time>
      </trkpt>
      <trkpt lat="45.71753" lon="4.63794">
        <ele>388</ele>
        <time>2011-11-06T13:43:12Z</time>
      </trkpt>
      <trkpt lat="45.71754" lon="4.63802">
        <ele>388</ele>
        <time>2011-11-06T13:43:13Z</time>
      </trkpt>
      <trkpt lat="45.71756" lon="4.6381">
        <ele>388</ele>
        <time>2011-11-06T13:43:14Z</time>
      </trkpt>
      <trkpt lat="45.71763" lon="4.63835">
        <ele>385</ele>
        <time>2011-11-06T13:43:17Z</time>
      </trkpt>
      <trkpt lat="45.71766" lon="4.63853">
        <ele>384</ele>
        <time>2011-11-06T13:43:19Z</time>
      </trkpt>
      <trkpt lat="45.71769" lon="4.63862">
        <ele>383</ele>
        <time>2011-11-06T13:43:20Z</time>
      </trkpt>
      <trkpt lat="45.71771" lon="4.63872">
        <ele>382</ele>
        <time>2011-11-06T13:43:21Z</time>
      </trkpt>
      <trkpt lat="45.71773" lon="4.6388">
        <ele>382</ele>
        <time>2011-11-06T13:43:22Z</time>
      </trkpt>
      <trkpt lat="45.71775" lon="4.63889">
        <ele>381</ele>
        <time>2011-11-06T13:43:23Z</time>
      </trkpt>
      <trkpt lat="45.71778" lon="4.63897">
        <ele>379</ele>
        <time>2011-11-06T13:43:24Z</time>
      </trkpt>
      <trkpt lat="45.71785" lon="4.63916">
        <ele>376</ele>
        <time>2011-11-06T13:43:26Z</time>
      </trkpt>
      <trkpt lat="45.718" lon="4.63951">
        <ele>372</ele>
        <time>2011-11-06T13:43:29Z</time>
      </trkpt>
      <trkpt lat="45.71804" lon="4.63959">
        <ele>372</ele>
        <time>2011-11-06T13:43:30Z</time>
      </trkpt>
      <trkpt lat="45.71807" lon="4.63967">
        <ele>370</ele>
        <time>2011-11-06T13:43:31Z</time>
      </trkpt>
      <trkpt lat="45.7181" lon="4.63973">
        <ele>370</ele>
        <time>2011-11-06T13:43:32Z</time>
      </trkpt>
      <trkpt lat="45.71813" lon="4.63975">
        <ele>370</ele>
        <time>2011-11-06T13:43:33Z</time>
      </trkpt>
      <trkpt lat="45.71816" lon="4.63976">
        <ele>370</ele>
        <time>2011-11-06T13:43:34Z</time>
      </trkpt>
      <trkpt lat="45.71818" lon="4.63976">
        <ele>370</ele>
        <time>2011-11-06T13:43:35Z</time>
      </trkpt>
      <trkpt lat="45.71821" lon="4.63974">
        <ele>370</ele>
        <time>2011-11-06T13:43:36Z</time>
      </trkpt>
      <trkpt lat="45.71831" lon="4.63969">
        <ele>369</ele>
        <time>2011-11-06T13:43:39Z</time>
      </trkpt>
      <trkpt lat="45.71858" lon="4.63959">
        <ele>368</ele>
        <time>2011-11-06T13:43:44Z</time>
      </trkpt>
      <trkpt lat="45.71863" lon="4.63957">
        <ele>370</ele>
        <time>2011-11-06T13:43:45Z</time>
      </trkpt>
      <trkpt lat="45.71885" lon="4.63946">
        <ele>371</ele>
        <time>2011-11-06T13:43:51Z</time>
      </trkpt>
      <trkpt lat="45.71886" lon="4.63943">
        <ele>371</ele>
        <time>2011-11-06T13:43:52Z</time>
      </trkpt>
      <trkpt lat="45.71886" lon="4.63939">
        <ele>372</ele>
        <time>2011-11-06T13:43:53Z</time>
      </trkpt>
      <trkpt lat="45.71885" lon="4.63935">
        <ele>371</ele>
        <time>2011-11-06T13:43:54Z</time>
      </trkpt>
      <trkpt lat="45.71883" lon="4.63931">
        <ele>372</ele>
        <time>2011-11-06T13:43:55Z</time>
      </trkpt>
      <trkpt lat="45.71882" lon="4.63927">
        <ele>372</ele>
        <time>2011-11-06T13:43:56Z</time>
      </trkpt>
      <trkpt lat="45.71865" lon="4.63897">
        <ele>372</ele>
        <time>2011-11-06T13:44:04Z</time>
      </trkpt>
      <trkpt lat="45.71849" lon="4.63862">
        <ele>373</ele>
        <time>2011-11-06T13:44:12Z</time>
      </trkpt>
      <trkpt lat="45.71837" lon="4.63823">
        <ele>373</ele>
        <time>2011-11-06T13:44:20Z</time>
      </trkpt>
      <trkpt lat="45.71834" lon="4.6378">
        <ele>374</ele>
        <time>2011-11-06T13:44:28Z</time>
      </trkpt>
      <trkpt lat="45.71833" lon="4.63747">
        <ele>374</ele>
        <time>2011-11-06T13:44:34Z</time>
      </trkpt>
      <trkpt lat="45.71831" lon="4.63714">
        <ele>375</ele>
        <time>2011-11-06T13:44:40Z</time>
      </trkpt>
      <trkpt lat="45.71829" lon="4.63676">
        <ele>375</ele>
        <time>2011-11-06T13:44:47Z</time>
      </trkpt>
      <trkpt lat="45.71826" lon="4.63627">
        <ele>376</ele>
        <time>2011-11-06T13:44:56Z</time>
      </trkpt>
      <trkpt lat="45.7182" lon="4.63589">
        <ele>376</ele>
        <time>2011-11-06T13:45:03Z</time>
      </trkpt>
      <trkpt lat="45.71807" lon="4.63545">
        <ele>377</ele>
        <time>2011-11-06T13:45:12Z</time>
      </trkpt>
      <trkpt lat="45.71796" lon="4.63514">
        <ele>378</ele>
        <time>2011-11-06T13:45:19Z</time>
      </trkpt>
      <trkpt lat="45.71789" lon="4.6348">
        <ele>379</ele>
        <time>2011-11-06T13:45:26Z</time>
      </trkpt>
      <trkpt lat="45.71787" lon="4.63469">
        <ele>378</ele>
        <time>2011-11-06T13:45:28Z</time>
      </trkpt>
      <trkpt lat="45.71786" lon="4.63463">
        <ele>378</ele>
        <time>2011-11-06T13:45:29Z</time>
      </trkpt>
      <trkpt lat="45.71783" lon="4.63428">
        <ele>378</ele>
        <time>2011-11-06T13:45:35Z</time>
      </trkpt>
      <trkpt lat="45.71783" lon="4.63422">
        <ele>379</ele>
        <time>2011-11-06T13:45:36Z</time>
      </trkpt>
      <trkpt lat="45.71793" lon="4.63366">
        <ele>379</ele>
        <time>2011-11-06T13:45:46Z</time>
      </trkpt>
      <trkpt lat="45.71796" lon="4.63317">
        <ele>380</ele>
        <time>2011-11-06T13:45:55Z</time>
      </trkpt>
      <trkpt lat="45.71798" lon="4.63296">
        <ele>380</ele>
        <time>2011-11-06T13:45:59Z</time>
      </trkpt>
      <trkpt lat="45.71799" lon="4.63254">
        <ele>380</ele>
        <time>2011-11-06T13:46:07Z</time>
      </trkpt>
      <trkpt lat="45.71796" lon="4.63216">
        <ele>381</ele>
        <time>2011-11-06T13:46:14Z</time>
      </trkpt>
      <trkpt lat="45.71788" lon="4.63195">
        <ele>382</ele>
        <time>2011-11-06T13:46:20Z</time>
      </trkpt>
      <trkpt lat="45.71771" lon="4.63161">
        <ele>383</ele>
        <time>2011-11-06T13:46:29Z</time>
      </trkpt>
      <trkpt lat="45.71764" lon="4.63134">
        <ele>385</ele>
        <time>2011-11-06T13:46:36Z</time>
      </trkpt>
      <trkpt lat="45.71762" lon="4.63133">
        <ele>385</ele>
        <time>2011-11-06T13:46:37Z</time>
      </trkpt>
      <trkpt lat="45.7176" lon="4.63134">
        <ele>385</ele>
        <time>2011-11-06T13:46:38Z</time>
      </trkpt>
      <trkpt lat="45.71758" lon="4.63135">
        <ele>385</ele>
        <time>2011-11-06T13:46:39Z</time>
      </trkpt>
      <trkpt lat="45.71757" lon="4.63137">
        <ele>385</ele>
        <time>2011-11-06T13:46:40Z</time>
      </trkpt>
      <trkpt lat="45.71756" lon="4.63139">
        <ele>385</ele>
        <time>2011-11-06T13:46:41Z</time>
      </trkpt>
      <trkpt lat="45.71756" lon="4.63141">
        <ele>385</ele>
        <time>2011-11-06T13:46:42Z</time>
      </trkpt>
      <trkpt lat="45.71755" lon="4.63143">
        <ele>385</ele>
        <time>2011-11-06T13:46:43Z</time>
      </trkpt>
      <trkpt lat="45.71755" lon="4.63145">
        <ele>385</ele>
        <time>2011-11-06T13:46:44Z</time>
      </trkpt>
      <trkpt lat="45.71755" lon="4.63147">
        <ele>385</ele>
        <time>2011-11-06T13:46:45Z</time>
      </trkpt>
      <trkpt lat="45.71754" lon="4.63149">
        <ele>385</ele>
        <time>2011-11-06T13:46:46Z</time>
      </trkpt>
      <trkpt lat="45.71754" lon="4.63151">
        <ele>385</ele>
        <time>2011-11-06T13:46:47Z</time>
      </trkpt>
      <trkpt lat="45.71751" lon="4.63165">
        <ele>387</ele>
        <time>2011-11-06T13:46:53Z</time>
      </trkpt>
      <trkpt lat="45.71751" lon="4.63167">
        <ele>387</ele>
        <time>2011-11-06T13:46:54Z</time>
      </trkpt>
      <trkpt lat="45.71746" lon="4.63179">
        <ele>389</ele>
        <time>2011-11-06T13:47:00Z</time>
      </trkpt>
      <trkpt lat="45.71744" lon="4.6318">
        <ele>389</ele>
        <time>2011-11-06T13:47:01Z</time>
      </trkpt>
      <trkpt lat="45.71743" lon="4.6318">
        <ele>389</ele>
        <time>2011-11-06T13:47:02Z</time>
      </trkpt>
      <trkpt lat="45.71742" lon="4.6318">
        <ele>390</ele>
        <time>2011-11-06T13:47:03Z</time>
      </trkpt>
      <trkpt lat="45.71741" lon="4.6318">
        <ele>390</ele>
        <time>2011-11-06T13:47:04Z</time>
      </trkpt>
      <trkpt lat="45.71735" lon="4.63176">
        <ele>393</ele>
        <time>2011-11-06T13:47:10Z</time>
      </trkpt>
      <trkpt lat="45.71734" lon="4.63175">
        <ele>393</ele>
        <time>2011-11-06T13:47:11Z</time>
      </trkpt>
      <trkpt lat="45.71729" lon="4.63172">
        <ele>395</ele>
        <time>2011-11-06T13:47:17Z</time>
      </trkpt>
      <trkpt lat="45.71722" lon="4.63168">
        <ele>398</ele>
        <time>2011-11-06T13:47:23Z</time>
      </trkpt>
      <trkpt lat="45.71718" lon="4.63167">
        <ele>398</ele>
        <time>2011-11-06T13:47:25Z</time>
      </trkpt>
      <trkpt lat="45.71716" lon="4.63165">
        <ele>399</ele>
        <time>2011-11-06T13:47:26Z</time>
      </trkpt>
      <trkpt lat="45.7171" lon="4.63167">
        <ele>400</ele>
        <time>2011-11-06T13:47:31Z</time>
      </trkpt>
      <trkpt lat="45.71708" lon="4.63166">
        <ele>400</ele>
        <time>2011-11-06T13:47:32Z</time>
      </trkpt>
      <trkpt lat="45.71705" lon="4.63166">
        <ele>401</ele>
        <time>2011-11-06T13:47:33Z</time>
      </trkpt>
      <trkpt lat="45.71698" lon="4.63167">
        <ele>401</ele>
        <time>2011-11-06T13:47:40Z</time>
      </trkpt>
      <trkpt lat="45.71698" lon="4.63167">
        <ele>401</ele>
        <time>2011-11-06T13:47:59Z</time>
      </trkpt>
      <trkpt lat="45.71698" lon="4.63167">
        <ele>401</ele>
        <time>2011-11-06T13:48:16Z</time>
      </trkpt>
      <trkpt lat="45.71697" lon="4.63167">
        <ele>401</ele>
        <time>2011-11-06T13:48:33Z</time>
      </trkpt>
      <trkpt lat="45.71697" lon="4.63166">
        <ele>401</ele>
        <time>2011-11-06T13:48:41Z</time>
      </trkpt>
      <trkpt lat="45.71696" lon="4.63166">
        <ele>401</ele>
        <time>2011-11-06T13:48:53Z</time>
      </trkpt>
      <trkpt lat="45.71696" lon="4.63166">
        <ele>401</ele>
        <time>2011-11-06T13:49:19Z</time>
      </trkpt>
      <trkpt lat="45.71696" lon="4.63166">
        <ele>401</ele>
        <time>2011-11-06T13:49:40Z</time>
      </trkpt>
      <trkpt lat="45.71695" lon="4.63167">
        <ele>401</ele>
        <time>2011-11-06T13:49:51Z</time>
      </trkpt>
      <trkpt lat="45.71693" lon="4.63167">
        <ele>401</ele>
        <time>2011-11-06T13:49:58Z</time>
      </trkpt>
      <trkpt lat="45.71692" lon="4.63167">
        <ele>401</ele>
        <time>2011-11-06T13:49:59Z</time>
      </trkpt>
      <trkpt lat="45.7169" lon="4.63167">
        <ele>402</ele>
        <time>2011-11-06T13:50:00Z</time>
      </trkpt>
      <trkpt lat="45.71677" lon="4.63169">
        <ele>403</ele>
        <time>2011-11-06T13:50:08Z</time>
      </trkpt>
      <trkpt lat="45.71666" lon="4.63168">
        <ele>405</ele>
        <time>2011-11-06T13:50:15Z</time>
      </trkpt>
      <trkpt lat="45.71663" lon="4.63167">
        <ele>405</ele>
        <time>2011-11-06T13:50:22Z</time>
      </trkpt>
      <trkpt lat="45.71663" lon="4.63167">
        <ele>406</ele>
        <time>2011-11-06T13:50:46Z</time>
      </trkpt>
      <trkpt lat="45.71662" lon="4.63167">
        <ele>406</ele>
        <time>2011-11-06T13:50:56Z</time>
      </trkpt>
      <trkpt lat="45.71662" lon="4.63167">
        <ele>406</ele>
        <time>2011-11-06T13:51:07Z</time>
      </trkpt>
      <trkpt lat="45.71658" lon="4.63167">
        <ele>406</ele>
        <time>2011-11-06T13:51:16Z</time>
      </trkpt>
      <trkpt lat="45.7165" lon="4.63167">
        <ele>407</ele>
        <time>2011-11-06T13:51:23Z</time>
      </trkpt>
      <trkpt lat="45.7165" lon="4.63168">
        <ele>406</ele>
        <time>2011-11-06T13:51:31Z</time>
      </trkpt>
      <trkpt lat="45.7165" lon="4.63168">
        <ele>407</ele>
        <time>2011-11-06T13:51:46Z</time>
      </trkpt>
      <trkpt lat="45.7165" lon="4.63168">
        <ele>407</ele>
        <time>2011-11-06T13:52:01Z</time>
      </trkpt>
      <trkpt lat="45.7165" lon="4.63168">
        <ele>407</ele>
        <time>2011-11-06T13:52:18Z</time>
      </trkpt>
      <trkpt lat="45.7165" lon="4.63168">
        <ele>407</ele>
        <time>2011-11-06T13:52:34Z</time>
      </trkpt>
      <trkpt lat="45.7165" lon="4.63168">
        <ele>407</ele>
        <time>2011-11-06T13:52:50Z</time>
      </trkpt>
      <trkpt lat="45.71647" lon="4.63167">
        <ele>408</ele>
        <time>2011-11-06T13:52:57Z</time>
      </trkpt>
      <trkpt lat="45.71644" lon="4.63166">
        <ele>408</ele>
        <time>2011-11-06T13:53:03Z</time>
      </trkpt>
      <trkpt lat="45.71644" lon="4.63166">
        <ele>408</ele>
        <time>2011-11-06T13:53:21Z</time>
      </trkpt>
      <trkpt lat="45.71644" lon="4.63166">
        <ele>408</ele>
        <time>2011-11-06T13:53:39Z</time>
      </trkpt>
      <trkpt lat="45.71644" lon="4.63166">
        <ele>408</ele>
        <time>2011-11-06T13:54:01Z</time>
      </trkpt>
      <trkpt lat="45.71644" lon="4.63166">
        <ele>408</ele>
        <time>2011-11-06T13:54:21Z</time>
      </trkpt>
      <trkpt lat="45.71644" lon="4.63166">
        <ele>407</ele>
        <time>2011-11-06T13:54:41Z</time>
      </trkpt>
      <trkpt lat="45.71644" lon="4.63166">
        <ele>407</ele>
        <time>2011-11-06T13:55:03Z</time>
      </trkpt>
      <trkpt lat="45.71644" lon="4.63166">
        <ele>407</ele>
        <time>2011-11-06T13:55:21Z</time>
      </trkpt>
      <trkpt lat="45.71644" lon="4.63166">
        <ele>407</ele>
        <time>2011-11-06T13:55:41Z</time>
      </trkpt>
      <trkpt lat="45.71645" lon="4.63166">
        <ele>407</ele>
        <time>2011-11-06T13:56:01Z</time>
      </trkpt>
      <trkpt lat="45.71645" lon="4.63166">
        <ele>407</ele>
        <time>2011-11-06T13:56:21Z</time>
      </trkpt>
      <trkpt lat="45.71644" lon="4.63166">
        <ele>407</ele>
        <time>2011-11-06T13:56:42Z</time>
      </trkpt>
      <trkpt lat="45.71644" lon="4.63166">
        <ele>406</ele>
        <time>2011-11-06T13:57:01Z</time>
      </trkpt>
      <trkpt lat="45.71645" lon="4.63167">
        <ele>407</ele>
        <time>2011-11-06T13:57:20Z</time>
      </trkpt>
      <trkpt lat="45.71645" lon="4.63167">
        <ele>407</ele>
        <time>2011-11-06T13:57:34Z</time>
      </trkpt>
      <trkpt lat="45.71644" lon="4.63167">
        <ele>407</ele>
        <time>2011-11-06T13:57:54Z</time>
      </trkpt>
      <trkpt lat="45.71644" lon="4.63167">
        <ele>407</ele>
        <time>2011-11-06T13:58:10Z</time>
      </trkpt>
      <trkpt lat="45.71644" lon="4.63166">
        <ele>407</ele>
        <time>2011-11-06T13:58:22Z</time>
      </trkpt>
      <trkpt lat="45.71644" lon="4.63166">
        <ele>407</ele>
        <time>2011-11-06T13:58:24Z</time>
      </trkpt>
      <trkpt lat="45.71642" lon="4.63167">
        <ele>407</ele>
        <time>2011-11-06T13:58:26Z</time>
      </trkpt>
      <trkpt lat="45.7164" lon="4.63167">
        <ele>407</ele>
        <time>2011-11-06T13:58:27Z</time>
      </trkpt>
      <trkpt lat="45.71638" lon="4.63168">
        <ele>408</ele>
        <time>2011-11-06T13:58:28Z</time>
      </trkpt>
      <trkpt lat="45.71621" lon="4.63166">
        <ele>409</ele>
        <time>2011-11-06T13:58:36Z</time>
      </trkpt>
      <trkpt lat="45.71608" lon="4.63162">
        <ele>410</ele>
        <time>2011-11-06T13:58:43Z</time>
      </trkpt>
      <trkpt lat="45.71595" lon="4.63153">
        <ele>413</ele>
        <time>2011-11-06T13:58:52Z</time>
      </trkpt>
      <trkpt lat="45.71583" lon="4.6314">
        <ele>415</ele>
        <time>2011-11-06T13:59:01Z</time>
      </trkpt>
      <trkpt lat="45.71577" lon="4.63132">
        <ele>416</ele>
        <time>2011-11-06T13:59:05Z</time>
      </trkpt>
      <trkpt lat="45.71575" lon="4.63131">
        <ele>416</ele>
        <time>2011-11-06T13:59:06Z</time>
      </trkpt>
      <trkpt lat="45.71558" lon="4.63114">
        <ele>416</ele>
        <time>2011-11-06T13:59:15Z</time>
      </trkpt>
      <trkpt lat="45.71541" lon="4.63096">
        <ele>417</ele>
        <time>2011-11-06T13:59:23Z</time>
      </trkpt>
      <trkpt lat="45.71526" lon="4.63083">
        <ele>417</ele>
        <time>2011-11-06T13:59:30Z</time>
      </trkpt>
      <trkpt lat="45.71521" lon="4.63078">
        <ele>417</ele>
        <time>2011-11-06T13:59:34Z</time>
      </trkpt>
      <trkpt lat="45.71521" lon="4.63075">
        <ele>418</ele>
        <time>2011-11-06T13:59:35Z</time>
      </trkpt>
      <trkpt lat="45.71522" lon="4.63074">
        <ele>418</ele>
        <time>2011-11-06T13:59:36Z</time>
      </trkpt>
      <trkpt lat="45.71523" lon="4.63073">
        <ele>419</ele>
        <time>2011-11-06T13:59:37Z</time>
      </trkpt>
      <trkpt lat="45.71524" lon="4.63072">
        <ele>419</ele>
        <time>2011-11-06T13:59:38Z</time>
      </trkpt>
      <trkpt lat="45.71526" lon="4.63072">
        <ele>420</ele>
        <time>2011-11-06T13:59:39Z</time>
      </trkpt>
      <trkpt lat="45.71528" lon="4.63072">
        <ele>420</ele>
        <time>2011-11-06T13:59:40Z</time>
      </trkpt>
      <trkpt lat="45.7153" lon="4.63072">
        <ele>420</ele>
        <time>2011-11-06T13:59:41Z</time>
      </trkpt>
      <trkpt lat="45.71532" lon="4.63072">
        <ele>420</ele>
        <time>2011-11-06T13:59:42Z</time>
      </trkpt>
      <trkpt lat="45.71533" lon="4.63072">
        <ele>421</ele>
        <time>2011-11-06T13:59:43Z</time>
      </trkpt>
      <trkpt lat="45.71543" lon="4.63072">
        <ele>422</ele>
        <time>2011-11-06T13:59:49Z</time>
      </trkpt>
      <trkpt lat="45.71544" lon="4.63072">
        <ele>423</ele>
        <time>2011-11-06T13:59:50Z</time>
      </trkpt>
      <trkpt lat="45.71546" lon="4.63072">
        <ele>423</ele>
        <time>2011-11-06T13:59:51Z</time>
      </trkpt>
      <trkpt lat="45.71557" lon="4.6307">
        <ele>425</ele>
        <time>2011-11-06T13:59:59Z</time>
      </trkpt>
      <trkpt lat="45.71564" lon="4.63069">
        <ele>427</ele>
        <time>2011-11-06T14:00:04Z</time>
      </trkpt>
      <trkpt lat="45.71565" lon="4.63069">
        <ele>427</ele>
        <time>2011-11-06T14:00:05Z</time>
      </trkpt>
      <trkpt lat="45.71567" lon="4.63069">
        <ele>428</ele>
        <time>2011-11-06T14:00:06Z</time>
      </trkpt>
      <trkpt lat="45.7158" lon="4.63068">
        <ele>429</ele>
        <time>2011-11-06T14:00:14Z</time>
      </trkpt>
      <trkpt lat="45.71585" lon="4.63065">
        <ele>431</ele>
        <time>2011-11-06T14:00:18Z</time>
      </trkpt>
      <trkpt lat="45.71588" lon="4.63065">
        <ele>430</ele>
        <time>2011-11-06T14:00:20Z</time>
      </trkpt>
      <trkpt lat="45.71589" lon="4.63064">
        <ele>431</ele>
        <time>2011-11-06T14:00:21Z</time>
      </trkpt>
      <trkpt lat="45.7159" lon="4.63062">
        <ele>431</ele>
        <time>2011-11-06T14:00:22Z</time>
      </trkpt>
      <trkpt lat="45.71591" lon="4.6306">
        <ele>431</ele>
        <time>2011-11-06T14:00:23Z</time>
      </trkpt>
      <trkpt lat="45.71591" lon="4.63058">
        <ele>431</ele>
        <time>2011-11-06T14:00:24Z</time>
      </trkpt>
      <trkpt lat="45.71591" lon="4.63056">
        <ele>432</ele>
        <time>2011-11-06T14:00:25Z</time>
      </trkpt>
      <trkpt lat="45.7159" lon="4.63054">
        <ele>432</ele>
        <time>2011-11-06T14:00:26Z</time>
      </trkpt>
      <trkpt lat="45.71589" lon="4.63053">
        <ele>432</ele>
        <time>2011-11-06T14:00:27Z</time>
      </trkpt>
      <trkpt lat="45.71588" lon="4.63051">
        <ele>433</ele>
        <time>2011-11-06T14:00:28Z</time>
      </trkpt>
      <trkpt lat="45.71587" lon="4.6305">
        <ele>433</ele>
        <time>2011-11-06T14:00:29Z</time>
      </trkpt>
      <trkpt lat="45.71586" lon="4.63049">
        <ele>433</ele>
        <time>2011-11-06T14:00:30Z</time>
      </trkpt>
      <trkpt lat="45.71585" lon="4.63047">
        <ele>434</ele>
        <time>2011-11-06T14:00:31Z</time>
      </trkpt>
      <trkpt lat="45.71585" lon="4.63046">
        <ele>434</ele>
        <time>2011-11-06T14:00:32Z</time>
      </trkpt>
      <trkpt lat="45.71584" lon="4.63044">
        <ele>434</ele>
        <time>2011-11-06T14:00:33Z</time>
      </trkpt>
      <trkpt lat="45.71575" lon="4.63029">
        <ele>436</ele>
        <time>2011-11-06T14:00:43Z</time>
      </trkpt>
      <trkpt lat="45.71564" lon="4.63015">
        <ele>438</ele>
        <time>2011-11-06T14:00:53Z</time>
      </trkpt>
      <trkpt lat="45.71554" lon="4.63005">
        <ele>441</ele>
        <time>2011-11-06T14:01:02Z</time>
      </trkpt>
      <trkpt lat="45.71549" lon="4.62999">
        <ele>443</ele>
        <time>2011-11-06T14:01:07Z</time>
      </trkpt>
      <trkpt lat="45.7154" lon="4.6299">
        <ele>445</ele>
        <time>2011-11-06T14:01:15Z</time>
      </trkpt>
      <trkpt lat="45.71528" lon="4.6298">
        <ele>447</ele>
        <time>2011-11-06T14:01:25Z</time>
      </trkpt>
      <trkpt lat="45.71517" lon="4.62973">
        <ele>449</ele>
        <time>2011-11-06T14:01:33Z</time>
      </trkpt>
      <trkpt lat="45.71508" lon="4.62968">
        <ele>450</ele>
        <time>2011-11-06T14:01:40Z</time>
      </trkpt>
      <trkpt lat="45.71497" lon="4.62963">
        <ele>451</ele>
        <time>2011-11-06T14:01:48Z</time>
      </trkpt>
      <trkpt lat="45.71488" lon="4.62956">
        <ele>451</ele>
        <time>2011-11-06T14:01:55Z</time>
      </trkpt>
      <trkpt lat="45.71487" lon="4.62955">
        <ele>452</ele>
        <time>2011-11-06T14:01:56Z</time>
      </trkpt>
      <trkpt lat="45.71479" lon="4.6295">
        <ele>452</ele>
        <time>2011-11-06T14:02:05Z</time>
      </trkpt>
      <trkpt lat="45.71477" lon="4.6295">
        <ele>452</ele>
        <time>2011-11-06T14:02:06Z</time>
      </trkpt>
      <trkpt lat="45.71475" lon="4.62949">
        <ele>452</ele>
        <time>2011-11-06T14:02:07Z</time>
      </trkpt>
      <trkpt lat="45.71473" lon="4.62949">
        <ele>452</ele>
        <time>2011-11-06T14:02:08Z</time>
      </trkpt>
      <trkpt lat="45.71446" lon="4.6295">
        <ele>451</ele>
        <time>2011-11-06T14:02:15Z</time>
      </trkpt>
      <trkpt lat="45.71436" lon="4.62951">
        <ele>451</ele>
        <time>2011-11-06T14:02:17Z</time>
      </trkpt>
      <trkpt lat="45.71423" lon="4.62953">
        <ele>451</ele>
        <time>2011-11-06T14:02:20Z</time>
      </trkpt>
      <trkpt lat="45.71419" lon="4.62954">
        <ele>450</ele>
        <time>2011-11-06T14:02:21Z</time>
      </trkpt>
      <trkpt lat="45.71391" lon="4.62965">
        <ele>451</ele>
        <time>2011-11-06T14:02:29Z</time>
      </trkpt>
      <trkpt lat="45.71387" lon="4.62968">
        <ele>451</ele>
        <time>2011-11-06T14:02:30Z</time>
      </trkpt>
      <trkpt lat="45.71384" lon="4.62972">
        <ele>451</ele>
        <time>2011-11-06T14:02:31Z</time>
      </trkpt>
      <trkpt lat="45.71355" lon="4.63011">
        <ele>449</ele>
        <time>2011-11-06T14:02:39Z</time>
      </trkpt>
      <trkpt lat="45.71344" lon="4.63031">
        <ele>450</ele>
        <time>2011-11-06T14:02:45Z</time>
      </trkpt>
      <trkpt lat="45.71335" lon="4.63043">
        <ele>451</ele>
        <time>2011-11-06T14:02:51Z</time>
      </trkpt>
      <trkpt lat="45.71318" lon="4.63049">
        <ele>452</ele>
        <time>2011-11-06T14:02:58Z</time>
      </trkpt>
      <trkpt lat="45.71299" lon="4.63051">
        <ele>455</ele>
        <time>2011-11-06T14:03:06Z</time>
      </trkpt>
      <trkpt lat="45.7128" lon="4.6305">
        <ele>456</ele>
        <time>2011-11-06T14:03:14Z</time>
      </trkpt>
      <trkpt lat="45.71255" lon="4.63042">
        <ele>458</ele>
        <time>2011-11-06T14:03:24Z</time>
      </trkpt>
      <trkpt lat="45.71238" lon="4.63039">
        <ele>459</ele>
        <time>2011-11-06T14:03:31Z</time>
      </trkpt>
      <trkpt lat="45.71213" lon="4.63031">
        <ele>460</ele>
        <time>2011-11-06T14:03:41Z</time>
      </trkpt>
      <trkpt lat="45.7119" lon="4.63022">
        <ele>462</ele>
        <time>2011-11-06T14:03:50Z</time>
      </trkpt>
      <trkpt lat="45.71168" lon="4.63018">
        <ele>463</ele>
        <time>2011-11-06T14:03:59Z</time>
      </trkpt>
      <trkpt lat="45.71152" lon="4.63014">
        <ele>464</ele>
        <time>2011-11-06T14:04:07Z</time>
      </trkpt>
      <trkpt lat="45.71132" lon="4.63007">
        <ele>466</ele>
        <time>2011-11-06T14:04:17Z</time>
      </trkpt>
      <trkpt lat="45.71123" lon="4.63002">
        <ele>468</ele>
        <time>2011-11-06T14:04:22Z</time>
      </trkpt>
      <trkpt lat="45.71107" lon="4.62991">
        <ele>470</ele>
        <time>2011-11-06T14:04:32Z</time>
      </trkpt>
      <trkpt lat="45.7109" lon="4.62981">
        <ele>472</ele>
        <time>2011-11-06T14:04:41Z</time>
      </trkpt>
      <trkpt lat="45.71073" lon="4.62972">
        <ele>474</ele>
        <time>2011-11-06T14:04:50Z</time>
      </trkpt>
      <trkpt lat="45.71057" lon="4.62961">
        <ele>475</ele>
        <time>2011-11-06T14:04:59Z</time>
      </trkpt>
      <trkpt lat="45.71056" lon="4.62959">
        <ele>475</ele>
        <time>2011-11-06T14:05:00Z</time>
      </trkpt>
      <trkpt lat="45.71054" lon="4.62958">
        <ele>475</ele>
        <time>2011-11-06T14:05:01Z</time>
      </trkpt>
      <trkpt lat="45.71052" lon="4.62957">
        <ele>475</ele>
        <time>2011-11-06T14:05:02Z</time>
      </trkpt>
      <trkpt lat="45.71034" lon="4.62944">
        <ele>477</ele>
        <time>2011-11-06T14:05:12Z</time>
      </trkpt>
      <trkpt lat="45.71019" lon="4.6293">
        <ele>478</ele>
        <time>2011-11-06T14:05:20Z</time>
      </trkpt>
      <trkpt lat="45.71005" lon="4.62923">
        <ele>478</ele>
        <time>2011-11-06T14:05:27Z</time>
      </trkpt>
      <trkpt lat="45.71" lon="4.6293">
        <ele>479</ele>
        <time>2011-11-06T14:05:30Z</time>
      </trkpt>
      <trkpt lat="45.71" lon="4.62932">
        <ele>479</ele>
        <time>2011-11-06T14:05:31Z</time>
      </trkpt>
      <trkpt lat="45.71" lon="4.62935">
        <ele>479</ele>
        <time>2011-11-06T14:05:32Z</time>
      </trkpt>
      <trkpt lat="45.71" lon="4.62937">
        <ele>479</ele>
        <time>2011-11-06T14:05:33Z</time>
      </trkpt>
      <trkpt lat="45.71001" lon="4.6294">
        <ele>479</ele>
        <time>2011-11-06T14:05:34Z</time>
      </trkpt>
      <trkpt lat="45.71001" lon="4.62944">
        <ele>479</ele>
        <time>2011-11-06T14:05:35Z</time>
      </trkpt>
      <trkpt lat="45.71003" lon="4.62969">
        <ele>481</ele>
        <time>2011-11-06T14:05:42Z</time>
      </trkpt>
      <trkpt lat="45.71005" lon="4.62991">
        <ele>482</ele>
        <time>2011-11-06T14:05:49Z</time>
      </trkpt>
      <trkpt lat="45.71005" lon="4.63001">
        <ele>483</ele>
        <time>2011-11-06T14:05:52Z</time>
      </trkpt>
      <trkpt lat="45.71006" lon="4.63018">
        <ele>484</ele>
        <time>2011-11-06T14:05:57Z</time>
      </trkpt>
      <trkpt lat="45.71006" lon="4.63021">
        <ele>484</ele>
        <time>2011-11-06T14:05:58Z</time>
      </trkpt>
      <trkpt lat="45.71007" lon="4.63024">
        <ele>484</ele>
        <time>2011-11-06T14:05:59Z</time>
      </trkpt>
      <trkpt lat="45.71007" lon="4.63027">
        <ele>484</ele>
        <time>2011-11-06T14:06:00Z</time>
      </trkpt>
      <trkpt lat="45.71007" lon="4.63029">
        <ele>484</ele>
        <time>2011-11-06T14:06:01Z</time>
      </trkpt>
      <trkpt lat="45.71007" lon="4.63032">
        <ele>484</ele>
        <time>2011-11-06T14:06:02Z</time>
      </trkpt>
      <trkpt lat="45.71007" lon="4.63034">
        <ele>485</ele>
        <time>2011-11-06T14:06:03Z</time>
      </trkpt>
      <trkpt lat="45.71007" lon="4.63037">
        <ele>485</ele>
        <time>2011-11-06T14:06:04Z</time>
      </trkpt>
      <trkpt lat="45.71007" lon="4.6304">
        <ele>485</ele>
        <time>2011-11-06T14:06:05Z</time>
      </trkpt>
      <trkpt lat="45.71007" lon="4.63043">
        <ele>485</ele>
        <time>2011-11-06T14:06:06Z</time>
      </trkpt>
      <trkpt lat="45.71007" lon="4.63045">
        <ele>486</ele>
        <time>2011-11-06T14:06:07Z</time>
      </trkpt>
      <trkpt lat="45.71008" lon="4.63048">
        <ele>485</ele>
        <time>2011-11-06T14:06:08Z</time>
      </trkpt>
      <trkpt lat="45.71007" lon="4.63052">
        <ele>485</ele>
        <time>2011-11-06T14:06:09Z</time>
      </trkpt>
      <trkpt lat="45.71007" lon="4.63055">
        <ele>485</ele>
        <time>2011-11-06T14:06:10Z</time>
      </trkpt>
      <trkpt lat="45.71006" lon="4.6306">
        <ele>486</ele>
        <time>2011-11-06T14:06:12Z</time>
      </trkpt>
      <trkpt lat="45.71006" lon="4.63063">
        <ele>486</ele>
        <time>2011-11-06T14:06:13Z</time>
      </trkpt>
      <trkpt lat="45.71006" lon="4.63066">
        <ele>486</ele>
        <time>2011-11-06T14:06:14Z</time>
      </trkpt>
      <trkpt lat="45.71005" lon="4.63069">
        <ele>486</ele>
        <time>2011-11-06T14:06:15Z</time>
      </trkpt>
      <trkpt lat="45.71004" lon="4.63073">
        <ele>486</ele>
        <time>2011-11-06T14:06:16Z</time>
      </trkpt>
      <trkpt lat="45.71004" lon="4.63076">
        <ele>486</ele>
        <time>2011-11-06T14:06:17Z</time>
      </trkpt>
      <trkpt lat="45.71004" lon="4.63079">
        <ele>487</ele>
        <time>2011-11-06T14:06:18Z</time>
      </trkpt>
      <trkpt lat="45.71003" lon="4.63083">
        <ele>487</ele>
        <time>2011-11-06T14:06:19Z</time>
      </trkpt>
      <trkpt lat="45.71003" lon="4.63085">
        <ele>487</ele>
        <time>2011-11-06T14:06:20Z</time>
      </trkpt>
      <trkpt lat="45.71003" lon="4.63088">
        <ele>487</ele>
        <time>2011-11-06T14:06:21Z</time>
      </trkpt>
      <trkpt lat="45.71003" lon="4.63091">
        <ele>488</ele>
        <time>2011-11-06T14:06:22Z</time>
      </trkpt>
      <trkpt lat="45.71003" lon="4.63094">
        <ele>488</ele>
        <time>2011-11-06T14:06:23Z</time>
      </trkpt>
      <trkpt lat="45.71003" lon="4.63097">
        <ele>488</ele>
        <time>2011-11-06T14:06:24Z</time>
      </trkpt>
      <trkpt lat="45.71002" lon="4.63099">
        <ele>488</ele>
        <time>2011-11-06T14:06:25Z</time>
      </trkpt>
      <trkpt lat="45.71002" lon="4.63102">
        <ele>488</ele>
        <time>2011-11-06T14:06:26Z</time>
      </trkpt>
      <trkpt lat="45.71001" lon="4.63121">
        <ele>489</ele>
        <time>2011-11-06T14:06:33Z</time>
      </trkpt>
      <trkpt lat="45.70997" lon="4.63142">
        <ele>491</ele>
        <time>2011-11-06T14:06:40Z</time>
      </trkpt>
      <trkpt lat="45.70996" lon="4.63144">
        <ele>491</ele>
        <time>2011-11-06T14:06:41Z</time>
      </trkpt>
      <trkpt lat="45.70996" lon="4.63147">
        <ele>491</ele>
        <time>2011-11-06T14:06:42Z</time>
      </trkpt>
      <trkpt lat="45.70995" lon="4.63149">
        <ele>491</ele>
        <time>2011-11-06T14:06:43Z</time>
      </trkpt>
      <trkpt lat="45.7099" lon="4.63163">
        <ele>492</ele>
        <time>2011-11-06T14:06:49Z</time>
      </trkpt>
      <trkpt lat="45.70981" lon="4.63187">
        <ele>493</ele>
        <time>2011-11-06T14:06:57Z</time>
      </trkpt>
      <trkpt lat="45.70973" lon="4.63205">
        <ele>495</ele>
        <time>2011-11-06T14:07:04Z</time>
      </trkpt>
      <trkpt lat="45.70966" lon="4.6322">
        <ele>496</ele>
        <time>2011-11-06T14:07:11Z</time>
      </trkpt>
      <trkpt lat="45.70964" lon="4.63224">
        <ele>497</ele>
        <time>2011-11-06T14:07:13Z</time>
      </trkpt>
      <trkpt lat="45.70962" lon="4.63225">
        <ele>497</ele>
        <time>2011-11-06T14:07:14Z</time>
      </trkpt>
      <trkpt lat="45.70961" lon="4.63226">
        <ele>497</ele>
        <time>2011-11-06T14:07:15Z</time>
      </trkpt>
      <trkpt lat="45.70952" lon="4.63239">
        <ele>498</ele>
        <time>2011-11-06T14:07:22Z</time>
      </trkpt>
      <trkpt lat="45.70948" lon="4.63243">
        <ele>499</ele>
        <time>2011-11-06T14:07:25Z</time>
      </trkpt>
      <trkpt lat="45.70947" lon="4.63244">
        <ele>499</ele>
        <time>2011-11-06T14:07:26Z</time>
      </trkpt>
      <trkpt lat="45.70945" lon="4.63246">
        <ele>499</ele>
        <time>2011-11-06T14:07:27Z</time>
      </trkpt>
      <trkpt lat="45.70939" lon="4.63252">
        <ele>500</ele>
        <time>2011-11-06T14:07:30Z</time>
      </trkpt>
      <trkpt lat="45.70937" lon="4.63254">
        <ele>500</ele>
        <time>2011-11-06T14:07:31Z</time>
      </trkpt>
      <trkpt lat="45.70935" lon="4.63256">
        <ele>499</ele>
        <time>2011-11-06T14:07:32Z</time>
      </trkpt>
      <trkpt lat="45.70933" lon="4.63258">
        <ele>500</ele>
        <time>2011-11-06T14:07:33Z</time>
      </trkpt>
      <trkpt lat="45.70931" lon="4.6326">
        <ele>500</ele>
        <time>2011-11-06T14:07:34Z</time>
      </trkpt>
      <trkpt lat="45.7092" lon="4.63269">
        <ele>501</ele>
        <time>2011-11-06T14:07:40Z</time>
      </trkpt>
      <trkpt lat="45.70914" lon="4.63272">
        <ele>502</ele>
        <time>2011-11-06T14:07:43Z</time>
      </trkpt>
      <trkpt lat="45.70912" lon="4.63273">
        <ele>502</ele>
        <time>2011-11-06T14:07:44Z</time>
      </trkpt>
      <trkpt lat="45.709" lon="4.63285">
        <ele>503</ele>
        <time>2011-11-06T14:07:51Z</time>
      </trkpt>
      <trkpt lat="45.70886" lon="4.63295">
        <ele>504</ele>
        <time>2011-11-06T14:07:59Z</time>
      </trkpt>
      <trkpt lat="45.70882" lon="4.63298">
        <ele>504</ele>
        <time>2011-11-06T14:08:01Z</time>
      </trkpt>
      <trkpt lat="45.70875" lon="4.63307">
        <ele>505</ele>
        <time>2011-11-06T14:08:06Z</time>
      </trkpt>
      <trkpt lat="45.70866" lon="4.63314">
        <ele>506</ele>
        <time>2011-11-06T14:08:12Z</time>
      </trkpt>
      <trkpt lat="45.70865" lon="4.63316">
        <ele>506</ele>
        <time>2011-11-06T14:08:13Z</time>
      </trkpt>
      <trkpt lat="45.70863" lon="4.63318">
        <ele>507</ele>
        <time>2011-11-06T14:08:14Z</time>
      </trkpt>
      <trkpt lat="45.70862" lon="4.6332">
        <ele>507</ele>
        <time>2011-11-06T14:08:15Z</time>
      </trkpt>
      <trkpt lat="45.7086" lon="4.63321">
        <ele>507</ele>
        <time>2011-11-06T14:08:16Z</time>
      </trkpt>
      <trkpt lat="45.70859" lon="4.63325">
        <ele>507</ele>
        <time>2011-11-06T14:08:17Z</time>
      </trkpt>
      <trkpt lat="45.70858" lon="4.63327">
        <ele>508</ele>
        <time>2011-11-06T14:08:18Z</time>
      </trkpt>
      <trkpt lat="45.70857" lon="4.63328">
        <ele>508</ele>
        <time>2011-11-06T14:08:19Z</time>
      </trkpt>
      <trkpt lat="45.70855" lon="4.63326">
        <ele>508</ele>
        <time>2011-11-06T14:08:21Z</time>
      </trkpt>
      <trkpt lat="45.70856" lon="4.63324">
        <ele>509</ele>
        <time>2011-11-06T14:08:22Z</time>
      </trkpt>
      <trkpt lat="45.70856" lon="4.63322">
        <ele>509</ele>
        <time>2011-11-06T14:08:23Z</time>
      </trkpt>
      <trkpt lat="45.70863" lon="4.63311">
        <ele>511</ele>
        <time>2011-11-06T14:08:30Z</time>
      </trkpt>
      <trkpt lat="45.70865" lon="4.63307">
        <ele>511</ele>
        <time>2011-11-06T14:08:32Z</time>
      </trkpt>
      <trkpt lat="45.70865" lon="4.63306">
        <ele>510</ele>
        <time>2011-11-06T14:08:33Z</time>
      </trkpt>
      <trkpt lat="45.70866" lon="4.63304">
        <ele>511</ele>
        <time>2011-11-06T14:08:34Z</time>
      </trkpt>
      <trkpt lat="45.70866" lon="4.63302">
        <ele>511</ele>
        <time>2011-11-06T14:08:35Z</time>
      </trkpt>
      <trkpt lat="45.70867" lon="4.633">
        <ele>511</ele>
        <time>2011-11-06T14:08:36Z</time>
      </trkpt>
      <trkpt lat="45.70868" lon="4.63299">
        <ele>511</ele>
        <time>2011-11-06T14:08:37Z</time>
      </trkpt>
      <trkpt lat="45.70869" lon="4.63297">
        <ele>511</ele>
        <time>2011-11-06T14:08:38Z</time>
      </trkpt>
      <trkpt lat="45.70871" lon="4.63293">
        <ele>512</ele>
        <time>2011-11-06T14:08:40Z</time>
      </trkpt>
      <trkpt lat="45.70872" lon="4.63291">
        <ele>511</ele>
        <time>2011-11-06T14:08:41Z</time>
      </trkpt>
      <trkpt lat="45.70873" lon="4.63289">
        <ele>512</ele>
        <time>2011-11-06T14:08:42Z</time>
      </trkpt>
      <trkpt lat="45.70874" lon="4.63287">
        <ele>512</ele>
        <time>2011-11-06T14:08:43Z</time>
      </trkpt>
      <trkpt lat="45.70876" lon="4.63285">
        <ele>512</ele>
        <time>2011-11-06T14:08:44Z</time>
      </trkpt>
      <trkpt lat="45.70877" lon="4.63283">
        <ele>512</ele>
        <time>2011-11-06T14:08:45Z</time>
      </trkpt>
      <trkpt lat="45.70879" lon="4.63281">
        <ele>513</ele>
        <time>2011-11-06T14:08:46Z</time>
      </trkpt>
      <trkpt lat="45.7088" lon="4.63279">
        <ele>513</ele>
        <time>2011-11-06T14:08:47Z</time>
      </trkpt>
      <trkpt lat="45.70884" lon="4.63272">
        <ele>513</ele>
        <time>2011-11-06T14:08:50Z</time>
      </trkpt>
      <trkpt lat="45.70886" lon="4.6327">
        <ele>513</ele>
        <time>2011-11-06T14:08:51Z</time>
      </trkpt>
      <trkpt lat="45.70887" lon="4.63268">
        <ele>513</ele>
        <time>2011-11-06T14:08:52Z</time>
      </trkpt>
      <trkpt lat="45.70888" lon="4.63266">
        <ele>513</ele>
        <time>2011-11-06T14:08:53Z</time>
      </trkpt>
      <trkpt lat="45.70888" lon="4.63263">
        <ele>513</ele>
        <time>2011-11-06T14:08:54Z</time>
      </trkpt>
      <trkpt lat="45.70889" lon="4.63261">
        <ele>513</ele>
        <time>2011-11-06T14:08:55Z</time>
      </trkpt>
      <trkpt lat="45.70892" lon="4.63256">
        <ele>513</ele>
        <time>2011-11-06T14:08:57Z</time>
      </trkpt>
      <trkpt lat="45.70893" lon="4.63254">
        <ele>514</ele>
        <time>2011-11-06T14:08:58Z</time>
      </trkpt>
      <trkpt lat="45.70894" lon="4.63252">
        <ele>514</ele>
        <time>2011-11-06T14:08:59Z</time>
      </trkpt>
      <trkpt lat="45.70895" lon="4.63249">
        <ele>514</ele>
        <time>2011-11-06T14:09:00Z</time>
      </trkpt>
      <trkpt lat="45.70895" lon="4.63247">
        <ele>514</ele>
        <time>2011-11-06T14:09:01Z</time>
      </trkpt>
      <trkpt lat="45.70896" lon="4.63245">
        <ele>514</ele>
        <time>2011-11-06T14:09:02Z</time>
      </trkpt>
      <trkpt lat="45.70897" lon="4.63243">
        <ele>514</ele>
        <time>2011-11-06T14:09:03Z</time>
      </trkpt>
      <trkpt lat="45.70905" lon="4.63225">
        <ele>516</ele>
        <time>2011-11-06T14:09:11Z</time>
      </trkpt>
      <trkpt lat="45.70909" lon="4.63212">
        <ele>517</ele>
        <time>2011-11-06T14:09:17Z</time>
      </trkpt>
      <trkpt lat="45.70914" lon="4.63198">
        <ele>517</ele>
        <time>2011-11-06T14:09:23Z</time>
      </trkpt>
      <trkpt lat="45.70916" lon="4.63193">
        <ele>518</ele>
        <time>2011-11-06T14:09:25Z</time>
      </trkpt>
      <trkpt lat="45.70916" lon="4.6319">
        <ele>518</ele>
        <time>2011-11-06T14:09:26Z</time>
      </trkpt>
      <trkpt lat="45.70916" lon="4.63187">
        <ele>518</ele>
        <time>2011-11-06T14:09:27Z</time>
      </trkpt>
      <trkpt lat="45.70916" lon="4.63178">
        <ele>519</ele>
        <time>2011-11-06T14:09:30Z</time>
      </trkpt>
      <trkpt lat="45.70917" lon="4.63175">
        <ele>519</ele>
        <time>2011-11-06T14:09:31Z</time>
      </trkpt>
      <trkpt lat="45.70917" lon="4.63173">
        <ele>519</ele>
        <time>2011-11-06T14:09:32Z</time>
      </trkpt>
      <trkpt lat="45.70917" lon="4.6317">
        <ele>519</ele>
        <time>2011-11-06T14:09:33Z</time>
      </trkpt>
      <trkpt lat="45.70917" lon="4.63168">
        <ele>520</ele>
        <time>2011-11-06T14:09:34Z</time>
      </trkpt>
      <trkpt lat="45.70918" lon="4.63165">
        <ele>520</ele>
        <time>2011-11-06T14:09:35Z</time>
      </trkpt>
      <trkpt lat="45.70918" lon="4.63163">
        <ele>520</ele>
        <time>2011-11-06T14:09:36Z</time>
      </trkpt>
      <trkpt lat="45.70918" lon="4.6316">
        <ele>520</ele>
        <time>2011-11-06T14:09:37Z</time>
      </trkpt>
      <trkpt lat="45.70919" lon="4.63158">
        <ele>520</ele>
        <time>2011-11-06T14:09:38Z</time>
      </trkpt>
      <trkpt lat="45.70918" lon="4.63156">
        <ele>520</ele>
        <time>2011-11-06T14:09:39Z</time>
      </trkpt>
      <trkpt lat="45.70919" lon="4.63154">
        <ele>520</ele>
        <time>2011-11-06T14:09:40Z</time>
      </trkpt>
      <trkpt lat="45.70919" lon="4.63151">
        <ele>520</ele>
        <time>2011-11-06T14:09:41Z</time>
      </trkpt>
      <trkpt lat="45.70918" lon="4.63149">
        <ele>521</ele>
        <time>2011-11-06T14:09:42Z</time>
      </trkpt>
      <trkpt lat="45.70918" lon="4.63147">
        <ele>520</ele>
        <time>2011-11-06T14:09:43Z</time>
      </trkpt>
      <trkpt lat="45.70918" lon="4.63144">
        <ele>521</ele>
        <time>2011-11-06T14:09:44Z</time>
      </trkpt>
      <trkpt lat="45.70918" lon="4.63142">
        <ele>522</ele>
        <time>2011-11-06T14:09:45Z</time>
      </trkpt>
      <trkpt lat="45.70918" lon="4.63139">
        <ele>521</ele>
        <time>2011-11-06T14:09:46Z</time>
      </trkpt>
      <trkpt lat="45.70918" lon="4.63137">
        <ele>521</ele>
        <time>2011-11-06T14:09:47Z</time>
      </trkpt>
      <trkpt lat="45.70917" lon="4.63134">
        <ele>521</ele>
        <time>2011-11-06T14:09:48Z</time>
      </trkpt>
      <trkpt lat="45.70917" lon="4.63132">
        <ele>522</ele>
        <time>2011-11-06T14:09:49Z</time>
      </trkpt>
      <trkpt lat="45.70917" lon="4.63117">
        <ele>522</ele>
        <time>2011-11-06T14:09:55Z</time>
      </trkpt>
      <trkpt lat="45.70918" lon="4.63115">
        <ele>523</ele>
        <time>2011-11-06T14:09:56Z</time>
      </trkpt>
      <trkpt lat="45.70918" lon="4.63104">
        <ele>524</ele>
        <time>2011-11-06T14:10:02Z</time>
      </trkpt>
      <trkpt lat="45.70914" lon="4.63084">
        <ele>525</ele>
        <time>2011-11-06T14:10:09Z</time>
      </trkpt>
      <trkpt lat="45.70911" lon="4.6307">
        <ele>525</ele>
        <time>2011-11-06T14:10:14Z</time>
      </trkpt>
      <trkpt lat="45.70907" lon="4.63057">
        <ele>526</ele>
        <time>2011-11-06T14:10:20Z</time>
      </trkpt>
      <trkpt lat="45.70906" lon="4.63054">
        <ele>526</ele>
        <time>2011-11-06T14:10:21Z</time>
      </trkpt>
      <trkpt lat="45.70906" lon="4.63052">
        <ele>527</ele>
        <time>2011-11-06T14:10:22Z</time>
      </trkpt>
      <trkpt lat="45.70905" lon="4.63049">
        <ele>527</ele>
        <time>2011-11-06T14:10:23Z</time>
      </trkpt>
      <trkpt lat="45.70905" lon="4.63046">
        <ele>527</ele>
        <time>2011-11-06T14:10:24Z</time>
      </trkpt>
      <trkpt lat="45.70904" lon="4.63044">
        <ele>527</ele>
        <time>2011-11-06T14:10:25Z</time>
      </trkpt>
      <trkpt lat="45.70904" lon="4.63041">
        <ele>527</ele>
        <time>2011-11-06T14:10:26Z</time>
      </trkpt>
      <trkpt lat="45.70904" lon="4.63039">
        <ele>527</ele>
        <time>2011-11-06T14:10:27Z</time>
      </trkpt>
      <trkpt lat="45.70903" lon="4.63037">
        <ele>528</ele>
        <time>2011-11-06T14:10:28Z</time>
      </trkpt>
      <trkpt lat="45.70901" lon="4.63034">
        <ele>528</ele>
        <time>2011-11-06T14:10:29Z</time>
      </trkpt>
      <trkpt lat="45.7089" lon="4.63023">
        <ele>529</ele>
        <time>2011-11-06T14:10:36Z</time>
      </trkpt>
      <trkpt lat="45.70875" lon="4.63021">
        <ele>530</ele>
        <time>2011-11-06T14:10:44Z</time>
      </trkpt>
      <trkpt lat="45.70854" lon="4.63018">
        <ele>532</ele>
        <time>2011-11-06T14:10:54Z</time>
      </trkpt>
      <trkpt lat="45.70836" lon="4.63016">
        <ele>532</ele>
        <time>2011-11-06T14:11:02Z</time>
      </trkpt>
      <trkpt lat="45.70817" lon="4.63009">
        <ele>534</ele>
        <time>2011-11-06T14:11:10Z</time>
      </trkpt>
      <trkpt lat="45.70799" lon="4.63003">
        <ele>534</ele>
        <time>2011-11-06T14:11:18Z</time>
      </trkpt>
      <trkpt lat="45.70776" lon="4.62998">
        <ele>533</ele>
        <time>2011-11-06T14:11:25Z</time>
      </trkpt>
      <trkpt lat="45.70756" lon="4.62998">
        <ele>535</ele>
        <time>2011-11-06T14:11:33Z</time>
      </trkpt>
      <trkpt lat="45.70744" lon="4.63">
        <ele>536</ele>
        <time>2011-11-06T14:11:39Z</time>
      </trkpt>
      <trkpt lat="45.70727" lon="4.62999">
        <ele>537</ele>
        <time>2011-11-06T14:11:48Z</time>
      </trkpt>
      <trkpt lat="45.70719" lon="4.62997">
        <ele>538</ele>
        <time>2011-11-06T14:11:53Z</time>
      </trkpt>
      <trkpt lat="45.70717" lon="4.62995">
        <ele>539</ele>
        <time>2011-11-06T14:11:54Z</time>
      </trkpt>
      <trkpt lat="45.70715" lon="4.62995">
        <ele>539</ele>
        <time>2011-11-06T14:11:55Z</time>
      </trkpt>
      <trkpt lat="45.70713" lon="4.62994">
        <ele>539</ele>
        <time>2011-11-06T14:11:56Z</time>
      </trkpt>
      <trkpt lat="45.70711" lon="4.62992">
        <ele>539</ele>
        <time>2011-11-06T14:11:57Z</time>
      </trkpt>
      <trkpt lat="45.7071" lon="4.62991">
        <ele>539</ele>
        <time>2011-11-06T14:11:58Z</time>
      </trkpt>
      <trkpt lat="45.70708" lon="4.6299">
        <ele>539</ele>
        <time>2011-11-06T14:11:59Z</time>
      </trkpt>
      <trkpt lat="45.70707" lon="4.62989">
        <ele>540</ele>
        <time>2011-11-06T14:12:00Z</time>
      </trkpt>
      <trkpt lat="45.70705" lon="4.62988">
        <ele>540</ele>
        <time>2011-11-06T14:12:01Z</time>
      </trkpt>
      <trkpt lat="45.70703" lon="4.62986">
        <ele>541</ele>
        <time>2011-11-06T14:12:02Z</time>
      </trkpt>
      <trkpt lat="45.70701" lon="4.62984">
        <ele>540</ele>
        <time>2011-11-06T14:12:03Z</time>
      </trkpt>
      <trkpt lat="45.707" lon="4.62982">
        <ele>540</ele>
        <time>2011-11-06T14:12:04Z</time>
      </trkpt>
      <trkpt lat="45.70699" lon="4.62981">
        <ele>541</ele>
        <time>2011-11-06T14:12:05Z</time>
      </trkpt>
      <trkpt lat="45.70695" lon="4.62968">
        <ele>541</ele>
        <time>2011-11-06T14:12:10Z</time>
      </trkpt>
      <trkpt lat="45.70688" lon="4.62944">
        <ele>543</ele>
        <time>2011-11-06T14:12:19Z</time>
      </trkpt>
      <trkpt lat="45.70683" lon="4.62919">
        <ele>543</ele>
        <time>2011-11-06T14:12:27Z</time>
      </trkpt>
      <trkpt lat="45.70679" lon="4.62895">
        <ele>542</ele>
        <time>2011-11-06T14:12:32Z</time>
      </trkpt>
      <trkpt lat="45.70677" lon="4.62878">
        <ele>541</ele>
        <time>2011-11-06T14:12:35Z</time>
      </trkpt>
      <trkpt lat="45.70677" lon="4.62872">
        <ele>541</ele>
        <time>2011-11-06T14:12:36Z</time>
      </trkpt>
      <trkpt lat="45.70676" lon="4.62865">
        <ele>540</ele>
        <time>2011-11-06T14:12:37Z</time>
      </trkpt>
      <trkpt lat="45.70674" lon="4.62827">
        <ele>538</ele>
        <time>2011-11-06T14:12:42Z</time>
      </trkpt>
      <trkpt lat="45.70672" lon="4.62813">
        <ele>538</ele>
        <time>2011-11-06T14:12:44Z</time>
      </trkpt>
      <trkpt lat="45.7067" lon="4.62807">
        <ele>538</ele>
        <time>2011-11-06T14:12:45Z</time>
      </trkpt>
      <trkpt lat="45.70668" lon="4.62801">
        <ele>538</ele>
        <time>2011-11-06T14:12:46Z</time>
      </trkpt>
      <trkpt lat="45.70667" lon="4.62795">
        <ele>538</ele>
        <time>2011-11-06T14:12:47Z</time>
      </trkpt>
      <trkpt lat="45.70665" lon="4.62789">
        <ele>537</ele>
        <time>2011-11-06T14:12:48Z</time>
      </trkpt>
      <trkpt lat="45.70661" lon="4.62758">
        <ele>537</ele>
        <time>2011-11-06T14:12:54Z</time>
      </trkpt>
      <trkpt lat="45.70661" lon="4.62744">
        <ele>537</ele>
        <time>2011-11-06T14:12:58Z</time>
      </trkpt>
      <trkpt lat="45.70661" lon="4.62741">
        <ele>537</ele>
        <time>2011-11-06T14:12:59Z</time>
      </trkpt>
      <trkpt lat="45.70662" lon="4.62739">
        <ele>537</ele>
        <time>2011-11-06T14:13:00Z</time>
      </trkpt>
      <trkpt lat="45.70663" lon="4.62736">
        <ele>538</ele>
        <time>2011-11-06T14:13:01Z</time>
      </trkpt>
      <trkpt lat="45.70664" lon="4.62733">
        <ele>538</ele>
        <time>2011-11-06T14:13:02Z</time>
      </trkpt>
      <trkpt lat="45.70665" lon="4.6273">
        <ele>537</ele>
        <time>2011-11-06T14:13:03Z</time>
      </trkpt>
      <trkpt lat="45.70667" lon="4.62728">
        <ele>538</ele>
        <time>2011-11-06T14:13:04Z</time>
      </trkpt>
      <trkpt lat="45.70668" lon="4.62726">
        <ele>538</ele>
        <time>2011-11-06T14:13:05Z</time>
      </trkpt>
      <trkpt lat="45.7067" lon="4.62724">
        <ele>539</ele>
        <time>2011-11-06T14:13:06Z</time>
      </trkpt>
      <trkpt lat="45.70691" lon="4.62707">
        <ele>540</ele>
        <time>2011-11-06T14:13:18Z</time>
      </trkpt>
      <trkpt lat="45.70704" lon="4.62696">
        <ele>542</ele>
        <time>2011-11-06T14:13:26Z</time>
      </trkpt>
      <trkpt lat="45.70724" lon="4.62689">
        <ele>543</ele>
        <time>2011-11-06T14:13:37Z</time>
      </trkpt>
      <trkpt lat="45.70738" lon="4.62687">
        <ele>545</ele>
        <time>2011-11-06T14:13:45Z</time>
      </trkpt>
      <trkpt lat="45.70743" lon="4.62685">
        <ele>545</ele>
        <time>2011-11-06T14:13:48Z</time>
      </trkpt>
      <trkpt lat="45.70745" lon="4.62684">
        <ele>545</ele>
        <time>2011-11-06T14:13:49Z</time>
      </trkpt>
      <trkpt lat="45.70747" lon="4.62684">
        <ele>545</ele>
        <time>2011-11-06T14:13:50Z</time>
      </trkpt>
      <trkpt lat="45.70768" lon="4.62681">
        <ele>545</ele>
        <time>2011-11-06T14:14:00Z</time>
      </trkpt>
      <trkpt lat="45.70786" lon="4.62678">
        <ele>546</ele>
        <time>2011-11-06T14:14:08Z</time>
      </trkpt>
      <trkpt lat="45.708" lon="4.62676">
        <ele>545</ele>
        <time>2011-11-06T14:14:14Z</time>
      </trkpt>
      <trkpt lat="45.70829" lon="4.62674">
        <ele>543</ele>
        <time>2011-11-06T14:14:22Z</time>
      </trkpt>
      <trkpt lat="45.70851" lon="4.6268">
        <ele>542</ele>
        <time>2011-11-06T14:14:28Z</time>
      </trkpt>
      <trkpt lat="45.70875" lon="4.62694">
        <ele>542</ele>
        <time>2011-11-06T14:14:35Z</time>
      </trkpt>
      <trkpt lat="45.70896" lon="4.62705">
        <ele>542</ele>
        <time>2011-11-06T14:14:42Z</time>
      </trkpt>
      <trkpt lat="45.70906" lon="4.62707">
        <ele>543</ele>
        <time>2011-11-06T14:14:46Z</time>
      </trkpt>
      <trkpt lat="45.70908" lon="4.62705">
        <ele>543</ele>
        <time>2011-11-06T14:14:47Z</time>
      </trkpt>
      <trkpt lat="45.70913" lon="4.62703">
        <ele>544</ele>
        <time>2011-11-06T14:14:50Z</time>
      </trkpt>
      <trkpt lat="45.70919" lon="4.62701">
        <ele>545</ele>
        <time>2011-11-06T14:14:55Z</time>
      </trkpt>
      <trkpt lat="45.70924" lon="4.62698">
        <ele>546</ele>
        <time>2011-11-06T14:14:59Z</time>
      </trkpt>
      <trkpt lat="45.70926" lon="4.62696">
        <ele>547</ele>
        <time>2011-11-06T14:15:01Z</time>
      </trkpt>
      <trkpt lat="45.70928" lon="4.62695">
        <ele>547</ele>
        <time>2011-11-06T14:15:02Z</time>
      </trkpt>
      <trkpt lat="45.70932" lon="4.62693">
        <ele>547</ele>
        <time>2011-11-06T14:15:05Z</time>
      </trkpt>
      <trkpt lat="45.70934" lon="4.62692">
        <ele>548</ele>
        <time>2011-11-06T14:15:06Z</time>
      </trkpt>
      <trkpt lat="45.70942" lon="4.62689">
        <ele>549</ele>
        <time>2011-11-06T14:15:12Z</time>
      </trkpt>
      <trkpt lat="45.70946" lon="4.62685">
        <ele>550</ele>
        <time>2011-11-06T14:15:15Z</time>
      </trkpt>
      <trkpt lat="45.70954" lon="4.62678">
        <ele>551</ele>
        <time>2011-11-06T14:15:21Z</time>
      </trkpt>
      <trkpt lat="45.70956" lon="4.62677">
        <ele>551</ele>
        <time>2011-11-06T14:15:22Z</time>
      </trkpt>
      <trkpt lat="45.70957" lon="4.62677">
        <ele>551</ele>
        <time>2011-11-06T14:15:23Z</time>
      </trkpt>
      <trkpt lat="45.7096" lon="4.62674">
        <ele>551</ele>
        <time>2011-11-06T14:15:25Z</time>
      </trkpt>
      <trkpt lat="45.70966" lon="4.62671">
        <ele>553</ele>
        <time>2011-11-06T14:15:30Z</time>
      </trkpt>
      <trkpt lat="45.70973" lon="4.62667">
        <ele>554</ele>
        <time>2011-11-06T14:15:36Z</time>
      </trkpt>
      <trkpt lat="45.70977" lon="4.62665">
        <ele>554</ele>
        <time>2011-11-06T14:15:40Z</time>
      </trkpt>
      <trkpt lat="45.70982" lon="4.62661">
        <ele>556</ele>
        <time>2011-11-06T14:15:44Z</time>
      </trkpt>
      <trkpt lat="45.70989" lon="4.62654">
        <ele>557</ele>
        <time>2011-11-06T14:15:50Z</time>
      </trkpt>
      <trkpt lat="45.70995" lon="4.62644">
        <ele>558</ele>
        <time>2011-11-06T14:15:57Z</time>
      </trkpt>
      <trkpt lat="45.70996" lon="4.62643">
        <ele>558</ele>
        <time>2011-11-06T14:15:58Z</time>
      </trkpt>
      <trkpt lat="45.70996" lon="4.62636">
        <ele>559</ele>
        <time>2011-11-06T14:16:03Z</time>
      </trkpt>
      <trkpt lat="45.70995" lon="4.62635">
        <ele>559</ele>
        <time>2011-11-06T14:16:04Z</time>
      </trkpt>
      <trkpt lat="45.70988" lon="4.6263">
        <ele>561</ele>
        <time>2011-11-06T14:16:10Z</time>
      </trkpt>
      <trkpt lat="45.70985" lon="4.62627">
        <ele>562</ele>
        <time>2011-11-06T14:16:14Z</time>
      </trkpt>
      <trkpt lat="45.70982" lon="4.62625">
        <ele>562</ele>
        <time>2011-11-06T14:16:16Z</time>
      </trkpt>
      <trkpt lat="45.70976" lon="4.62618">
        <ele>564</ele>
        <time>2011-11-06T14:16:22Z</time>
      </trkpt>
      <trkpt lat="45.70969" lon="4.62609">
        <ele>565</ele>
        <time>2011-11-06T14:16:29Z</time>
      </trkpt>
      <trkpt lat="45.70968" lon="4.62608">
        <ele>566</ele>
        <time>2011-11-06T14:16:30Z</time>
      </trkpt>
      <trkpt lat="45.70963" lon="4.62601">
        <ele>567</ele>
        <time>2011-11-06T14:16:36Z</time>
      </trkpt>
      <trkpt lat="45.70959" lon="4.62596">
        <ele>568</ele>
        <time>2011-11-06T14:16:42Z</time>
      </trkpt>
      <trkpt lat="45.70954" lon="4.62588">
        <ele>569</ele>
        <time>2011-11-06T14:16:48Z</time>
      </trkpt>
      <trkpt lat="45.70948" lon="4.62579">
        <ele>570</ele>
        <time>2011-11-06T14:16:54Z</time>
      </trkpt>
      <trkpt lat="45.70946" lon="4.62577">
        <ele>570</ele>
        <time>2011-11-06T14:16:56Z</time>
      </trkpt>
      <trkpt lat="45.70944" lon="4.62576">
        <ele>571</ele>
        <time>2011-11-06T14:16:57Z</time>
      </trkpt>
      <trkpt lat="45.70934" lon="4.62577">
        <ele>572</ele>
        <time>2011-11-06T14:17:04Z</time>
      </trkpt>
      <trkpt lat="45.70925" lon="4.62578">
        <ele>574</ele>
        <time>2011-11-06T14:17:11Z</time>
      </trkpt>
      <trkpt lat="45.70921" lon="4.62578">
        <ele>575</ele>
        <time>2011-11-06T14:17:15Z</time>
      </trkpt>
      <trkpt lat="45.70912" lon="4.62578">
        <ele>576</ele>
        <time>2011-11-06T14:17:22Z</time>
      </trkpt>
      <trkpt lat="45.70906" lon="4.6258">
        <ele>578</ele>
        <time>2011-11-06T14:17:28Z</time>
      </trkpt>
      <trkpt lat="45.70894" lon="4.62576">
        <ele>579</ele>
        <time>2011-11-06T14:17:37Z</time>
      </trkpt>
      <trkpt lat="45.70886" lon="4.62574">
        <ele>579</ele>
        <time>2011-11-06T14:17:44Z</time>
      </trkpt>
      <trkpt lat="45.70882" lon="4.62573">
        <ele>579</ele>
        <time>2011-11-06T14:17:52Z</time>
      </trkpt>
      <trkpt lat="45.70877" lon="4.62569">
        <ele>579</ele>
        <time>2011-11-06T14:17:57Z</time>
      </trkpt>
      <trkpt lat="45.70876" lon="4.62569">
        <ele>579</ele>
        <time>2011-11-06T14:17:58Z</time>
      </trkpt>
      <trkpt lat="45.70866" lon="4.6256">
        <ele>578</ele>
        <time>2011-11-06T14:18:04Z</time>
      </trkpt>
      <trkpt lat="45.70858" lon="4.62547">
        <ele>578</ele>
        <time>2011-11-06T14:18:10Z</time>
      </trkpt>
      <trkpt lat="45.70857" lon="4.62546">
        <ele>578</ele>
        <time>2011-11-06T14:18:11Z</time>
      </trkpt>
      <trkpt lat="45.70857" lon="4.62545">
        <ele>578</ele>
        <time>2011-11-06T14:18:12Z</time>
      </trkpt>
      <trkpt lat="45.70856" lon="4.62543">
        <ele>578</ele>
        <time>2011-11-06T14:18:13Z</time>
      </trkpt>
      <trkpt lat="45.70855" lon="4.62541">
        <ele>578</ele>
        <time>2011-11-06T14:18:14Z</time>
      </trkpt>
      <trkpt lat="45.70854" lon="4.62539">
        <ele>578</ele>
        <time>2011-11-06T14:18:15Z</time>
      </trkpt>
      <trkpt lat="45.70853" lon="4.62537">
        <ele>578</ele>
        <time>2011-11-06T14:18:16Z</time>
      </trkpt>
      <trkpt lat="45.70852" lon="4.62534">
        <ele>578</ele>
        <time>2011-11-06T14:18:17Z</time>
      </trkpt>
      <trkpt lat="45.70851" lon="4.62531">
        <ele>578</ele>
        <time>2011-11-06T14:18:18Z</time>
      </trkpt>
      <trkpt lat="45.7085" lon="4.62528">
        <ele>578</ele>
        <time>2011-11-06T14:18:19Z</time>
      </trkpt>
      <trkpt lat="45.70849" lon="4.62524">
        <ele>579</ele>
        <time>2011-11-06T14:18:20Z</time>
      </trkpt>
      <trkpt lat="45.70848" lon="4.62521">
        <ele>578</ele>
        <time>2011-11-06T14:18:21Z</time>
      </trkpt>
      <trkpt lat="45.70846" lon="4.6252">
        <ele>578</ele>
        <time>2011-11-06T14:18:22Z</time>
      </trkpt>
      <trkpt lat="45.70845" lon="4.62518">
        <ele>578</ele>
        <time>2011-11-06T14:18:23Z</time>
      </trkpt>
      <trkpt lat="45.70843" lon="4.62517">
        <ele>578</ele>
        <time>2011-11-06T14:18:24Z</time>
      </trkpt>
      <trkpt lat="45.70842" lon="4.62516">
        <ele>578</ele>
        <time>2011-11-06T14:18:25Z</time>
      </trkpt>
      <trkpt lat="45.7084" lon="4.62514">
        <ele>578</ele>
        <time>2011-11-06T14:18:26Z</time>
      </trkpt>
      <trkpt lat="45.70839" lon="4.62511">
        <ele>578</ele>
        <time>2011-11-06T14:18:27Z</time>
      </trkpt>
      <trkpt lat="45.70838" lon="4.62509">
        <ele>578</ele>
        <time>2011-11-06T14:18:28Z</time>
      </trkpt>
      <trkpt lat="45.70837" lon="4.62507">
        <ele>579</ele>
        <time>2011-11-06T14:18:29Z</time>
      </trkpt>
      <trkpt lat="45.70836" lon="4.62504">
        <ele>579</ele>
        <time>2011-11-06T14:18:30Z</time>
      </trkpt>
      <trkpt lat="45.70829" lon="4.6249">
        <ele>580</ele>
        <time>2011-11-06T14:18:37Z</time>
      </trkpt>
      <trkpt lat="45.70824" lon="4.62476">
        <ele>581</ele>
        <time>2011-11-06T14:18:43Z</time>
      </trkpt>
      <trkpt lat="45.70823" lon="4.62473">
        <ele>581</ele>
        <time>2011-11-06T14:18:44Z</time>
      </trkpt>
      <trkpt lat="45.70822" lon="4.62471">
        <ele>582</ele>
        <time>2011-11-06T14:18:45Z</time>
      </trkpt>
      <trkpt lat="45.70822" lon="4.62469">
        <ele>582</ele>
        <time>2011-11-06T14:18:46Z</time>
      </trkpt>
      <trkpt lat="45.70821" lon="4.62467">
        <ele>582</ele>
        <time>2011-11-06T14:18:47Z</time>
      </trkpt>
      <trkpt lat="45.70821" lon="4.62465">
        <ele>582</ele>
        <time>2011-11-06T14:18:48Z</time>
      </trkpt>
      <trkpt lat="45.70821" lon="4.62463">
        <ele>583</ele>
        <time>2011-11-06T14:18:49Z</time>
      </trkpt>
      <trkpt lat="45.70821" lon="4.6246">
        <ele>583</ele>
        <time>2011-11-06T14:18:50Z</time>
      </trkpt>
      <trkpt lat="45.70821" lon="4.62458">
        <ele>583</ele>
        <time>2011-11-06T14:18:51Z</time>
      </trkpt>
      <trkpt lat="45.70821" lon="4.62456">
        <ele>584</ele>
        <time>2011-11-06T14:18:52Z</time>
      </trkpt>
      <trkpt lat="45.70821" lon="4.62454">
        <ele>584</ele>
        <time>2011-11-06T14:18:53Z</time>
      </trkpt>
      <trkpt lat="45.7082" lon="4.62452">
        <ele>584</ele>
        <time>2011-11-06T14:18:54Z</time>
      </trkpt>
      <trkpt lat="45.70819" lon="4.62449">
        <ele>584</ele>
        <time>2011-11-06T14:18:55Z</time>
      </trkpt>
      <trkpt lat="45.70819" lon="4.62446">
        <ele>584</ele>
        <time>2011-11-06T14:18:56Z</time>
      </trkpt>
      <trkpt lat="45.70818" lon="4.62443">
        <ele>584</ele>
        <time>2011-11-06T14:18:57Z</time>
      </trkpt>
      <trkpt lat="45.70817" lon="4.6244">
        <ele>585</ele>
        <time>2011-11-06T14:18:58Z</time>
      </trkpt>
      <trkpt lat="45.70817" lon="4.62437">
        <ele>585</ele>
        <time>2011-11-06T14:18:59Z</time>
      </trkpt>
      <trkpt lat="45.70818" lon="4.62434">
        <ele>585</ele>
        <time>2011-11-06T14:19:00Z</time>
      </trkpt>
      <trkpt lat="45.70819" lon="4.62431">
        <ele>585</ele>
        <time>2011-11-06T14:19:01Z</time>
      </trkpt>
      <trkpt lat="45.70818" lon="4.62428">
        <ele>585</ele>
        <time>2011-11-06T14:19:02Z</time>
      </trkpt>
      <trkpt lat="45.70818" lon="4.62425">
        <ele>584</ele>
        <time>2011-11-06T14:19:03Z</time>
      </trkpt>
      <trkpt lat="45.70818" lon="4.62422">
        <ele>585</ele>
        <time>2011-11-06T14:19:04Z</time>
      </trkpt>
      <trkpt lat="45.70817" lon="4.62419">
        <ele>585</ele>
        <time>2011-11-06T14:19:05Z</time>
      </trkpt>
      <trkpt lat="45.70816" lon="4.62416">
        <ele>585</ele>
        <time>2011-11-06T14:19:06Z</time>
      </trkpt>
      <trkpt lat="45.70816" lon="4.62412">
        <ele>585</ele>
        <time>2011-11-06T14:19:07Z</time>
      </trkpt>
      <trkpt lat="45.70816" lon="4.62395">
        <ele>584</ele>
        <time>2011-11-06T14:19:13Z</time>
      </trkpt>
      <trkpt lat="45.70814" lon="4.62392">
        <ele>585</ele>
        <time>2011-11-06T14:19:15Z</time>
      </trkpt>
      <trkpt lat="45.7081" lon="4.62394">
        <ele>586</ele>
        <time>2011-11-06T14:19:20Z</time>
      </trkpt>
      <trkpt lat="45.7081" lon="4.62396">
        <ele>586</ele>
        <time>2011-11-06T14:19:21Z</time>
      </trkpt>
      <trkpt lat="45.7081" lon="4.62398">
        <ele>587</ele>
        <time>2011-11-06T14:19:22Z</time>
      </trkpt>
      <trkpt lat="45.70809" lon="4.62399">
        <ele>587</ele>
        <time>2011-11-06T14:19:23Z</time>
      </trkpt>
      <trkpt lat="45.70809" lon="4.62401">
        <ele>587</ele>
        <time>2011-11-06T14:19:24Z</time>
      </trkpt>
      <trkpt lat="45.70808" lon="4.62404">
        <ele>587</ele>
        <time>2011-11-06T14:19:26Z</time>
      </trkpt>
      <trkpt lat="45.70799" lon="4.6241">
        <ele>590</ele>
        <time>2011-11-06T14:19:32Z</time>
      </trkpt>
      <trkpt lat="45.70799" lon="4.62414">
        <ele>590</ele>
        <time>2011-11-06T14:19:35Z</time>
      </trkpt>
      <trkpt lat="45.70797" lon="4.62421">
        <ele>591</ele>
        <time>2011-11-06T14:19:38Z</time>
      </trkpt>
      <trkpt lat="45.70792" lon="4.62435">
        <ele>592</ele>
        <time>2011-11-06T14:19:45Z</time>
      </trkpt>
      <trkpt lat="45.70787" lon="4.62444">
        <ele>594</ele>
        <time>2011-11-06T14:19:51Z</time>
      </trkpt>
      <trkpt lat="45.70786" lon="4.62446">
        <ele>594</ele>
        <time>2011-11-06T14:19:52Z</time>
      </trkpt>
      <trkpt lat="45.70785" lon="4.62447">
        <ele>594</ele>
        <time>2011-11-06T14:19:53Z</time>
      </trkpt>
      <trkpt lat="45.70782" lon="4.62455">
        <ele>596</ele>
        <time>2011-11-06T14:19:59Z</time>
      </trkpt>
      <trkpt lat="45.70776" lon="4.62464">
        <ele>598</ele>
        <time>2011-11-06T14:20:04Z</time>
      </trkpt>
      <trkpt lat="45.70775" lon="4.62464">
        <ele>597</ele>
        <time>2011-11-06T14:20:05Z</time>
      </trkpt>
      <trkpt lat="45.70773" lon="4.62464">
        <ele>598</ele>
        <time>2011-11-06T14:20:06Z</time>
      </trkpt>
      <trkpt lat="45.70772" lon="4.62464">
        <ele>598</ele>
        <time>2011-11-06T14:20:07Z</time>
      </trkpt>
      <trkpt lat="45.70768" lon="4.62459">
        <ele>599</ele>
        <time>2011-11-06T14:20:13Z</time>
      </trkpt>
      <trkpt lat="45.70764" lon="4.62454">
        <ele>600</ele>
        <time>2011-11-06T14:20:19Z</time>
      </trkpt>
      <trkpt lat="45.7076" lon="4.62448">
        <ele>601</ele>
        <time>2011-11-06T14:20:23Z</time>
      </trkpt>
      <trkpt lat="45.70759" lon="4.62447">
        <ele>601</ele>
        <time>2011-11-06T14:20:24Z</time>
      </trkpt>
      <trkpt lat="45.70757" lon="4.62446">
        <ele>602</ele>
        <time>2011-11-06T14:20:25Z</time>
      </trkpt>
      <trkpt lat="45.7075" lon="4.62443">
        <ele>603</ele>
        <time>2011-11-06T14:20:31Z</time>
      </trkpt>
      <trkpt lat="45.70747" lon="4.6244">
        <ele>604</ele>
        <time>2011-11-06T14:20:35Z</time>
      </trkpt>
      <trkpt lat="45.70744" lon="4.62437">
        <ele>605</ele>
        <time>2011-11-06T14:20:39Z</time>
      </trkpt>
      <trkpt lat="45.70742" lon="4.62434">
        <ele>606</ele>
        <time>2011-11-06T14:20:41Z</time>
      </trkpt>
      <trkpt lat="45.70739" lon="4.62428">
        <ele>607</ele>
        <time>2011-11-06T14:20:47Z</time>
      </trkpt>
      <trkpt lat="45.70738" lon="4.62426">
        <ele>607</ele>
        <time>2011-11-06T14:20:55Z</time>
      </trkpt>
      <trkpt lat="45.70738" lon="4.62426">
        <ele>607</ele>
        <time>2011-11-06T14:21:09Z</time>
      </trkpt>
      <trkpt lat="45.70737" lon="4.62425">
        <ele>608</ele>
        <time>2011-11-06T14:21:19Z</time>
      </trkpt>
      <trkpt lat="45.70737" lon="4.62425">
        <ele>608</ele>
        <time>2011-11-06T14:21:36Z</time>
      </trkpt>
      <trkpt lat="45.70738" lon="4.6242">
        <ele>608</ele>
        <time>2011-11-06T14:21:50Z</time>
      </trkpt>
      <trkpt lat="45.70736" lon="4.62414">
        <ele>609</ele>
        <time>2011-11-06T14:21:55Z</time>
      </trkpt>
      <trkpt lat="45.70736" lon="4.62405">
        <ele>610</ele>
        <time>2011-11-06T14:22:01Z</time>
      </trkpt>
      <trkpt lat="45.70732" lon="4.62399">
        <ele>611</ele>
        <time>2011-11-06T14:22:08Z</time>
      </trkpt>
      <trkpt lat="45.70729" lon="4.62399">
        <ele>613</ele>
        <time>2011-11-06T14:22:15Z</time>
      </trkpt>
      <trkpt lat="45.70723" lon="4.62396">
        <ele>614</ele>
        <time>2011-11-06T14:22:23Z</time>
      </trkpt>
      <trkpt lat="45.70717" lon="4.62394">
        <ele>616</ele>
        <time>2011-11-06T14:22:30Z</time>
      </trkpt>
      <trkpt lat="45.70715" lon="4.62392">
        <ele>616</ele>
        <time>2011-11-06T14:22:37Z</time>
      </trkpt>
      <trkpt lat="45.70715" lon="4.6239">
        <ele>616</ele>
        <time>2011-11-06T14:22:47Z</time>
      </trkpt>
      <trkpt lat="45.70715" lon="4.6239">
        <ele>616</ele>
        <time>2011-11-06T14:22:57Z</time>
      </trkpt>
      <trkpt lat="45.70715" lon="4.62389">
        <ele>616</ele>
        <time>2011-11-06T14:22:58Z</time>
      </trkpt>
      <trkpt lat="45.70714" lon="4.62385">
        <ele>617</ele>
        <time>2011-11-06T14:23:00Z</time>
      </trkpt>
      <trkpt lat="45.70715" lon="4.62383">
        <ele>617</ele>
        <time>2011-11-06T14:23:01Z</time>
      </trkpt>
      <trkpt lat="45.70715" lon="4.6238">
        <ele>617</ele>
        <time>2011-11-06T14:23:03Z</time>
      </trkpt>
      <trkpt lat="45.70717" lon="4.62371">
        <ele>618</ele>
        <time>2011-11-06T14:23:08Z</time>
      </trkpt>
      <trkpt lat="45.70718" lon="4.62369">
        <ele>618</ele>
        <time>2011-11-06T14:23:09Z</time>
      </trkpt>
      <trkpt lat="45.70718" lon="4.62367">
        <ele>619</ele>
        <time>2011-11-06T14:23:10Z</time>
      </trkpt>
      <trkpt lat="45.70719" lon="4.62356">
        <ele>620</ele>
        <time>2011-11-06T14:23:16Z</time>
      </trkpt>
      <trkpt lat="45.70719" lon="4.62355">
        <ele>621</ele>
        <time>2011-11-06T14:23:17Z</time>
      </trkpt>
      <trkpt lat="45.70717" lon="4.62342">
        <ele>623</ele>
        <time>2011-11-06T14:23:24Z</time>
      </trkpt>
      <trkpt lat="45.70715" lon="4.62338">
        <ele>626</ele>
        <time>2011-11-06T14:23:30Z</time>
      </trkpt>
      <trkpt lat="45.70713" lon="4.62338">
        <ele>626</ele>
        <time>2011-11-06T14:23:31Z</time>
      </trkpt>
      <trkpt lat="45.70711" lon="4.62338">
        <ele>626</ele>
        <time>2011-11-06T14:23:32Z</time>
      </trkpt>
      <trkpt lat="45.70707" lon="4.6234">
        <ele>627</ele>
        <time>2011-11-06T14:23:35Z</time>
      </trkpt>
      <trkpt lat="45.70705" lon="4.62339">
        <ele>627</ele>
        <time>2011-11-06T14:23:36Z</time>
      </trkpt>
      <trkpt lat="45.70701" lon="4.62334">
        <ele>628</ele>
        <time>2011-11-06T14:23:41Z</time>
      </trkpt>
      <trkpt lat="45.70699" lon="4.62332">
        <ele>629</ele>
        <time>2011-11-06T14:23:43Z</time>
      </trkpt>
      <trkpt lat="45.70698" lon="4.62331">
        <ele>628</ele>
        <time>2011-11-06T14:23:44Z</time>
      </trkpt>
      <trkpt lat="45.70696" lon="4.62328">
        <ele>629</ele>
        <time>2011-11-06T14:23:46Z</time>
      </trkpt>
      <trkpt lat="45.70696" lon="4.62326">
        <ele>629</ele>
        <time>2011-11-06T14:23:47Z</time>
      </trkpt>
      <trkpt lat="45.70695" lon="4.62313">
        <ele>631</ele>
        <time>2011-11-06T14:23:55Z</time>
      </trkpt>
      <trkpt lat="45.70692" lon="4.623">
        <ele>633</ele>
        <time>2011-11-06T14:24:02Z</time>
      </trkpt>
      <trkpt lat="45.70692" lon="4.62298">
        <ele>633</ele>
        <time>2011-11-06T14:24:03Z</time>
      </trkpt>
      <trkpt lat="45.70693" lon="4.62292">
        <ele>634</ele>
        <time>2011-11-06T14:24:06Z</time>
      </trkpt>
      <trkpt lat="45.70694" lon="4.6229">
        <ele>635</ele>
        <time>2011-11-06T14:24:07Z</time>
      </trkpt>
      <trkpt lat="45.70694" lon="4.62289">
        <ele>635</ele>
        <time>2011-11-06T14:24:08Z</time>
      </trkpt>
      <trkpt lat="45.70695" lon="4.62277">
        <ele>636</ele>
        <time>2011-11-06T14:24:15Z</time>
      </trkpt>
      <trkpt lat="45.70695" lon="4.62275">
        <ele>636</ele>
        <time>2011-11-06T14:24:16Z</time>
      </trkpt>
      <trkpt lat="45.70697" lon="4.62265">
        <ele>637</ele>
        <time>2011-11-06T14:24:23Z</time>
      </trkpt>
      <trkpt lat="45.70696" lon="4.62255">
        <ele>638</ele>
        <time>2011-11-06T14:24:30Z</time>
      </trkpt>
      <trkpt lat="45.70695" lon="4.62254">
        <ele>637</ele>
        <time>2011-11-06T14:24:31Z</time>
      </trkpt>
      <trkpt lat="45.70695" lon="4.62252">
        <ele>638</ele>
        <time>2011-11-06T14:24:32Z</time>
      </trkpt>
      <trkpt lat="45.70693" lon="4.62244">
        <ele>639</ele>
        <time>2011-11-06T14:24:37Z</time>
      </trkpt>
      <trkpt lat="45.70693" lon="4.6224">
        <ele>639</ele>
        <time>2011-11-06T14:24:40Z</time>
      </trkpt>
      <trkpt lat="45.70691" lon="4.62236">
        <ele>640</ele>
        <time>2011-11-06T14:24:44Z</time>
      </trkpt>
      <trkpt lat="45.70687" lon="4.62228">
        <ele>641</ele>
        <time>2011-11-06T14:24:50Z</time>
      </trkpt>
      <trkpt lat="45.70687" lon="4.62227">
        <ele>642</ele>
        <time>2011-11-06T14:24:51Z</time>
      </trkpt>
      <trkpt lat="45.70685" lon="4.62224">
        <ele>642</ele>
        <time>2011-11-06T14:24:54Z</time>
      </trkpt>
      <trkpt lat="45.70684" lon="4.62223">
        <ele>642</ele>
        <time>2011-11-06T14:24:55Z</time>
      </trkpt>
      <trkpt lat="45.7068" lon="4.6222">
        <ele>642</ele>
        <time>2011-11-06T14:24:59Z</time>
      </trkpt>
      <trkpt lat="45.70678" lon="4.62212">
        <ele>643</ele>
        <time>2011-11-06T14:25:05Z</time>
      </trkpt>
      <trkpt lat="45.70675" lon="4.62198">
        <ele>643</ele>
        <time>2011-11-06T14:25:13Z</time>
      </trkpt>
      <trkpt lat="45.70673" lon="4.62185">
        <ele>645</ele>
        <time>2011-11-06T14:25:20Z</time>
      </trkpt>
      <trkpt lat="45.70672" lon="4.6218">
        <ele>644</ele>
        <time>2011-11-06T14:25:23Z</time>
      </trkpt>
      <trkpt lat="45.70669" lon="4.62171">
        <ele>645</ele>
        <time>2011-11-06T14:25:29Z</time>
      </trkpt>
      <trkpt lat="45.70669" lon="4.62156">
        <ele>646</ele>
        <time>2011-11-06T14:25:37Z</time>
      </trkpt>
      <trkpt lat="45.7067" lon="4.6215">
        <ele>647</ele>
        <time>2011-11-06T14:25:40Z</time>
      </trkpt>
      <trkpt lat="45.7067" lon="4.62147">
        <ele>647</ele>
        <time>2011-11-06T14:25:41Z</time>
      </trkpt>
      <trkpt lat="45.70669" lon="4.62128">
        <ele>648</ele>
        <time>2011-11-06T14:25:51Z</time>
      </trkpt>
      <trkpt lat="45.70668" lon="4.62123">
        <ele>649</ele>
        <time>2011-11-06T14:25:53Z</time>
      </trkpt>
      <trkpt lat="45.70667" lon="4.62113">
        <ele>649</ele>
        <time>2011-11-06T14:25:57Z</time>
      </trkpt>
      <trkpt lat="45.70667" lon="4.62112">
        <ele>649</ele>
        <time>2011-11-06T14:25:58Z</time>
      </trkpt>
      <trkpt lat="45.70667" lon="4.62109">
        <ele>649</ele>
        <time>2011-11-06T14:25:59Z</time>
      </trkpt>
      <trkpt lat="45.70674" lon="4.62089">
        <ele>650</ele>
        <time>2011-11-06T14:26:10Z</time>
      </trkpt>
      <trkpt lat="45.70675" lon="4.62087">
        <ele>651</ele>
        <time>2011-11-06T14:26:11Z</time>
      </trkpt>
      <trkpt lat="45.70675" lon="4.62086">
        <ele>651</ele>
        <time>2011-11-06T14:26:12Z</time>
      </trkpt>
      <trkpt lat="45.70676" lon="4.62083">
        <ele>651</ele>
        <time>2011-11-06T14:26:14Z</time>
      </trkpt>
      <trkpt lat="45.70676" lon="4.62081">
        <ele>651</ele>
        <time>2011-11-06T14:26:15Z</time>
      </trkpt>
      <trkpt lat="45.70677" lon="4.6208">
        <ele>651</ele>
        <time>2011-11-06T14:26:16Z</time>
      </trkpt>
      <trkpt lat="45.70678" lon="4.62078">
        <ele>652</ele>
        <time>2011-11-06T14:26:17Z</time>
      </trkpt>
      <trkpt lat="45.70678" lon="4.62076">
        <ele>651</ele>
        <time>2011-11-06T14:26:18Z</time>
      </trkpt>
      <trkpt lat="45.70678" lon="4.62074">
        <ele>652</ele>
        <time>2011-11-06T14:26:19Z</time>
      </trkpt>
      <trkpt lat="45.70678" lon="4.62072">
        <ele>651</ele>
        <time>2011-11-06T14:26:20Z</time>
      </trkpt>
      <trkpt lat="45.70678" lon="4.6207">
        <ele>652</ele>
        <time>2011-11-06T14:26:21Z</time>
      </trkpt>
      <trkpt lat="45.7068" lon="4.62062">
        <ele>652</ele>
        <time>2011-11-06T14:26:25Z</time>
      </trkpt>
      <trkpt lat="45.7068" lon="4.6206">
        <ele>652</ele>
        <time>2011-11-06T14:26:26Z</time>
      </trkpt>
      <trkpt lat="45.7068" lon="4.62058">
        <ele>653</ele>
        <time>2011-11-06T14:26:27Z</time>
      </trkpt>
      <trkpt lat="45.7068" lon="4.62056">
        <ele>652</ele>
        <time>2011-11-06T14:26:28Z</time>
      </trkpt>
      <trkpt lat="45.7068" lon="4.62053">
        <ele>653</ele>
        <time>2011-11-06T14:26:29Z</time>
      </trkpt>
      <trkpt lat="45.70679" lon="4.62051">
        <ele>653</ele>
        <time>2011-11-06T14:26:30Z</time>
      </trkpt>
      <trkpt lat="45.70679" lon="4.62049">
        <ele>653</ele>
        <time>2011-11-06T14:26:31Z</time>
      </trkpt>
      <trkpt lat="45.7068" lon="4.62046">
        <ele>654</ele>
        <time>2011-11-06T14:26:32Z</time>
      </trkpt>
      <trkpt lat="45.7068" lon="4.62044">
        <ele>654</ele>
        <time>2011-11-06T14:26:33Z</time>
      </trkpt>
      <trkpt lat="45.70679" lon="4.62029">
        <ele>655</ele>
        <time>2011-11-06T14:26:40Z</time>
      </trkpt>
      <trkpt lat="45.7068" lon="4.62023">
        <ele>655</ele>
        <time>2011-11-06T14:26:43Z</time>
      </trkpt>
      <trkpt lat="45.7068" lon="4.62021">
        <ele>655</ele>
        <time>2011-11-06T14:26:44Z</time>
      </trkpt>
      <trkpt lat="45.70681" lon="4.62019">
        <ele>655</ele>
        <time>2011-11-06T14:26:45Z</time>
      </trkpt>
      <trkpt lat="45.70681" lon="4.62017">
        <ele>655</ele>
        <time>2011-11-06T14:26:46Z</time>
      </trkpt>
      <trkpt lat="45.70682" lon="4.62014">
        <ele>655</ele>
        <time>2011-11-06T14:26:47Z</time>
      </trkpt>
      <trkpt lat="45.70682" lon="4.62012">
        <ele>654</ele>
        <time>2011-11-06T14:26:48Z</time>
      </trkpt>
      <trkpt lat="45.70686" lon="4.6199">
        <ele>655</ele>
        <time>2011-11-06T14:26:58Z</time>
      </trkpt>
      <trkpt lat="45.70688" lon="4.61983">
        <ele>656</ele>
        <time>2011-11-06T14:27:02Z</time>
      </trkpt>
      <trkpt lat="45.70688" lon="4.61979">
        <ele>656</ele>
        <time>2011-11-06T14:27:05Z</time>
      </trkpt>
      <trkpt lat="45.7069" lon="4.61969">
        <ele>657</ele>
        <time>2011-11-06T14:27:13Z</time>
      </trkpt>
      <trkpt lat="45.70691" lon="4.61968">
        <ele>657</ele>
        <time>2011-11-06T14:27:14Z</time>
      </trkpt>
      <trkpt lat="45.70691" lon="4.61966">
        <ele>657</ele>
        <time>2011-11-06T14:27:15Z</time>
      </trkpt>
      <trkpt lat="45.70694" lon="4.61955">
        <ele>657</ele>
        <time>2011-11-06T14:27:22Z</time>
      </trkpt>
      <trkpt lat="45.70694" lon="4.61954">
        <ele>657</ele>
        <time>2011-11-06T14:27:23Z</time>
      </trkpt>
      <trkpt lat="45.70697" lon="4.61943">
        <ele>657</ele>
        <time>2011-11-06T14:27:30Z</time>
      </trkpt>
      <trkpt lat="45.70696" lon="4.61937">
        <ele>658</ele>
        <time>2011-11-06T14:27:34Z</time>
      </trkpt>
      <trkpt lat="45.70696" lon="4.61935">
        <ele>658</ele>
        <time>2011-11-06T14:27:35Z</time>
      </trkpt>
      <trkpt lat="45.70694" lon="4.61918">
        <ele>659</ele>
        <time>2011-11-06T14:27:44Z</time>
      </trkpt>
      <trkpt lat="45.70693" lon="4.61902">
        <ele>661</ele>
        <time>2011-11-06T14:27:52Z</time>
      </trkpt>
      <trkpt lat="45.70692" lon="4.619">
        <ele>661</ele>
        <time>2011-11-06T14:27:53Z</time>
      </trkpt>
      <trkpt lat="45.70691" lon="4.61898">
        <ele>661</ele>
        <time>2011-11-06T14:27:54Z</time>
      </trkpt>
      <trkpt lat="45.70691" lon="4.61896">
        <ele>661</ele>
        <time>2011-11-06T14:27:55Z</time>
      </trkpt>
      <trkpt lat="45.7069" lon="4.61894">
        <ele>661</ele>
        <time>2011-11-06T14:27:56Z</time>
      </trkpt>
      <trkpt lat="45.7069" lon="4.61892">
        <ele>661</ele>
        <time>2011-11-06T14:27:57Z</time>
      </trkpt>
      <trkpt lat="45.70689" lon="4.6189">
        <ele>661</ele>
        <time>2011-11-06T14:27:58Z</time>
      </trkpt>
      <trkpt lat="45.70689" lon="4.61888">
        <ele>661</ele>
        <time>2011-11-06T14:27:59Z</time>
      </trkpt>
      <trkpt lat="45.70687" lon="4.6187">
        <ele>662</ele>
        <time>2011-11-06T14:28:07Z</time>
      </trkpt>
      <trkpt lat="45.70686" lon="4.61848">
        <ele>663</ele>
        <time>2011-11-06T14:28:16Z</time>
      </trkpt>
      <trkpt lat="45.70679" lon="4.61824">
        <ele>665</ele>
        <time>2011-11-06T14:28:25Z</time>
      </trkpt>
      <trkpt lat="45.70677" lon="4.61805">
        <ele>665</ele>
        <time>2011-11-06T14:28:32Z</time>
      </trkpt>
      <trkpt lat="45.70673" lon="4.61777">
        <ele>666</ele>
        <time>2011-11-06T14:28:42Z</time>
      </trkpt>
      <trkpt lat="45.70671" lon="4.61753">
        <ele>668</ele>
        <time>2011-11-06T14:28:51Z</time>
      </trkpt>
      <trkpt lat="45.70669" lon="4.61741">
        <ele>668</ele>
        <time>2011-11-06T14:28:56Z</time>
      </trkpt>
      <trkpt lat="45.70669" lon="4.61738">
        <ele>669</ele>
        <time>2011-11-06T14:28:57Z</time>
      </trkpt>
      <trkpt lat="45.70669" lon="4.61736">
        <ele>669</ele>
        <time>2011-11-06T14:28:58Z</time>
      </trkpt>
      <trkpt lat="45.70666" lon="4.61706">
        <ele>670</ele>
        <time>2011-11-06T14:29:09Z</time>
      </trkpt>
      <trkpt lat="45.70664" lon="4.61682">
        <ele>670</ele>
        <time>2011-11-06T14:29:17Z</time>
      </trkpt>
      <trkpt lat="45.70662" lon="4.61677">
        <ele>670</ele>
        <time>2011-11-06T14:29:19Z</time>
      </trkpt>
      <trkpt lat="45.70661" lon="4.61676">
        <ele>670</ele>
        <time>2011-11-06T14:29:20Z</time>
      </trkpt>
      <trkpt lat="45.7066" lon="4.61674">
        <ele>670</ele>
        <time>2011-11-06T14:29:21Z</time>
      </trkpt>
      <trkpt lat="45.70659" lon="4.61672">
        <ele>670</ele>
        <time>2011-11-06T14:29:22Z</time>
      </trkpt>
      <trkpt lat="45.70657" lon="4.6167">
        <ele>671</ele>
        <time>2011-11-06T14:29:23Z</time>
      </trkpt>
      <trkpt lat="45.70656" lon="4.61668">
        <ele>671</ele>
        <time>2011-11-06T14:29:24Z</time>
      </trkpt>
      <trkpt lat="45.70636" lon="4.61651">
        <ele>672</ele>
        <time>2011-11-06T14:29:33Z</time>
      </trkpt>
      <trkpt lat="45.7062" lon="4.61637">
        <ele>672</ele>
        <time>2011-11-06T14:29:41Z</time>
      </trkpt>
      <trkpt lat="45.70611" lon="4.61626">
        <ele>672</ele>
        <time>2011-11-06T14:29:47Z</time>
      </trkpt>
      <trkpt lat="45.70611" lon="4.61624">
        <ele>672</ele>
        <time>2011-11-06T14:29:48Z</time>
      </trkpt>
      <trkpt lat="45.70611" lon="4.61622">
        <ele>672</ele>
        <time>2011-11-06T14:29:49Z</time>
      </trkpt>
      <trkpt lat="45.70611" lon="4.6162">
        <ele>673</ele>
        <time>2011-11-06T14:29:50Z</time>
      </trkpt>
      <trkpt lat="45.70611" lon="4.61618">
        <ele>672</ele>
        <time>2011-11-06T14:29:51Z</time>
      </trkpt>
      <trkpt lat="45.70612" lon="4.61616">
        <ele>672</ele>
        <time>2011-11-06T14:29:52Z</time>
      </trkpt>
      <trkpt lat="45.70613" lon="4.61614">
        <ele>672</ele>
        <time>2011-11-06T14:29:53Z</time>
      </trkpt>
      <trkpt lat="45.70614" lon="4.6161">
        <ele>671</ele>
        <time>2011-11-06T14:29:55Z</time>
      </trkpt>
      <trkpt lat="45.70614" lon="4.61608">
        <ele>671</ele>
        <time>2011-11-06T14:29:56Z</time>
      </trkpt>
      <trkpt lat="45.70613" lon="4.61605">
        <ele>671</ele>
        <time>2011-11-06T14:29:57Z</time>
      </trkpt>
      <trkpt lat="45.70613" lon="4.61602">
        <ele>671</ele>
        <time>2011-11-06T14:29:58Z</time>
      </trkpt>
      <trkpt lat="45.70614" lon="4.61598">
        <ele>671</ele>
        <time>2011-11-06T14:29:59Z</time>
      </trkpt>
      <trkpt lat="45.70614" lon="4.61594">
        <ele>671</ele>
        <time>2011-11-06T14:30:00Z</time>
      </trkpt>
      <trkpt lat="45.70614" lon="4.61566">
        <ele>670</ele>
        <time>2011-11-06T14:30:05Z</time>
      </trkpt>
      <trkpt lat="45.70611" lon="4.61533">
        <ele>669</ele>
        <time>2011-11-06T14:30:09Z</time>
      </trkpt>
      <trkpt lat="45.70607" lon="4.61515">
        <ele>667</ele>
        <time>2011-11-06T14:30:11Z</time>
      </trkpt>
      <trkpt lat="45.70595" lon="4.61464">
        <ele>665</ele>
        <time>2011-11-06T14:30:16Z</time>
      </trkpt>
      <trkpt lat="45.70574" lon="4.61393">
        <ele>663</ele>
        <time>2011-11-06T14:30:22Z</time>
      </trkpt>
      <trkpt lat="45.70567" lon="4.61371">
        <ele>661</ele>
        <time>2011-11-06T14:30:24Z</time>
      </trkpt>
      <trkpt lat="45.70559" lon="4.61335">
        <ele>659</ele>
        <time>2011-11-06T14:30:27Z</time>
      </trkpt>
      <trkpt lat="45.70535" lon="4.61256">
        <ele>656</ele>
        <time>2011-11-06T14:30:34Z</time>
      </trkpt>
      <trkpt lat="45.70533" lon="4.61245">
        <ele>656</ele>
        <time>2011-11-06T14:30:35Z</time>
      </trkpt>
      <trkpt lat="45.70532" lon="4.61234">
        <ele>655</ele>
        <time>2011-11-06T14:30:36Z</time>
      </trkpt>
      <trkpt lat="45.70531" lon="4.61222">
        <ele>655</ele>
        <time>2011-11-06T14:30:37Z</time>
      </trkpt>
      <trkpt lat="45.70531" lon="4.61166">
        <ele>654</ele>
        <time>2011-11-06T14:30:42Z</time>
      </trkpt>
      <trkpt lat="45.70533" lon="4.61155">
        <ele>653</ele>
        <time>2011-11-06T14:30:43Z</time>
      </trkpt>
      <trkpt lat="45.70535" lon="4.61145">
        <ele>652</ele>
        <time>2011-11-06T14:30:44Z</time>
      </trkpt>
      <trkpt lat="45.70538" lon="4.61134">
        <ele>652</ele>
        <time>2011-11-06T14:30:45Z</time>
      </trkpt>
      <trkpt lat="45.70541" lon="4.61124">
        <ele>652</ele>
        <time>2011-11-06T14:30:46Z</time>
      </trkpt>
      <trkpt lat="45.70548" lon="4.61105">
        <ele>651</ele>
        <time>2011-11-06T14:30:48Z</time>
      </trkpt>
      <trkpt lat="45.70556" lon="4.61077">
        <ele>651</ele>
        <time>2011-11-06T14:30:51Z</time>
      </trkpt>
      <trkpt lat="45.7056" lon="4.61069">
        <ele>651</ele>
        <time>2011-11-06T14:30:52Z</time>
      </trkpt>
      <trkpt lat="45.70588" lon="4.61021">
        <ele>650</ele>
        <time>2011-11-06T14:30:59Z</time>
      </trkpt>
      <trkpt lat="45.70603" lon="4.60999">
        <ele>650</ele>
        <time>2011-11-06T14:31:03Z</time>
      </trkpt>
      <trkpt lat="45.70628" lon="4.60957">
        <ele>651</ele>
        <time>2011-11-06T14:31:11Z</time>
      </trkpt>
      <trkpt lat="45.70642" lon="4.60949">
        <ele>651</ele>
        <time>2011-11-06T14:31:17Z</time>
      </trkpt>
      <trkpt lat="45.70644" lon="4.60949">
        <ele>651</ele>
        <time>2011-11-06T14:31:19Z</time>
      </trkpt>
      <trkpt lat="45.70645" lon="4.60949">
        <ele>651</ele>
        <time>2011-11-06T14:31:20Z</time>
      </trkpt>
      <trkpt lat="45.70658" lon="4.60954">
        <ele>653</ele>
        <time>2011-11-06T14:31:26Z</time>
      </trkpt>
      <trkpt lat="45.70679" lon="4.60957">
        <ele>654</ele>
        <time>2011-11-06T14:31:34Z</time>
      </trkpt>
      <trkpt lat="45.70695" lon="4.60958">
        <ele>655</ele>
        <time>2011-11-06T14:31:40Z</time>
      </trkpt>
      <trkpt lat="45.70711" lon="4.60961">
        <ele>655</ele>
        <time>2011-11-06T14:31:47Z</time>
      </trkpt>
      <trkpt lat="45.70725" lon="4.60963">
        <ele>658</ele>
        <time>2011-11-06T14:31:54Z</time>
      </trkpt>
      <trkpt lat="45.70741" lon="4.60958">
        <ele>658</ele>
        <time>2011-11-06T14:32:00Z</time>
      </trkpt>
      <trkpt lat="45.70757" lon="4.60943">
        <ele>659</ele>
        <time>2011-11-06T14:32:07Z</time>
      </trkpt>
      <trkpt lat="45.70767" lon="4.60925">
        <ele>660</ele>
        <time>2011-11-06T14:32:13Z</time>
      </trkpt>
      <trkpt lat="45.70777" lon="4.60902">
        <ele>661</ele>
        <time>2011-11-06T14:32:20Z</time>
      </trkpt>
      <trkpt lat="45.70779" lon="4.609">
        <ele>662</ele>
        <time>2011-11-06T14:32:21Z</time>
      </trkpt>
      <trkpt lat="45.70788" lon="4.60871">
        <ele>662</ele>
        <time>2011-11-06T14:32:29Z</time>
      </trkpt>
      <trkpt lat="45.70792" lon="4.60853">
        <ele>663</ele>
        <time>2011-11-06T14:32:34Z</time>
      </trkpt>
      <trkpt lat="45.70793" lon="4.60849">
        <ele>663</ele>
        <time>2011-11-06T14:32:35Z</time>
      </trkpt>
      <trkpt lat="45.70795" lon="4.60842">
        <ele>663</ele>
        <time>2011-11-06T14:32:37Z</time>
      </trkpt>
      <trkpt lat="45.70796" lon="4.60839">
        <ele>664</ele>
        <time>2011-11-06T14:32:38Z</time>
      </trkpt>
      <trkpt lat="45.70798" lon="4.60813">
        <ele>664</ele>
        <time>2011-11-06T14:32:45Z</time>
      </trkpt>
      <trkpt lat="45.70807" lon="4.60792">
        <ele>666</ele>
        <time>2011-11-06T14:32:52Z</time>
      </trkpt>
      <trkpt lat="45.70814" lon="4.60765">
        <ele>667</ele>
        <time>2011-11-06T14:33:00Z</time>
      </trkpt>
      <trkpt lat="45.70817" lon="4.60743">
        <ele>668</ele>
        <time>2011-11-06T14:33:06Z</time>
      </trkpt>
      <trkpt lat="45.70823" lon="4.60722">
        <ele>669</ele>
        <time>2011-11-06T14:33:12Z</time>
      </trkpt>
      <trkpt lat="45.70825" lon="4.60711">
        <ele>669</ele>
        <time>2011-11-06T14:33:15Z</time>
      </trkpt>
      <trkpt lat="45.70826" lon="4.60707">
        <ele>669</ele>
        <time>2011-11-06T14:33:16Z</time>
      </trkpt>
      <trkpt lat="45.70827" lon="4.60703">
        <ele>669</ele>
        <time>2011-11-06T14:33:17Z</time>
      </trkpt>
      <trkpt lat="45.70828" lon="4.60699">
        <ele>669</ele>
        <time>2011-11-06T14:33:18Z</time>
      </trkpt>
      <trkpt lat="45.70829" lon="4.60696">
        <ele>669</ele>
        <time>2011-11-06T14:33:19Z</time>
      </trkpt>
      <trkpt lat="45.7083" lon="4.60693">
        <ele>670</ele>
        <time>2011-11-06T14:33:20Z</time>
      </trkpt>
      <trkpt lat="45.70831" lon="4.60689">
        <ele>670</ele>
        <time>2011-11-06T14:33:21Z</time>
      </trkpt>
      <trkpt lat="45.70831" lon="4.60686">
        <ele>670</ele>
        <time>2011-11-06T14:33:22Z</time>
      </trkpt>
      <trkpt lat="45.70832" lon="4.60683">
        <ele>669</ele>
        <time>2011-11-06T14:33:23Z</time>
      </trkpt>
      <trkpt lat="45.70835" lon="4.6066">
        <ele>670</ele>
        <time>2011-11-06T14:33:29Z</time>
      </trkpt>
      <trkpt lat="45.70839" lon="4.60642">
        <ele>670</ele>
        <time>2011-11-06T14:33:34Z</time>
      </trkpt>
      <trkpt lat="45.70844" lon="4.60614">
        <ele>670</ele>
        <time>2011-11-06T14:33:40Z</time>
      </trkpt>
      <trkpt lat="45.70854" lon="4.60571">
        <ele>670</ele>
        <time>2011-11-06T14:33:49Z</time>
      </trkpt>
      <trkpt lat="45.70867" lon="4.60538">
        <ele>672</ele>
        <time>2011-11-06T14:33:57Z</time>
      </trkpt>
      <trkpt lat="45.70867" lon="4.6051">
        <ele>673</ele>
        <time>2011-11-06T14:34:04Z</time>
      </trkpt>
      <trkpt lat="45.70865" lon="4.60484">
        <ele>674</ele>
        <time>2011-11-06T14:34:11Z</time>
      </trkpt>
      <trkpt lat="45.70865" lon="4.60459">
        <ele>675</ele>
        <time>2011-11-06T14:34:18Z</time>
      </trkpt>
      <trkpt lat="45.70864" lon="4.60442">
        <ele>676</ele>
        <time>2011-11-06T14:34:24Z</time>
      </trkpt>
      <trkpt lat="45.70862" lon="4.60435">
        <ele>676</ele>
        <time>2011-11-06T14:34:26Z</time>
      </trkpt>
      <trkpt lat="45.70862" lon="4.60432">
        <ele>676</ele>
        <time>2011-11-06T14:34:27Z</time>
      </trkpt>
      <trkpt lat="45.70862" lon="4.60429">
        <ele>676</ele>
        <time>2011-11-06T14:34:28Z</time>
      </trkpt>
      <trkpt lat="45.70862" lon="4.60426">
        <ele>676</ele>
        <time>2011-11-06T14:34:29Z</time>
      </trkpt>
      <trkpt lat="45.70863" lon="4.60423">
        <ele>676</ele>
        <time>2011-11-06T14:34:30Z</time>
      </trkpt>
      <trkpt lat="45.70863" lon="4.6042">
        <ele>677</ele>
        <time>2011-11-06T14:34:31Z</time>
      </trkpt>
      <trkpt lat="45.70863" lon="4.60418">
        <ele>677</ele>
        <time>2011-11-06T14:34:32Z</time>
      </trkpt>
      <trkpt lat="45.70861" lon="4.60409">
        <ele>678</ele>
        <time>2011-11-06T14:34:36Z</time>
      </trkpt>
      <trkpt lat="45.7086" lon="4.60408">
        <ele>678</ele>
        <time>2011-11-06T14:34:37Z</time>
      </trkpt>
      <trkpt lat="45.70859" lon="4.60406">
        <ele>679</ele>
        <time>2011-11-06T14:34:38Z</time>
      </trkpt>
      <trkpt lat="45.70853" lon="4.60393">
        <ele>680</ele>
        <time>2011-11-06T14:34:44Z</time>
      </trkpt>
      <trkpt lat="45.70853" lon="4.6039">
        <ele>680</ele>
        <time>2011-11-06T14:34:45Z</time>
      </trkpt>
      <trkpt lat="45.70852" lon="4.60387">
        <ele>680</ele>
        <time>2011-11-06T14:34:46Z</time>
      </trkpt>
      <trkpt lat="45.70845" lon="4.60356">
        <ele>681</ele>
        <time>2011-11-06T14:34:54Z</time>
      </trkpt>
      <trkpt lat="45.70836" lon="4.60329">
        <ele>683</ele>
        <time>2011-11-06T14:35:01Z</time>
      </trkpt>
      <trkpt lat="45.70828" lon="4.60304">
        <ele>683</ele>
        <time>2011-11-06T14:35:08Z</time>
      </trkpt>
      <trkpt lat="45.70817" lon="4.60284">
        <ele>683</ele>
        <time>2011-11-06T14:35:14Z</time>
      </trkpt>
      <trkpt lat="45.70795" lon="4.60257">
        <ele>684</ele>
        <time>2011-11-06T14:35:23Z</time>
      </trkpt>
      <trkpt lat="45.7077" lon="4.60238">
        <ele>683</ele>
        <time>2011-11-06T14:35:33Z</time>
      </trkpt>
      <trkpt lat="45.70767" lon="4.60237">
        <ele>683</ele>
        <time>2011-11-06T14:35:34Z</time>
      </trkpt>
      <trkpt lat="45.70764" lon="4.60235">
        <ele>683</ele>
        <time>2011-11-06T14:35:35Z</time>
      </trkpt>
      <trkpt lat="45.70762" lon="4.60233">
        <ele>682</ele>
        <time>2011-11-06T14:35:36Z</time>
      </trkpt>
      <trkpt lat="45.70759" lon="4.60231">
        <ele>683</ele>
        <time>2011-11-06T14:35:37Z</time>
      </trkpt>
      <trkpt lat="45.70757" lon="4.60229">
        <ele>684</ele>
        <time>2011-11-06T14:35:38Z</time>
      </trkpt>
      <trkpt lat="45.70741" lon="4.60218">
        <ele>683</ele>
        <time>2011-11-06T14:35:44Z</time>
      </trkpt>
      <trkpt lat="45.70738" lon="4.60217">
        <ele>682</ele>
        <time>2011-11-06T14:35:45Z</time>
      </trkpt>
      <trkpt lat="45.70717" lon="4.60204">
        <ele>681</ele>
        <time>2011-11-06T14:35:51Z</time>
      </trkpt>
      <trkpt lat="45.70712" lon="4.60201">
        <ele>680</ele>
        <time>2011-11-06T14:35:52Z</time>
      </trkpt>
      <trkpt lat="45.70708" lon="4.60196">
        <ele>679</ele>
        <time>2011-11-06T14:35:53Z</time>
      </trkpt>
      <trkpt lat="45.70704" lon="4.60189">
        <ele>679</ele>
        <time>2011-11-06T14:35:54Z</time>
      </trkpt>
      <trkpt lat="45.70702" lon="4.60182">
        <ele>678</ele>
        <time>2011-11-06T14:35:55Z</time>
      </trkpt>
      <trkpt lat="45.70699" lon="4.60175">
        <ele>677</ele>
        <time>2011-11-06T14:35:56Z</time>
      </trkpt>
      <trkpt lat="45.70685" lon="4.60137">
        <ele>676</ele>
        <time>2011-11-06T14:36:01Z</time>
      </trkpt>
      <trkpt lat="45.70684" lon="4.60128">
        <ele>675</ele>
        <time>2011-11-06T14:36:02Z</time>
      </trkpt>
      <trkpt lat="45.70676" lon="4.60094">
        <ele>673</ele>
        <time>2011-11-06T14:36:06Z</time>
      </trkpt>
      <trkpt lat="45.70675" lon="4.60085">
        <ele>671</ele>
        <time>2011-11-06T14:36:07Z</time>
      </trkpt>
      <trkpt lat="45.70674" lon="4.60076">
        <ele>671</ele>
        <time>2011-11-06T14:36:08Z</time>
      </trkpt>
      <trkpt lat="45.70673" lon="4.60057">
        <ele>669</ele>
        <time>2011-11-06T14:36:10Z</time>
      </trkpt>
      <trkpt lat="45.70673" lon="4.60047">
        <ele>668</ele>
        <time>2011-11-06T14:36:11Z</time>
      </trkpt>
      <trkpt lat="45.70673" lon="4.60037">
        <ele>667</ele>
        <time>2011-11-06T14:36:12Z</time>
      </trkpt>
      <trkpt lat="45.70672" lon="4.60027">
        <ele>667</ele>
        <time>2011-11-06T14:36:13Z</time>
      </trkpt>
      <trkpt lat="45.70671" lon="4.60018">
        <ele>666</ele>
        <time>2011-11-06T14:36:14Z</time>
      </trkpt>
      <trkpt lat="45.70671" lon="4.60008">
        <ele>665</ele>
        <time>2011-11-06T14:36:15Z</time>
      </trkpt>
      <trkpt lat="45.70672" lon="4.59999">
        <ele>664</ele>
        <time>2011-11-06T14:36:16Z</time>
      </trkpt>
      <trkpt lat="45.70674" lon="4.59983">
        <ele>662</ele>
        <time>2011-11-06T14:36:18Z</time>
      </trkpt>
      <trkpt lat="45.70675" lon="4.59968">
        <ele>660</ele>
        <time>2011-11-06T14:36:20Z</time>
      </trkpt>
      <trkpt lat="45.7068" lon="4.59944">
        <ele>656</ele>
        <time>2011-11-06T14:36:23Z</time>
      </trkpt>
      <trkpt lat="45.70684" lon="4.5993">
        <ele>654</ele>
        <time>2011-11-06T14:36:25Z</time>
      </trkpt>
      <trkpt lat="45.70686" lon="4.59923">
        <ele>654</ele>
        <time>2011-11-06T14:36:26Z</time>
      </trkpt>
      <trkpt lat="45.70691" lon="4.59908">
        <ele>652</ele>
        <time>2011-11-06T14:36:28Z</time>
      </trkpt>
      <trkpt lat="45.70694" lon="4.59891">
        <ele>651</ele>
        <time>2011-11-06T14:36:30Z</time>
      </trkpt>
      <trkpt lat="45.70697" lon="4.59884">
        <ele>651</ele>
        <time>2011-11-06T14:36:31Z</time>
      </trkpt>
      <trkpt lat="45.707" lon="4.59877">
        <ele>651</ele>
        <time>2011-11-06T14:36:32Z</time>
      </trkpt>
      <trkpt lat="45.70703" lon="4.59871">
        <ele>651</ele>
        <time>2011-11-06T14:36:33Z</time>
      </trkpt>
      <trkpt lat="45.70706" lon="4.59865">
        <ele>650</ele>
        <time>2011-11-06T14:36:34Z</time>
      </trkpt>
      <trkpt lat="45.7071" lon="4.5986">
        <ele>650</ele>
        <time>2011-11-06T14:36:35Z</time>
      </trkpt>
      <trkpt lat="45.70715" lon="4.59853">
        <ele>650</ele>
        <time>2011-11-06T14:36:36Z</time>
      </trkpt>
      <trkpt lat="45.70719" lon="4.59847">
        <ele>649</ele>
        <time>2011-11-06T14:36:37Z</time>
      </trkpt>
      <trkpt lat="45.70723" lon="4.59839">
        <ele>649</ele>
        <time>2011-11-06T14:36:38Z</time>
      </trkpt>
      <trkpt lat="45.70727" lon="4.59831">
        <ele>648</ele>
        <time>2011-11-06T14:36:39Z</time>
      </trkpt>
      <trkpt lat="45.70731" lon="4.59822">
        <ele>647</ele>
        <time>2011-11-06T14:36:40Z</time>
      </trkpt>
      <trkpt lat="45.70734" lon="4.59813">
        <ele>646</ele>
        <time>2011-11-06T14:36:41Z</time>
      </trkpt>
      <trkpt lat="45.70736" lon="4.59803">
        <ele>646</ele>
        <time>2011-11-06T14:36:42Z</time>
      </trkpt>
      <trkpt lat="45.70737" lon="4.59792">
        <ele>645</ele>
        <time>2011-11-06T14:36:43Z</time>
      </trkpt>
      <trkpt lat="45.70738" lon="4.59782">
        <ele>645</ele>
        <time>2011-11-06T14:36:44Z</time>
      </trkpt>
      <trkpt lat="45.70736" lon="4.59754">
        <ele>644</ele>
        <time>2011-11-06T14:36:47Z</time>
      </trkpt>
      <trkpt lat="45.70738" lon="4.59736">
        <ele>643</ele>
        <time>2011-11-06T14:36:49Z</time>
      </trkpt>
      <trkpt lat="45.70738" lon="4.59706">
        <ele>641</ele>
        <time>2011-11-06T14:36:52Z</time>
      </trkpt>
      <trkpt lat="45.70738" lon="4.59696">
        <ele>641</ele>
        <time>2011-11-06T14:36:53Z</time>
      </trkpt>
      <trkpt lat="45.70738" lon="4.59674">
        <ele>640</ele>
        <time>2011-11-06T14:36:55Z</time>
      </trkpt>
      <trkpt lat="45.70737" lon="4.59665">
        <ele>639</ele>
        <time>2011-11-06T14:36:56Z</time>
      </trkpt>
      <trkpt lat="45.70735" lon="4.59658">
        <ele>640</ele>
        <time>2011-11-06T14:36:57Z</time>
      </trkpt>
      <trkpt lat="45.70734" lon="4.59653">
        <ele>640</ele>
        <time>2011-11-06T14:36:58Z</time>
      </trkpt>
      <trkpt lat="45.70733" lon="4.59649">
        <ele>640</ele>
        <time>2011-11-06T14:36:59Z</time>
      </trkpt>
      <trkpt lat="45.70732" lon="4.59646">
        <ele>640</ele>
        <time>2011-11-06T14:37:00Z</time>
      </trkpt>
      <trkpt lat="45.70732" lon="4.59643">
        <ele>640</ele>
        <time>2011-11-06T14:37:01Z</time>
      </trkpt>
      <trkpt lat="45.70731" lon="4.59641">
        <ele>640</ele>
        <time>2011-11-06T14:37:02Z</time>
      </trkpt>
      <trkpt lat="45.70725" lon="4.59622">
        <ele>642</ele>
        <time>2011-11-06T14:37:10Z</time>
      </trkpt>
      <trkpt lat="45.70717" lon="4.59597">
        <ele>643</ele>
        <time>2011-11-06T14:37:20Z</time>
      </trkpt>
      <trkpt lat="45.70712" lon="4.59577">
        <ele>645</ele>
        <time>2011-11-06T14:37:28Z</time>
      </trkpt>
      <trkpt lat="45.70708" lon="4.59553">
        <ele>646</ele>
        <time>2011-11-06T14:37:38Z</time>
      </trkpt>
      <trkpt lat="45.70704" lon="4.59527">
        <ele>647</ele>
        <time>2011-11-06T14:37:48Z</time>
      </trkpt>
      <trkpt lat="45.70701" lon="4.59505">
        <ele>648</ele>
        <time>2011-11-06T14:37:57Z</time>
      </trkpt>
      <trkpt lat="45.70698" lon="4.59482">
        <ele>649</ele>
        <time>2011-11-06T14:38:05Z</time>
      </trkpt>
      <trkpt lat="45.70696" lon="4.59465">
        <ele>651</ele>
        <time>2011-11-06T14:38:11Z</time>
      </trkpt>
      <trkpt lat="45.70696" lon="4.59463">
        <ele>651</ele>
        <time>2011-11-06T14:38:12Z</time>
      </trkpt>
      <trkpt lat="45.7069" lon="4.59447">
        <ele>652</ele>
        <time>2011-11-06T14:38:20Z</time>
      </trkpt>
      <trkpt lat="45.70689" lon="4.59437">
        <ele>653</ele>
        <time>2011-11-06T14:38:24Z</time>
      </trkpt>
      <trkpt lat="45.70689" lon="4.59435">
        <ele>653</ele>
        <time>2011-11-06T14:38:25Z</time>
      </trkpt>
      <trkpt lat="45.7069" lon="4.59432">
        <ele>653</ele>
        <time>2011-11-06T14:38:26Z</time>
      </trkpt>
      <trkpt lat="45.70695" lon="4.59412">
        <ele>656</ele>
        <time>2011-11-06T14:38:36Z</time>
      </trkpt>
      <trkpt lat="45.707" lon="4.5939">
        <ele>659</ele>
        <time>2011-11-06T14:38:46Z</time>
      </trkpt>
      <trkpt lat="45.70705" lon="4.59373">
        <ele>661</ele>
        <time>2011-11-06T14:38:54Z</time>
      </trkpt>
      <trkpt lat="45.70709" lon="4.59356">
        <ele>662</ele>
        <time>2011-11-06T14:39:02Z</time>
      </trkpt>
      <trkpt lat="45.70712" lon="4.59336">
        <ele>664</ele>
        <time>2011-11-06T14:39:11Z</time>
      </trkpt>
      <trkpt lat="45.70713" lon="4.59335">
        <ele>664</ele>
        <time>2011-11-06T14:39:12Z</time>
      </trkpt>
      <trkpt lat="45.70713" lon="4.59333">
        <ele>664</ele>
        <time>2011-11-06T14:39:13Z</time>
      </trkpt>
      <trkpt lat="45.70714" lon="4.59332">
        <ele>665</ele>
        <time>2011-11-06T14:39:14Z</time>
      </trkpt>
      <trkpt lat="45.70716" lon="4.59327">
        <ele>665</ele>
        <time>2011-11-06T14:39:17Z</time>
      </trkpt>
      <trkpt lat="45.70719" lon="4.59313">
        <ele>665</ele>
        <time>2011-11-06T14:39:24Z</time>
      </trkpt>
      <trkpt lat="45.70721" lon="4.59303">
        <ele>666</ele>
        <time>2011-11-06T14:39:29Z</time>
      </trkpt>
      <trkpt lat="45.70721" lon="4.59301">
        <ele>667</ele>
        <time>2011-11-06T14:39:30Z</time>
      </trkpt>
      <trkpt lat="45.70726" lon="4.59281">
        <ele>669</ele>
        <time>2011-11-06T14:39:40Z</time>
      </trkpt>
      <trkpt lat="45.70731" lon="4.59263">
        <ele>670</ele>
        <time>2011-11-06T14:39:49Z</time>
      </trkpt>
      <trkpt lat="45.70737" lon="4.59246">
        <ele>672</ele>
        <time>2011-11-06T14:39:58Z</time>
      </trkpt>
      <trkpt lat="45.70744" lon="4.59231">
        <ele>674</ele>
        <time>2011-11-06T14:40:07Z</time>
      </trkpt>
      <trkpt lat="45.70752" lon="4.5922">
        <ele>676</ele>
        <time>2011-11-06T14:40:16Z</time>
      </trkpt>
      <trkpt lat="45.70754" lon="4.59219">
        <ele>677</ele>
        <time>2011-11-06T14:40:17Z</time>
      </trkpt>
      <trkpt lat="45.70755" lon="4.59218">
        <ele>676</ele>
        <time>2011-11-06T14:40:18Z</time>
      </trkpt>
      <trkpt lat="45.70768" lon="4.59212">
        <ele>679</ele>
        <time>2011-11-06T14:40:27Z</time>
      </trkpt>
      <trkpt lat="45.70776" lon="4.59211">
        <ele>679</ele>
        <time>2011-11-06T14:40:32Z</time>
      </trkpt>
      <trkpt lat="45.70777" lon="4.59212">
        <ele>680</ele>
        <time>2011-11-06T14:40:33Z</time>
      </trkpt>
      <trkpt lat="45.70778" lon="4.59212">
        <ele>680</ele>
        <time>2011-11-06T14:40:34Z</time>
      </trkpt>
      <trkpt lat="45.70784" lon="4.59212">
        <ele>680</ele>
        <time>2011-11-06T14:40:39Z</time>
      </trkpt>
      <trkpt lat="45.70786" lon="4.59213">
        <ele>681</ele>
        <time>2011-11-06T14:40:40Z</time>
      </trkpt>
      <trkpt lat="45.70787" lon="4.59213">
        <ele>681</ele>
        <time>2011-11-06T14:40:41Z</time>
      </trkpt>
      <trkpt lat="45.70789" lon="4.59213">
        <ele>681</ele>
        <time>2011-11-06T14:40:42Z</time>
      </trkpt>
      <trkpt lat="45.7079" lon="4.59213">
        <ele>681</ele>
        <time>2011-11-06T14:40:43Z</time>
      </trkpt>
      <trkpt lat="45.70792" lon="4.59213">
        <ele>681</ele>
        <time>2011-11-06T14:40:44Z</time>
      </trkpt>
      <trkpt lat="45.70793" lon="4.59213">
        <ele>682</ele>
        <time>2011-11-06T14:40:45Z</time>
      </trkpt>
      <trkpt lat="45.70794" lon="4.59214">
        <ele>682</ele>
        <time>2011-11-06T14:40:46Z</time>
      </trkpt>
      <trkpt lat="45.70795" lon="4.59214">
        <ele>682</ele>
        <time>2011-11-06T14:40:47Z</time>
      </trkpt>
      <trkpt lat="45.70797" lon="4.59214">
        <ele>682</ele>
        <time>2011-11-06T14:40:48Z</time>
      </trkpt>
      <trkpt lat="45.70798" lon="4.59214">
        <ele>682</ele>
        <time>2011-11-06T14:40:49Z</time>
      </trkpt>
      <trkpt lat="45.70809" lon="4.59212">
        <ele>684</ele>
        <time>2011-11-06T14:40:57Z</time>
      </trkpt>
      <trkpt lat="45.70822" lon="4.59206">
        <ele>685</ele>
        <time>2011-11-06T14:41:06Z</time>
      </trkpt>
      <trkpt lat="45.70831" lon="4.592">
        <ele>687</ele>
        <time>2011-11-06T14:41:14Z</time>
      </trkpt>
      <trkpt lat="45.70842" lon="4.59194">
        <ele>687</ele>
        <time>2011-11-06T14:41:21Z</time>
      </trkpt>
      <trkpt lat="45.70859" lon="4.59187">
        <ele>689</ele>
        <time>2011-11-06T14:41:31Z</time>
      </trkpt>
      <trkpt lat="45.7086" lon="4.59186">
        <ele>689</ele>
        <time>2011-11-06T14:41:32Z</time>
      </trkpt>
      <trkpt lat="45.70874" lon="4.59183">
        <ele>691</ele>
        <time>2011-11-06T14:41:41Z</time>
      </trkpt>
      <trkpt lat="45.70881" lon="4.59172">
        <ele>691</ele>
        <time>2011-11-06T14:41:46Z</time>
      </trkpt>
      <trkpt lat="45.70882" lon="4.5917">
        <ele>690</ele>
        <time>2011-11-06T14:41:47Z</time>
      </trkpt>
      <trkpt lat="45.70883" lon="4.59167">
        <ele>691</ele>
        <time>2011-11-06T14:41:48Z</time>
      </trkpt>
      <trkpt lat="45.70884" lon="4.59165">
        <ele>691</ele>
        <time>2011-11-06T14:41:49Z</time>
      </trkpt>
      <trkpt lat="45.70884" lon="4.59162">
        <ele>691</ele>
        <time>2011-11-06T14:41:50Z</time>
      </trkpt>
      <trkpt lat="45.70884" lon="4.59159">
        <ele>691</ele>
        <time>2011-11-06T14:41:51Z</time>
      </trkpt>
      <trkpt lat="45.70885" lon="4.59156">
        <ele>691</ele>
        <time>2011-11-06T14:41:52Z</time>
      </trkpt>
      <trkpt lat="45.70882" lon="4.59136">
        <ele>692</ele>
        <time>2011-11-06T14:42:00Z</time>
      </trkpt>
      <trkpt lat="45.70875" lon="4.59116">
        <ele>693</ele>
        <time>2011-11-06T14:42:07Z</time>
      </trkpt>
      <trkpt lat="45.70867" lon="4.59093">
        <ele>694</ele>
        <time>2011-11-06T14:42:16Z</time>
      </trkpt>
      <trkpt lat="45.70858" lon="4.59078">
        <ele>695</ele>
        <time>2011-11-06T14:42:23Z</time>
      </trkpt>
      <trkpt lat="45.70855" lon="4.59075">
        <ele>695</ele>
        <time>2011-11-06T14:42:27Z</time>
      </trkpt>
      <trkpt lat="45.70854" lon="4.59077">
        <ele>697</ele>
        <time>2011-11-06T14:42:29Z</time>
      </trkpt>
      <trkpt lat="45.70854" lon="4.59079">
        <ele>697</ele>
        <time>2011-11-06T14:42:30Z</time>
      </trkpt>
      <trkpt lat="45.70854" lon="4.59084">
        <ele>698</ele>
        <time>2011-11-06T14:42:33Z</time>
      </trkpt>
      <trkpt lat="45.70854" lon="4.59088">
        <ele>698</ele>
        <time>2011-11-06T14:42:35Z</time>
      </trkpt>
      <trkpt lat="45.70854" lon="4.5909">
        <ele>699</ele>
        <time>2011-11-06T14:42:36Z</time>
      </trkpt>
      <trkpt lat="45.70854" lon="4.59094">
        <ele>699</ele>
        <time>2011-11-06T14:42:38Z</time>
      </trkpt>
      <trkpt lat="45.70853" lon="4.59102">
        <ele>700</ele>
        <time>2011-11-06T14:42:42Z</time>
      </trkpt>
      <trkpt lat="45.70851" lon="4.59104">
        <ele>700</ele>
        <time>2011-11-06T14:42:43Z</time>
      </trkpt>
      <trkpt lat="45.70849" lon="4.59105">
        <ele>700</ele>
        <time>2011-11-06T14:42:44Z</time>
      </trkpt>
      <trkpt lat="45.70848" lon="4.59107">
        <ele>700</ele>
        <time>2011-11-06T14:42:45Z</time>
      </trkpt>
      <trkpt lat="45.70847" lon="4.59109">
        <ele>700</ele>
        <time>2011-11-06T14:42:46Z</time>
      </trkpt>
      <trkpt lat="45.70846" lon="4.5911">
        <ele>700</ele>
        <time>2011-11-06T14:42:47Z</time>
      </trkpt>
      <trkpt lat="45.70846" lon="4.59113">
        <ele>700</ele>
        <time>2011-11-06T14:42:48Z</time>
      </trkpt>
      <trkpt lat="45.70846" lon="4.59115">
        <ele>701</ele>
        <time>2011-11-06T14:42:49Z</time>
      </trkpt>
      <trkpt lat="45.70836" lon="4.59128">
        <ele>702</ele>
        <time>2011-11-06T14:42:58Z</time>
      </trkpt>
      <trkpt lat="45.70828" lon="4.59129">
        <ele>703</ele>
        <time>2011-11-06T14:43:05Z</time>
      </trkpt>
      <trkpt lat="45.70827" lon="4.59128">
        <ele>704</ele>
        <time>2011-11-06T14:43:06Z</time>
      </trkpt>
      <trkpt lat="45.70826" lon="4.59127">
        <ele>704</ele>
        <time>2011-11-06T14:43:07Z</time>
      </trkpt>
      <trkpt lat="45.70825" lon="4.59126">
        <ele>704</ele>
        <time>2011-11-06T14:43:08Z</time>
      </trkpt>
      <trkpt lat="45.70824" lon="4.59126">
        <ele>704</ele>
        <time>2011-11-06T14:43:09Z</time>
      </trkpt>
      <trkpt lat="45.70822" lon="4.59125">
        <ele>705</ele>
        <time>2011-11-06T14:43:10Z</time>
      </trkpt>
      <trkpt lat="45.70818" lon="4.59124">
        <ele>705</ele>
        <time>2011-11-06T14:43:13Z</time>
      </trkpt>
      <trkpt lat="45.70817" lon="4.59123">
        <ele>705</ele>
        <time>2011-11-06T14:43:14Z</time>
      </trkpt>
      <trkpt lat="45.70816" lon="4.59121">
        <ele>706</ele>
        <time>2011-11-06T14:43:15Z</time>
      </trkpt>
      <trkpt lat="45.70816" lon="4.59119">
        <ele>706</ele>
        <time>2011-11-06T14:43:16Z</time>
      </trkpt>
      <trkpt lat="45.70815" lon="4.59117">
        <ele>706</ele>
        <time>2011-11-06T14:43:17Z</time>
      </trkpt>
      <trkpt lat="45.70814" lon="4.59115">
        <ele>706</ele>
        <time>2011-11-06T14:43:18Z</time>
      </trkpt>
      <trkpt lat="45.70813" lon="4.59114">
        <ele>706</ele>
        <time>2011-11-06T14:43:19Z</time>
      </trkpt>
      <trkpt lat="45.70808" lon="4.59105">
        <ele>706</ele>
        <time>2011-11-06T14:43:25Z</time>
      </trkpt>
      <trkpt lat="45.70799" lon="4.59094">
        <ele>706</ele>
        <time>2011-11-06T14:43:32Z</time>
      </trkpt>
      <trkpt lat="45.70794" lon="4.59085">
        <ele>705</ele>
        <time>2011-11-06T14:43:37Z</time>
      </trkpt>
      <trkpt lat="45.70794" lon="4.59083">
        <ele>705</ele>
        <time>2011-11-06T14:43:38Z</time>
      </trkpt>
      <trkpt lat="45.70794" lon="4.59081">
        <ele>705</ele>
        <time>2011-11-06T14:43:39Z</time>
      </trkpt>
      <trkpt lat="45.70795" lon="4.59079">
        <ele>705</ele>
        <time>2011-11-06T14:43:40Z</time>
      </trkpt>
      <trkpt lat="45.70795" lon="4.59078">
        <ele>704</ele>
        <time>2011-11-06T14:43:41Z</time>
      </trkpt>
      <trkpt lat="45.70795" lon="4.59076">
        <ele>704</ele>
        <time>2011-11-06T14:43:42Z</time>
      </trkpt>
      <trkpt lat="45.70795" lon="4.59074">
        <ele>704</ele>
        <time>2011-11-06T14:43:43Z</time>
      </trkpt>
      <trkpt lat="45.70795" lon="4.59072">
        <ele>705</ele>
        <time>2011-11-06T14:43:44Z</time>
      </trkpt>
      <trkpt lat="45.70795" lon="4.59068">
        <ele>705</ele>
        <time>2011-11-06T14:43:45Z</time>
      </trkpt>
      <trkpt lat="45.70794" lon="4.59066">
        <ele>705</ele>
        <time>2011-11-06T14:43:46Z</time>
      </trkpt>
      <trkpt lat="45.70793" lon="4.59063">
        <ele>705</ele>
        <time>2011-11-06T14:43:47Z</time>
      </trkpt>
      <trkpt lat="45.70792" lon="4.5906">
        <ele>704</ele>
        <time>2011-11-06T14:43:48Z</time>
      </trkpt>
      <trkpt lat="45.70792" lon="4.59058">
        <ele>705</ele>
        <time>2011-11-06T14:43:49Z</time>
      </trkpt>
      <trkpt lat="45.70794" lon="4.59048">
        <ele>704</ele>
        <time>2011-11-06T14:43:55Z</time>
      </trkpt>
      <trkpt lat="45.70793" lon="4.59046">
        <ele>704</ele>
        <time>2011-11-06T14:43:57Z</time>
      </trkpt>
      <trkpt lat="45.70792" lon="4.59046">
        <ele>704</ele>
        <time>2011-11-06T14:43:59Z</time>
      </trkpt>
      <trkpt lat="45.70789" lon="4.59045">
        <ele>705</ele>
        <time>2011-11-06T14:44:06Z</time>
      </trkpt>
      <trkpt lat="45.70789" lon="4.59045">
        <ele>705</ele>
        <time>2011-11-06T14:44:14Z</time>
      </trkpt>
      <trkpt lat="45.70789" lon="4.59045">
        <ele>705</ele>
        <time>2011-11-06T14:44:29Z</time>
      </trkpt>
      <trkpt lat="45.70789" lon="4.59044">
        <ele>704</ele>
        <time>2011-11-06T14:44:50Z</time>
      </trkpt>
      <trkpt lat="45.70789" lon="4.59044">
        <ele>704</ele>
        <time>2011-11-06T14:45:12Z</time>
      </trkpt>
      <trkpt lat="45.70789" lon="4.59045">
        <ele>705</ele>
        <time>2011-11-06T14:45:34Z</time>
      </trkpt>
      <trkpt lat="45.70789" lon="4.59045">
        <ele>704</ele>
        <time>2011-11-06T14:45:58Z</time>
      </trkpt>
      <trkpt lat="45.70789" lon="4.59044">
        <ele>705</ele>
        <time>2011-11-06T14:46:20Z</time>
      </trkpt>
      <trkpt lat="45.70789" lon="4.59044">
        <ele>705</ele>
        <time>2011-11-06T14:46:38Z</time>
      </trkpt>
      <trkpt lat="45.70789" lon="4.59044">
        <ele>705</ele>
        <time>2011-11-06T14:47:05Z</time>
      </trkpt>
      <trkpt lat="45.70789" lon="4.59044">
        <ele>705</ele>
        <time>2011-11-06T14:47:29Z</time>
      </trkpt>
      <trkpt lat="45.70789" lon="4.59044">
        <ele>704</ele>
        <time>2011-11-06T14:47:55Z</time>
      </trkpt>
      <trkpt lat="45.70789" lon="4.59043">
        <ele>705</ele>
        <time>2011-11-06T14:48:22Z</time>
      </trkpt>
      <trkpt lat="45.70789" lon="4.59043">
        <ele>705</ele>
        <time>2011-11-06T14:48:48Z</time>
      </trkpt>
      <trkpt lat="45.70789" lon="4.59043">
        <ele>705</ele>
        <time>2011-11-06T14:49:13Z</time>
      </trkpt>
      <trkpt lat="45.70789" lon="4.59043">
        <ele>705</ele>
        <time>2011-11-06T14:49:41Z</time>
      </trkpt>
      <trkpt lat="45.70789" lon="4.59043">
        <ele>705</ele>
        <time>2011-11-06T14:50:06Z</time>
      </trkpt>
      <trkpt lat="45.70789" lon="4.59044">
        <ele>705</ele>
        <time>2011-11-06T14:50:35Z</time>
      </trkpt>
      <trkpt lat="45.70789" lon="4.59044">
        <ele>705</ele>
        <time>2011-11-06T14:51:00Z</time>
      </trkpt>
      <trkpt lat="45.70789" lon="4.59044">
        <ele>705</ele>
        <time>2011-11-06T14:51:19Z</time>
      </trkpt>
      <trkpt lat="45.70789" lon="4.59045">
        <ele>705</ele>
        <time>2011-11-06T14:51:41Z</time>
      </trkpt>
      <trkpt lat="45.70789" lon="4.59045">
        <ele>705</ele>
        <time>2011-11-06T14:52:00Z</time>
      </trkpt>
      <trkpt lat="45.7079" lon="4.59045">
        <ele>705</ele>
        <time>2011-11-06T14:52:18Z</time>
      </trkpt>
      <trkpt lat="45.7079" lon="4.59045">
        <ele>705</ele>
        <time>2011-11-06T14:52:42Z</time>
      </trkpt>
      <trkpt lat="45.7079" lon="4.59045">
        <ele>706</ele>
        <time>2011-11-06T14:53:10Z</time>
      </trkpt>
      <trkpt lat="45.70789" lon="4.59045">
        <ele>706</ele>
        <time>2011-11-06T14:53:33Z</time>
      </trkpt>
      <trkpt lat="45.70789" lon="4.59045">
        <ele>705</ele>
        <time>2011-11-06T14:53:53Z</time>
      </trkpt>
      <trkpt lat="45.70789" lon="4.59045">
        <ele>705</ele>
        <time>2011-11-06T14:54:18Z</time>
      </trkpt>
      <trkpt lat="45.70789" lon="4.59045">
        <ele>706</ele>
        <time>2011-11-06T14:54:35Z</time>
      </trkpt>
      <trkpt lat="45.70789" lon="4.59045">
        <ele>705</ele>
        <time>2011-11-06T14:54:52Z</time>
      </trkpt>
      <trkpt lat="45.70789" lon="4.59045">
        <ele>706</ele>
        <time>2011-11-06T14:55:15Z</time>
      </trkpt>
      <trkpt lat="45.70789" lon="4.59045">
        <ele>705</ele>
        <time>2011-11-06T14:55:33Z</time>
      </trkpt>
      <trkpt lat="45.70789" lon="4.59045">
        <ele>706</ele>
        <time>2011-11-06T14:55:58Z</time>
      </trkpt>
      <trkpt lat="45.70789" lon="4.59045">
        <ele>705</ele>
        <time>2011-11-06T14:56:18Z</time>
      </trkpt>
      <trkpt lat="45.7079" lon="4.59044">
        <ele>705</ele>
        <time>2011-11-06T14:56:33Z</time>
      </trkpt>
      <trkpt lat="45.70793" lon="4.59043">
        <ele>706</ele>
        <time>2011-11-06T14:56:39Z</time>
      </trkpt>
      <trkpt lat="45.70792" lon="4.59052">
        <ele>705</ele>
        <time>2011-11-06T14:56:46Z</time>
      </trkpt>
      <trkpt lat="45.7079" lon="4.59058">
        <ele>705</ele>
        <time>2011-11-06T14:56:53Z</time>
      </trkpt>
      <trkpt lat="45.70789" lon="4.59058">
        <ele>706</ele>
        <time>2011-11-06T14:56:54Z</time>
      </trkpt>
      <trkpt lat="45.70788" lon="4.59059">
        <ele>706</ele>
        <time>2011-11-06T14:56:55Z</time>
      </trkpt>
      <trkpt lat="45.70777" lon="4.59054">
        <ele>705</ele>
        <time>2011-11-06T14:57:04Z</time>
      </trkpt>
      <trkpt lat="45.70776" lon="4.59052">
        <ele>706</ele>
        <time>2011-11-06T14:57:05Z</time>
      </trkpt>
      <trkpt lat="45.70775" lon="4.59051">
        <ele>705</ele>
        <time>2011-11-06T14:57:06Z</time>
      </trkpt>
      <trkpt lat="45.7077" lon="4.59042">
        <ele>705</ele>
        <time>2011-11-06T14:57:12Z</time>
      </trkpt>
      <trkpt lat="45.70767" lon="4.59037">
        <ele>705</ele>
        <time>2011-11-06T14:57:18Z</time>
      </trkpt>
      <trkpt lat="45.70766" lon="4.59035">
        <ele>705</ele>
        <time>2011-11-06T14:57:20Z</time>
      </trkpt>
      <trkpt lat="45.70762" lon="4.59033">
        <ele>705</ele>
        <time>2011-11-06T14:57:25Z</time>
      </trkpt>
      <trkpt lat="45.70762" lon="4.59033">
        <ele>705</ele>
        <time>2011-11-06T14:57:32Z</time>
      </trkpt>
      <trkpt lat="45.70754" lon="4.59028">
        <ele>706</ele>
        <time>2011-11-06T14:57:38Z</time>
      </trkpt>
      <trkpt lat="45.7075" lon="4.59027">
        <ele>707</ele>
        <time>2011-11-06T14:57:40Z</time>
      </trkpt>
      <trkpt lat="45.70738" lon="4.59022">
        <ele>709</ele>
        <time>2011-11-06T14:57:45Z</time>
      </trkpt>
      <trkpt lat="45.70736" lon="4.59023">
        <ele>709</ele>
        <time>2011-11-06T14:57:46Z</time>
      </trkpt>
      <trkpt lat="45.7073" lon="4.5903">
        <ele>711</ele>
        <time>2011-11-06T14:57:52Z</time>
      </trkpt>
      <trkpt lat="45.7073" lon="4.59031">
        <ele>711</ele>
        <time>2011-11-06T14:57:53Z</time>
      </trkpt>
      <trkpt lat="45.70729" lon="4.59032">
        <ele>711</ele>
        <time>2011-11-06T14:57:54Z</time>
      </trkpt>
      <trkpt lat="45.70728" lon="4.59034">
        <ele>712</ele>
        <time>2011-11-06T14:57:55Z</time>
      </trkpt>
      <trkpt lat="45.70726" lon="4.59034">
        <ele>712</ele>
        <time>2011-11-06T14:57:56Z</time>
      </trkpt>
      <trkpt lat="45.70725" lon="4.59035">
        <ele>713</ele>
        <time>2011-11-06T14:57:57Z</time>
      </trkpt>
      <trkpt lat="45.70724" lon="4.59035">
        <ele>713</ele>
        <time>2011-11-06T14:57:58Z</time>
      </trkpt>
      <trkpt lat="45.70723" lon="4.59035">
        <ele>713</ele>
        <time>2011-11-06T14:57:59Z</time>
      </trkpt>
      <trkpt lat="45.70721" lon="4.59035">
        <ele>714</ele>
        <time>2011-11-06T14:58:00Z</time>
      </trkpt>
      <trkpt lat="45.70711" lon="4.59029">
        <ele>717</ele>
        <time>2011-11-06T14:58:09Z</time>
      </trkpt>
      <trkpt lat="45.70701" lon="4.5902">
        <ele>720</ele>
        <time>2011-11-06T14:58:18Z</time>
      </trkpt>
      <trkpt lat="45.70691" lon="4.59007">
        <ele>722</ele>
        <time>2011-11-06T14:58:27Z</time>
      </trkpt>
      <trkpt lat="45.70683" lon="4.58999">
        <ele>723</ele>
        <time>2011-11-06T14:58:34Z</time>
      </trkpt>
      <trkpt lat="45.70681" lon="4.58999">
        <ele>724</ele>
        <time>2011-11-06T14:58:35Z</time>
      </trkpt>
      <trkpt lat="45.7067" lon="4.59002">
        <ele>723</ele>
        <time>2011-11-06T14:58:44Z</time>
      </trkpt>
      <trkpt lat="45.70663" lon="4.59003">
        <ele>723</ele>
        <time>2011-11-06T14:58:50Z</time>
      </trkpt>
      <trkpt lat="45.7065" lon="4.59005">
        <ele>723</ele>
        <time>2011-11-06T14:58:57Z</time>
      </trkpt>
      <trkpt lat="45.70648" lon="4.59004">
        <ele>722</ele>
        <time>2011-11-06T14:58:58Z</time>
      </trkpt>
      <trkpt lat="45.70647" lon="4.59004">
        <ele>721</ele>
        <time>2011-11-06T14:58:59Z</time>
      </trkpt>
      <trkpt lat="45.70644" lon="4.59005">
        <ele>721</ele>
        <time>2011-11-06T14:59:00Z</time>
      </trkpt>
      <trkpt lat="45.70642" lon="4.59008">
        <ele>721</ele>
        <time>2011-11-06T14:59:01Z</time>
      </trkpt>
      <trkpt lat="45.7064" lon="4.59012">
        <ele>721</ele>
        <time>2011-11-06T14:59:02Z</time>
      </trkpt>
      <trkpt lat="45.7064" lon="4.59016">
        <ele>721</ele>
        <time>2011-11-06T14:59:03Z</time>
      </trkpt>
      <trkpt lat="45.70638" lon="4.59046">
        <ele>721</ele>
        <time>2011-11-06T14:59:11Z</time>
      </trkpt>
      <trkpt lat="45.70635" lon="4.59063">
        <ele>721</ele>
        <time>2011-11-06T14:59:19Z</time>
      </trkpt>
      <trkpt lat="45.70629" lon="4.59078">
        <ele>721</ele>
        <time>2011-11-06T14:59:28Z</time>
      </trkpt>
      <trkpt lat="45.70626" lon="4.5908">
        <ele>721</ele>
        <time>2011-11-06T14:59:30Z</time>
      </trkpt>
      <trkpt lat="45.70616" lon="4.5908">
        <ele>720</ele>
        <time>2011-11-06T14:59:33Z</time>
      </trkpt>
      <trkpt lat="45.70591" lon="4.59084">
        <ele>717</ele>
        <time>2011-11-06T14:59:37Z</time>
      </trkpt>
      <trkpt lat="45.70565" lon="4.59091">
        <ele>713</ele>
        <time>2011-11-06T14:59:40Z</time>
      </trkpt>
      <trkpt lat="45.70533" lon="4.59101">
        <ele>710</ele>
        <time>2011-11-06T14:59:43Z</time>
      </trkpt>
      <trkpt lat="45.7051" lon="4.5911">
        <ele>707</ele>
        <time>2011-11-06T14:59:45Z</time>
      </trkpt>
      <trkpt lat="45.70485" lon="4.59118">
        <ele>705</ele>
        <time>2011-11-06T14:59:47Z</time>
      </trkpt>
      <trkpt lat="45.70459" lon="4.59123">
        <ele>701</ele>
        <time>2011-11-06T14:59:49Z</time>
      </trkpt>
      <trkpt lat="45.70437" lon="4.59126">
        <ele>698</ele>
        <time>2011-11-06T14:59:51Z</time>
      </trkpt>
      <trkpt lat="45.7041" lon="4.59132">
        <ele>694</ele>
        <time>2011-11-06T14:59:54Z</time>
      </trkpt>
      <trkpt lat="45.70392" lon="4.59139">
        <ele>690</ele>
        <time>2011-11-06T14:59:57Z</time>
      </trkpt>
      <trkpt lat="45.7037" lon="4.59147">
        <ele>687</ele>
        <time>2011-11-06T15:00:02Z</time>
      </trkpt>
      <trkpt lat="45.70333" lon="4.59162">
        <ele>683</ele>
        <time>2011-11-06T15:00:07Z</time>
      </trkpt>
      <trkpt lat="45.70317" lon="4.5917">
        <ele>679</ele>
        <time>2011-11-06T15:00:09Z</time>
      </trkpt>
      <trkpt lat="45.70301" lon="4.59178">
        <ele>676</ele>
        <time>2011-11-06T15:00:11Z</time>
      </trkpt>
      <trkpt lat="45.70285" lon="4.59183">
        <ele>673</ele>
        <time>2011-11-06T15:00:13Z</time>
      </trkpt>
      <trkpt lat="45.70259" lon="4.59189">
        <ele>669</ele>
        <time>2011-11-06T15:00:16Z</time>
      </trkpt>
      <trkpt lat="45.7025" lon="4.59191">
        <ele>667</ele>
        <time>2011-11-06T15:00:17Z</time>
      </trkpt>
      <trkpt lat="45.70231" lon="4.59194">
        <ele>663</ele>
        <time>2011-11-06T15:00:19Z</time>
      </trkpt>
      <trkpt lat="45.70214" lon="4.592">
        <ele>661</ele>
        <time>2011-11-06T15:00:21Z</time>
      </trkpt>
      <trkpt lat="45.70189" lon="4.59215">
        <ele>657</ele>
        <time>2011-11-06T15:00:24Z</time>
      </trkpt>
      <trkpt lat="45.70182" lon="4.59221">
        <ele>656</ele>
        <time>2011-11-06T15:00:25Z</time>
      </trkpt>
      <trkpt lat="45.70175" lon="4.59229">
        <ele>655</ele>
        <time>2011-11-06T15:00:26Z</time>
      </trkpt>
      <trkpt lat="45.70169" lon="4.59236">
        <ele>654</ele>
        <time>2011-11-06T15:00:27Z</time>
      </trkpt>
      <trkpt lat="45.70153" lon="4.59259">
        <ele>651</ele>
        <time>2011-11-06T15:00:30Z</time>
      </trkpt>
      <trkpt lat="45.70136" lon="4.593">
        <ele>647</ele>
        <time>2011-11-06T15:00:35Z</time>
      </trkpt>
      <trkpt lat="45.70128" lon="4.59328">
        <ele>644</ele>
        <time>2011-11-06T15:00:38Z</time>
      </trkpt>
      <trkpt lat="45.70126" lon="4.59339">
        <ele>642</ele>
        <time>2011-11-06T15:00:39Z</time>
      </trkpt>
      <trkpt lat="45.70124" lon="4.59353">
        <ele>641</ele>
        <time>2011-11-06T15:00:40Z</time>
      </trkpt>
      <trkpt lat="45.70124" lon="4.59367">
        <ele>639</ele>
        <time>2011-11-06T15:00:41Z</time>
      </trkpt>
      <trkpt lat="45.70123" lon="4.59396">
        <ele>637</ele>
        <time>2011-11-06T15:00:43Z</time>
      </trkpt>
      <trkpt lat="45.7012" lon="4.59411">
        <ele>637</ele>
        <time>2011-11-06T15:00:44Z</time>
      </trkpt>
      <trkpt lat="45.70116" lon="4.59424">
        <ele>636</ele>
        <time>2011-11-06T15:00:45Z</time>
      </trkpt>
      <trkpt lat="45.70111" lon="4.59438">
        <ele>635</ele>
        <time>2011-11-06T15:00:46Z</time>
      </trkpt>
      <trkpt lat="45.70106" lon="4.59451">
        <ele>634</ele>
        <time>2011-11-06T15:00:47Z</time>
      </trkpt>
      <trkpt lat="45.701" lon="4.59464">
        <ele>633</ele>
        <time>2011-11-06T15:00:48Z</time>
      </trkpt>
      <trkpt lat="45.70095" lon="4.59477">
        <ele>632</ele>
        <time>2011-11-06T15:00:49Z</time>
      </trkpt>
      <trkpt lat="45.7008" lon="4.5953">
        <ele>628</ele>
        <time>2011-11-06T15:00:53Z</time>
      </trkpt>
      <trkpt lat="45.70076" lon="4.5954">
        <ele>626</ele>
        <time>2011-11-06T15:00:54Z</time>
      </trkpt>
      <trkpt lat="45.70074" lon="4.59546">
        <ele>624</ele>
        <time>2011-11-06T15:00:55Z</time>
      </trkpt>
      <trkpt lat="45.70072" lon="4.5955">
        <ele>623</ele>
        <time>2011-11-06T15:00:56Z</time>
      </trkpt>
      <trkpt lat="45.70072" lon="4.59552">
        <ele>623</ele>
        <time>2011-11-06T15:00:57Z</time>
      </trkpt>
      <trkpt lat="45.70072" lon="4.59554">
        <ele>623</ele>
        <time>2011-11-06T15:00:58Z</time>
      </trkpt>
      <trkpt lat="45.70072" lon="4.59556">
        <ele>622</ele>
        <time>2011-11-06T15:01:04Z</time>
      </trkpt>
      <trkpt lat="45.70072" lon="4.59556">
        <ele>623</ele>
        <time>2011-11-06T15:01:06Z</time>
      </trkpt>
      <trkpt lat="45.70074" lon="4.59556">
        <ele>622</ele>
        <time>2011-11-06T15:01:12Z</time>
      </trkpt>
      <trkpt lat="45.70076" lon="4.59549">
        <ele>623</ele>
        <time>2011-11-06T15:01:17Z</time>
      </trkpt>
      <trkpt lat="45.70076" lon="4.59526">
        <ele>624</ele>
        <time>2011-11-06T15:01:22Z</time>
      </trkpt>
      <trkpt lat="45.70081" lon="4.59504">
        <ele>623</ele>
        <time>2011-11-06T15:01:26Z</time>
      </trkpt>
      <trkpt lat="45.70083" lon="4.59494">
        <ele>623</ele>
        <time>2011-11-06T15:01:27Z</time>
      </trkpt>
      <trkpt lat="45.70089" lon="4.5944">
        <ele>622</ele>
        <time>2011-11-06T15:01:33Z</time>
      </trkpt>
      <trkpt lat="45.70089" lon="4.5943">
        <ele>621</ele>
        <time>2011-11-06T15:01:34Z</time>
      </trkpt>
      <trkpt lat="45.70089" lon="4.59421">
        <ele>620</ele>
        <time>2011-11-06T15:01:35Z</time>
      </trkpt>
      <trkpt lat="45.70088" lon="4.59412">
        <ele>620</ele>
        <time>2011-11-06T15:01:36Z</time>
      </trkpt>
      <trkpt lat="45.70085" lon="4.59404">
        <ele>621</ele>
        <time>2011-11-06T15:01:37Z</time>
      </trkpt>
      <trkpt lat="45.7008" lon="4.59396">
        <ele>620</ele>
        <time>2011-11-06T15:01:38Z</time>
      </trkpt>
      <trkpt lat="45.70076" lon="4.5939">
        <ele>619</ele>
        <time>2011-11-06T15:01:39Z</time>
      </trkpt>
      <trkpt lat="45.70072" lon="4.59385">
        <ele>619</ele>
        <time>2011-11-06T15:01:40Z</time>
      </trkpt>
      <trkpt lat="45.70067" lon="4.59381">
        <ele>618</ele>
        <time>2011-11-06T15:01:41Z</time>
      </trkpt>
      <trkpt lat="45.70056" lon="4.59379">
        <ele>616</ele>
        <time>2011-11-06T15:01:43Z</time>
      </trkpt>
      <trkpt lat="45.70049" lon="4.59376">
        <ele>615</ele>
        <time>2011-11-06T15:01:44Z</time>
      </trkpt>
      <trkpt lat="45.70042" lon="4.59372">
        <ele>613</ele>
        <time>2011-11-06T15:01:45Z</time>
      </trkpt>
      <trkpt lat="45.70035" lon="4.59366">
        <ele>612</ele>
        <time>2011-11-06T15:01:46Z</time>
      </trkpt>
      <trkpt lat="45.70029" lon="4.59359">
        <ele>611</ele>
        <time>2011-11-06T15:01:47Z</time>
      </trkpt>
      <trkpt lat="45.70024" lon="4.59354">
        <ele>610</ele>
        <time>2011-11-06T15:01:48Z</time>
      </trkpt>
      <trkpt lat="45.70017" lon="4.59346">
        <ele>607</ele>
        <time>2011-11-06T15:01:51Z</time>
      </trkpt>
      <trkpt lat="45.70016" lon="4.59345">
        <ele>607</ele>
        <time>2011-11-06T15:01:52Z</time>
      </trkpt>
      <trkpt lat="45.70007" lon="4.59332">
        <ele>604</ele>
        <time>2011-11-06T15:01:57Z</time>
      </trkpt>
      <trkpt lat="45.70003" lon="4.59324">
        <ele>603</ele>
        <time>2011-11-06T15:01:59Z</time>
      </trkpt>
      <trkpt lat="45.7" lon="4.59319">
        <ele>602</ele>
        <time>2011-11-06T15:02:00Z</time>
      </trkpt>
      <trkpt lat="45.69993" lon="4.59306">
        <ele>600</ele>
        <time>2011-11-06T15:02:02Z</time>
      </trkpt>
      <trkpt lat="45.69979" lon="4.59279">
        <ele>594</ele>
        <time>2011-11-06T15:02:06Z</time>
      </trkpt>
      <trkpt lat="45.6997" lon="4.59263">
        <ele>590</ele>
        <time>2011-11-06T15:02:09Z</time>
      </trkpt>
      <trkpt lat="45.69961" lon="4.59248">
        <ele>587</ele>
        <time>2011-11-06T15:02:12Z</time>
      </trkpt>
      <trkpt lat="45.69958" lon="4.59248">
        <ele>586</ele>
        <time>2011-11-06T15:02:13Z</time>
      </trkpt>
      <trkpt lat="45.69948" lon="4.59253">
        <ele>584</ele>
        <time>2011-11-06T15:02:15Z</time>
      </trkpt>
      <trkpt lat="45.69936" lon="4.59261">
        <ele>581</ele>
        <time>2011-11-06T15:02:17Z</time>
      </trkpt>
      <trkpt lat="45.69918" lon="4.59277">
        <ele>576</ele>
        <time>2011-11-06T15:02:20Z</time>
      </trkpt>
      <trkpt lat="45.69913" lon="4.59281">
        <ele>575</ele>
        <time>2011-11-06T15:02:21Z</time>
      </trkpt>
      <trkpt lat="45.69907" lon="4.59308">
        <ele>570</ele>
        <time>2011-11-06T15:02:26Z</time>
      </trkpt>
      <trkpt lat="45.69913" lon="4.59323">
        <ele>568</ele>
        <time>2011-11-06T15:02:28Z</time>
      </trkpt>
      <trkpt lat="45.69927" lon="4.59359">
        <ele>565</ele>
        <time>2011-11-06T15:02:32Z</time>
      </trkpt>
      <trkpt lat="45.69935" lon="4.59408">
        <ele>559</ele>
        <time>2011-11-06T15:02:37Z</time>
      </trkpt>
      <trkpt lat="45.69935" lon="4.59425">
        <ele>557</ele>
        <time>2011-11-06T15:02:40Z</time>
      </trkpt>
      <trkpt lat="45.69932" lon="4.59434">
        <ele>555</ele>
        <time>2011-11-06T15:02:42Z</time>
      </trkpt>
      <trkpt lat="45.69921" lon="4.59443">
        <ele>551</ele>
        <time>2011-11-06T15:02:48Z</time>
      </trkpt>
      <trkpt lat="45.69914" lon="4.59444">
        <ele>550</ele>
        <time>2011-11-06T15:02:51Z</time>
      </trkpt>
      <trkpt lat="45.6991" lon="4.59442">
        <ele>548</ele>
        <time>2011-11-06T15:02:53Z</time>
      </trkpt>
      <trkpt lat="45.69906" lon="4.59432">
        <ele>545</ele>
        <time>2011-11-06T15:02:58Z</time>
      </trkpt>
      <trkpt lat="45.69905" lon="4.59423">
        <ele>542</ele>
        <time>2011-11-06T15:03:03Z</time>
      </trkpt>
      <trkpt lat="45.69902" lon="4.59415">
        <ele>540</ele>
        <time>2011-11-06T15:03:08Z</time>
      </trkpt>
      <trkpt lat="45.699" lon="4.59411">
        <ele>539</ele>
        <time>2011-11-06T15:03:15Z</time>
      </trkpt>
      <trkpt lat="45.699" lon="4.59411">
        <ele>539</ele>
        <time>2011-11-06T15:03:29Z</time>
      </trkpt>
      <trkpt lat="45.699" lon="4.59411">
        <ele>539</ele>
        <time>2011-11-06T15:03:48Z</time>
      </trkpt>
      <trkpt lat="45.69901" lon="4.5941">
        <ele>539</ele>
        <time>2011-11-06T15:04:08Z</time>
      </trkpt>
      <trkpt lat="45.69901" lon="4.5941">
        <ele>539</ele>
        <time>2011-11-06T15:04:24Z</time>
      </trkpt>
      <trkpt lat="45.699" lon="4.5941">
        <ele>539</ele>
        <time>2011-11-06T15:04:35Z</time>
      </trkpt>
      <trkpt lat="45.69895" lon="4.594">
        <ele>538</ele>
        <time>2011-11-06T15:04:39Z</time>
      </trkpt>
      <trkpt lat="45.6988" lon="4.59386">
        <ele>533</ele>
        <time>2011-11-06T15:04:44Z</time>
      </trkpt>
      <trkpt lat="45.69866" lon="4.59376">
        <ele>528</ele>
        <time>2011-11-06T15:04:48Z</time>
      </trkpt>
      <trkpt lat="45.69852" lon="4.59366">
        <ele>524</ele>
        <time>2011-11-06T15:04:52Z</time>
      </trkpt>
      <trkpt lat="45.69838" lon="4.59355">
        <ele>520</ele>
        <time>2011-11-06T15:04:56Z</time>
      </trkpt>
      <trkpt lat="45.6983" lon="4.59347">
        <ele>516</ele>
        <time>2011-11-06T15:04:59Z</time>
      </trkpt>
      <trkpt lat="45.69823" lon="4.5934">
        <ele>515</ele>
        <time>2011-11-06T15:05:01Z</time>
      </trkpt>
      <trkpt lat="45.69814" lon="4.59326">
        <ele>512</ele>
        <time>2011-11-06T15:05:04Z</time>
      </trkpt>
      <trkpt lat="45.6981" lon="4.59324">
        <ele>510</ele>
        <time>2011-11-06T15:05:05Z</time>
      </trkpt>
      <trkpt lat="45.69797" lon="4.59329">
        <ele>509</ele>
        <time>2011-11-06T15:05:10Z</time>
      </trkpt>
      <trkpt lat="45.69792" lon="4.59329">
        <ele>509</ele>
        <time>2011-11-06T15:05:12Z</time>
      </trkpt>
      <trkpt lat="45.6978" lon="4.59336">
        <ele>509</ele>
        <time>2011-11-06T15:05:19Z</time>
      </trkpt>
      <trkpt lat="45.69768" lon="4.59338">
        <ele>509</ele>
        <time>2011-11-06T15:05:26Z</time>
      </trkpt>
      <trkpt lat="45.69756" lon="4.59346">
        <ele>509</ele>
        <time>2011-11-06T15:05:31Z</time>
      </trkpt>
      <trkpt lat="45.69745" lon="4.59359">
        <ele>509</ele>
        <time>2011-11-06T15:05:38Z</time>
      </trkpt>
      <trkpt lat="45.69738" lon="4.59366">
        <ele>508</ele>
        <time>2011-11-06T15:05:43Z</time>
      </trkpt>
      <trkpt lat="45.69727" lon="4.59374">
        <ele>507</ele>
        <time>2011-11-06T15:05:48Z</time>
      </trkpt>
      <trkpt lat="45.69723" lon="4.59377">
        <ele>506</ele>
        <time>2011-11-06T15:05:49Z</time>
      </trkpt>
      <trkpt lat="45.69718" lon="4.5938">
        <ele>506</ele>
        <time>2011-11-06T15:05:50Z</time>
      </trkpt>
      <trkpt lat="45.69713" lon="4.59385">
        <ele>505</ele>
        <time>2011-11-06T15:05:51Z</time>
      </trkpt>
      <trkpt lat="45.69708" lon="4.59389">
        <ele>505</ele>
        <time>2011-11-06T15:05:52Z</time>
      </trkpt>
      <trkpt lat="45.69702" lon="4.59394">
        <ele>504</ele>
        <time>2011-11-06T15:05:53Z</time>
      </trkpt>
      <trkpt lat="45.69696" lon="4.59398">
        <ele>503</ele>
        <time>2011-11-06T15:05:54Z</time>
      </trkpt>
      <trkpt lat="45.69671" lon="4.59413">
        <ele>500</ele>
        <time>2011-11-06T15:05:58Z</time>
      </trkpt>
      <trkpt lat="45.69648" lon="4.5943">
        <ele>496</ele>
        <time>2011-11-06T15:06:02Z</time>
      </trkpt>
      <trkpt lat="45.6963" lon="4.59453">
        <ele>493</ele>
        <time>2011-11-06T15:06:05Z</time>
      </trkpt>
      <trkpt lat="45.69619" lon="4.59465">
        <ele>491</ele>
        <time>2011-11-06T15:06:07Z</time>
      </trkpt>
      <trkpt lat="45.69614" lon="4.59472">
        <ele>490</ele>
        <time>2011-11-06T15:06:08Z</time>
      </trkpt>
      <trkpt lat="45.69609" lon="4.59479">
        <ele>490</ele>
        <time>2011-11-06T15:06:09Z</time>
      </trkpt>
      <trkpt lat="45.69599" lon="4.59491">
        <ele>488</ele>
        <time>2011-11-06T15:06:11Z</time>
      </trkpt>
      <trkpt lat="45.69594" lon="4.59495">
        <ele>487</ele>
        <time>2011-11-06T15:06:12Z</time>
      </trkpt>
      <trkpt lat="45.69589" lon="4.59499">
        <ele>486</ele>
        <time>2011-11-06T15:06:13Z</time>
      </trkpt>
      <trkpt lat="45.69587" lon="4.59501">
        <ele>486</ele>
        <time>2011-11-06T15:06:14Z</time>
      </trkpt>
      <trkpt lat="45.69584" lon="4.59502">
        <ele>486</ele>
        <time>2011-11-06T15:06:20Z</time>
      </trkpt>
      <trkpt lat="45.69585" lon="4.595">
        <ele>486</ele>
        <time>2011-11-06T15:06:21Z</time>
      </trkpt>
      <trkpt lat="45.69593" lon="4.59481">
        <ele>486</ele>
        <time>2011-11-06T15:06:27Z</time>
      </trkpt>
      <trkpt lat="45.69595" lon="4.59476">
        <ele>485</ele>
        <time>2011-11-06T15:06:28Z</time>
      </trkpt>
      <trkpt lat="45.69589" lon="4.59461">
        <ele>484</ele>
        <time>2011-11-06T15:06:32Z</time>
      </trkpt>
      <trkpt lat="45.69584" lon="4.5946">
        <ele>483</ele>
        <time>2011-11-06T15:06:33Z</time>
      </trkpt>
      <trkpt lat="45.69579" lon="4.59458">
        <ele>482</ele>
        <time>2011-11-06T15:06:34Z</time>
      </trkpt>
      <trkpt lat="45.69574" lon="4.59456">
        <ele>482</ele>
        <time>2011-11-06T15:06:35Z</time>
      </trkpt>
      <trkpt lat="45.69567" lon="4.59453">
        <ele>481</ele>
        <time>2011-11-06T15:06:36Z</time>
      </trkpt>
      <trkpt lat="45.6956" lon="4.59451">
        <ele>480</ele>
        <time>2011-11-06T15:06:37Z</time>
      </trkpt>
      <trkpt lat="45.69535" lon="4.59446">
        <ele>478</ele>
        <time>2011-11-06T15:06:40Z</time>
      </trkpt>
      <trkpt lat="45.69512" lon="4.59448">
        <ele>478</ele>
        <time>2011-11-06T15:06:43Z</time>
      </trkpt>
      <trkpt lat="45.69507" lon="4.59449">
        <ele>477</ele>
        <time>2011-11-06T15:06:44Z</time>
      </trkpt>
      <trkpt lat="45.69501" lon="4.59452">
        <ele>476</ele>
        <time>2011-11-06T15:06:46Z</time>
      </trkpt>
      <trkpt lat="45.69499" lon="4.59455">
        <ele>476</ele>
        <time>2011-11-06T15:06:47Z</time>
      </trkpt>
      <trkpt lat="45.69486" lon="4.59474">
        <ele>475</ele>
        <time>2011-11-06T15:06:53Z</time>
      </trkpt>
      <trkpt lat="45.69473" lon="4.59497">
        <ele>474</ele>
        <time>2011-11-06T15:06:57Z</time>
      </trkpt>
      <trkpt lat="45.69471" lon="4.59504">
        <ele>474</ele>
        <time>2011-11-06T15:06:58Z</time>
      </trkpt>
      <trkpt lat="45.69468" lon="4.59512">
        <ele>474</ele>
        <time>2011-11-06T15:06:59Z</time>
      </trkpt>
      <trkpt lat="45.69465" lon="4.59519">
        <ele>474</ele>
        <time>2011-11-06T15:07:00Z</time>
      </trkpt>
      <trkpt lat="45.69463" lon="4.59526">
        <ele>473</ele>
        <time>2011-11-06T15:07:01Z</time>
      </trkpt>
      <trkpt lat="45.69461" lon="4.59533">
        <ele>473</ele>
        <time>2011-11-06T15:07:02Z</time>
      </trkpt>
      <trkpt lat="45.69445" lon="4.5957">
        <ele>473</ele>
        <time>2011-11-06T15:07:07Z</time>
      </trkpt>
      <trkpt lat="45.69426" lon="4.59616">
        <ele>473</ele>
        <time>2011-11-06T15:07:14Z</time>
      </trkpt>
      <trkpt lat="45.69418" lon="4.59636">
        <ele>472</ele>
        <time>2011-11-06T15:07:17Z</time>
      </trkpt>
      <trkpt lat="45.69415" lon="4.59644">
        <ele>473</ele>
        <time>2011-11-06T15:07:18Z</time>
      </trkpt>
      <trkpt lat="45.69414" lon="4.59652">
        <ele>473</ele>
        <time>2011-11-06T15:07:19Z</time>
      </trkpt>
      <trkpt lat="45.69413" lon="4.59673">
        <ele>472</ele>
        <time>2011-11-06T15:07:22Z</time>
      </trkpt>
      <trkpt lat="45.69405" lon="4.59726">
        <ele>470</ele>
        <time>2011-11-06T15:07:29Z</time>
      </trkpt>
      <trkpt lat="45.69402" lon="4.59734">
        <ele>470</ele>
        <time>2011-11-06T15:07:30Z</time>
      </trkpt>
      <trkpt lat="45.69389" lon="4.59773">
        <ele>470</ele>
        <time>2011-11-06T15:07:35Z</time>
      </trkpt>
      <trkpt lat="45.69382" lon="4.59786">
        <ele>470</ele>
        <time>2011-11-06T15:07:37Z</time>
      </trkpt>
      <trkpt lat="45.69379" lon="4.59792">
        <ele>470</ele>
        <time>2011-11-06T15:07:38Z</time>
      </trkpt>
      <trkpt lat="45.69376" lon="4.59798">
        <ele>470</ele>
        <time>2011-11-06T15:07:39Z</time>
      </trkpt>
      <trkpt lat="45.69359" lon="4.59824">
        <ele>472</ele>
        <time>2011-11-06T15:07:45Z</time>
      </trkpt>
      <trkpt lat="45.69341" lon="4.59857">
        <ele>474</ele>
        <time>2011-11-06T15:07:53Z</time>
      </trkpt>
      <trkpt lat="45.69331" lon="4.59878">
        <ele>474</ele>
        <time>2011-11-06T15:07:59Z</time>
      </trkpt>
      <trkpt lat="45.69317" lon="4.59904">
        <ele>474</ele>
        <time>2011-11-06T15:08:04Z</time>
      </trkpt>
      <trkpt lat="45.6931" lon="4.59922">
        <ele>473</ele>
        <time>2011-11-06T15:08:07Z</time>
      </trkpt>
      <trkpt lat="45.69307" lon="4.59927">
        <ele>474</ele>
        <time>2011-11-06T15:08:08Z</time>
      </trkpt>
      <trkpt lat="45.69305" lon="4.59932">
        <ele>474</ele>
        <time>2011-11-06T15:08:09Z</time>
      </trkpt>
      <trkpt lat="45.69303" lon="4.59937">
        <ele>474</ele>
        <time>2011-11-06T15:08:10Z</time>
      </trkpt>
      <trkpt lat="45.693" lon="4.59942">
        <ele>474</ele>
        <time>2011-11-06T15:08:11Z</time>
      </trkpt>
      <trkpt lat="45.69298" lon="4.59947">
        <ele>474</ele>
        <time>2011-11-06T15:08:12Z</time>
      </trkpt>
      <trkpt lat="45.69283" lon="4.59976">
        <ele>474</ele>
        <time>2011-11-06T15:08:18Z</time>
      </trkpt>
      <trkpt lat="45.69279" lon="4.59988">
        <ele>474</ele>
        <time>2011-11-06T15:08:20Z</time>
      </trkpt>
      <trkpt lat="45.69277" lon="4.59994">
        <ele>474</ele>
        <time>2011-11-06T15:08:21Z</time>
      </trkpt>
      <trkpt lat="45.69275" lon="4.60001">
        <ele>474</ele>
        <time>2011-11-06T15:08:22Z</time>
      </trkpt>
      <trkpt lat="45.69269" lon="4.60034">
        <ele>471</ele>
        <time>2011-11-06T15:08:26Z</time>
      </trkpt>
      <trkpt lat="45.69265" lon="4.60045">
        <ele>471</ele>
        <time>2011-11-06T15:08:27Z</time>
      </trkpt>
      <trkpt lat="45.69259" lon="4.60057">
        <ele>471</ele>
        <time>2011-11-06T15:08:28Z</time>
      </trkpt>
      <trkpt lat="45.69253" lon="4.60069">
        <ele>470</ele>
        <time>2011-11-06T15:08:29Z</time>
      </trkpt>
      <trkpt lat="45.69246" lon="4.60079">
        <ele>469</ele>
        <time>2011-11-06T15:08:30Z</time>
      </trkpt>
      <trkpt lat="45.69238" lon="4.60086">
        <ele>468</ele>
        <time>2011-11-06T15:08:31Z</time>
      </trkpt>
      <trkpt lat="45.69229" lon="4.60089">
        <ele>466</ele>
        <time>2011-11-06T15:08:32Z</time>
      </trkpt>
      <trkpt lat="45.69221" lon="4.60087">
        <ele>465</ele>
        <time>2011-11-06T15:08:33Z</time>
      </trkpt>
      <trkpt lat="45.69213" lon="4.60085">
        <ele>465</ele>
        <time>2011-11-06T15:08:34Z</time>
      </trkpt>
      <trkpt lat="45.69206" lon="4.60085">
        <ele>464</ele>
        <time>2011-11-06T15:08:35Z</time>
      </trkpt>
      <trkpt lat="45.692" lon="4.6009">
        <ele>463</ele>
        <time>2011-11-06T15:08:36Z</time>
      </trkpt>
      <trkpt lat="45.69195" lon="4.60098">
        <ele>463</ele>
        <time>2011-11-06T15:08:37Z</time>
      </trkpt>
      <trkpt lat="45.69192" lon="4.60106">
        <ele>463</ele>
        <time>2011-11-06T15:08:38Z</time>
      </trkpt>
      <trkpt lat="45.6919" lon="4.60116">
        <ele>463</ele>
        <time>2011-11-06T15:08:39Z</time>
      </trkpt>
      <trkpt lat="45.69188" lon="4.60125">
        <ele>463</ele>
        <time>2011-11-06T15:08:40Z</time>
      </trkpt>
      <trkpt lat="45.69187" lon="4.60134">
        <ele>462</ele>
        <time>2011-11-06T15:08:41Z</time>
      </trkpt>
      <trkpt lat="45.69186" lon="4.60151">
        <ele>462</ele>
        <time>2011-11-06T15:08:43Z</time>
      </trkpt>
      <trkpt lat="45.69186" lon="4.6016">
        <ele>463</ele>
        <time>2011-11-06T15:08:44Z</time>
      </trkpt>
      <trkpt lat="45.69186" lon="4.60177">
        <ele>462</ele>
        <time>2011-11-06T15:08:46Z</time>
      </trkpt>
      <trkpt lat="45.69186" lon="4.60186">
        <ele>462</ele>
        <time>2011-11-06T15:08:47Z</time>
      </trkpt>
      <trkpt lat="45.69186" lon="4.60253">
        <ele>463</ele>
        <time>2011-11-06T15:08:55Z</time>
      </trkpt>
      <trkpt lat="45.69184" lon="4.60274">
        <ele>463</ele>
        <time>2011-11-06T15:08:58Z</time>
      </trkpt>
      <trkpt lat="45.69183" lon="4.6028">
        <ele>463</ele>
        <time>2011-11-06T15:08:59Z</time>
      </trkpt>
      <trkpt lat="45.69182" lon="4.60285">
        <ele>463</ele>
        <time>2011-11-06T15:09:00Z</time>
      </trkpt>
      <trkpt lat="45.6918" lon="4.6029">
        <ele>463</ele>
        <time>2011-11-06T15:09:01Z</time>
      </trkpt>
      <trkpt lat="45.69178" lon="4.60294">
        <ele>463</ele>
        <time>2011-11-06T15:09:02Z</time>
      </trkpt>
      <trkpt lat="45.69179" lon="4.60297">
        <ele>463</ele>
        <time>2011-11-06T15:09:03Z</time>
      </trkpt>
      <trkpt lat="45.69181" lon="4.60298">
        <ele>463</ele>
        <time>2011-11-06T15:09:04Z</time>
      </trkpt>
      <trkpt lat="45.69183" lon="4.60297">
        <ele>463</ele>
        <time>2011-11-06T15:09:05Z</time>
      </trkpt>
      <trkpt lat="45.69185" lon="4.60295">
        <ele>462</ele>
        <time>2011-11-06T15:09:06Z</time>
      </trkpt>
      <trkpt lat="45.69187" lon="4.60293">
        <ele>462</ele>
        <time>2011-11-06T15:09:07Z</time>
      </trkpt>
      <trkpt lat="45.69191" lon="4.60291">
        <ele>462</ele>
        <time>2011-11-06T15:09:08Z</time>
      </trkpt>
      <trkpt lat="45.69195" lon="4.60291">
        <ele>462</ele>
        <time>2011-11-06T15:09:09Z</time>
      </trkpt>
      <trkpt lat="45.69201" lon="4.60291">
        <ele>461</ele>
        <time>2011-11-06T15:09:10Z</time>
      </trkpt>
      <trkpt lat="45.69208" lon="4.60293">
        <ele>460</ele>
        <time>2011-11-06T15:09:11Z</time>
      </trkpt>
      <trkpt lat="45.69214" lon="4.60298">
        <ele>459</ele>
        <time>2011-11-06T15:09:12Z</time>
      </trkpt>
      <trkpt lat="45.6922" lon="4.60306">
        <ele>458</ele>
        <time>2011-11-06T15:09:13Z</time>
      </trkpt>
      <trkpt lat="45.69226" lon="4.60314">
        <ele>457</ele>
        <time>2011-11-06T15:09:14Z</time>
      </trkpt>
      <trkpt lat="45.69234" lon="4.6032">
        <ele>455</ele>
        <time>2011-11-06T15:09:15Z</time>
      </trkpt>
      <trkpt lat="45.6925" lon="4.6033">
        <ele>452</ele>
        <time>2011-11-06T15:09:17Z</time>
      </trkpt>
      <trkpt lat="45.6926" lon="4.60334">
        <ele>451</ele>
        <time>2011-11-06T15:09:18Z</time>
      </trkpt>
      <trkpt lat="45.69269" lon="4.60335">
        <ele>449</ele>
        <time>2011-11-06T15:09:19Z</time>
      </trkpt>
      <trkpt lat="45.69278" lon="4.60335">
        <ele>448</ele>
        <time>2011-11-06T15:09:20Z</time>
      </trkpt>
      <trkpt lat="45.69286" lon="4.60331">
        <ele>447</ele>
        <time>2011-11-06T15:09:21Z</time>
      </trkpt>
      <trkpt lat="45.69294" lon="4.60325">
        <ele>446</ele>
        <time>2011-11-06T15:09:22Z</time>
      </trkpt>
      <trkpt lat="45.693" lon="4.60318">
        <ele>445</ele>
        <time>2011-11-06T15:09:23Z</time>
      </trkpt>
      <trkpt lat="45.69306" lon="4.60313">
        <ele>443</ele>
        <time>2011-11-06T15:09:24Z</time>
      </trkpt>
      <trkpt lat="45.69313" lon="4.60312">
        <ele>443</ele>
        <time>2011-11-06T15:09:25Z</time>
      </trkpt>
      <trkpt lat="45.69319" lon="4.60315">
        <ele>442</ele>
        <time>2011-11-06T15:09:26Z</time>
      </trkpt>
      <trkpt lat="45.69326" lon="4.60319">
        <ele>441</ele>
        <time>2011-11-06T15:09:27Z</time>
      </trkpt>
      <trkpt lat="45.69331" lon="4.60324">
        <ele>441</ele>
        <time>2011-11-06T15:09:28Z</time>
      </trkpt>
      <trkpt lat="45.69337" lon="4.6033">
        <ele>440</ele>
        <time>2011-11-06T15:09:31Z</time>
      </trkpt>
      <trkpt lat="45.69342" lon="4.60343">
        <ele>440</ele>
        <time>2011-11-06T15:09:35Z</time>
      </trkpt>
      <trkpt lat="45.69344" lon="4.60377">
        <ele>439</ele>
        <time>2011-11-06T15:09:41Z</time>
      </trkpt>
      <trkpt lat="45.69344" lon="4.60397">
        <ele>439</ele>
        <time>2011-11-06T15:09:46Z</time>
      </trkpt>
      <trkpt lat="45.69345" lon="4.60411">
        <ele>441</ele>
        <time>2011-11-06T15:09:52Z</time>
      </trkpt>
      <trkpt lat="45.69345" lon="4.60415">
        <ele>441</ele>
        <time>2011-11-06T15:09:54Z</time>
      </trkpt>
      <trkpt lat="45.69346" lon="4.60418">
        <ele>442</ele>
        <time>2011-11-06T15:09:55Z</time>
      </trkpt>
      <trkpt lat="45.69346" lon="4.6042">
        <ele>442</ele>
        <time>2011-11-06T15:09:56Z</time>
      </trkpt>
      <trkpt lat="45.69346" lon="4.60422">
        <ele>442</ele>
        <time>2011-11-06T15:09:57Z</time>
      </trkpt>
      <trkpt lat="45.69346" lon="4.60424">
        <ele>442</ele>
        <time>2011-11-06T15:09:58Z</time>
      </trkpt>
      <trkpt lat="45.69346" lon="4.60427">
        <ele>442</ele>
        <time>2011-11-06T15:09:59Z</time>
      </trkpt>
      <trkpt lat="45.69346" lon="4.6043">
        <ele>443</ele>
        <time>2011-11-06T15:10:00Z</time>
      </trkpt>
      <trkpt lat="45.69347" lon="4.60432">
        <ele>443</ele>
        <time>2011-11-06T15:10:01Z</time>
      </trkpt>
      <trkpt lat="45.69347" lon="4.60434">
        <ele>443</ele>
        <time>2011-11-06T15:10:02Z</time>
      </trkpt>
      <trkpt lat="45.69348" lon="4.60436">
        <ele>443</ele>
        <time>2011-11-06T15:10:03Z</time>
      </trkpt>
      <trkpt lat="45.69348" lon="4.60438">
        <ele>443</ele>
        <time>2011-11-06T15:10:04Z</time>
      </trkpt>
      <trkpt lat="45.69347" lon="4.60444">
        <ele>445</ele>
        <time>2011-11-06T15:10:09Z</time>
      </trkpt>
      <trkpt lat="45.69346" lon="4.60449">
        <ele>445</ele>
        <time>2011-11-06T15:10:12Z</time>
      </trkpt>
      <trkpt lat="45.69345" lon="4.60453">
        <ele>447</ele>
        <time>2011-11-06T15:10:17Z</time>
      </trkpt>
      <trkpt lat="45.69343" lon="4.60463">
        <ele>448</ele>
        <time>2011-11-06T15:10:22Z</time>
      </trkpt>
      <trkpt lat="45.69341" lon="4.60472">
        <ele>449</ele>
        <time>2011-11-06T15:10:27Z</time>
      </trkpt>
      <trkpt lat="45.6934" lon="4.60474">
        <ele>449</ele>
        <time>2011-11-06T15:10:28Z</time>
      </trkpt>
      <trkpt lat="45.69339" lon="4.60476">
        <ele>450</ele>
        <time>2011-11-06T15:10:29Z</time>
      </trkpt>
      <trkpt lat="45.69339" lon="4.60478">
        <ele>450</ele>
        <time>2011-11-06T15:10:30Z</time>
      </trkpt>
      <trkpt lat="45.69338" lon="4.60481">
        <ele>450</ele>
        <time>2011-11-06T15:10:31Z</time>
      </trkpt>
      <trkpt lat="45.69337" lon="4.60483">
        <ele>450</ele>
        <time>2011-11-06T15:10:32Z</time>
      </trkpt>
      <trkpt lat="45.69336" lon="4.60484">
        <ele>450</ele>
        <time>2011-11-06T15:10:33Z</time>
      </trkpt>
      <trkpt lat="45.69335" lon="4.60486">
        <ele>450</ele>
        <time>2011-11-06T15:10:34Z</time>
      </trkpt>
      <trkpt lat="45.69332" lon="4.60494">
        <ele>451</ele>
        <time>2011-11-06T15:10:39Z</time>
      </trkpt>
      <trkpt lat="45.69327" lon="4.605">
        <ele>451</ele>
        <time>2011-11-06T15:10:44Z</time>
      </trkpt>
      <trkpt lat="45.69326" lon="4.60501">
        <ele>451</ele>
        <time>2011-11-06T15:10:45Z</time>
      </trkpt>
      <trkpt lat="45.69325" lon="4.60504">
        <ele>452</ele>
        <time>2011-11-06T15:10:47Z</time>
      </trkpt>
      <trkpt lat="45.69321" lon="4.60518">
        <ele>453</ele>
        <time>2011-11-06T15:10:55Z</time>
      </trkpt>
      <trkpt lat="45.69318" lon="4.60533">
        <ele>454</ele>
        <time>2011-11-06T15:11:02Z</time>
      </trkpt>
      <trkpt lat="45.69316" lon="4.60547">
        <ele>455</ele>
        <time>2011-11-06T15:11:09Z</time>
      </trkpt>
      <trkpt lat="45.69313" lon="4.60556">
        <ele>456</ele>
        <time>2011-11-06T15:11:15Z</time>
      </trkpt>
      <trkpt lat="45.69309" lon="4.60566">
        <ele>457</ele>
        <time>2011-11-06T15:11:22Z</time>
      </trkpt>
      <trkpt lat="45.69308" lon="4.60569">
        <ele>458</ele>
        <time>2011-11-06T15:11:24Z</time>
      </trkpt>
      <trkpt lat="45.69307" lon="4.60572">
        <ele>458</ele>
        <time>2011-11-06T15:11:25Z</time>
      </trkpt>
      <trkpt lat="45.69307" lon="4.60573">
        <ele>459</ele>
        <time>2011-11-06T15:11:26Z</time>
      </trkpt>
      <trkpt lat="45.69307" lon="4.60575">
        <ele>459</ele>
        <time>2011-11-06T15:11:27Z</time>
      </trkpt>
      <trkpt lat="45.69305" lon="4.60582">
        <ele>460</ele>
        <time>2011-11-06T15:11:32Z</time>
      </trkpt>
      <trkpt lat="45.69303" lon="4.6059">
        <ele>462</ele>
        <time>2011-11-06T15:11:38Z</time>
      </trkpt>
      <trkpt lat="45.69301" lon="4.60596">
        <ele>462</ele>
        <time>2011-11-06T15:11:42Z</time>
      </trkpt>
      <trkpt lat="45.69301" lon="4.60598">
        <ele>462</ele>
        <time>2011-11-06T15:11:43Z</time>
      </trkpt>
      <trkpt lat="45.693" lon="4.60605">
        <ele>463</ele>
        <time>2011-11-06T15:11:48Z</time>
      </trkpt>
      <trkpt lat="45.69296" lon="4.60616">
        <ele>464</ele>
        <time>2011-11-06T15:11:55Z</time>
      </trkpt>
      <trkpt lat="45.69295" lon="4.60623">
        <ele>465</ele>
        <time>2011-11-06T15:12:00Z</time>
      </trkpt>
      <trkpt lat="45.69295" lon="4.60625">
        <ele>465</ele>
        <time>2011-11-06T15:12:01Z</time>
      </trkpt>
      <trkpt lat="45.69295" lon="4.60634">
        <ele>467</ele>
        <time>2011-11-06T15:12:06Z</time>
      </trkpt>
      <trkpt lat="45.69292" lon="4.60646">
        <ele>469</ele>
        <time>2011-11-06T15:12:13Z</time>
      </trkpt>
      <trkpt lat="45.6929" lon="4.60657">
        <ele>471</ele>
        <time>2011-11-06T15:12:20Z</time>
      </trkpt>
      <trkpt lat="45.69289" lon="4.60658">
        <ele>471</ele>
        <time>2011-11-06T15:12:21Z</time>
      </trkpt>
      <trkpt lat="45.69283" lon="4.60669">
        <ele>473</ele>
        <time>2011-11-06T15:12:28Z</time>
      </trkpt>
      <trkpt lat="45.69278" lon="4.60679">
        <ele>475</ele>
        <time>2011-11-06T15:12:35Z</time>
      </trkpt>
      <trkpt lat="45.69274" lon="4.60691">
        <ele>475</ele>
        <time>2011-11-06T15:12:44Z</time>
      </trkpt>
      <trkpt lat="45.69272" lon="4.60699">
        <ele>476</ele>
        <time>2011-11-06T15:12:49Z</time>
      </trkpt>
      <trkpt lat="45.69272" lon="4.60701">
        <ele>476</ele>
        <time>2011-11-06T15:12:50Z</time>
      </trkpt>
      <trkpt lat="45.6927" lon="4.60706">
        <ele>476</ele>
        <time>2011-11-06T15:12:53Z</time>
      </trkpt>
      <trkpt lat="45.69272" lon="4.6071">
        <ele>476</ele>
        <time>2011-11-06T15:12:57Z</time>
      </trkpt>
      <trkpt lat="45.69273" lon="4.60709">
        <ele>476</ele>
        <time>2011-11-06T15:12:58Z</time>
      </trkpt>
      <trkpt lat="45.69285" lon="4.60707">
        <ele>476</ele>
        <time>2011-11-06T15:13:04Z</time>
      </trkpt>
      <trkpt lat="45.69302" lon="4.60707">
        <ele>475</ele>
        <time>2011-11-06T15:13:10Z</time>
      </trkpt>
      <trkpt lat="45.69309" lon="4.60712">
        <ele>475</ele>
        <time>2011-11-06T15:13:14Z</time>
      </trkpt>
      <trkpt lat="45.69309" lon="4.60713">
        <ele>476</ele>
        <time>2011-11-06T15:13:15Z</time>
      </trkpt>
      <trkpt lat="45.69313" lon="4.60719">
        <ele>476</ele>
        <time>2011-11-06T15:13:21Z</time>
      </trkpt>
      <trkpt lat="45.69317" lon="4.60724">
        <ele>476</ele>
        <time>2011-11-06T15:13:25Z</time>
      </trkpt>
      <trkpt lat="45.69318" lon="4.60725">
        <ele>476</ele>
        <time>2011-11-06T15:13:26Z</time>
      </trkpt>
      <trkpt lat="45.6932" lon="4.60734">
        <ele>477</ele>
        <time>2011-11-06T15:13:31Z</time>
      </trkpt>
      <trkpt lat="45.6932" lon="4.60736">
        <ele>477</ele>
        <time>2011-11-06T15:13:32Z</time>
      </trkpt>
      <trkpt lat="45.6932" lon="4.60738">
        <ele>477</ele>
        <time>2011-11-06T15:13:33Z</time>
      </trkpt>
      <trkpt lat="45.6932" lon="4.60741">
        <ele>477</ele>
        <time>2011-11-06T15:13:34Z</time>
      </trkpt>
      <trkpt lat="45.6932" lon="4.60743">
        <ele>477</ele>
        <time>2011-11-06T15:13:35Z</time>
      </trkpt>
      <trkpt lat="45.6932" lon="4.60745">
        <ele>478</ele>
        <time>2011-11-06T15:13:36Z</time>
      </trkpt>
      <trkpt lat="45.69319" lon="4.60748">
        <ele>478</ele>
        <time>2011-11-06T15:13:38Z</time>
      </trkpt>
      <trkpt lat="45.69319" lon="4.60753">
        <ele>478</ele>
        <time>2011-11-06T15:13:40Z</time>
      </trkpt>
      <trkpt lat="45.69318" lon="4.60755">
        <ele>479</ele>
        <time>2011-11-06T15:13:41Z</time>
      </trkpt>
      <trkpt lat="45.69317" lon="4.60757">
        <ele>478</ele>
        <time>2011-11-06T15:13:42Z</time>
      </trkpt>
      <trkpt lat="45.69314" lon="4.60766">
        <ele>479</ele>
        <time>2011-11-06T15:13:47Z</time>
      </trkpt>
      <trkpt lat="45.69313" lon="4.60768">
        <ele>480</ele>
        <time>2011-11-06T15:13:48Z</time>
      </trkpt>
      <trkpt lat="45.69313" lon="4.6077">
        <ele>480</ele>
        <time>2011-11-06T15:13:49Z</time>
      </trkpt>
      <trkpt lat="45.69313" lon="4.60772">
        <ele>480</ele>
        <time>2011-11-06T15:13:50Z</time>
      </trkpt>
      <trkpt lat="45.69313" lon="4.60774">
        <ele>481</ele>
        <time>2011-11-06T15:13:51Z</time>
      </trkpt>
      <trkpt lat="45.69312" lon="4.60776">
        <ele>481</ele>
        <time>2011-11-06T15:13:52Z</time>
      </trkpt>
      <trkpt lat="45.69312" lon="4.60779">
        <ele>481</ele>
        <time>2011-11-06T15:13:53Z</time>
      </trkpt>
      <trkpt lat="45.69312" lon="4.60781">
        <ele>481</ele>
        <time>2011-11-06T15:13:54Z</time>
      </trkpt>
      <trkpt lat="45.69312" lon="4.60784">
        <ele>481</ele>
        <time>2011-11-06T15:13:55Z</time>
      </trkpt>
      <trkpt lat="45.69311" lon="4.60786">
        <ele>481</ele>
        <time>2011-11-06T15:13:56Z</time>
      </trkpt>
      <trkpt lat="45.69311" lon="4.60788">
        <ele>481</ele>
        <time>2011-11-06T15:13:57Z</time>
      </trkpt>
      <trkpt lat="45.69311" lon="4.60791">
        <ele>482</ele>
        <time>2011-11-06T15:13:58Z</time>
      </trkpt>
      <trkpt lat="45.69309" lon="4.60796">
        <ele>482</ele>
        <time>2011-11-06T15:14:03Z</time>
      </trkpt>
      <trkpt lat="45.69309" lon="4.60801">
        <ele>483</ele>
        <time>2011-11-06T15:14:10Z</time>
      </trkpt>
      <trkpt lat="45.69309" lon="4.60804">
        <ele>483</ele>
        <time>2011-11-06T15:14:15Z</time>
      </trkpt>
      <trkpt lat="45.69308" lon="4.60811">
        <ele>483</ele>
        <time>2011-11-06T15:14:21Z</time>
      </trkpt>
      <trkpt lat="45.69307" lon="4.60815">
        <ele>484</ele>
        <time>2011-11-06T15:14:23Z</time>
      </trkpt>
      <trkpt lat="45.69307" lon="4.60817">
        <ele>484</ele>
        <time>2011-11-06T15:14:24Z</time>
      </trkpt>
      <trkpt lat="45.69307" lon="4.6082">
        <ele>484</ele>
        <time>2011-11-06T15:14:25Z</time>
      </trkpt>
      <trkpt lat="45.69307" lon="4.60823">
        <ele>485</ele>
        <time>2011-11-06T15:14:26Z</time>
      </trkpt>
      <trkpt lat="45.69307" lon="4.60825">
        <ele>485</ele>
        <time>2011-11-06T15:14:27Z</time>
      </trkpt>
      <trkpt lat="45.69307" lon="4.60828">
        <ele>485</ele>
        <time>2011-11-06T15:14:28Z</time>
      </trkpt>
      <trkpt lat="45.69306" lon="4.6083">
        <ele>485</ele>
        <time>2011-11-06T15:14:29Z</time>
      </trkpt>
      <trkpt lat="45.69305" lon="4.60846">
        <ele>486</ele>
        <time>2011-11-06T15:14:36Z</time>
      </trkpt>
      <trkpt lat="45.69305" lon="4.60859">
        <ele>487</ele>
        <time>2011-11-06T15:14:42Z</time>
      </trkpt>
      <trkpt lat="45.69304" lon="4.60871">
        <ele>488</ele>
        <time>2011-11-06T15:14:48Z</time>
      </trkpt>
      <trkpt lat="45.69304" lon="4.60873">
        <ele>488</ele>
        <time>2011-11-06T15:14:49Z</time>
      </trkpt>
      <trkpt lat="45.69304" lon="4.60885">
        <ele>490</ele>
        <time>2011-11-06T15:14:56Z</time>
      </trkpt>
      <trkpt lat="45.69305" lon="4.6089">
        <ele>490</ele>
        <time>2011-11-06T15:14:58Z</time>
      </trkpt>
      <trkpt lat="45.69305" lon="4.60892">
        <ele>490</ele>
        <time>2011-11-06T15:14:59Z</time>
      </trkpt>
      <trkpt lat="45.69309" lon="4.60905">
        <ele>492</ele>
        <time>2011-11-06T15:15:06Z</time>
      </trkpt>
      <trkpt lat="45.69309" lon="4.60907">
        <ele>493</ele>
        <time>2011-11-06T15:15:07Z</time>
      </trkpt>
      <trkpt lat="45.69311" lon="4.60912">
        <ele>494</ele>
        <time>2011-11-06T15:15:13Z</time>
      </trkpt>
      <trkpt lat="45.69313" lon="4.60921">
        <ele>496</ele>
        <time>2011-11-06T15:15:19Z</time>
      </trkpt>
      <trkpt lat="45.69313" lon="4.60925">
        <ele>496</ele>
        <time>2011-11-06T15:15:25Z</time>
      </trkpt>
      <trkpt lat="45.69313" lon="4.60929">
        <ele>497</ele>
        <time>2011-11-06T15:15:32Z</time>
      </trkpt>
      <trkpt lat="45.69314" lon="4.60931">
        <ele>498</ele>
        <time>2011-11-06T15:15:40Z</time>
      </trkpt>
      <trkpt lat="45.69314" lon="4.60931">
        <ele>498</ele>
        <time>2011-11-06T15:15:53Z</time>
      </trkpt>
      <trkpt lat="45.69314" lon="4.60932">
        <ele>497</ele>
        <time>2011-11-06T15:16:04Z</time>
      </trkpt>
      <trkpt lat="45.69314" lon="4.60935">
        <ele>499</ele>
        <time>2011-11-06T15:16:14Z</time>
      </trkpt>
      <trkpt lat="45.69316" lon="4.60937">
        <ele>498</ele>
        <time>2011-11-06T15:16:21Z</time>
      </trkpt>
      <trkpt lat="45.69315" lon="4.60943">
        <ele>499</ele>
        <time>2011-11-06T15:16:27Z</time>
      </trkpt>
      <trkpt lat="45.69314" lon="4.60949">
        <ele>499</ele>
        <time>2011-11-06T15:16:32Z</time>
      </trkpt>
      <trkpt lat="45.69314" lon="4.60953">
        <ele>500</ele>
        <time>2011-11-06T15:16:42Z</time>
      </trkpt>
      <trkpt lat="45.69315" lon="4.60958">
        <ele>500</ele>
        <time>2011-11-06T15:16:45Z</time>
      </trkpt>
      <trkpt lat="45.69315" lon="4.60961">
        <ele>500</ele>
        <time>2011-11-06T15:16:46Z</time>
      </trkpt>
      <trkpt lat="45.69316" lon="4.60963">
        <ele>500</ele>
        <time>2011-11-06T15:16:47Z</time>
      </trkpt>
      <trkpt lat="45.69316" lon="4.60966">
        <ele>501</ele>
        <time>2011-11-06T15:16:48Z</time>
      </trkpt>
      <trkpt lat="45.69317" lon="4.6098">
        <ele>503</ele>
        <time>2011-11-06T15:16:55Z</time>
      </trkpt>
      <trkpt lat="45.69317" lon="4.60982">
        <ele>504</ele>
        <time>2011-11-06T15:16:56Z</time>
      </trkpt>
      <trkpt lat="45.69318" lon="4.60985">
        <ele>504</ele>
        <time>2011-11-06T15:16:57Z</time>
      </trkpt>
      <trkpt lat="45.69319" lon="4.60987">
        <ele>505</ele>
        <time>2011-11-06T15:16:58Z</time>
      </trkpt>
      <trkpt lat="45.69319" lon="4.60989">
        <ele>505</ele>
        <time>2011-11-06T15:16:59Z</time>
      </trkpt>
      <trkpt lat="45.69321" lon="4.61001">
        <ele>508</ele>
        <time>2011-11-06T15:17:05Z</time>
      </trkpt>
      <trkpt lat="45.6932" lon="4.61003">
        <ele>507</ele>
        <time>2011-11-06T15:17:06Z</time>
      </trkpt>
      <trkpt lat="45.6932" lon="4.61005">
        <ele>507</ele>
        <time>2011-11-06T15:17:07Z</time>
      </trkpt>
      <trkpt lat="45.6932" lon="4.61008">
        <ele>507</ele>
        <time>2011-11-06T15:17:08Z</time>
      </trkpt>
      <trkpt lat="45.69321" lon="4.6101">
        <ele>508</ele>
        <time>2011-11-06T15:17:09Z</time>
      </trkpt>
      <trkpt lat="45.69322" lon="4.61013">
        <ele>509</ele>
        <time>2011-11-06T15:17:15Z</time>
      </trkpt>
      <trkpt lat="45.69323" lon="4.61016">
        <ele>509</ele>
        <time>2011-11-06T15:17:22Z</time>
      </trkpt>
      <trkpt lat="45.69323" lon="4.6102">
        <ele>509</ele>
        <time>2011-11-06T15:17:31Z</time>
      </trkpt>
      <trkpt lat="45.69323" lon="4.61022">
        <ele>509</ele>
        <time>2011-11-06T15:17:32Z</time>
      </trkpt>
      <trkpt lat="45.69323" lon="4.61024">
        <ele>510</ele>
        <time>2011-11-06T15:17:33Z</time>
      </trkpt>
      <trkpt lat="45.69323" lon="4.61026">
        <ele>509</ele>
        <time>2011-11-06T15:17:34Z</time>
      </trkpt>
      <trkpt lat="45.69324" lon="4.61032">
        <ele>510</ele>
        <time>2011-11-06T15:17:37Z</time>
      </trkpt>
      <trkpt lat="45.69325" lon="4.61045">
        <ele>511</ele>
        <time>2011-11-06T15:17:44Z</time>
      </trkpt>
      <trkpt lat="45.69325" lon="4.6105">
        <ele>512</ele>
        <time>2011-11-06T15:17:47Z</time>
      </trkpt>
      <trkpt lat="45.69324" lon="4.61051">
        <ele>512</ele>
        <time>2011-11-06T15:17:48Z</time>
      </trkpt>
      <trkpt lat="45.69324" lon="4.61053">
        <ele>512</ele>
        <time>2011-11-06T15:17:49Z</time>
      </trkpt>
      <trkpt lat="45.69324" lon="4.61055">
        <ele>512</ele>
        <time>2011-11-06T15:17:50Z</time>
      </trkpt>
      <trkpt lat="45.69325" lon="4.6106">
        <ele>513</ele>
        <time>2011-11-06T15:17:53Z</time>
      </trkpt>
      <trkpt lat="45.69326" lon="4.61067">
        <ele>513</ele>
        <time>2011-11-06T15:17:56Z</time>
      </trkpt>
      <trkpt lat="45.69325" lon="4.61078">
        <ele>514</ele>
        <time>2011-11-06T15:18:03Z</time>
      </trkpt>
      <trkpt lat="45.69328" lon="4.61088">
        <ele>515</ele>
        <time>2011-11-06T15:18:09Z</time>
      </trkpt>
      <trkpt lat="45.6933" lon="4.61097">
        <ele>516</ele>
        <time>2011-11-06T15:18:15Z</time>
      </trkpt>
      <trkpt lat="45.69331" lon="4.611">
        <ele>516</ele>
        <time>2011-11-06T15:18:17Z</time>
      </trkpt>
      <trkpt lat="45.69333" lon="4.61107">
        <ele>517</ele>
        <time>2011-11-06T15:18:21Z</time>
      </trkpt>
      <trkpt lat="45.69336" lon="4.61117">
        <ele>518</ele>
        <time>2011-11-06T15:18:26Z</time>
      </trkpt>
      <trkpt lat="45.69337" lon="4.61119">
        <ele>519</ele>
        <time>2011-11-06T15:18:27Z</time>
      </trkpt>
      <trkpt lat="45.69337" lon="4.6112">
        <ele>519</ele>
        <time>2011-11-06T15:18:28Z</time>
      </trkpt>
      <trkpt lat="45.69338" lon="4.61122">
        <ele>519</ele>
        <time>2011-11-06T15:18:29Z</time>
      </trkpt>
      <trkpt lat="45.69339" lon="4.61124">
        <ele>519</ele>
        <time>2011-11-06T15:18:30Z</time>
      </trkpt>
      <trkpt lat="45.69344" lon="4.61139">
        <ele>520</ele>
        <time>2011-11-06T15:18:38Z</time>
      </trkpt>
      <trkpt lat="45.69346" lon="4.61147">
        <ele>522</ele>
        <time>2011-11-06T15:18:43Z</time>
      </trkpt>
      <trkpt lat="45.69347" lon="4.61149">
        <ele>522</ele>
        <time>2011-11-06T15:18:44Z</time>
      </trkpt>
      <trkpt lat="45.69351" lon="4.61164">
        <ele>523</ele>
        <time>2011-11-06T15:18:52Z</time>
      </trkpt>
      <trkpt lat="45.69352" lon="4.61166">
        <ele>524</ele>
        <time>2011-11-06T15:18:53Z</time>
      </trkpt>
      <trkpt lat="45.69353" lon="4.61168">
        <ele>523</ele>
        <time>2011-11-06T15:18:54Z</time>
      </trkpt>
      <trkpt lat="45.69354" lon="4.6117">
        <ele>524</ele>
        <time>2011-11-06T15:18:55Z</time>
      </trkpt>
      <trkpt lat="45.69355" lon="4.61172">
        <ele>524</ele>
        <time>2011-11-06T15:18:56Z</time>
      </trkpt>
      <trkpt lat="45.69355" lon="4.61174">
        <ele>524</ele>
        <time>2011-11-06T15:18:57Z</time>
      </trkpt>
      <trkpt lat="45.69356" lon="4.61175">
        <ele>524</ele>
        <time>2011-11-06T15:18:58Z</time>
      </trkpt>
      <trkpt lat="45.69357" lon="4.61177">
        <ele>524</ele>
        <time>2011-11-06T15:18:59Z</time>
      </trkpt>
      <trkpt lat="45.69357" lon="4.61179">
        <ele>525</ele>
        <time>2011-11-06T15:19:00Z</time>
      </trkpt>
      <trkpt lat="45.69358" lon="4.61181">
        <ele>525</ele>
        <time>2011-11-06T15:19:01Z</time>
      </trkpt>
      <trkpt lat="45.69362" lon="4.61196">
        <ele>526</ele>
        <time>2011-11-06T15:19:09Z</time>
      </trkpt>
      <trkpt lat="45.69367" lon="4.61208">
        <ele>526</ele>
        <time>2011-11-06T15:19:17Z</time>
      </trkpt>
      <trkpt lat="45.69373" lon="4.61223">
        <ele>528</ele>
        <time>2011-11-06T15:19:27Z</time>
      </trkpt>
      <trkpt lat="45.69374" lon="4.61224">
        <ele>528</ele>
        <time>2011-11-06T15:19:28Z</time>
      </trkpt>
      <trkpt lat="45.69379" lon="4.61232">
        <ele>529</ele>
        <time>2011-11-06T15:19:35Z</time>
      </trkpt>
      <trkpt lat="45.69379" lon="4.61236">
        <ele>529</ele>
        <time>2011-11-06T15:19:43Z</time>
      </trkpt>
      <trkpt lat="45.69379" lon="4.61237">
        <ele>529</ele>
        <time>2011-11-06T15:19:52Z</time>
      </trkpt>
      <trkpt lat="45.69379" lon="4.61237">
        <ele>529</ele>
        <time>2011-11-06T15:20:01Z</time>
      </trkpt>
      <trkpt lat="45.69378" lon="4.61238">
        <ele>529</ele>
        <time>2011-11-06T15:20:05Z</time>
      </trkpt>
      <trkpt lat="45.69374" lon="4.61243">
        <ele>526</ele>
        <time>2011-11-06T15:20:09Z</time>
      </trkpt>
      <trkpt lat="45.69375" lon="4.61244">
        <ele>526</ele>
        <time>2011-11-06T15:20:17Z</time>
      </trkpt>
      <trkpt lat="45.69376" lon="4.61247">
        <ele>526</ele>
        <time>2011-11-06T15:20:24Z</time>
      </trkpt>
      <trkpt lat="45.69374" lon="4.61249">
        <ele>525</ele>
        <time>2011-11-06T15:20:33Z</time>
      </trkpt>
      <trkpt lat="45.69369" lon="4.61255">
        <ele>523</ele>
        <time>2011-11-06T15:20:37Z</time>
      </trkpt>
      <trkpt lat="45.69366" lon="4.61258">
        <ele>521</ele>
        <time>2011-11-06T15:20:39Z</time>
      </trkpt>
      <trkpt lat="45.69359" lon="4.61262">
        <ele>518</ele>
        <time>2011-11-06T15:20:42Z</time>
      </trkpt>
      <trkpt lat="45.69352" lon="4.61267">
        <ele>513</ele>
        <time>2011-11-06T15:20:45Z</time>
      </trkpt>
      <trkpt lat="45.69347" lon="4.61273">
        <ele>510</ele>
        <time>2011-11-06T15:20:48Z</time>
      </trkpt>
      <trkpt lat="45.69345" lon="4.6128">
        <ele>509</ele>
        <time>2011-11-06T15:20:50Z</time>
      </trkpt>
      <trkpt lat="45.69344" lon="4.61282">
        <ele>508</ele>
        <time>2011-11-06T15:20:51Z</time>
      </trkpt>
      <trkpt lat="45.69344" lon="4.6129">
        <ele>506</ele>
        <time>2011-11-06T15:20:54Z</time>
      </trkpt>
      <trkpt lat="45.69345" lon="4.61293">
        <ele>505</ele>
        <time>2011-11-06T15:20:59Z</time>
      </trkpt>
      <trkpt lat="45.69345" lon="4.61293">
        <ele>506</ele>
        <time>2011-11-06T15:21:13Z</time>
      </trkpt>
      <trkpt lat="45.69345" lon="4.61293">
        <ele>505</ele>
        <time>2011-11-06T15:21:31Z</time>
      </trkpt>
      <trkpt lat="45.69345" lon="4.61293">
        <ele>506</ele>
        <time>2011-11-06T15:21:49Z</time>
      </trkpt>
      <trkpt lat="45.69345" lon="4.61293">
        <ele>505</ele>
        <time>2011-11-06T15:21:59Z</time>
      </trkpt>
      <trkpt lat="45.69345" lon="4.61293">
        <ele>505</ele>
        <time>2011-11-06T15:22:15Z</time>
      </trkpt>
      <trkpt lat="45.69345" lon="4.61294">
        <ele>505</ele>
        <time>2011-11-06T15:22:31Z</time>
      </trkpt>
      <trkpt lat="45.69345" lon="4.61294">
        <ele>505</ele>
        <time>2011-11-06T15:22:33Z</time>
      </trkpt>
      <trkpt lat="45.69349" lon="4.6132">
        <ele>503</ele>
        <time>2011-11-06T15:22:41Z</time>
      </trkpt>
      <trkpt lat="45.69349" lon="4.61329">
        <ele>503</ele>
        <time>2011-11-06T15:22:43Z</time>
      </trkpt>
      <trkpt lat="45.69347" lon="4.61358">
        <ele>500</ele>
        <time>2011-11-06T15:22:49Z</time>
      </trkpt>
      <trkpt lat="45.69343" lon="4.6136">
        <ele>499</ele>
        <time>2011-11-06T15:22:50Z</time>
      </trkpt>
      <trkpt lat="45.6934" lon="4.6136">
        <ele>499</ele>
        <time>2011-11-06T15:22:51Z</time>
      </trkpt>
      <trkpt lat="45.69338" lon="4.61359">
        <ele>499</ele>
        <time>2011-11-06T15:22:52Z</time>
      </trkpt>
      <trkpt lat="45.69337" lon="4.61357">
        <ele>499</ele>
        <time>2011-11-06T15:22:53Z</time>
      </trkpt>
      <trkpt lat="45.69335" lon="4.61356">
        <ele>499</ele>
        <time>2011-11-06T15:22:54Z</time>
      </trkpt>
      <trkpt lat="45.69334" lon="4.61355">
        <ele>499</ele>
        <time>2011-11-06T15:22:55Z</time>
      </trkpt>
      <trkpt lat="45.69332" lon="4.61354">
        <ele>499</ele>
        <time>2011-11-06T15:22:56Z</time>
      </trkpt>
      <trkpt lat="45.69327" lon="4.61352">
        <ele>500</ele>
        <time>2011-11-06T15:23:00Z</time>
      </trkpt>
      <trkpt lat="45.69325" lon="4.61352">
        <ele>500</ele>
        <time>2011-11-06T15:23:01Z</time>
      </trkpt>
      <trkpt lat="45.69324" lon="4.61351">
        <ele>500</ele>
        <time>2011-11-06T15:23:02Z</time>
      </trkpt>
      <trkpt lat="45.69322" lon="4.6135">
        <ele>500</ele>
        <time>2011-11-06T15:23:03Z</time>
      </trkpt>
      <trkpt lat="45.6932" lon="4.6135">
        <ele>500</ele>
        <time>2011-11-06T15:23:04Z</time>
      </trkpt>
      <trkpt lat="45.69318" lon="4.6135">
        <ele>500</ele>
        <time>2011-11-06T15:23:05Z</time>
      </trkpt>
      <trkpt lat="45.69317" lon="4.61349">
        <ele>500</ele>
        <time>2011-11-06T15:23:06Z</time>
      </trkpt>
      <trkpt lat="45.69315" lon="4.61348">
        <ele>501</ele>
        <time>2011-11-06T15:23:07Z</time>
      </trkpt>
      <trkpt lat="45.693" lon="4.61344">
        <ele>502</ele>
        <time>2011-11-06T15:23:14Z</time>
      </trkpt>
      <trkpt lat="45.69297" lon="4.61344">
        <ele>502</ele>
        <time>2011-11-06T15:23:16Z</time>
      </trkpt>
      <trkpt lat="45.69293" lon="4.61344">
        <ele>503</ele>
        <time>2011-11-06T15:23:18Z</time>
      </trkpt>
      <trkpt lat="45.69292" lon="4.61345">
        <ele>503</ele>
        <time>2011-11-06T15:23:19Z</time>
      </trkpt>
      <trkpt lat="45.69284" lon="4.61343">
        <ele>504</ele>
        <time>2011-11-06T15:23:23Z</time>
      </trkpt>
      <trkpt lat="45.69282" lon="4.61343">
        <ele>505</ele>
        <time>2011-11-06T15:23:24Z</time>
      </trkpt>
      <trkpt lat="45.6928" lon="4.61341">
        <ele>505</ele>
        <time>2011-11-06T15:23:25Z</time>
      </trkpt>
      <trkpt lat="45.69278" lon="4.6134">
        <ele>505</ele>
        <time>2011-11-06T15:23:26Z</time>
      </trkpt>
      <trkpt lat="45.69276" lon="4.61339">
        <ele>505</ele>
        <time>2011-11-06T15:23:27Z</time>
      </trkpt>
      <trkpt lat="45.69274" lon="4.61339">
        <ele>505</ele>
        <time>2011-11-06T15:23:28Z</time>
      </trkpt>
      <trkpt lat="45.69272" lon="4.61338">
        <ele>506</ele>
        <time>2011-11-06T15:23:29Z</time>
      </trkpt>
      <trkpt lat="45.6927" lon="4.61338">
        <ele>506</ele>
        <time>2011-11-06T15:23:30Z</time>
      </trkpt>
      <trkpt lat="45.69268" lon="4.61338">
        <ele>506</ele>
        <time>2011-11-06T15:23:31Z</time>
      </trkpt>
      <trkpt lat="45.69267" lon="4.61338">
        <ele>506</ele>
        <time>2011-11-06T15:23:32Z</time>
      </trkpt>
      <trkpt lat="45.69265" lon="4.61337">
        <ele>506</ele>
        <time>2011-11-06T15:23:33Z</time>
      </trkpt>
      <trkpt lat="45.69261" lon="4.61336">
        <ele>507</ele>
        <time>2011-11-06T15:23:35Z</time>
      </trkpt>
      <trkpt lat="45.6926" lon="4.61337">
        <ele>507</ele>
        <time>2011-11-06T15:23:36Z</time>
      </trkpt>
      <trkpt lat="45.69251" lon="4.61335">
        <ele>508</ele>
        <time>2011-11-06T15:23:42Z</time>
      </trkpt>
      <trkpt lat="45.69243" lon="4.61335">
        <ele>508</ele>
        <time>2011-11-06T15:23:46Z</time>
      </trkpt>
      <trkpt lat="45.69241" lon="4.61335">
        <ele>509</ele>
        <time>2011-11-06T15:23:47Z</time>
      </trkpt>
      <trkpt lat="45.6924" lon="4.61336">
        <ele>508</ele>
        <time>2011-11-06T15:23:48Z</time>
      </trkpt>
      <trkpt lat="45.69238" lon="4.61338">
        <ele>508</ele>
        <time>2011-11-06T15:23:49Z</time>
      </trkpt>
      <trkpt lat="45.69236" lon="4.61338">
        <ele>508</ele>
        <time>2011-11-06T15:23:50Z</time>
      </trkpt>
      <trkpt lat="45.69229" lon="4.61339">
        <ele>509</ele>
        <time>2011-11-06T15:23:55Z</time>
      </trkpt>
      <trkpt lat="45.69224" lon="4.6134">
        <ele>510</ele>
        <time>2011-11-06T15:24:00Z</time>
      </trkpt>
      <trkpt lat="45.69222" lon="4.61339">
        <ele>510</ele>
        <time>2011-11-06T15:24:01Z</time>
      </trkpt>
      <trkpt lat="45.6922" lon="4.61339">
        <ele>510</ele>
        <time>2011-11-06T15:24:02Z</time>
      </trkpt>
      <trkpt lat="45.69208" lon="4.61333">
        <ele>511</ele>
        <time>2011-11-06T15:24:09Z</time>
      </trkpt>
      <trkpt lat="45.69206" lon="4.61333">
        <ele>511</ele>
        <time>2011-11-06T15:24:10Z</time>
      </trkpt>
      <trkpt lat="45.69201" lon="4.61333">
        <ele>512</ele>
        <time>2011-11-06T15:24:13Z</time>
      </trkpt>
      <trkpt lat="45.69199" lon="4.61333">
        <ele>512</ele>
        <time>2011-11-06T15:24:14Z</time>
      </trkpt>
      <trkpt lat="45.69186" lon="4.61335">
        <ele>513</ele>
        <time>2011-11-06T15:24:21Z</time>
      </trkpt>
      <trkpt lat="45.69174" lon="4.61342">
        <ele>514</ele>
        <time>2011-11-06T15:24:28Z</time>
      </trkpt>
      <trkpt lat="45.69173" lon="4.61343">
        <ele>514</ele>
        <time>2011-11-06T15:24:29Z</time>
      </trkpt>
      <trkpt lat="45.69171" lon="4.61344">
        <ele>514</ele>
        <time>2011-11-06T15:24:30Z</time>
      </trkpt>
      <trkpt lat="45.69169" lon="4.61345">
        <ele>514</ele>
        <time>2011-11-06T15:24:31Z</time>
      </trkpt>
      <trkpt lat="45.69168" lon="4.61346">
        <ele>514</ele>
        <time>2011-11-06T15:24:32Z</time>
      </trkpt>
      <trkpt lat="45.69166" lon="4.61347">
        <ele>515</ele>
        <time>2011-11-06T15:24:33Z</time>
      </trkpt>
      <trkpt lat="45.69164" lon="4.61349">
        <ele>515</ele>
        <time>2011-11-06T15:24:34Z</time>
      </trkpt>
      <trkpt lat="45.69162" lon="4.6135">
        <ele>515</ele>
        <time>2011-11-06T15:24:35Z</time>
      </trkpt>
      <trkpt lat="45.69156" lon="4.61366">
        <ele>516</ele>
        <time>2011-11-06T15:24:42Z</time>
      </trkpt>
      <trkpt lat="45.69155" lon="4.61381">
        <ele>516</ele>
        <time>2011-11-06T15:24:48Z</time>
      </trkpt>
      <trkpt lat="45.69155" lon="4.61383">
        <ele>516</ele>
        <time>2011-11-06T15:24:49Z</time>
      </trkpt>
      <trkpt lat="45.69155" lon="4.61385">
        <ele>516</ele>
        <time>2011-11-06T15:24:50Z</time>
      </trkpt>
      <trkpt lat="45.69156" lon="4.61388">
        <ele>516</ele>
        <time>2011-11-06T15:24:51Z</time>
      </trkpt>
      <trkpt lat="45.69157" lon="4.6139">
        <ele>517</ele>
        <time>2011-11-06T15:24:52Z</time>
      </trkpt>
      <trkpt lat="45.69158" lon="4.61392">
        <ele>517</ele>
        <time>2011-11-06T15:24:53Z</time>
      </trkpt>
      <trkpt lat="45.69159" lon="4.61395">
        <ele>517</ele>
        <time>2011-11-06T15:24:54Z</time>
      </trkpt>
      <trkpt lat="45.69159" lon="4.61397">
        <ele>517</ele>
        <time>2011-11-06T15:24:55Z</time>
      </trkpt>
      <trkpt lat="45.6916" lon="4.61399">
        <ele>517</ele>
        <time>2011-11-06T15:24:56Z</time>
      </trkpt>
      <trkpt lat="45.6916" lon="4.61401">
        <ele>517</ele>
        <time>2011-11-06T15:24:57Z</time>
      </trkpt>
      <trkpt lat="45.6916" lon="4.61404">
        <ele>517</ele>
        <time>2011-11-06T15:24:58Z</time>
      </trkpt>
      <trkpt lat="45.69161" lon="4.61406">
        <ele>518</ele>
        <time>2011-11-06T15:24:59Z</time>
      </trkpt>
      <trkpt lat="45.69161" lon="4.61409">
        <ele>517</ele>
        <time>2011-11-06T15:25:00Z</time>
      </trkpt>
      <trkpt lat="45.69165" lon="4.61426">
        <ele>519</ele>
        <time>2011-11-06T15:25:08Z</time>
      </trkpt>
      <trkpt lat="45.6917" lon="4.61441">
        <ele>520</ele>
        <time>2011-11-06T15:25:15Z</time>
      </trkpt>
      <trkpt lat="45.69175" lon="4.61455">
        <ele>521</ele>
        <time>2011-11-06T15:25:22Z</time>
      </trkpt>
      <trkpt lat="45.69181" lon="4.61468">
        <ele>522</ele>
        <time>2011-11-06T15:25:29Z</time>
      </trkpt>
      <trkpt lat="45.69181" lon="4.6147">
        <ele>523</ele>
        <time>2011-11-06T15:25:30Z</time>
      </trkpt>
      <trkpt lat="45.69182" lon="4.61472">
        <ele>523</ele>
        <time>2011-11-06T15:25:31Z</time>
      </trkpt>
      <trkpt lat="45.69183" lon="4.61474">
        <ele>523</ele>
        <time>2011-11-06T15:25:32Z</time>
      </trkpt>
      <trkpt lat="45.69183" lon="4.61475">
        <ele>524</ele>
        <time>2011-11-06T15:25:33Z</time>
      </trkpt>
      <trkpt lat="45.69184" lon="4.61477">
        <ele>523</ele>
        <time>2011-11-06T15:25:34Z</time>
      </trkpt>
      <trkpt lat="45.69185" lon="4.61479">
        <ele>524</ele>
        <time>2011-11-06T15:25:35Z</time>
      </trkpt>
      <trkpt lat="45.69185" lon="4.61481">
        <ele>524</ele>
        <time>2011-11-06T15:25:36Z</time>
      </trkpt>
      <trkpt lat="45.69186" lon="4.61483">
        <ele>524</ele>
        <time>2011-11-06T15:25:37Z</time>
      </trkpt>
      <trkpt lat="45.69187" lon="4.61487">
        <ele>524</ele>
        <time>2011-11-06T15:25:39Z</time>
      </trkpt>
      <trkpt lat="45.69187" lon="4.61489">
        <ele>525</ele>
        <time>2011-11-06T15:25:40Z</time>
      </trkpt>
      <trkpt lat="45.69188" lon="4.61491">
        <ele>525</ele>
        <time>2011-11-06T15:25:41Z</time>
      </trkpt>
      <trkpt lat="45.69196" lon="4.61507">
        <ele>526</ele>
        <time>2011-11-06T15:25:50Z</time>
      </trkpt>
      <trkpt lat="45.69197" lon="4.61508">
        <ele>526</ele>
        <time>2011-11-06T15:25:51Z</time>
      </trkpt>
      <trkpt lat="45.692" lon="4.61516">
        <ele>527</ele>
        <time>2011-11-06T15:25:55Z</time>
      </trkpt>
      <trkpt lat="45.692" lon="4.61518">
        <ele>528</ele>
        <time>2011-11-06T15:25:56Z</time>
      </trkpt>
      <trkpt lat="45.69201" lon="4.6152">
        <ele>528</ele>
        <time>2011-11-06T15:25:57Z</time>
      </trkpt>
      <trkpt lat="45.69202" lon="4.61521">
        <ele>528</ele>
        <time>2011-11-06T15:25:58Z</time>
      </trkpt>
      <trkpt lat="45.69202" lon="4.61523">
        <ele>528</ele>
        <time>2011-11-06T15:25:59Z</time>
      </trkpt>
      <trkpt lat="45.69203" lon="4.61525">
        <ele>529</ele>
        <time>2011-11-06T15:26:00Z</time>
      </trkpt>
      <trkpt lat="45.6921" lon="4.61541">
        <ele>530</ele>
        <time>2011-11-06T15:26:10Z</time>
      </trkpt>
      <trkpt lat="45.69215" lon="4.61554">
        <ele>532</ele>
        <time>2011-11-06T15:26:18Z</time>
      </trkpt>
      <trkpt lat="45.69221" lon="4.61566">
        <ele>534</ele>
        <time>2011-11-06T15:26:25Z</time>
      </trkpt>
      <trkpt lat="45.69229" lon="4.61582">
        <ele>535</ele>
        <time>2011-11-06T15:26:34Z</time>
      </trkpt>
      <trkpt lat="45.69236" lon="4.61598">
        <ele>537</ele>
        <time>2011-11-06T15:26:43Z</time>
      </trkpt>
      <trkpt lat="45.69241" lon="4.61606">
        <ele>537</ele>
        <time>2011-11-06T15:26:49Z</time>
      </trkpt>
      <trkpt lat="45.69242" lon="4.61608">
        <ele>537</ele>
        <time>2011-11-06T15:26:50Z</time>
      </trkpt>
      <trkpt lat="45.69243" lon="4.61612">
        <ele>537</ele>
        <time>2011-11-06T15:26:52Z</time>
      </trkpt>
      <trkpt lat="45.69244" lon="4.61614">
        <ele>538</ele>
        <time>2011-11-06T15:26:53Z</time>
      </trkpt>
      <trkpt lat="45.69245" lon="4.61616">
        <ele>538</ele>
        <time>2011-11-06T15:26:54Z</time>
      </trkpt>
      <trkpt lat="45.69246" lon="4.61618">
        <ele>538</ele>
        <time>2011-11-06T15:26:55Z</time>
      </trkpt>
      <trkpt lat="45.69247" lon="4.61619">
        <ele>538</ele>
        <time>2011-11-06T15:26:56Z</time>
      </trkpt>
      <trkpt lat="45.69248" lon="4.61621">
        <ele>538</ele>
        <time>2011-11-06T15:26:57Z</time>
      </trkpt>
      <trkpt lat="45.69249" lon="4.61622">
        <ele>539</ele>
        <time>2011-11-06T15:26:58Z</time>
      </trkpt>
      <trkpt lat="45.69255" lon="4.61635">
        <ele>540</ele>
        <time>2011-11-06T15:27:05Z</time>
      </trkpt>
      <trkpt lat="45.69263" lon="4.6165">
        <ele>541</ele>
        <time>2011-11-06T15:27:14Z</time>
      </trkpt>
      <trkpt lat="45.6927" lon="4.61662">
        <ele>542</ele>
        <time>2011-11-06T15:27:22Z</time>
      </trkpt>
      <trkpt lat="45.69273" lon="4.61668">
        <ele>542</ele>
        <time>2011-11-06T15:27:25Z</time>
      </trkpt>
      <trkpt lat="45.69274" lon="4.6167">
        <ele>543</ele>
        <time>2011-11-06T15:27:26Z</time>
      </trkpt>
      <trkpt lat="45.69275" lon="4.61672">
        <ele>543</ele>
        <time>2011-11-06T15:27:27Z</time>
      </trkpt>
      <trkpt lat="45.69276" lon="4.61674">
        <ele>543</ele>
        <time>2011-11-06T15:27:28Z</time>
      </trkpt>
      <trkpt lat="45.69277" lon="4.61675">
        <ele>543</ele>
        <time>2011-11-06T15:27:29Z</time>
      </trkpt>
      <trkpt lat="45.69278" lon="4.61677">
        <ele>543</ele>
        <time>2011-11-06T15:27:30Z</time>
      </trkpt>
      <trkpt lat="45.69278" lon="4.61679">
        <ele>543</ele>
        <time>2011-11-06T15:27:31Z</time>
      </trkpt>
      <trkpt lat="45.69279" lon="4.61681">
        <ele>543</ele>
        <time>2011-11-06T15:27:32Z</time>
      </trkpt>
      <trkpt lat="45.69288" lon="4.61696">
        <ele>545</ele>
        <time>2011-11-06T15:27:40Z</time>
      </trkpt>
      <trkpt lat="45.69296" lon="4.61712">
        <ele>546</ele>
        <time>2011-11-06T15:27:49Z</time>
      </trkpt>
      <trkpt lat="45.69308" lon="4.61731">
        <ele>548</ele>
        <time>2011-11-06T15:28:01Z</time>
      </trkpt>
      <trkpt lat="45.6932" lon="4.6174">
        <ele>549</ele>
        <time>2011-11-06T15:28:10Z</time>
      </trkpt>
      <trkpt lat="45.69327" lon="4.61748">
        <ele>550</ele>
        <time>2011-11-06T15:28:17Z</time>
      </trkpt>
      <trkpt lat="45.69336" lon="4.61761">
        <ele>551</ele>
        <time>2011-11-06T15:28:25Z</time>
      </trkpt>
      <trkpt lat="45.69339" lon="4.61764">
        <ele>552</ele>
        <time>2011-11-06T15:28:28Z</time>
      </trkpt>
      <trkpt lat="45.69342" lon="4.61757">
        <ele>552</ele>
        <time>2011-11-06T15:28:33Z</time>
      </trkpt>
      <trkpt lat="45.69346" lon="4.61735">
        <ele>553</ele>
        <time>2011-11-06T15:28:44Z</time>
      </trkpt>
      <trkpt lat="45.69356" lon="4.6172">
        <ele>555</ele>
        <time>2011-11-06T15:28:53Z</time>
      </trkpt>
      <trkpt lat="45.69372" lon="4.61712">
        <ele>556</ele>
        <time>2011-11-06T15:29:04Z</time>
      </trkpt>
      <trkpt lat="45.69376" lon="4.6171">
        <ele>557</ele>
        <time>2011-11-06T15:29:07Z</time>
      </trkpt>
      <trkpt lat="45.69388" lon="4.61706">
        <ele>558</ele>
        <time>2011-11-06T15:29:15Z</time>
      </trkpt>
      <trkpt lat="45.69401" lon="4.61701">
        <ele>559</ele>
        <time>2011-11-06T15:29:24Z</time>
      </trkpt>
      <trkpt lat="45.69413" lon="4.61694">
        <ele>561</ele>
        <time>2011-11-06T15:29:32Z</time>
      </trkpt>
      <trkpt lat="45.69418" lon="4.61703">
        <ele>561</ele>
        <time>2011-11-06T15:29:38Z</time>
      </trkpt>
      <trkpt lat="45.69417" lon="4.6171">
        <ele>562</ele>
        <time>2011-11-06T15:29:41Z</time>
      </trkpt>
      <trkpt lat="45.69412" lon="4.61732">
        <ele>563</ele>
        <time>2011-11-06T15:29:50Z</time>
      </trkpt>
      <trkpt lat="45.69411" lon="4.61737">
        <ele>563</ele>
        <time>2011-11-06T15:29:52Z</time>
      </trkpt>
      <trkpt lat="45.6941" lon="4.6176">
        <ele>563</ele>
        <time>2011-11-06T15:30:00Z</time>
      </trkpt>
      <trkpt lat="45.69413" lon="4.61791">
        <ele>563</ele>
        <time>2011-11-06T15:30:08Z</time>
      </trkpt>
      <trkpt lat="45.69434" lon="4.61812">
        <ele>563</ele>
        <time>2011-11-06T15:30:17Z</time>
      </trkpt>
      <trkpt lat="45.69454" lon="4.61832">
        <ele>565</ele>
        <time>2011-11-06T15:30:26Z</time>
      </trkpt>
      <trkpt lat="45.69467" lon="4.61847">
        <ele>566</ele>
        <time>2011-11-06T15:30:33Z</time>
      </trkpt>
      <trkpt lat="45.69466" lon="4.61876">
        <ele>564</ele>
        <time>2011-11-06T15:30:39Z</time>
      </trkpt>
      <trkpt lat="45.69467" lon="4.61885">
        <ele>563</ele>
        <time>2011-11-06T15:30:40Z</time>
      </trkpt>
      <trkpt lat="45.69469" lon="4.61896">
        <ele>562</ele>
        <time>2011-11-06T15:30:41Z</time>
      </trkpt>
      <trkpt lat="45.69473" lon="4.61905">
        <ele>561</ele>
        <time>2011-11-06T15:30:42Z</time>
      </trkpt>
      <trkpt lat="45.69477" lon="4.61914">
        <ele>560</ele>
        <time>2011-11-06T15:30:43Z</time>
      </trkpt>
      <trkpt lat="45.69483" lon="4.61923">
        <ele>559</ele>
        <time>2011-11-06T15:30:44Z</time>
      </trkpt>
      <trkpt lat="45.69489" lon="4.61931">
        <ele>558</ele>
        <time>2011-11-06T15:30:45Z</time>
      </trkpt>
      <trkpt lat="45.69496" lon="4.61939">
        <ele>558</ele>
        <time>2011-11-06T15:30:46Z</time>
      </trkpt>
      <trkpt lat="45.69503" lon="4.61947">
        <ele>556</ele>
        <time>2011-11-06T15:30:47Z</time>
      </trkpt>
      <trkpt lat="45.69509" lon="4.61955">
        <ele>554</ele>
        <time>2011-11-06T15:30:48Z</time>
      </trkpt>
      <trkpt lat="45.69521" lon="4.61968">
        <ele>553</ele>
        <time>2011-11-06T15:30:50Z</time>
      </trkpt>
      <trkpt lat="45.69527" lon="4.61974">
        <ele>551</ele>
        <time>2011-11-06T15:30:51Z</time>
      </trkpt>
      <trkpt lat="45.69532" lon="4.61977">
        <ele>550</ele>
        <time>2011-11-06T15:30:52Z</time>
      </trkpt>
      <trkpt lat="45.69539" lon="4.61979">
        <ele>550</ele>
        <time>2011-11-06T15:30:53Z</time>
      </trkpt>
      <trkpt lat="45.69545" lon="4.6198">
        <ele>550</ele>
        <time>2011-11-06T15:30:54Z</time>
      </trkpt>
      <trkpt lat="45.69559" lon="4.61982">
        <ele>549</ele>
        <time>2011-11-06T15:30:56Z</time>
      </trkpt>
      <trkpt lat="45.69566" lon="4.61983">
        <ele>548</ele>
        <time>2011-11-06T15:30:57Z</time>
      </trkpt>
      <trkpt lat="45.69572" lon="4.61985">
        <ele>548</ele>
        <time>2011-11-06T15:30:58Z</time>
      </trkpt>
      <trkpt lat="45.69577" lon="4.61987">
        <ele>548</ele>
        <time>2011-11-06T15:30:59Z</time>
      </trkpt>
      <trkpt lat="45.69581" lon="4.6199">
        <ele>548</ele>
        <time>2011-11-06T15:31:00Z</time>
      </trkpt>
      <trkpt lat="45.69585" lon="4.61994">
        <ele>549</ele>
        <time>2011-11-06T15:31:01Z</time>
      </trkpt>
      <trkpt lat="45.69587" lon="4.61998">
        <ele>548</ele>
        <time>2011-11-06T15:31:02Z</time>
      </trkpt>
      <trkpt lat="45.69588" lon="4.62002">
        <ele>548</ele>
        <time>2011-11-06T15:31:03Z</time>
      </trkpt>
      <trkpt lat="45.69587" lon="4.62004">
        <ele>548</ele>
        <time>2011-11-06T15:31:04Z</time>
      </trkpt>
      <trkpt lat="45.69586" lon="4.62006">
        <ele>547</ele>
        <time>2011-11-06T15:31:05Z</time>
      </trkpt>
      <trkpt lat="45.69585" lon="4.6201">
        <ele>547</ele>
        <time>2011-11-06T15:31:06Z</time>
      </trkpt>
      <trkpt lat="45.69584" lon="4.62015">
        <ele>547</ele>
        <time>2011-11-06T15:31:07Z</time>
      </trkpt>
      <trkpt lat="45.69583" lon="4.62028">
        <ele>546</ele>
        <time>2011-11-06T15:31:09Z</time>
      </trkpt>
      <trkpt lat="45.69583" lon="4.62036">
        <ele>546</ele>
        <time>2011-11-06T15:31:10Z</time>
      </trkpt>
      <trkpt lat="45.69584" lon="4.62053">
        <ele>545</ele>
        <time>2011-11-06T15:31:13Z</time>
      </trkpt>
      <trkpt lat="45.69583" lon="4.6206">
        <ele>545</ele>
        <time>2011-11-06T15:31:14Z</time>
      </trkpt>
      <trkpt lat="45.69583" lon="4.62067">
        <ele>544</ele>
        <time>2011-11-06T15:31:15Z</time>
      </trkpt>
      <trkpt lat="45.69585" lon="4.62085">
        <ele>543</ele>
        <time>2011-11-06T15:31:17Z</time>
      </trkpt>
      <trkpt lat="45.69587" lon="4.62092">
        <ele>544</ele>
        <time>2011-11-06T15:31:18Z</time>
      </trkpt>
      <trkpt lat="45.69598" lon="4.62115">
        <ele>541</ele>
        <time>2011-11-06T15:31:21Z</time>
      </trkpt>
      <trkpt lat="45.696" lon="4.62124">
        <ele>541</ele>
        <time>2011-11-06T15:31:22Z</time>
      </trkpt>
      <trkpt lat="45.69601" lon="4.62134">
        <ele>540</ele>
        <time>2011-11-06T15:31:23Z</time>
      </trkpt>
      <trkpt lat="45.69598" lon="4.62143">
        <ele>539</ele>
        <time>2011-11-06T15:31:24Z</time>
      </trkpt>
      <trkpt lat="45.69593" lon="4.62152">
        <ele>538</ele>
        <time>2011-11-06T15:31:25Z</time>
      </trkpt>
      <trkpt lat="45.69588" lon="4.62162">
        <ele>538</ele>
        <time>2011-11-06T15:31:26Z</time>
      </trkpt>
      <trkpt lat="45.69585" lon="4.62172">
        <ele>537</ele>
        <time>2011-11-06T15:31:27Z</time>
      </trkpt>
      <trkpt lat="45.69583" lon="4.62183">
        <ele>536</ele>
        <time>2011-11-06T15:31:28Z</time>
      </trkpt>
      <trkpt lat="45.69582" lon="4.62193">
        <ele>536</ele>
        <time>2011-11-06T15:31:29Z</time>
      </trkpt>
      <trkpt lat="45.69582" lon="4.62203">
        <ele>535</ele>
        <time>2011-11-06T15:31:30Z</time>
      </trkpt>
      <trkpt lat="45.69582" lon="4.62214">
        <ele>535</ele>
        <time>2011-11-06T15:31:31Z</time>
      </trkpt>
      <trkpt lat="45.69583" lon="4.62224">
        <ele>534</ele>
        <time>2011-11-06T15:31:32Z</time>
      </trkpt>
      <trkpt lat="45.69584" lon="4.62233">
        <ele>534</ele>
        <time>2011-11-06T15:31:33Z</time>
      </trkpt>
      <trkpt lat="45.69586" lon="4.62241">
        <ele>534</ele>
        <time>2011-11-06T15:31:34Z</time>
      </trkpt>
      <trkpt lat="45.69589" lon="4.62249">
        <ele>534</ele>
        <time>2011-11-06T15:31:35Z</time>
      </trkpt>
      <trkpt lat="45.69598" lon="4.62279">
        <ele>533</ele>
        <time>2011-11-06T15:31:39Z</time>
      </trkpt>
      <trkpt lat="45.69601" lon="4.62298">
        <ele>533</ele>
        <time>2011-11-06T15:31:43Z</time>
      </trkpt>
      <trkpt lat="45.696" lon="4.62301">
        <ele>532</ele>
        <time>2011-11-06T15:31:44Z</time>
      </trkpt>
      <trkpt lat="45.69599" lon="4.62304">
        <ele>533</ele>
        <time>2011-11-06T15:31:45Z</time>
      </trkpt>
      <trkpt lat="45.69599" lon="4.62308">
        <ele>533</ele>
        <time>2011-11-06T15:31:46Z</time>
      </trkpt>
      <trkpt lat="45.69599" lon="4.62311">
        <ele>533</ele>
        <time>2011-11-06T15:31:47Z</time>
      </trkpt>
      <trkpt lat="45.69599" lon="4.62315">
        <ele>532</ele>
        <time>2011-11-06T15:31:48Z</time>
      </trkpt>
      <trkpt lat="45.69598" lon="4.62318">
        <ele>532</ele>
        <time>2011-11-06T15:31:49Z</time>
      </trkpt>
      <trkpt lat="45.69598" lon="4.62322">
        <ele>532</ele>
        <time>2011-11-06T15:31:50Z</time>
      </trkpt>
      <trkpt lat="45.69597" lon="4.62326">
        <ele>532</ele>
        <time>2011-11-06T15:31:51Z</time>
      </trkpt>
      <trkpt lat="45.69595" lon="4.62329">
        <ele>531</ele>
        <time>2011-11-06T15:31:52Z</time>
      </trkpt>
      <trkpt lat="45.69594" lon="4.62334">
        <ele>531</ele>
        <time>2011-11-06T15:31:53Z</time>
      </trkpt>
      <trkpt lat="45.69593" lon="4.62339">
        <ele>531</ele>
        <time>2011-11-06T15:31:54Z</time>
      </trkpt>
      <trkpt lat="45.69593" lon="4.62343">
        <ele>531</ele>
        <time>2011-11-06T15:31:55Z</time>
      </trkpt>
      <trkpt lat="45.69592" lon="4.62348">
        <ele>531</ele>
        <time>2011-11-06T15:31:56Z</time>
      </trkpt>
      <trkpt lat="45.69591" lon="4.62351">
        <ele>531</ele>
        <time>2011-11-06T15:31:57Z</time>
      </trkpt>
      <trkpt lat="45.6959" lon="4.62356">
        <ele>531</ele>
        <time>2011-11-06T15:31:58Z</time>
      </trkpt>
      <trkpt lat="45.69588" lon="4.62388">
        <ele>531</ele>
        <time>2011-11-06T15:32:04Z</time>
      </trkpt>
      <trkpt lat="45.69583" lon="4.6242">
        <ele>530</ele>
        <time>2011-11-06T15:32:10Z</time>
      </trkpt>
      <trkpt lat="45.69581" lon="4.62443">
        <ele>530</ele>
        <time>2011-11-06T15:32:14Z</time>
      </trkpt>
      <trkpt lat="45.69584" lon="4.62484">
        <ele>530</ele>
        <time>2011-11-06T15:32:20Z</time>
      </trkpt>
      <trkpt lat="45.69595" lon="4.62517">
        <ele>530</ele>
        <time>2011-11-06T15:32:26Z</time>
      </trkpt>
      <trkpt lat="45.69597" lon="4.62524">
        <ele>529</ele>
        <time>2011-11-06T15:32:27Z</time>
      </trkpt>
      <trkpt lat="45.69598" lon="4.62531">
        <ele>529</ele>
        <time>2011-11-06T15:32:28Z</time>
      </trkpt>
      <trkpt lat="45.69597" lon="4.62538">
        <ele>529</ele>
        <time>2011-11-06T15:32:29Z</time>
      </trkpt>
      <trkpt lat="45.69596" lon="4.62555">
        <ele>528</ele>
        <time>2011-11-06T15:32:31Z</time>
      </trkpt>
      <trkpt lat="45.69597" lon="4.62564">
        <ele>527</ele>
        <time>2011-11-06T15:32:32Z</time>
      </trkpt>
      <trkpt lat="45.69598" lon="4.62575">
        <ele>526</ele>
        <time>2011-11-06T15:32:33Z</time>
      </trkpt>
      <trkpt lat="45.69603" lon="4.62608">
        <ele>523</ele>
        <time>2011-11-06T15:32:36Z</time>
      </trkpt>
      <trkpt lat="45.69609" lon="4.62635">
        <ele>519</ele>
        <time>2011-11-06T15:32:39Z</time>
      </trkpt>
      <trkpt lat="45.69609" lon="4.62642">
        <ele>517</ele>
        <time>2011-11-06T15:32:41Z</time>
      </trkpt>
      <trkpt lat="45.69608" lon="4.62644">
        <ele>517</ele>
        <time>2011-11-06T15:32:42Z</time>
      </trkpt>
      <trkpt lat="45.69605" lon="4.62645">
        <ele>517</ele>
        <time>2011-11-06T15:32:43Z</time>
      </trkpt>
      <trkpt lat="45.69602" lon="4.62647">
        <ele>516</ele>
        <time>2011-11-06T15:32:44Z</time>
      </trkpt>
      <trkpt lat="45.69598" lon="4.62649">
        <ele>516</ele>
        <time>2011-11-06T15:32:45Z</time>
      </trkpt>
      <trkpt lat="45.69594" lon="4.62651">
        <ele>515</ele>
        <time>2011-11-06T15:32:46Z</time>
      </trkpt>
      <trkpt lat="45.6959" lon="4.62653">
        <ele>514</ele>
        <time>2011-11-06T15:32:47Z</time>
      </trkpt>
      <trkpt lat="45.69585" lon="4.62656">
        <ele>514</ele>
        <time>2011-11-06T15:32:48Z</time>
      </trkpt>
      <trkpt lat="45.69563" lon="4.62668">
        <ele>511</ele>
        <time>2011-11-06T15:32:52Z</time>
      </trkpt>
      <trkpt lat="45.69558" lon="4.62673">
        <ele>509</ele>
        <time>2011-11-06T15:32:54Z</time>
      </trkpt>
      <trkpt lat="45.69556" lon="4.62677">
        <ele>509</ele>
        <time>2011-11-06T15:32:55Z</time>
      </trkpt>
      <trkpt lat="45.69558" lon="4.62681">
        <ele>509</ele>
        <time>2011-11-06T15:32:56Z</time>
      </trkpt>
      <trkpt lat="45.69561" lon="4.62682">
        <ele>509</ele>
        <time>2011-11-06T15:32:57Z</time>
      </trkpt>
      <trkpt lat="45.69563" lon="4.62683">
        <ele>509</ele>
        <time>2011-11-06T15:32:58Z</time>
      </trkpt>
      <trkpt lat="45.69566" lon="4.62685">
        <ele>509</ele>
        <time>2011-11-06T15:32:59Z</time>
      </trkpt>
      <trkpt lat="45.69569" lon="4.62687">
        <ele>509</ele>
        <time>2011-11-06T15:33:00Z</time>
      </trkpt>
      <trkpt lat="45.69572" lon="4.62688">
        <ele>509</ele>
        <time>2011-11-06T15:33:01Z</time>
      </trkpt>
      <trkpt lat="45.69575" lon="4.62689">
        <ele>510</ele>
        <time>2011-11-06T15:33:02Z</time>
      </trkpt>
      <trkpt lat="45.696" lon="4.62688">
        <ele>510</ele>
        <time>2011-11-06T15:33:10Z</time>
      </trkpt>
      <trkpt lat="45.69625" lon="4.6268">
        <ele>510</ele>
        <time>2011-11-06T15:33:17Z</time>
      </trkpt>
      <trkpt lat="45.69629" lon="4.62678">
        <ele>510</ele>
        <time>2011-11-06T15:33:18Z</time>
      </trkpt>
      <trkpt lat="45.69633" lon="4.62676">
        <ele>510</ele>
        <time>2011-11-06T15:33:19Z</time>
      </trkpt>
      <trkpt lat="45.69662" lon="4.62662">
        <ele>510</ele>
        <time>2011-11-06T15:33:27Z</time>
      </trkpt>
      <trkpt lat="45.6967" lon="4.62658">
        <ele>510</ele>
        <time>2011-11-06T15:33:29Z</time>
      </trkpt>
      <trkpt lat="45.6969" lon="4.62647">
        <ele>509</ele>
        <time>2011-11-06T15:33:34Z</time>
      </trkpt>
      <trkpt lat="45.69718" lon="4.6264">
        <ele>511</ele>
        <time>2011-11-06T15:33:42Z</time>
      </trkpt>
      <trkpt lat="45.69747" lon="4.62648">
        <ele>513</ele>
        <time>2011-11-06T15:33:52Z</time>
      </trkpt>
      <trkpt lat="45.69771" lon="4.62652">
        <ele>516</ele>
        <time>2011-11-06T15:34:01Z</time>
      </trkpt>
      <trkpt lat="45.6979" lon="4.62648">
        <ele>518</ele>
        <time>2011-11-06T15:34:08Z</time>
      </trkpt>
      <trkpt lat="45.69816" lon="4.6265">
        <ele>519</ele>
        <time>2011-11-06T15:34:18Z</time>
      </trkpt>
      <trkpt lat="45.69845" lon="4.6266">
        <ele>520</ele>
        <time>2011-11-06T15:34:29Z</time>
      </trkpt>
      <trkpt lat="45.69867" lon="4.62669">
        <ele>520</ele>
        <time>2011-11-06T15:34:37Z</time>
      </trkpt>
      <trkpt lat="45.69887" lon="4.6268">
        <ele>521</ele>
        <time>2011-11-06T15:34:45Z</time>
      </trkpt>
      <trkpt lat="45.69891" lon="4.62689">
        <ele>521</ele>
        <time>2011-11-06T15:34:49Z</time>
      </trkpt>
      <trkpt lat="45.69892" lon="4.62691">
        <ele>521</ele>
        <time>2011-11-06T15:34:50Z</time>
      </trkpt>
      <trkpt lat="45.69892" lon="4.62693">
        <ele>522</ele>
        <time>2011-11-06T15:34:51Z</time>
      </trkpt>
      <trkpt lat="45.69895" lon="4.62705">
        <ele>523</ele>
        <time>2011-11-06T15:34:58Z</time>
      </trkpt>
      <trkpt lat="45.69896" lon="4.62709">
        <ele>524</ele>
        <time>2011-11-06T15:35:00Z</time>
      </trkpt>
      <trkpt lat="45.69899" lon="4.62716">
        <ele>525</ele>
        <time>2011-11-06T15:35:04Z</time>
      </trkpt>
      <trkpt lat="45.699" lon="4.62716">
        <ele>525</ele>
        <time>2011-11-06T15:35:05Z</time>
      </trkpt>
      <trkpt lat="45.69901" lon="4.62718">
        <ele>525</ele>
        <time>2011-11-06T15:35:06Z</time>
      </trkpt>
      <trkpt lat="45.69902" lon="4.62719">
        <ele>525</ele>
        <time>2011-11-06T15:35:07Z</time>
      </trkpt>
      <trkpt lat="45.69903" lon="4.6272">
        <ele>526</ele>
        <time>2011-11-06T15:35:08Z</time>
      </trkpt>
      <trkpt lat="45.69905" lon="4.62721">
        <ele>527</ele>
        <time>2011-11-06T15:35:09Z</time>
      </trkpt>
      <trkpt lat="45.69908" lon="4.62725">
        <ele>527</ele>
        <time>2011-11-06T15:35:12Z</time>
      </trkpt>
      <trkpt lat="45.69909" lon="4.62727">
        <ele>528</ele>
        <time>2011-11-06T15:35:13Z</time>
      </trkpt>
      <trkpt lat="45.6991" lon="4.62731">
        <ele>528</ele>
        <time>2011-11-06T15:35:15Z</time>
      </trkpt>
      <trkpt lat="45.69911" lon="4.62733">
        <ele>528</ele>
        <time>2011-11-06T15:35:16Z</time>
      </trkpt>
      <trkpt lat="45.6991" lon="4.62734">
        <ele>528</ele>
        <time>2011-11-06T15:35:17Z</time>
      </trkpt>
      <trkpt lat="45.69909" lon="4.62736">
        <ele>529</ele>
        <time>2011-11-06T15:35:18Z</time>
      </trkpt>
      <trkpt lat="45.69908" lon="4.62737">
        <ele>529</ele>
        <time>2011-11-06T15:35:19Z</time>
      </trkpt>
      <trkpt lat="45.69906" lon="4.62741">
        <ele>529</ele>
        <time>2011-11-06T15:35:21Z</time>
      </trkpt>
      <trkpt lat="45.69904" lon="4.62742">
        <ele>529</ele>
        <time>2011-11-06T15:35:22Z</time>
      </trkpt>
      <trkpt lat="45.69903" lon="4.62743">
        <ele>529</ele>
        <time>2011-11-06T15:35:23Z</time>
      </trkpt>
      <trkpt lat="45.69902" lon="4.62745">
        <ele>529</ele>
        <time>2011-11-06T15:35:24Z</time>
      </trkpt>
      <trkpt lat="45.699" lon="4.62746">
        <ele>529</ele>
        <time>2011-11-06T15:35:25Z</time>
      </trkpt>
      <trkpt lat="45.69895" lon="4.62749">
        <ele>530</ele>
        <time>2011-11-06T15:35:28Z</time>
      </trkpt>
      <trkpt lat="45.69893" lon="4.62751">
        <ele>529</ele>
        <time>2011-11-06T15:35:29Z</time>
      </trkpt>
      <trkpt lat="45.69876" lon="4.62768">
        <ele>530</ele>
        <time>2011-11-06T15:35:38Z</time>
      </trkpt>
      <trkpt lat="45.69866" lon="4.62787">
        <ele>531</ele>
        <time>2011-11-06T15:35:46Z</time>
      </trkpt>
      <trkpt lat="45.69857" lon="4.62809">
        <ele>532</ele>
        <time>2011-11-06T15:35:55Z</time>
      </trkpt>
      <trkpt lat="45.69854" lon="4.62815">
        <ele>533</ele>
        <time>2011-11-06T15:35:58Z</time>
      </trkpt>
      <trkpt lat="45.69853" lon="4.62818">
        <ele>533</ele>
        <time>2011-11-06T15:35:59Z</time>
      </trkpt>
      <trkpt lat="45.69853" lon="4.6282">
        <ele>533</ele>
        <time>2011-11-06T15:36:00Z</time>
      </trkpt>
      <trkpt lat="45.69851" lon="4.62824">
        <ele>535</ele>
        <time>2011-11-06T15:36:02Z</time>
      </trkpt>
      <trkpt lat="45.69846" lon="4.6283">
        <ele>535</ele>
        <time>2011-11-06T15:36:05Z</time>
      </trkpt>
      <trkpt lat="45.69844" lon="4.62831">
        <ele>535</ele>
        <time>2011-11-06T15:36:06Z</time>
      </trkpt>
      <trkpt lat="45.69843" lon="4.62834">
        <ele>535</ele>
        <time>2011-11-06T15:36:07Z</time>
      </trkpt>
      <trkpt lat="45.69842" lon="4.62836">
        <ele>535</ele>
        <time>2011-11-06T15:36:08Z</time>
      </trkpt>
      <trkpt lat="45.6984" lon="4.62837">
        <ele>536</ele>
        <time>2011-11-06T15:36:09Z</time>
      </trkpt>
      <trkpt lat="45.69838" lon="4.62838">
        <ele>536</ele>
        <time>2011-11-06T15:36:10Z</time>
      </trkpt>
      <trkpt lat="45.69837" lon="4.62839">
        <ele>536</ele>
        <time>2011-11-06T15:36:11Z</time>
      </trkpt>
      <trkpt lat="45.69835" lon="4.62841">
        <ele>536</ele>
        <time>2011-11-06T15:36:12Z</time>
      </trkpt>
      <trkpt lat="45.69834" lon="4.62842">
        <ele>536</ele>
        <time>2011-11-06T15:36:13Z</time>
      </trkpt>
      <trkpt lat="45.69832" lon="4.62843">
        <ele>536</ele>
        <time>2011-11-06T15:36:14Z</time>
      </trkpt>
      <trkpt lat="45.6983" lon="4.62845">
        <ele>537</ele>
        <time>2011-11-06T15:36:15Z</time>
      </trkpt>
      <trkpt lat="45.69829" lon="4.62847">
        <ele>537</ele>
        <time>2011-11-06T15:36:16Z</time>
      </trkpt>
      <trkpt lat="45.69828" lon="4.62848">
        <ele>537</ele>
        <time>2011-11-06T15:36:17Z</time>
      </trkpt>
      <trkpt lat="45.69827" lon="4.62849">
        <ele>537</ele>
        <time>2011-11-06T15:36:18Z</time>
      </trkpt>
      <trkpt lat="45.69825" lon="4.62851">
        <ele>537</ele>
        <time>2011-11-06T15:36:19Z</time>
      </trkpt>
      <trkpt lat="45.69822" lon="4.62861">
        <ele>537</ele>
        <time>2011-11-06T15:36:24Z</time>
      </trkpt>
      <trkpt lat="45.69821" lon="4.62864">
        <ele>538</ele>
        <time>2011-11-06T15:36:25Z</time>
      </trkpt>
      <trkpt lat="45.69821" lon="4.62866">
        <ele>538</ele>
        <time>2011-11-06T15:36:26Z</time>
      </trkpt>
      <trkpt lat="45.6982" lon="4.6287">
        <ele>539</ele>
        <time>2011-11-06T15:36:29Z</time>
      </trkpt>
      <trkpt lat="45.6982" lon="4.62871">
        <ele>539</ele>
        <time>2011-11-06T15:36:30Z</time>
      </trkpt>
      <trkpt lat="45.6982" lon="4.62874">
        <ele>540</ele>
        <time>2011-11-06T15:36:32Z</time>
      </trkpt>
      <trkpt lat="45.69819" lon="4.62876">
        <ele>540</ele>
        <time>2011-11-06T15:36:33Z</time>
      </trkpt>
      <trkpt lat="45.69819" lon="4.62878">
        <ele>541</ele>
        <time>2011-11-06T15:36:34Z</time>
      </trkpt>
      <trkpt lat="45.69819" lon="4.62881">
        <ele>541</ele>
        <time>2011-11-06T15:36:35Z</time>
      </trkpt>
      <trkpt lat="45.69819" lon="4.62883">
        <ele>542</ele>
        <time>2011-11-06T15:36:41Z</time>
      </trkpt>
      <trkpt lat="45.69819" lon="4.62888">
        <ele>542</ele>
        <time>2011-11-06T15:36:46Z</time>
      </trkpt>
      <trkpt lat="45.69819" lon="4.6289">
        <ele>542</ele>
        <time>2011-11-06T15:36:47Z</time>
      </trkpt>
      <trkpt lat="45.69818" lon="4.62891">
        <ele>543</ele>
        <time>2011-11-06T15:36:48Z</time>
      </trkpt>
      <trkpt lat="45.69818" lon="4.62893">
        <ele>543</ele>
        <time>2011-11-06T15:36:49Z</time>
      </trkpt>
      <trkpt lat="45.69817" lon="4.62897">
        <ele>544</ele>
        <time>2011-11-06T15:36:51Z</time>
      </trkpt>
      <trkpt lat="45.69817" lon="4.62899">
        <ele>544</ele>
        <time>2011-11-06T15:36:52Z</time>
      </trkpt>
      <trkpt lat="45.69817" lon="4.62901">
        <ele>544</ele>
        <time>2011-11-06T15:36:53Z</time>
      </trkpt>
      <trkpt lat="45.69817" lon="4.62903">
        <ele>544</ele>
        <time>2011-11-06T15:36:54Z</time>
      </trkpt>
      <trkpt lat="45.69817" lon="4.62905">
        <ele>545</ele>
        <time>2011-11-06T15:36:55Z</time>
      </trkpt>
      <trkpt lat="45.69816" lon="4.62907">
        <ele>545</ele>
        <time>2011-11-06T15:36:56Z</time>
      </trkpt>
      <trkpt lat="45.69816" lon="4.62909">
        <ele>546</ele>
        <time>2011-11-06T15:36:57Z</time>
      </trkpt>
      <trkpt lat="45.69816" lon="4.62911">
        <ele>546</ele>
        <time>2011-11-06T15:36:58Z</time>
      </trkpt>
      <trkpt lat="45.69816" lon="4.62913">
        <ele>546</ele>
        <time>2011-11-06T15:36:59Z</time>
      </trkpt>
      <trkpt lat="45.69816" lon="4.62915">
        <ele>547</ele>
        <time>2011-11-06T15:37:00Z</time>
      </trkpt>
      <trkpt lat="45.69816" lon="4.62917">
        <ele>547</ele>
        <time>2011-11-06T15:37:01Z</time>
      </trkpt>
      <trkpt lat="45.69816" lon="4.62919">
        <ele>548</ele>
        <time>2011-11-06T15:37:02Z</time>
      </trkpt>
      <trkpt lat="45.69816" lon="4.62921">
        <ele>547</ele>
        <time>2011-11-06T15:37:03Z</time>
      </trkpt>
      <trkpt lat="45.69816" lon="4.62923">
        <ele>548</ele>
        <time>2011-11-06T15:37:04Z</time>
      </trkpt>
      <trkpt lat="45.69816" lon="4.62926">
        <ele>547</ele>
        <time>2011-11-06T15:37:05Z</time>
      </trkpt>
      <trkpt lat="45.69816" lon="4.62928">
        <ele>548</ele>
        <time>2011-11-06T15:37:06Z</time>
      </trkpt>
      <trkpt lat="45.69815" lon="4.62938">
        <ele>549</ele>
        <time>2011-11-06T15:37:13Z</time>
      </trkpt>
      <trkpt lat="45.69815" lon="4.62949">
        <ele>549</ele>
        <time>2011-11-06T15:37:20Z</time>
      </trkpt>
      <trkpt lat="45.69816" lon="4.62954">
        <ele>550</ele>
        <time>2011-11-06T15:37:23Z</time>
      </trkpt>
      <trkpt lat="45.69816" lon="4.62956">
        <ele>550</ele>
        <time>2011-11-06T15:37:24Z</time>
      </trkpt>
      <trkpt lat="45.69816" lon="4.62958">
        <ele>550</ele>
        <time>2011-11-06T15:37:25Z</time>
      </trkpt>
      <trkpt lat="45.69816" lon="4.6296">
        <ele>550</ele>
        <time>2011-11-06T15:37:26Z</time>
      </trkpt>
      <trkpt lat="45.69817" lon="4.62962">
        <ele>550</ele>
        <time>2011-11-06T15:37:27Z</time>
      </trkpt>
      <trkpt lat="45.69817" lon="4.62964">
        <ele>550</ele>
        <time>2011-11-06T15:37:28Z</time>
      </trkpt>
      <trkpt lat="45.69817" lon="4.62966">
        <ele>551</ele>
        <time>2011-11-06T15:37:29Z</time>
      </trkpt>
      <trkpt lat="45.69817" lon="4.62968">
        <ele>550</ele>
        <time>2011-11-06T15:37:30Z</time>
      </trkpt>
      <trkpt lat="45.69818" lon="4.62973">
        <ele>551</ele>
        <time>2011-11-06T15:37:33Z</time>
      </trkpt>
      <trkpt lat="45.69819" lon="4.62975">
        <ele>551</ele>
        <time>2011-11-06T15:37:34Z</time>
      </trkpt>
      <trkpt lat="45.69819" lon="4.62977">
        <ele>552</ele>
        <time>2011-11-06T15:37:35Z</time>
      </trkpt>
      <trkpt lat="45.69821" lon="4.62991">
        <ele>553</ele>
        <time>2011-11-06T15:37:42Z</time>
      </trkpt>
      <trkpt lat="45.69823" lon="4.63005">
        <ele>554</ele>
        <time>2011-11-06T15:37:49Z</time>
      </trkpt>
      <trkpt lat="45.69823" lon="4.63008">
        <ele>554</ele>
        <time>2011-11-06T15:37:50Z</time>
      </trkpt>
      <trkpt lat="45.69823" lon="4.6301">
        <ele>555</ele>
        <time>2011-11-06T15:37:51Z</time>
      </trkpt>
      <trkpt lat="45.69823" lon="4.6303">
        <ele>554</ele>
        <time>2011-11-06T15:37:59Z</time>
      </trkpt>
      <trkpt lat="45.69823" lon="4.63041">
        <ele>555</ele>
        <time>2011-11-06T15:38:04Z</time>
      </trkpt>
      <trkpt lat="45.69822" lon="4.63043">
        <ele>555</ele>
        <time>2011-11-06T15:38:05Z</time>
      </trkpt>
      <trkpt lat="45.69818" lon="4.63059">
        <ele>554</ele>
        <time>2011-11-06T15:38:11Z</time>
      </trkpt>
      <trkpt lat="45.69813" lon="4.63084">
        <ele>554</ele>
        <time>2011-11-06T15:38:17Z</time>
      </trkpt>
      <trkpt lat="45.69812" lon="4.63092">
        <ele>554</ele>
        <time>2011-11-06T15:38:20Z</time>
      </trkpt>
      <trkpt lat="45.69812" lon="4.63094">
        <ele>554</ele>
        <time>2011-11-06T15:38:21Z</time>
      </trkpt>
      <trkpt lat="45.69811" lon="4.63097">
        <ele>554</ele>
        <time>2011-11-06T15:38:22Z</time>
      </trkpt>
      <trkpt lat="45.69811" lon="4.631">
        <ele>555</ele>
        <time>2011-11-06T15:38:23Z</time>
      </trkpt>
      <trkpt lat="45.69811" lon="4.63104">
        <ele>554</ele>
        <time>2011-11-06T15:38:24Z</time>
      </trkpt>
      <trkpt lat="45.69811" lon="4.63107">
        <ele>555</ele>
        <time>2011-11-06T15:38:25Z</time>
      </trkpt>
      <trkpt lat="45.69811" lon="4.6311">
        <ele>555</ele>
        <time>2011-11-06T15:38:26Z</time>
      </trkpt>
      <trkpt lat="45.69811" lon="4.63113">
        <ele>555</ele>
        <time>2011-11-06T15:38:27Z</time>
      </trkpt>
      <trkpt lat="45.6981" lon="4.63115">
        <ele>555</ele>
        <time>2011-11-06T15:38:28Z</time>
      </trkpt>
      <trkpt lat="45.69808" lon="4.63134">
        <ele>556</ele>
        <time>2011-11-06T15:38:35Z</time>
      </trkpt>
      <trkpt lat="45.69806" lon="4.63155">
        <ele>557</ele>
        <time>2011-11-06T15:38:42Z</time>
      </trkpt>
      <trkpt lat="45.69806" lon="4.63175">
        <ele>558</ele>
        <time>2011-11-06T15:38:48Z</time>
      </trkpt>
      <trkpt lat="45.69806" lon="4.63179">
        <ele>558</ele>
        <time>2011-11-06T15:38:49Z</time>
      </trkpt>
      <trkpt lat="45.69807" lon="4.63182">
        <ele>558</ele>
        <time>2011-11-06T15:38:50Z</time>
      </trkpt>
      <trkpt lat="45.69807" lon="4.63185">
        <ele>558</ele>
        <time>2011-11-06T15:38:51Z</time>
      </trkpt>
      <trkpt lat="45.69807" lon="4.63188">
        <ele>558</ele>
        <time>2011-11-06T15:38:52Z</time>
      </trkpt>
      <trkpt lat="45.69807" lon="4.6319">
        <ele>558</ele>
        <time>2011-11-06T15:38:53Z</time>
      </trkpt>
      <trkpt lat="45.69808" lon="4.63194">
        <ele>558</ele>
        <time>2011-11-06T15:38:55Z</time>
      </trkpt>
      <trkpt lat="45.69807" lon="4.63197">
        <ele>558</ele>
        <time>2011-11-06T15:38:56Z</time>
      </trkpt>
      <trkpt lat="45.69803" lon="4.63221">
        <ele>556</ele>
        <time>2011-11-06T15:39:00Z</time>
      </trkpt>
      <trkpt lat="45.69796" lon="4.6327">
        <ele>552</ele>
        <time>2011-11-06T15:39:05Z</time>
      </trkpt>
      <trkpt lat="45.69793" lon="4.63304">
        <ele>549</ele>
        <time>2011-11-06T15:39:08Z</time>
      </trkpt>
      <trkpt lat="45.69793" lon="4.63313">
        <ele>547</ele>
        <time>2011-11-06T15:39:09Z</time>
      </trkpt>
      <trkpt lat="45.69795" lon="4.63321">
        <ele>546</ele>
        <time>2011-11-06T15:39:10Z</time>
      </trkpt>
      <trkpt lat="45.69797" lon="4.6334">
        <ele>545</ele>
        <time>2011-11-06T15:39:12Z</time>
      </trkpt>
      <trkpt lat="45.69802" lon="4.63348">
        <ele>543</ele>
        <time>2011-11-06T15:39:13Z</time>
      </trkpt>
      <trkpt lat="45.69807" lon="4.63356">
        <ele>543</ele>
        <time>2011-11-06T15:39:14Z</time>
      </trkpt>
      <trkpt lat="45.69823" lon="4.63375">
        <ele>541</ele>
        <time>2011-11-06T15:39:17Z</time>
      </trkpt>
      <trkpt lat="45.69829" lon="4.63381">
        <ele>541</ele>
        <time>2011-11-06T15:39:18Z</time>
      </trkpt>
      <trkpt lat="45.69835" lon="4.63387">
        <ele>540</ele>
        <time>2011-11-06T15:39:19Z</time>
      </trkpt>
      <trkpt lat="45.69841" lon="4.63393">
        <ele>539</ele>
        <time>2011-11-06T15:39:20Z</time>
      </trkpt>
      <trkpt lat="45.69846" lon="4.63397">
        <ele>539</ele>
        <time>2011-11-06T15:39:21Z</time>
      </trkpt>
      <trkpt lat="45.6985" lon="4.63402">
        <ele>538</ele>
        <time>2011-11-06T15:39:22Z</time>
      </trkpt>
      <trkpt lat="45.69855" lon="4.63407">
        <ele>538</ele>
        <time>2011-11-06T15:39:23Z</time>
      </trkpt>
      <trkpt lat="45.69859" lon="4.63414">
        <ele>537</ele>
        <time>2011-11-06T15:39:24Z</time>
      </trkpt>
      <trkpt lat="45.69862" lon="4.63422">
        <ele>536</ele>
        <time>2011-11-06T15:39:25Z</time>
      </trkpt>
      <trkpt lat="45.69865" lon="4.6343">
        <ele>536</ele>
        <time>2011-11-06T15:39:26Z</time>
      </trkpt>
      <trkpt lat="45.69866" lon="4.6344">
        <ele>535</ele>
        <time>2011-11-06T15:39:27Z</time>
      </trkpt>
      <trkpt lat="45.69867" lon="4.63449">
        <ele>534</ele>
        <time>2011-11-06T15:39:28Z</time>
      </trkpt>
      <trkpt lat="45.69867" lon="4.63458">
        <ele>533</ele>
        <time>2011-11-06T15:39:29Z</time>
      </trkpt>
      <trkpt lat="45.69866" lon="4.63466">
        <ele>532</ele>
        <time>2011-11-06T15:39:30Z</time>
      </trkpt>
      <trkpt lat="45.69865" lon="4.63483">
        <ele>530</ele>
        <time>2011-11-06T15:39:32Z</time>
      </trkpt>
      <trkpt lat="45.69864" lon="4.6349">
        <ele>530</ele>
        <time>2011-11-06T15:39:33Z</time>
      </trkpt>
      <trkpt lat="45.69865" lon="4.63498">
        <ele>529</ele>
        <time>2011-11-06T15:39:34Z</time>
      </trkpt>
      <trkpt lat="45.6987" lon="4.6354">
        <ele>526</ele>
        <time>2011-11-06T15:39:39Z</time>
      </trkpt>
      <trkpt lat="45.69867" lon="4.63548">
        <ele>525</ele>
        <time>2011-11-06T15:39:40Z</time>
      </trkpt>
      <trkpt lat="45.69856" lon="4.63572">
        <ele>523</ele>
        <time>2011-11-06T15:39:43Z</time>
      </trkpt>
      <trkpt lat="45.69853" lon="4.63581">
        <ele>521</ele>
        <time>2011-11-06T15:39:44Z</time>
      </trkpt>
      <trkpt lat="45.69846" lon="4.63617">
        <ele>519</ele>
        <time>2011-11-06T15:39:48Z</time>
      </trkpt>
      <trkpt lat="45.69839" lon="4.63653">
        <ele>515</ele>
        <time>2011-11-06T15:39:52Z</time>
      </trkpt>
      <trkpt lat="45.69837" lon="4.63663">
        <ele>515</ele>
        <time>2011-11-06T15:39:53Z</time>
      </trkpt>
      <trkpt lat="45.69835" lon="4.63672">
        <ele>514</ele>
        <time>2011-11-06T15:39:54Z</time>
      </trkpt>
      <trkpt lat="45.69832" lon="4.63682">
        <ele>514</ele>
        <time>2011-11-06T15:39:55Z</time>
      </trkpt>
      <trkpt lat="45.69826" lon="4.63702">
        <ele>512</ele>
        <time>2011-11-06T15:39:57Z</time>
      </trkpt>
      <trkpt lat="45.69821" lon="4.6371">
        <ele>512</ele>
        <time>2011-11-06T15:39:58Z</time>
      </trkpt>
      <trkpt lat="45.69806" lon="4.63729">
        <ele>511</ele>
        <time>2011-11-06T15:40:01Z</time>
      </trkpt>
      <trkpt lat="45.69798" lon="4.63744">
        <ele>509</ele>
        <time>2011-11-06T15:40:03Z</time>
      </trkpt>
      <trkpt lat="45.69789" lon="4.63764">
        <ele>507</ele>
        <time>2011-11-06T15:40:06Z</time>
      </trkpt>
      <trkpt lat="45.69787" lon="4.63769">
        <ele>506</ele>
        <time>2011-11-06T15:40:07Z</time>
      </trkpt>
      <trkpt lat="45.69778" lon="4.63785">
        <ele>505</ele>
        <time>2011-11-06T15:40:10Z</time>
      </trkpt>
      <trkpt lat="45.69773" lon="4.63789">
        <ele>504</ele>
        <time>2011-11-06T15:40:11Z</time>
      </trkpt>
      <trkpt lat="45.69768" lon="4.63792">
        <ele>503</ele>
        <time>2011-11-06T15:40:12Z</time>
      </trkpt>
      <trkpt lat="45.69764" lon="4.63796">
        <ele>503</ele>
        <time>2011-11-06T15:40:13Z</time>
      </trkpt>
      <trkpt lat="45.69761" lon="4.63804">
        <ele>502</ele>
        <time>2011-11-06T15:40:14Z</time>
      </trkpt>
      <trkpt lat="45.6976" lon="4.63813">
        <ele>502</ele>
        <time>2011-11-06T15:40:15Z</time>
      </trkpt>
      <trkpt lat="45.6976" lon="4.63823">
        <ele>501</ele>
        <time>2011-11-06T15:40:16Z</time>
      </trkpt>
      <trkpt lat="45.69761" lon="4.63831">
        <ele>501</ele>
        <time>2011-11-06T15:40:17Z</time>
      </trkpt>
      <trkpt lat="45.69763" lon="4.63839">
        <ele>500</ele>
        <time>2011-11-06T15:40:18Z</time>
      </trkpt>
      <trkpt lat="45.69765" lon="4.63845">
        <ele>500</ele>
        <time>2011-11-06T15:40:19Z</time>
      </trkpt>
      <trkpt lat="45.69771" lon="4.63869">
        <ele>497</ele>
        <time>2011-11-06T15:40:24Z</time>
      </trkpt>
      <trkpt lat="45.69771" lon="4.63872">
        <ele>496</ele>
        <time>2011-11-06T15:40:25Z</time>
      </trkpt>
      <trkpt lat="45.6977" lon="4.63875">
        <ele>496</ele>
        <time>2011-11-06T15:40:26Z</time>
      </trkpt>
      <trkpt lat="45.69758" lon="4.6389">
        <ele>493</ele>
        <time>2011-11-06T15:40:30Z</time>
      </trkpt>
      <trkpt lat="45.69753" lon="4.63893">
        <ele>492</ele>
        <time>2011-11-06T15:40:31Z</time>
      </trkpt>
      <trkpt lat="45.69748" lon="4.63893">
        <ele>490</ele>
        <time>2011-11-06T15:40:32Z</time>
      </trkpt>
      <trkpt lat="45.6974" lon="4.63894">
        <ele>489</ele>
        <time>2011-11-06T15:40:34Z</time>
      </trkpt>
      <trkpt lat="45.69739" lon="4.63896">
        <ele>488</ele>
        <time>2011-11-06T15:40:35Z</time>
      </trkpt>
      <trkpt lat="45.69739" lon="4.63897">
        <ele>488</ele>
        <time>2011-11-06T15:40:36Z</time>
      </trkpt>
      <trkpt lat="45.69739" lon="4.63898">
        <ele>488</ele>
        <time>2011-11-06T15:40:43Z</time>
      </trkpt>
      <trkpt lat="45.69739" lon="4.63898">
        <ele>488</ele>
        <time>2011-11-06T15:40:49Z</time>
      </trkpt>
      <trkpt lat="45.69739" lon="4.63898">
        <ele>488</ele>
        <time>2011-11-06T15:41:04Z</time>
      </trkpt>
      <trkpt lat="45.69739" lon="4.63898">
        <ele>488</ele>
        <time>2011-11-06T15:41:17Z</time>
      </trkpt>
      <trkpt lat="45.69739" lon="4.63898">
        <ele>489</ele>
        <time>2011-11-06T15:41:30Z</time>
      </trkpt>
      <trkpt lat="45.6974" lon="4.639">
        <ele>488</ele>
        <time>2011-11-06T15:41:37Z</time>
      </trkpt>
      <trkpt lat="45.69741" lon="4.63901">
        <ele>488</ele>
        <time>2011-11-06T15:41:38Z</time>
      </trkpt>
      <trkpt lat="45.69743" lon="4.63903">
        <ele>488</ele>
        <time>2011-11-06T15:41:39Z</time>
      </trkpt>
      <trkpt lat="45.69745" lon="4.63904">
        <ele>488</ele>
        <time>2011-11-06T15:41:40Z</time>
      </trkpt>
      <trkpt lat="45.69749" lon="4.63905">
        <ele>488</ele>
        <time>2011-11-06T15:41:41Z</time>
      </trkpt>
      <trkpt lat="45.69757" lon="4.63908">
        <ele>487</ele>
        <time>2011-11-06T15:41:43Z</time>
      </trkpt>
      <trkpt lat="45.69761" lon="4.63909">
        <ele>487</ele>
        <time>2011-11-06T15:41:44Z</time>
      </trkpt>
      <trkpt lat="45.69771" lon="4.63913">
        <ele>487</ele>
        <time>2011-11-06T15:41:46Z</time>
      </trkpt>
      <trkpt lat="45.69777" lon="4.63915">
        <ele>486</ele>
        <time>2011-11-06T15:41:47Z</time>
      </trkpt>
      <trkpt lat="45.69788" lon="4.63919">
        <ele>486</ele>
        <time>2011-11-06T15:41:49Z</time>
      </trkpt>
      <trkpt lat="45.69793" lon="4.63922">
        <ele>485</ele>
        <time>2011-11-06T15:41:50Z</time>
      </trkpt>
      <trkpt lat="45.69796" lon="4.63928">
        <ele>486</ele>
        <time>2011-11-06T15:41:51Z</time>
      </trkpt>
      <trkpt lat="45.69797" lon="4.63935">
        <ele>485</ele>
        <time>2011-11-06T15:41:52Z</time>
      </trkpt>
      <trkpt lat="45.69795" lon="4.63942">
        <ele>486</ele>
        <time>2011-11-06T15:41:53Z</time>
      </trkpt>
      <trkpt lat="45.69793" lon="4.63948">
        <ele>486</ele>
        <time>2011-11-06T15:41:54Z</time>
      </trkpt>
      <trkpt lat="45.69791" lon="4.63953">
        <ele>486</ele>
        <time>2011-11-06T15:41:55Z</time>
      </trkpt>
      <trkpt lat="45.69779" lon="4.63977">
        <ele>486</ele>
        <time>2011-11-06T15:42:01Z</time>
      </trkpt>
      <trkpt lat="45.69769" lon="4.64004">
        <ele>486</ele>
        <time>2011-11-06T15:42:08Z</time>
      </trkpt>
      <trkpt lat="45.69765" lon="4.64031">
        <ele>488</ele>
        <time>2011-11-06T15:42:14Z</time>
      </trkpt>
      <trkpt lat="45.6977" lon="4.64059">
        <ele>489</ele>
        <time>2011-11-06T15:42:21Z</time>
      </trkpt>
      <trkpt lat="45.69785" lon="4.64086">
        <ele>490</ele>
        <time>2011-11-06T15:42:29Z</time>
      </trkpt>
      <trkpt lat="45.69802" lon="4.64109">
        <ele>491</ele>
        <time>2011-11-06T15:42:37Z</time>
      </trkpt>
      <trkpt lat="45.69813" lon="4.64131">
        <ele>490</ele>
        <time>2011-11-06T15:42:43Z</time>
      </trkpt>
      <trkpt lat="45.69814" lon="4.64137">
        <ele>490</ele>
        <time>2011-11-06T15:42:44Z</time>
      </trkpt>
      <trkpt lat="45.69813" lon="4.64144">
        <ele>491</ele>
        <time>2011-11-06T15:42:45Z</time>
      </trkpt>
      <trkpt lat="45.6981" lon="4.6415">
        <ele>490</ele>
        <time>2011-11-06T15:42:46Z</time>
      </trkpt>
      <trkpt lat="45.69806" lon="4.64156">
        <ele>489</ele>
        <time>2011-11-06T15:42:47Z</time>
      </trkpt>
      <trkpt lat="45.69802" lon="4.6416">
        <ele>489</ele>
        <time>2011-11-06T15:42:48Z</time>
      </trkpt>
      <trkpt lat="45.6979" lon="4.64177">
        <ele>490</ele>
        <time>2011-11-06T15:42:53Z</time>
      </trkpt>
      <trkpt lat="45.69783" lon="4.6419">
        <ele>492</ele>
        <time>2011-11-06T15:42:58Z</time>
      </trkpt>
      <trkpt lat="45.69781" lon="4.64193">
        <ele>493</ele>
        <time>2011-11-06T15:42:59Z</time>
      </trkpt>
      <trkpt lat="45.69771" lon="4.64208">
        <ele>493</ele>
        <time>2011-11-06T15:43:05Z</time>
      </trkpt>
      <trkpt lat="45.69755" lon="4.64226">
        <ele>493</ele>
        <time>2011-11-06T15:43:11Z</time>
      </trkpt>
      <trkpt lat="45.69752" lon="4.6423">
        <ele>493</ele>
        <time>2011-11-06T15:43:12Z</time>
      </trkpt>
      <trkpt lat="45.69744" lon="4.64238">
        <ele>492</ele>
        <time>2011-11-06T15:43:14Z</time>
      </trkpt>
      <trkpt lat="45.69739" lon="4.64242">
        <ele>491</ele>
        <time>2011-11-06T15:43:15Z</time>
      </trkpt>
      <trkpt lat="45.6973" lon="4.64251">
        <ele>491</ele>
        <time>2011-11-06T15:43:17Z</time>
      </trkpt>
      <trkpt lat="45.69727" lon="4.64257">
        <ele>491</ele>
        <time>2011-11-06T15:43:18Z</time>
      </trkpt>
      <trkpt lat="45.69725" lon="4.64263">
        <ele>491</ele>
        <time>2011-11-06T15:43:19Z</time>
      </trkpt>
      <trkpt lat="45.69724" lon="4.64268">
        <ele>492</ele>
        <time>2011-11-06T15:43:20Z</time>
      </trkpt>
      <trkpt lat="45.69723" lon="4.64273">
        <ele>491</ele>
        <time>2011-11-06T15:43:21Z</time>
      </trkpt>
      <trkpt lat="45.69723" lon="4.64278">
        <ele>492</ele>
        <time>2011-11-06T15:43:22Z</time>
      </trkpt>
      <trkpt lat="45.69718" lon="4.64302">
        <ele>494</ele>
        <time>2011-11-06T15:43:28Z</time>
      </trkpt>
      <trkpt lat="45.69716" lon="4.64309">
        <ele>494</ele>
        <time>2011-11-06T15:43:30Z</time>
      </trkpt>
      <trkpt lat="45.69709" lon="4.64339">
        <ele>496</ele>
        <time>2011-11-06T15:43:38Z</time>
      </trkpt>
      <trkpt lat="45.69711" lon="4.64342">
        <ele>497</ele>
        <time>2011-11-06T15:43:39Z</time>
      </trkpt>
      <trkpt lat="45.69712" lon="4.64345">
        <ele>497</ele>
        <time>2011-11-06T15:43:41Z</time>
      </trkpt>
      <trkpt lat="45.69712" lon="4.64346">
        <ele>497</ele>
        <time>2011-11-06T15:43:42Z</time>
      </trkpt>
      <trkpt lat="45.6971" lon="4.64347">
        <ele>497</ele>
        <time>2011-11-06T15:43:43Z</time>
      </trkpt>
      <trkpt lat="45.69705" lon="4.64353">
        <ele>496</ele>
        <time>2011-11-06T15:43:46Z</time>
      </trkpt>
      <trkpt lat="45.69705" lon="4.64357">
        <ele>496</ele>
        <time>2011-11-06T15:43:47Z</time>
      </trkpt>
      <trkpt lat="45.69705" lon="4.64362">
        <ele>496</ele>
        <time>2011-11-06T15:43:48Z</time>
      </trkpt>
      <trkpt lat="45.69712" lon="4.64404">
        <ele>495</ele>
        <time>2011-11-06T15:43:57Z</time>
      </trkpt>
      <trkpt lat="45.69714" lon="4.6441">
        <ele>494</ele>
        <time>2011-11-06T15:43:58Z</time>
      </trkpt>
      <trkpt lat="45.69724" lon="4.6443">
        <ele>493</ele>
        <time>2011-11-06T15:44:01Z</time>
      </trkpt>
      <trkpt lat="45.69729" lon="4.64436">
        <ele>492</ele>
        <time>2011-11-06T15:44:02Z</time>
      </trkpt>
      <trkpt lat="45.69736" lon="4.64442">
        <ele>491</ele>
        <time>2011-11-06T15:44:03Z</time>
      </trkpt>
      <trkpt lat="45.69742" lon="4.64446">
        <ele>491</ele>
        <time>2011-11-06T15:44:04Z</time>
      </trkpt>
      <trkpt lat="45.6975" lon="4.64448">
        <ele>491</ele>
        <time>2011-11-06T15:44:05Z</time>
      </trkpt>
      <trkpt lat="45.69757" lon="4.6445">
        <ele>490</ele>
        <time>2011-11-06T15:44:06Z</time>
      </trkpt>
      <trkpt lat="45.69765" lon="4.6445">
        <ele>490</ele>
        <time>2011-11-06T15:44:07Z</time>
      </trkpt>
      <trkpt lat="45.69771" lon="4.6445">
        <ele>490</ele>
        <time>2011-11-06T15:44:08Z</time>
      </trkpt>
      <trkpt lat="45.69778" lon="4.6445">
        <ele>489</ele>
        <time>2011-11-06T15:44:09Z</time>
      </trkpt>
      <trkpt lat="45.69785" lon="4.64451">
        <ele>490</ele>
        <time>2011-11-06T15:44:10Z</time>
      </trkpt>
      <trkpt lat="45.69791" lon="4.64453">
        <ele>489</ele>
        <time>2011-11-06T15:44:11Z</time>
      </trkpt>
      <trkpt lat="45.69796" lon="4.64456">
        <ele>490</ele>
        <time>2011-11-06T15:44:12Z</time>
      </trkpt>
      <trkpt lat="45.698" lon="4.64461">
        <ele>490</ele>
        <time>2011-11-06T15:44:13Z</time>
      </trkpt>
      <trkpt lat="45.69803" lon="4.64466">
        <ele>490</ele>
        <time>2011-11-06T15:44:14Z</time>
      </trkpt>
      <trkpt lat="45.69804" lon="4.64471">
        <ele>489</ele>
        <time>2011-11-06T15:44:15Z</time>
      </trkpt>
      <trkpt lat="45.69805" lon="4.64476">
        <ele>490</ele>
        <time>2011-11-06T15:44:16Z</time>
      </trkpt>
      <trkpt lat="45.69805" lon="4.64481">
        <ele>490</ele>
        <time>2011-11-06T15:44:17Z</time>
      </trkpt>
      <trkpt lat="45.69805" lon="4.64486">
        <ele>489</ele>
        <time>2011-11-06T15:44:18Z</time>
      </trkpt>
      <trkpt lat="45.69804" lon="4.64491">
        <ele>490</ele>
        <time>2011-11-06T15:44:19Z</time>
      </trkpt>
      <trkpt lat="45.69802" lon="4.64496">
        <ele>490</ele>
        <time>2011-11-06T15:44:20Z</time>
      </trkpt>
      <trkpt lat="45.698" lon="4.645">
        <ele>490</ele>
        <time>2011-11-06T15:44:21Z</time>
      </trkpt>
      <trkpt lat="45.69798" lon="4.64504">
        <ele>490</ele>
        <time>2011-11-06T15:44:22Z</time>
      </trkpt>
      <trkpt lat="45.69775" lon="4.64534">
        <ele>491</ele>
        <time>2011-11-06T15:44:30Z</time>
      </trkpt>
      <trkpt lat="45.69772" lon="4.64538">
        <ele>491</ele>
        <time>2011-11-06T15:44:31Z</time>
      </trkpt>
      <trkpt lat="45.69769" lon="4.64542">
        <ele>491</ele>
        <time>2011-11-06T15:44:32Z</time>
      </trkpt>
      <trkpt lat="45.69749" lon="4.64566">
        <ele>492</ele>
        <time>2011-11-06T15:44:39Z</time>
      </trkpt>
      <trkpt lat="45.69728" lon="4.64605">
        <ele>494</ele>
        <time>2011-11-06T15:44:49Z</time>
      </trkpt>
      <trkpt lat="45.69717" lon="4.64631">
        <ele>496</ele>
        <time>2011-11-06T15:44:57Z</time>
      </trkpt>
      <trkpt lat="45.69709" lon="4.6465">
        <ele>497</ele>
        <time>2011-11-06T15:45:03Z</time>
      </trkpt>
      <trkpt lat="45.697" lon="4.64675">
        <ele>499</ele>
        <time>2011-11-06T15:45:12Z</time>
      </trkpt>
      <trkpt lat="45.69698" lon="4.64699">
        <ele>501</ele>
        <time>2011-11-06T15:45:20Z</time>
      </trkpt>
      <trkpt lat="45.69694" lon="4.64728">
        <ele>501</ele>
        <time>2011-11-06T15:45:29Z</time>
      </trkpt>
      <trkpt lat="45.69693" lon="4.64753">
        <ele>502</ele>
        <time>2011-11-06T15:45:36Z</time>
      </trkpt>
      <trkpt lat="45.69693" lon="4.64783">
        <ele>502</ele>
        <time>2011-11-06T15:45:43Z</time>
      </trkpt>
      <trkpt lat="45.69695" lon="4.64822">
        <ele>502</ele>
        <time>2011-11-06T15:45:51Z</time>
      </trkpt>
      <trkpt lat="45.69699" lon="4.64857">
        <ele>503</ele>
        <time>2011-11-06T15:45:58Z</time>
      </trkpt>
      <trkpt lat="45.69708" lon="4.64897">
        <ele>502</ele>
        <time>2011-11-06T15:46:06Z</time>
      </trkpt>
      <trkpt lat="45.69715" lon="4.64927">
        <ele>501</ele>
        <time>2011-11-06T15:46:11Z</time>
      </trkpt>
      <trkpt lat="45.69716" lon="4.64933">
        <ele>501</ele>
        <time>2011-11-06T15:46:12Z</time>
      </trkpt>
      <trkpt lat="45.69717" lon="4.64938">
        <ele>501</ele>
        <time>2011-11-06T15:46:13Z</time>
      </trkpt>
      <trkpt lat="45.69719" lon="4.64943">
        <ele>501</ele>
        <time>2011-11-06T15:46:14Z</time>
      </trkpt>
      <trkpt lat="45.6972" lon="4.64949">
        <ele>502</ele>
        <time>2011-11-06T15:46:15Z</time>
      </trkpt>
      <trkpt lat="45.69725" lon="4.64978">
        <ele>502</ele>
        <time>2011-11-06T15:46:21Z</time>
      </trkpt>
      <trkpt lat="45.6973" lon="4.65009">
        <ele>504</ele>
        <time>2011-11-06T15:46:28Z</time>
      </trkpt>
      <trkpt lat="45.69733" lon="4.65039">
        <ele>504</ele>
        <time>2011-11-06T15:46:35Z</time>
      </trkpt>
      <trkpt lat="45.69741" lon="4.65052">
        <ele>505</ele>
        <time>2011-11-06T15:46:39Z</time>
      </trkpt>
      <trkpt lat="45.69744" lon="4.65054">
        <ele>505</ele>
        <time>2011-11-06T15:46:40Z</time>
      </trkpt>
      <trkpt lat="45.69746" lon="4.65055">
        <ele>506</ele>
        <time>2011-11-06T15:46:41Z</time>
      </trkpt>
      <trkpt lat="45.69748" lon="4.65056">
        <ele>505</ele>
        <time>2011-11-06T15:46:42Z</time>
      </trkpt>
      <trkpt lat="45.6975" lon="4.65056">
        <ele>505</ele>
        <time>2011-11-06T15:46:43Z</time>
      </trkpt>
      <trkpt lat="45.69751" lon="4.65057">
        <ele>505</ele>
        <time>2011-11-06T15:46:44Z</time>
      </trkpt>
      <trkpt lat="45.69753" lon="4.65057">
        <ele>506</ele>
        <time>2011-11-06T15:46:45Z</time>
      </trkpt>
      <trkpt lat="45.69755" lon="4.65058">
        <ele>506</ele>
        <time>2011-11-06T15:46:46Z</time>
      </trkpt>
      <trkpt lat="45.69757" lon="4.65058">
        <ele>505</ele>
        <time>2011-11-06T15:46:47Z</time>
      </trkpt>
      <trkpt lat="45.69758" lon="4.65059">
        <ele>506</ele>
        <time>2011-11-06T15:46:48Z</time>
      </trkpt>
      <trkpt lat="45.6976" lon="4.6506">
        <ele>506</ele>
        <time>2011-11-06T15:46:49Z</time>
      </trkpt>
      <trkpt lat="45.69761" lon="4.65062">
        <ele>506</ele>
        <time>2011-11-06T15:46:50Z</time>
      </trkpt>
      <trkpt lat="45.69762" lon="4.65064">
        <ele>505</ele>
        <time>2011-11-06T15:46:51Z</time>
      </trkpt>
      <trkpt lat="45.69761" lon="4.65066">
        <ele>506</ele>
        <time>2011-11-06T15:46:52Z</time>
      </trkpt>
      <trkpt lat="45.69761" lon="4.65068">
        <ele>506</ele>
        <time>2011-11-06T15:46:53Z</time>
      </trkpt>
      <trkpt lat="45.6976" lon="4.6507">
        <ele>506</ele>
        <time>2011-11-06T15:46:54Z</time>
      </trkpt>
      <trkpt lat="45.69759" lon="4.65072">
        <ele>505</ele>
        <time>2011-11-06T15:46:55Z</time>
      </trkpt>
      <trkpt lat="45.69759" lon="4.65074">
        <ele>506</ele>
        <time>2011-11-06T15:46:56Z</time>
      </trkpt>
      <trkpt lat="45.69753" lon="4.65102">
        <ele>503</ele>
        <time>2011-11-06T15:47:02Z</time>
      </trkpt>
      <trkpt lat="45.6975" lon="4.65113">
        <ele>503</ele>
        <time>2011-11-06T15:47:04Z</time>
      </trkpt>
      <trkpt lat="45.69747" lon="4.65118">
        <ele>503</ele>
        <time>2011-11-06T15:47:05Z</time>
      </trkpt>
      <trkpt lat="45.69736" lon="4.65144">
        <ele>500</ele>
        <time>2011-11-06T15:47:10Z</time>
      </trkpt>
      <trkpt lat="45.6973" lon="4.65164">
        <ele>498</ele>
        <time>2011-11-06T15:47:14Z</time>
      </trkpt>
      <trkpt lat="45.69727" lon="4.65172">
        <ele>498</ele>
        <time>2011-11-06T15:47:16Z</time>
      </trkpt>
      <trkpt lat="45.69723" lon="4.65176">
        <ele>497</ele>
        <time>2011-11-06T15:47:21Z</time>
      </trkpt>
      <trkpt lat="45.69723" lon="4.65179">
        <ele>496</ele>
        <time>2011-11-06T15:47:24Z</time>
      </trkpt>
      <trkpt lat="45.69721" lon="4.65187">
        <ele>496</ele>
        <time>2011-11-06T15:47:29Z</time>
      </trkpt>
      <trkpt lat="45.69719" lon="4.6519">
        <ele>495</ele>
        <time>2011-11-06T15:47:30Z</time>
      </trkpt>
      <trkpt lat="45.69718" lon="4.65193">
        <ele>495</ele>
        <time>2011-11-06T15:47:31Z</time>
      </trkpt>
      <trkpt lat="45.69715" lon="4.65196">
        <ele>495</ele>
        <time>2011-11-06T15:47:32Z</time>
      </trkpt>
      <trkpt lat="45.69713" lon="4.65199">
        <ele>494</ele>
        <time>2011-11-06T15:47:33Z</time>
      </trkpt>
      <trkpt lat="45.69711" lon="4.65203">
        <ele>494</ele>
        <time>2011-11-06T15:47:34Z</time>
      </trkpt>
      <trkpt lat="45.69708" lon="4.65206">
        <ele>494</ele>
        <time>2011-11-06T15:47:35Z</time>
      </trkpt>
      <trkpt lat="45.69702" lon="4.65218">
        <ele>492</ele>
        <time>2011-11-06T15:47:37Z</time>
      </trkpt>
      <trkpt lat="45.697" lon="4.65224">
        <ele>490</ele>
        <time>2011-11-06T15:47:38Z</time>
      </trkpt>
      <trkpt lat="45.69696" lon="4.6523">
        <ele>489</ele>
        <time>2011-11-06T15:47:39Z</time>
      </trkpt>
      <trkpt lat="45.69692" lon="4.65236">
        <ele>488</ele>
        <time>2011-11-06T15:47:40Z</time>
      </trkpt>
      <trkpt lat="45.69687" lon="4.65241">
        <ele>488</ele>
        <time>2011-11-06T15:47:41Z</time>
      </trkpt>
      <trkpt lat="45.69684" lon="4.65246">
        <ele>487</ele>
        <time>2011-11-06T15:47:42Z</time>
      </trkpt>
      <trkpt lat="45.69682" lon="4.65251">
        <ele>486</ele>
        <time>2011-11-06T15:47:43Z</time>
      </trkpt>
      <trkpt lat="45.6968" lon="4.65256">
        <ele>485</ele>
        <time>2011-11-06T15:47:44Z</time>
      </trkpt>
      <trkpt lat="45.69678" lon="4.6526">
        <ele>484</ele>
        <time>2011-11-06T15:47:45Z</time>
      </trkpt>
      <trkpt lat="45.69674" lon="4.65263">
        <ele>483</ele>
        <time>2011-11-06T15:47:46Z</time>
      </trkpt>
      <trkpt lat="45.69671" lon="4.65267">
        <ele>482</ele>
        <time>2011-11-06T15:47:47Z</time>
      </trkpt>
      <trkpt lat="45.69668" lon="4.65271">
        <ele>481</ele>
        <time>2011-11-06T15:47:48Z</time>
      </trkpt>
      <trkpt lat="45.69658" lon="4.65284">
        <ele>477</ele>
        <time>2011-11-06T15:47:53Z</time>
      </trkpt>
      <trkpt lat="45.69656" lon="4.65288">
        <ele>476</ele>
        <time>2011-11-06T15:47:54Z</time>
      </trkpt>
      <trkpt lat="45.69644" lon="4.65305">
        <ele>473</ele>
        <time>2011-11-06T15:47:58Z</time>
      </trkpt>
      <trkpt lat="45.69639" lon="4.65311">
        <ele>473</ele>
        <time>2011-11-06T15:47:59Z</time>
      </trkpt>
      <trkpt lat="45.69635" lon="4.65315">
        <ele>472</ele>
        <time>2011-11-06T15:48:00Z</time>
      </trkpt>
      <trkpt lat="45.69632" lon="4.65319">
        <ele>471</ele>
        <time>2011-11-06T15:48:01Z</time>
      </trkpt>
      <trkpt lat="45.69628" lon="4.65324">
        <ele>471</ele>
        <time>2011-11-06T15:48:02Z</time>
      </trkpt>
      <trkpt lat="45.69625" lon="4.65328">
        <ele>471</ele>
        <time>2011-11-06T15:48:03Z</time>
      </trkpt>
      <trkpt lat="45.69621" lon="4.65331">
        <ele>470</ele>
        <time>2011-11-06T15:48:04Z</time>
      </trkpt>
      <trkpt lat="45.69602" lon="4.65349">
        <ele>467</ele>
        <time>2011-11-06T15:48:09Z</time>
      </trkpt>
      <trkpt lat="45.69592" lon="4.65361">
        <ele>465</ele>
        <time>2011-11-06T15:48:12Z</time>
      </trkpt>
      <trkpt lat="45.69586" lon="4.65368">
        <ele>463</ele>
        <time>2011-11-06T15:48:14Z</time>
      </trkpt>
      <trkpt lat="45.69575" lon="4.65382">
        <ele>461</ele>
        <time>2011-11-06T15:48:17Z</time>
      </trkpt>
      <trkpt lat="45.69564" lon="4.65397">
        <ele>459</ele>
        <time>2011-11-06T15:48:20Z</time>
      </trkpt>
      <trkpt lat="45.69561" lon="4.65402">
        <ele>458</ele>
        <time>2011-11-06T15:48:21Z</time>
      </trkpt>
      <trkpt lat="45.69557" lon="4.65407">
        <ele>458</ele>
        <time>2011-11-06T15:48:22Z</time>
      </trkpt>
      <trkpt lat="45.69555" lon="4.65412">
        <ele>457</ele>
        <time>2011-11-06T15:48:23Z</time>
      </trkpt>
      <trkpt lat="45.69552" lon="4.65416">
        <ele>456</ele>
        <time>2011-11-06T15:48:24Z</time>
      </trkpt>
      <trkpt lat="45.69545" lon="4.65428">
        <ele>454</ele>
        <time>2011-11-06T15:48:27Z</time>
      </trkpt>
      <trkpt lat="45.69542" lon="4.65433">
        <ele>454</ele>
        <time>2011-11-06T15:48:28Z</time>
      </trkpt>
      <trkpt lat="45.69532" lon="4.65447">
        <ele>451</ele>
        <time>2011-11-06T15:48:32Z</time>
      </trkpt>
      <trkpt lat="45.6952" lon="4.65466">
        <ele>447</ele>
        <time>2011-11-06T15:48:37Z</time>
      </trkpt>
      <trkpt lat="45.69514" lon="4.65473">
        <ele>446</ele>
        <time>2011-11-06T15:48:39Z</time>
      </trkpt>
      <trkpt lat="45.69507" lon="4.65482">
        <ele>445</ele>
        <time>2011-11-06T15:48:41Z</time>
      </trkpt>
      <trkpt lat="45.69503" lon="4.65489">
        <ele>444</ele>
        <time>2011-11-06T15:48:42Z</time>
      </trkpt>
      <trkpt lat="45.69496" lon="4.65499">
        <ele>441</ele>
        <time>2011-11-06T15:48:45Z</time>
      </trkpt>
      <trkpt lat="45.69495" lon="4.65501">
        <ele>441</ele>
        <time>2011-11-06T15:48:46Z</time>
      </trkpt>
      <trkpt lat="45.69489" lon="4.6551">
        <ele>440</ele>
        <time>2011-11-06T15:48:52Z</time>
      </trkpt>
      <trkpt lat="45.69489" lon="4.6551">
        <ele>440</ele>
        <time>2011-11-06T15:49:00Z</time>
      </trkpt>
      <trkpt lat="45.69489" lon="4.6551">
        <ele>439</ele>
        <time>2011-11-06T15:49:06Z</time>
      </trkpt>
      <trkpt lat="45.69489" lon="4.6551">
        <ele>439</ele>
        <time>2011-11-06T15:49:28Z</time>
      </trkpt>
      <trkpt lat="45.69489" lon="4.6551">
        <ele>439</ele>
        <time>2011-11-06T15:49:49Z</time>
      </trkpt>
      <trkpt lat="45.69489" lon="4.6551">
        <ele>439</ele>
        <time>2011-11-06T15:49:54Z</time>
      </trkpt>
      <trkpt lat="45.69491" lon="4.65508">
        <ele>440</ele>
        <time>2011-11-06T15:49:59Z</time>
      </trkpt>
      <trkpt lat="45.69491" lon="4.65507">
        <ele>440</ele>
        <time>2011-11-06T15:50:00Z</time>
      </trkpt>
      <trkpt lat="45.69496" lon="4.65501">
        <ele>442</ele>
        <time>2011-11-06T15:50:08Z</time>
      </trkpt>
      <trkpt lat="45.69501" lon="4.65495">
        <ele>443</ele>
        <time>2011-11-06T15:50:15Z</time>
      </trkpt>
      <trkpt lat="45.69503" lon="4.65491">
        <ele>443</ele>
        <time>2011-11-06T15:50:21Z</time>
      </trkpt>
      <trkpt lat="45.69503" lon="4.6549">
        <ele>443</ele>
        <time>2011-11-06T15:50:27Z</time>
      </trkpt>
      <trkpt lat="45.69503" lon="4.6549">
        <ele>444</ele>
        <time>2011-11-06T15:50:35Z</time>
      </trkpt>
      <trkpt lat="45.69503" lon="4.65488">
        <ele>444</ele>
        <time>2011-11-06T15:50:36Z</time>
      </trkpt>
      <trkpt lat="45.69502" lon="4.65486">
        <ele>444</ele>
        <time>2011-11-06T15:50:37Z</time>
      </trkpt>
      <trkpt lat="45.69497" lon="4.65472">
        <ele>446</ele>
        <time>2011-11-06T15:50:43Z</time>
      </trkpt>
      <trkpt lat="45.69491" lon="4.65459">
        <ele>447</ele>
        <time>2011-11-06T15:50:50Z</time>
      </trkpt>
      <trkpt lat="45.69491" lon="4.65456">
        <ele>447</ele>
        <time>2011-11-06T15:50:51Z</time>
      </trkpt>
      <trkpt lat="45.69488" lon="4.65439">
        <ele>450</ele>
        <time>2011-11-06T15:50:58Z</time>
      </trkpt>
      <trkpt lat="45.69483" lon="4.65419">
        <ele>450</ele>
        <time>2011-11-06T15:51:05Z</time>
      </trkpt>
      <trkpt lat="45.69479" lon="4.65399">
        <ele>451</ele>
        <time>2011-11-06T15:51:12Z</time>
      </trkpt>
      <trkpt lat="45.69477" lon="4.6539">
        <ele>451</ele>
        <time>2011-11-06T15:51:16Z</time>
      </trkpt>
      <trkpt lat="45.69477" lon="4.65388">
        <ele>452</ele>
        <time>2011-11-06T15:51:17Z</time>
      </trkpt>
      <trkpt lat="45.69474" lon="4.65368">
        <ele>453</ele>
        <time>2011-11-06T15:51:26Z</time>
      </trkpt>
      <trkpt lat="45.69472" lon="4.65351">
        <ele>454</ele>
        <time>2011-11-06T15:51:34Z</time>
      </trkpt>
      <trkpt lat="45.69473" lon="4.65329">
        <ele>456</ele>
        <time>2011-11-06T15:51:44Z</time>
      </trkpt>
      <trkpt lat="45.69473" lon="4.65314">
        <ele>457</ele>
        <time>2011-11-06T15:51:52Z</time>
      </trkpt>
      <trkpt lat="45.6947" lon="4.65308">
        <ele>457</ele>
        <time>2011-11-06T15:51:58Z</time>
      </trkpt>
      <trkpt lat="45.69468" lon="4.6531">
        <ele>457</ele>
        <time>2011-11-06T15:51:59Z</time>
      </trkpt>
      <trkpt lat="45.69466" lon="4.65312">
        <ele>457</ele>
        <time>2011-11-06T15:52:00Z</time>
      </trkpt>
      <trkpt lat="45.69461" lon="4.65321">
        <ele>457</ele>
        <time>2011-11-06T15:52:02Z</time>
      </trkpt>
      <trkpt lat="45.69454" lon="4.65332">
        <ele>455</ele>
        <time>2011-11-06T15:52:04Z</time>
      </trkpt>
      <trkpt lat="45.69449" lon="4.65337">
        <ele>455</ele>
        <time>2011-11-06T15:52:05Z</time>
      </trkpt>
      <trkpt lat="45.69443" lon="4.65339">
        <ele>454</ele>
        <time>2011-11-06T15:52:06Z</time>
      </trkpt>
      <trkpt lat="45.69437" lon="4.6534">
        <ele>453</ele>
        <time>2011-11-06T15:52:07Z</time>
      </trkpt>
      <trkpt lat="45.6943" lon="4.65341">
        <ele>453</ele>
        <time>2011-11-06T15:52:08Z</time>
      </trkpt>
      <trkpt lat="45.69422" lon="4.65342">
        <ele>452</ele>
        <time>2011-11-06T15:52:09Z</time>
      </trkpt>
      <trkpt lat="45.69415" lon="4.65344">
        <ele>451</ele>
        <time>2011-11-06T15:52:10Z</time>
      </trkpt>
      <trkpt lat="45.69407" lon="4.65344">
        <ele>451</ele>
        <time>2011-11-06T15:52:11Z</time>
      </trkpt>
      <trkpt lat="45.69399" lon="4.65343">
        <ele>451</ele>
        <time>2011-11-06T15:52:12Z</time>
      </trkpt>
      <trkpt lat="45.69391" lon="4.6534">
        <ele>449</ele>
        <time>2011-11-06T15:52:13Z</time>
      </trkpt>
      <trkpt lat="45.69377" lon="4.65337">
        <ele>448</ele>
        <time>2011-11-06T15:52:15Z</time>
      </trkpt>
      <trkpt lat="45.69373" lon="4.65339">
        <ele>447</ele>
        <time>2011-11-06T15:52:16Z</time>
      </trkpt>
      <trkpt lat="45.6937" lon="4.65345">
        <ele>446</ele>
        <time>2011-11-06T15:52:17Z</time>
      </trkpt>
      <trkpt lat="45.69369" lon="4.65354">
        <ele>446</ele>
        <time>2011-11-06T15:52:18Z</time>
      </trkpt>
      <trkpt lat="45.69368" lon="4.65362">
        <ele>446</ele>
        <time>2011-11-06T15:52:19Z</time>
      </trkpt>
      <trkpt lat="45.69368" lon="4.65371">
        <ele>445</ele>
        <time>2011-11-06T15:52:20Z</time>
      </trkpt>
      <trkpt lat="45.69369" lon="4.6538">
        <ele>444</ele>
        <time>2011-11-06T15:52:21Z</time>
      </trkpt>
      <trkpt lat="45.6937" lon="4.65388">
        <ele>444</ele>
        <time>2011-11-06T15:52:22Z</time>
      </trkpt>
      <trkpt lat="45.69372" lon="4.65396">
        <ele>443</ele>
        <time>2011-11-06T15:52:23Z</time>
      </trkpt>
      <trkpt lat="45.69371" lon="4.65404">
        <ele>443</ele>
        <time>2011-11-06T15:52:24Z</time>
      </trkpt>
      <trkpt lat="45.69369" lon="4.6541">
        <ele>442</ele>
        <time>2011-11-06T15:52:25Z</time>
      </trkpt>
      <trkpt lat="45.69364" lon="4.65415">
        <ele>440</ele>
        <time>2011-11-06T15:52:26Z</time>
      </trkpt>
      <trkpt lat="45.69359" lon="4.65417">
        <ele>440</ele>
        <time>2011-11-06T15:52:27Z</time>
      </trkpt>
      <trkpt lat="45.69353" lon="4.6542">
        <ele>439</ele>
        <time>2011-11-06T15:52:28Z</time>
      </trkpt>
      <trkpt lat="45.69347" lon="4.65423">
        <ele>439</ele>
        <time>2011-11-06T15:52:29Z</time>
      </trkpt>
      <trkpt lat="45.69339" lon="4.65424">
        <ele>438</ele>
        <time>2011-11-06T15:52:30Z</time>
      </trkpt>
      <trkpt lat="45.69331" lon="4.65425">
        <ele>437</ele>
        <time>2011-11-06T15:52:31Z</time>
      </trkpt>
      <trkpt lat="45.69323" lon="4.65426">
        <ele>437</ele>
        <time>2011-11-06T15:52:32Z</time>
      </trkpt>
      <trkpt lat="45.69314" lon="4.65427">
        <ele>435</ele>
        <time>2011-11-06T15:52:33Z</time>
      </trkpt>
      <trkpt lat="45.69305" lon="4.65427">
        <ele>435</ele>
        <time>2011-11-06T15:52:34Z</time>
      </trkpt>
      <trkpt lat="45.69296" lon="4.65427">
        <ele>434</ele>
        <time>2011-11-06T15:52:35Z</time>
      </trkpt>
      <trkpt lat="45.69287" lon="4.65426">
        <ele>433</ele>
        <time>2011-11-06T15:52:36Z</time>
      </trkpt>
      <trkpt lat="45.69278" lon="4.65426">
        <ele>432</ele>
        <time>2011-11-06T15:52:37Z</time>
      </trkpt>
      <trkpt lat="45.69259" lon="4.65427">
        <ele>430</ele>
        <time>2011-11-06T15:52:39Z</time>
      </trkpt>
      <trkpt lat="45.6925" lon="4.65429">
        <ele>430</ele>
        <time>2011-11-06T15:52:40Z</time>
      </trkpt>
      <trkpt lat="45.6924" lon="4.65434">
        <ele>430</ele>
        <time>2011-11-06T15:52:41Z</time>
      </trkpt>
      <trkpt lat="45.69223" lon="4.65442">
        <ele>426</ele>
        <time>2011-11-06T15:52:43Z</time>
      </trkpt>
      <trkpt lat="45.69214" lon="4.65444">
        <ele>426</ele>
        <time>2011-11-06T15:52:44Z</time>
      </trkpt>
      <trkpt lat="45.69206" lon="4.65445">
        <ele>424</ele>
        <time>2011-11-06T15:52:45Z</time>
      </trkpt>
      <trkpt lat="45.692" lon="4.65445">
        <ele>423</ele>
        <time>2011-11-06T15:52:46Z</time>
      </trkpt>
      <trkpt lat="45.69195" lon="4.65447">
        <ele>421</ele>
        <time>2011-11-06T15:52:47Z</time>
      </trkpt>
      <trkpt lat="45.69192" lon="4.65452">
        <ele>420</ele>
        <time>2011-11-06T15:52:48Z</time>
      </trkpt>
      <trkpt lat="45.69191" lon="4.65456">
        <ele>420</ele>
        <time>2011-11-06T15:52:49Z</time>
      </trkpt>
      <trkpt lat="45.69189" lon="4.65461">
        <ele>420</ele>
        <time>2011-11-06T15:52:50Z</time>
      </trkpt>
      <trkpt lat="45.69185" lon="4.65464">
        <ele>419</ele>
        <time>2011-11-06T15:52:51Z</time>
      </trkpt>
      <trkpt lat="45.69181" lon="4.65466">
        <ele>419</ele>
        <time>2011-11-06T15:52:52Z</time>
      </trkpt>
      <trkpt lat="45.69176" lon="4.65467">
        <ele>419</ele>
        <time>2011-11-06T15:52:53Z</time>
      </trkpt>
      <trkpt lat="45.69171" lon="4.65468">
        <ele>418</ele>
        <time>2011-11-06T15:52:54Z</time>
      </trkpt>
      <trkpt lat="45.69159" lon="4.6547">
        <ele>417</ele>
        <time>2011-11-06T15:52:56Z</time>
      </trkpt>
      <trkpt lat="45.69136" lon="4.65473">
        <ele>415</ele>
        <time>2011-11-06T15:52:59Z</time>
      </trkpt>
      <trkpt lat="45.69128" lon="4.65476">
        <ele>414</ele>
        <time>2011-11-06T15:53:00Z</time>
      </trkpt>
      <trkpt lat="45.69119" lon="4.6548">
        <ele>413</ele>
        <time>2011-11-06T15:53:01Z</time>
      </trkpt>
      <trkpt lat="45.69111" lon="4.65486">
        <ele>413</ele>
        <time>2011-11-06T15:53:02Z</time>
      </trkpt>
      <trkpt lat="45.69084" lon="4.65503">
        <ele>410</ele>
        <time>2011-11-06T15:53:05Z</time>
      </trkpt>
      <trkpt lat="45.69076" lon="4.65505">
        <ele>409</ele>
        <time>2011-11-06T15:53:06Z</time>
      </trkpt>
      <trkpt lat="45.69067" lon="4.65506">
        <ele>408</ele>
        <time>2011-11-06T15:53:07Z</time>
      </trkpt>
      <trkpt lat="45.69059" lon="4.65507">
        <ele>408</ele>
        <time>2011-11-06T15:53:08Z</time>
      </trkpt>
      <trkpt lat="45.69051" lon="4.65506">
        <ele>406</ele>
        <time>2011-11-06T15:53:09Z</time>
      </trkpt>
      <trkpt lat="45.69042" lon="4.65503">
        <ele>406</ele>
        <time>2011-11-06T15:53:10Z</time>
      </trkpt>
      <trkpt lat="45.69034" lon="4.65502">
        <ele>406</ele>
        <time>2011-11-06T15:53:11Z</time>
      </trkpt>
      <trkpt lat="45.69025" lon="4.65503">
        <ele>405</ele>
        <time>2011-11-06T15:53:12Z</time>
      </trkpt>
      <trkpt lat="45.69017" lon="4.65506">
        <ele>404</ele>
        <time>2011-11-06T15:53:13Z</time>
      </trkpt>
      <trkpt lat="45.69008" lon="4.65508">
        <ele>404</ele>
        <time>2011-11-06T15:53:14Z</time>
      </trkpt>
      <trkpt lat="45.68972" lon="4.6551">
        <ele>401</ele>
        <time>2011-11-06T15:53:18Z</time>
      </trkpt>
      <trkpt lat="45.6892" lon="4.65516">
        <ele>397</ele>
        <time>2011-11-06T15:53:24Z</time>
      </trkpt>
      <trkpt lat="45.68911" lon="4.65516">
        <ele>397</ele>
        <time>2011-11-06T15:53:25Z</time>
      </trkpt>
      <trkpt lat="45.68858" lon="4.65519">
        <ele>394</ele>
        <time>2011-11-06T15:53:32Z</time>
      </trkpt>
      <trkpt lat="45.68851" lon="4.65517">
        <ele>393</ele>
        <time>2011-11-06T15:53:33Z</time>
      </trkpt>
      <trkpt lat="45.68845" lon="4.65513">
        <ele>394</ele>
        <time>2011-11-06T15:53:34Z</time>
      </trkpt>
      <trkpt lat="45.68841" lon="4.65507">
        <ele>392</ele>
        <time>2011-11-06T15:53:35Z</time>
      </trkpt>
      <trkpt lat="45.68837" lon="4.65483">
        <ele>391</ele>
        <time>2011-11-06T15:53:38Z</time>
      </trkpt>
      <trkpt lat="45.68836" lon="4.65476">
        <ele>390</ele>
        <time>2011-11-06T15:53:39Z</time>
      </trkpt>
      <trkpt lat="45.68833" lon="4.65462">
        <ele>390</ele>
        <time>2011-11-06T15:53:41Z</time>
      </trkpt>
      <trkpt lat="45.68831" lon="4.65456">
        <ele>389</ele>
        <time>2011-11-06T15:53:42Z</time>
      </trkpt>
      <trkpt lat="45.68827" lon="4.65453">
        <ele>388</ele>
        <time>2011-11-06T15:53:43Z</time>
      </trkpt>
      <trkpt lat="45.68823" lon="4.65451">
        <ele>388</ele>
        <time>2011-11-06T15:53:44Z</time>
      </trkpt>
      <trkpt lat="45.68818" lon="4.6545">
        <ele>388</ele>
        <time>2011-11-06T15:53:45Z</time>
      </trkpt>
      <trkpt lat="45.68813" lon="4.65451">
        <ele>388</ele>
        <time>2011-11-06T15:53:46Z</time>
      </trkpt>
      <trkpt lat="45.68774" lon="4.65455">
        <ele>386</ele>
        <time>2011-11-06T15:53:54Z</time>
      </trkpt>
      <trkpt lat="45.6876" lon="4.65458">
        <ele>385</ele>
        <time>2011-11-06T15:53:57Z</time>
      </trkpt>
      <trkpt lat="45.68755" lon="4.6546">
        <ele>385</ele>
        <time>2011-11-06T15:53:58Z</time>
      </trkpt>
      <trkpt lat="45.68745" lon="4.65463">
        <ele>385</ele>
        <time>2011-11-06T15:54:00Z</time>
      </trkpt>
      <trkpt lat="45.68735" lon="4.65465">
        <ele>384</ele>
        <time>2011-11-06T15:54:02Z</time>
      </trkpt>
      <trkpt lat="45.68731" lon="4.65467">
        <ele>384</ele>
        <time>2011-11-06T15:54:03Z</time>
      </trkpt>
      <trkpt lat="45.68728" lon="4.65469">
        <ele>383</ele>
        <time>2011-11-06T15:54:04Z</time>
      </trkpt>
      <trkpt lat="45.68726" lon="4.6547">
        <ele>383</ele>
        <time>2011-11-06T15:54:05Z</time>
      </trkpt>
      <trkpt lat="45.68723" lon="4.6547">
        <ele>383</ele>
        <time>2011-11-06T15:54:06Z</time>
      </trkpt>
      <trkpt lat="45.68705" lon="4.65478">
        <ele>382</ele>
        <time>2011-11-06T15:54:11Z</time>
      </trkpt>
      <trkpt lat="45.68694" lon="4.65482">
        <ele>381</ele>
        <time>2011-11-06T15:54:17Z</time>
      </trkpt>
      <trkpt lat="45.68693" lon="4.65482">
        <ele>380</ele>
        <time>2011-11-06T15:54:22Z</time>
      </trkpt>
      <trkpt lat="45.68693" lon="4.65482">
        <ele>381</ele>
        <time>2011-11-06T15:54:31Z</time>
      </trkpt>
      <trkpt lat="45.68692" lon="4.65485">
        <ele>380</ele>
        <time>2011-11-06T15:54:38Z</time>
      </trkpt>
      <trkpt lat="45.68692" lon="4.65485">
        <ele>380</ele>
        <time>2011-11-06T15:54:57Z</time>
      </trkpt>
      <trkpt lat="45.68692" lon="4.65485">
        <ele>380</ele>
        <time>2011-11-06T15:55:02Z</time>
      </trkpt>
      <trkpt lat="45.68692" lon="4.65485">
        <ele>381</ele>
        <time>2011-11-06T15:55:07Z</time>
      </trkpt>
      <trkpt lat="45.68691" lon="4.65485">
        <ele>381</ele>
        <time>2011-11-06T15:55:12Z</time>
      </trkpt>
      <trkpt lat="45.6869" lon="4.65485">
        <ele>380</ele>
        <time>2011-11-06T15:55:14Z</time>
      </trkpt>
      <trkpt lat="45.6869" lon="4.65485">
        <ele>380</ele>
        <time>2011-11-06T15:55:33Z</time>
      </trkpt>
      <trkpt lat="45.6869" lon="4.65485">
        <ele>380</ele>
        <time>2011-11-06T15:55:48Z</time>
      </trkpt>
      <trkpt lat="45.6869" lon="4.65485">
        <ele>381</ele>
        <time>2011-11-06T15:55:57Z</time>
      </trkpt>
      <trkpt lat="45.6869" lon="4.65485">
        <ele>381</ele>
        <time>2011-11-06T15:56:00Z</time>
      </trkpt>
      <trkpt lat="45.68689" lon="4.65483">
        <ele>381</ele>
        <time>2011-11-06T15:56:01Z</time>
      </trkpt>
      <trkpt lat="45.68688" lon="4.65481">
        <ele>381</ele>
        <time>2011-11-06T15:56:02Z</time>
      </trkpt>
      <trkpt lat="45.68684" lon="4.65464">
        <ele>379</ele>
        <time>2011-11-06T15:56:08Z</time>
      </trkpt>
      <trkpt lat="45.68677" lon="4.65448">
        <ele>377</ele>
        <time>2011-11-06T15:56:15Z</time>
      </trkpt>
      <trkpt lat="45.6867" lon="4.6543">
        <ele>375</ele>
        <time>2011-11-06T15:56:21Z</time>
      </trkpt>
      <trkpt lat="45.68666" lon="4.65419">
        <ele>373</ele>
        <time>2011-11-06T15:56:26Z</time>
      </trkpt>
      <trkpt lat="45.68662" lon="4.65408">
        <ele>371</ele>
        <time>2011-11-06T15:56:30Z</time>
      </trkpt>
      <trkpt lat="45.68648" lon="4.65402">
        <ele>369</ele>
        <time>2011-11-06T15:56:34Z</time>
      </trkpt>
      <trkpt lat="45.6864" lon="4.65404">
        <ele>367</ele>
        <time>2011-11-06T15:56:37Z</time>
      </trkpt>
      <trkpt lat="45.68638" lon="4.65403">
        <ele>368</ele>
        <time>2011-11-06T15:56:38Z</time>
      </trkpt>
      <trkpt lat="45.68636" lon="4.65401">
        <ele>368</ele>
        <time>2011-11-06T15:56:40Z</time>
      </trkpt>
      <trkpt lat="45.68633" lon="4.65401">
        <ele>367</ele>
        <time>2011-11-06T15:56:48Z</time>
      </trkpt>
      <trkpt lat="45.68631" lon="4.65402">
        <ele>367</ele>
        <time>2011-11-06T15:57:00Z</time>
      </trkpt>
      <trkpt lat="45.68621" lon="4.6541">
        <ele>367</ele>
        <time>2011-11-06T15:57:07Z</time>
      </trkpt>
      <trkpt lat="45.68603" lon="4.65419">
        <ele>367</ele>
        <time>2011-11-06T15:57:15Z</time>
      </trkpt>
      <trkpt lat="45.68579" lon="4.65433">
        <ele>366</ele>
        <time>2011-11-06T15:57:24Z</time>
      </trkpt>
      <trkpt lat="45.68549" lon="4.65453">
        <ele>365</ele>
        <time>2011-11-06T15:57:34Z</time>
      </trkpt>
      <trkpt lat="45.68526" lon="4.65472">
        <ele>364</ele>
        <time>2011-11-06T15:57:42Z</time>
      </trkpt>
      <trkpt lat="45.68502" lon="4.65494">
        <ele>364</ele>
        <time>2011-11-06T15:57:51Z</time>
      </trkpt>
      <trkpt lat="45.68484" lon="4.65512">
        <ele>363</ele>
        <time>2011-11-06T15:57:59Z</time>
      </trkpt>
      <trkpt lat="45.68479" lon="4.65517">
        <ele>363</ele>
        <time>2011-11-06T15:58:05Z</time>
      </trkpt>
      <trkpt lat="45.68466" lon="4.65513">
        <ele>360</ele>
        <time>2011-11-06T15:58:11Z</time>
      </trkpt>
      <trkpt lat="45.68463" lon="4.65512">
        <ele>360</ele>
        <time>2011-11-06T15:58:12Z</time>
      </trkpt>
      <trkpt lat="45.6845" lon="4.65512">
        <ele>359</ele>
        <time>2011-11-06T15:58:15Z</time>
      </trkpt>
      <trkpt lat="45.68446" lon="4.65514">
        <ele>359</ele>
        <time>2011-11-06T15:58:16Z</time>
      </trkpt>
      <trkpt lat="45.68441" lon="4.65516">
        <ele>358</ele>
        <time>2011-11-06T15:58:17Z</time>
      </trkpt>
      <trkpt lat="45.68436" lon="4.6552">
        <ele>358</ele>
        <time>2011-11-06T15:58:18Z</time>
      </trkpt>
      <trkpt lat="45.68432" lon="4.65524">
        <ele>358</ele>
        <time>2011-11-06T15:58:19Z</time>
      </trkpt>
      <trkpt lat="45.68429" lon="4.65528">
        <ele>357</ele>
        <time>2011-11-06T15:58:20Z</time>
      </trkpt>
      <trkpt lat="45.68426" lon="4.65532">
        <ele>357</ele>
        <time>2011-11-06T15:58:21Z</time>
      </trkpt>
      <trkpt lat="45.68422" lon="4.65537">
        <ele>357</ele>
        <time>2011-11-06T15:58:24Z</time>
      </trkpt>
      <trkpt lat="45.68421" lon="4.65538">
        <ele>356</ele>
        <time>2011-11-06T15:58:25Z</time>
      </trkpt>
      <trkpt lat="45.6842" lon="4.65538">
        <ele>357</ele>
        <time>2011-11-06T15:58:26Z</time>
      </trkpt>
      <trkpt lat="45.68419" lon="4.6554">
        <ele>355</ele>
        <time>2011-11-06T15:58:27Z</time>
      </trkpt>
      <trkpt lat="45.68418" lon="4.65541">
        <ele>356</ele>
        <time>2011-11-06T15:58:28Z</time>
      </trkpt>
      <trkpt lat="45.68417" lon="4.65542">
        <ele>357</ele>
        <time>2011-11-06T15:58:29Z</time>
      </trkpt>
      <trkpt lat="45.68416" lon="4.65544">
        <ele>356</ele>
        <time>2011-11-06T15:58:30Z</time>
      </trkpt>
      <trkpt lat="45.684" lon="4.65559">
        <ele>356</ele>
        <time>2011-11-06T15:58:37Z</time>
      </trkpt>
      <trkpt lat="45.68374" lon="4.65579">
        <ele>355</ele>
        <time>2011-11-06T15:58:45Z</time>
      </trkpt>
      <trkpt lat="45.68343" lon="4.65597">
        <ele>354</ele>
        <time>2011-11-06T15:58:52Z</time>
      </trkpt>
      <trkpt lat="45.68332" lon="4.65609">
        <ele>354</ele>
        <time>2011-11-06T15:58:55Z</time>
      </trkpt>
      <trkpt lat="45.68329" lon="4.65613">
        <ele>354</ele>
        <time>2011-11-06T15:58:56Z</time>
      </trkpt>
      <trkpt lat="45.68326" lon="4.65617">
        <ele>354</ele>
        <time>2011-11-06T15:58:57Z</time>
      </trkpt>
      <trkpt lat="45.6831" lon="4.65638">
        <ele>353</ele>
        <time>2011-11-06T15:59:02Z</time>
      </trkpt>
      <trkpt lat="45.68308" lon="4.65644">
        <ele>353</ele>
        <time>2011-11-06T15:59:03Z</time>
      </trkpt>
      <trkpt lat="45.68307" lon="4.6565">
        <ele>353</ele>
        <time>2011-11-06T15:59:04Z</time>
      </trkpt>
      <trkpt lat="45.68307" lon="4.65679">
        <ele>354</ele>
        <time>2011-11-06T15:59:10Z</time>
      </trkpt>
      <trkpt lat="45.68309" lon="4.65714">
        <ele>355</ele>
        <time>2011-11-06T15:59:18Z</time>
      </trkpt>
      <trkpt lat="45.68309" lon="4.65746">
        <ele>356</ele>
        <time>2011-11-06T15:59:26Z</time>
      </trkpt>
      <trkpt lat="45.68314" lon="4.6576">
        <ele>358</ele>
        <time>2011-11-06T15:59:32Z</time>
      </trkpt>
      <trkpt lat="45.68324" lon="4.65769">
        <ele>359</ele>
        <time>2011-11-06T15:59:38Z</time>
      </trkpt>
      <trkpt lat="45.68335" lon="4.65782">
        <ele>362</ele>
        <time>2011-11-06T15:59:46Z</time>
      </trkpt>
      <trkpt lat="45.68345" lon="4.65792">
        <ele>364</ele>
        <time>2011-11-06T15:59:53Z</time>
      </trkpt>
      <trkpt lat="45.68352" lon="4.65799">
        <ele>365</ele>
        <time>2011-11-06T15:59:58Z</time>
      </trkpt>
      <trkpt lat="45.68353" lon="4.65801">
        <ele>365</ele>
        <time>2011-11-06T15:59:59Z</time>
      </trkpt>
      <trkpt lat="45.68354" lon="4.65803">
        <ele>365</ele>
        <time>2011-11-06T16:00:00Z</time>
      </trkpt>
      <trkpt lat="45.68356" lon="4.65805">
        <ele>365</ele>
        <time>2011-11-06T16:00:01Z</time>
      </trkpt>
      <trkpt lat="45.68357" lon="4.65806">
        <ele>365</ele>
        <time>2011-11-06T16:00:02Z</time>
      </trkpt>
      <trkpt lat="45.68358" lon="4.65808">
        <ele>365</ele>
        <time>2011-11-06T16:00:03Z</time>
      </trkpt>
      <trkpt lat="45.6836" lon="4.65809">
        <ele>365</ele>
        <time>2011-11-06T16:00:04Z</time>
      </trkpt>
      <trkpt lat="45.68361" lon="4.65811">
        <ele>366</ele>
        <time>2011-11-06T16:00:05Z</time>
      </trkpt>
      <trkpt lat="45.68362" lon="4.65813">
        <ele>365</ele>
        <time>2011-11-06T16:00:06Z</time>
      </trkpt>
      <trkpt lat="45.68371" lon="4.65823">
        <ele>367</ele>
        <time>2011-11-06T16:00:13Z</time>
      </trkpt>
      <trkpt lat="45.68385" lon="4.65823">
        <ele>368</ele>
        <time>2011-11-06T16:00:21Z</time>
      </trkpt>
      <trkpt lat="45.68396" lon="4.65816">
        <ele>369</ele>
        <time>2011-11-06T16:00:28Z</time>
      </trkpt>
      <trkpt lat="45.68403" lon="4.65813">
        <ele>370</ele>
        <time>2011-11-06T16:00:32Z</time>
      </trkpt>
      <trkpt lat="45.68405" lon="4.65813">
        <ele>370</ele>
        <time>2011-11-06T16:00:33Z</time>
      </trkpt>
      <trkpt lat="45.68406" lon="4.65814">
        <ele>370</ele>
        <time>2011-11-06T16:00:34Z</time>
      </trkpt>
      <trkpt lat="45.68408" lon="4.65814">
        <ele>370</ele>
        <time>2011-11-06T16:00:35Z</time>
      </trkpt>
      <trkpt lat="45.6841" lon="4.65815">
        <ele>370</ele>
        <time>2011-11-06T16:00:36Z</time>
      </trkpt>
      <trkpt lat="45.68411" lon="4.65816">
        <ele>371</ele>
        <time>2011-11-06T16:00:37Z</time>
      </trkpt>
      <trkpt lat="45.68413" lon="4.65817">
        <ele>371</ele>
        <time>2011-11-06T16:00:38Z</time>
      </trkpt>
      <trkpt lat="45.68415" lon="4.65819">
        <ele>371</ele>
        <time>2011-11-06T16:00:39Z</time>
      </trkpt>
      <trkpt lat="45.6843" lon="4.65835">
        <ele>372</ele>
        <time>2011-11-06T16:00:47Z</time>
      </trkpt>
      <trkpt lat="45.68452" lon="4.65858">
        <ele>373</ele>
        <time>2011-11-06T16:00:57Z</time>
      </trkpt>
      <trkpt lat="45.68469" lon="4.65871">
        <ele>373</ele>
        <time>2011-11-06T16:01:03Z</time>
      </trkpt>
      <trkpt lat="45.68491" lon="4.65879">
        <ele>373</ele>
        <time>2011-11-06T16:01:10Z</time>
      </trkpt>
      <trkpt lat="45.68506" lon="4.65884">
        <ele>373</ele>
        <time>2011-11-06T16:01:14Z</time>
      </trkpt>
      <trkpt lat="45.68509" lon="4.65884">
        <ele>373</ele>
        <time>2011-11-06T16:01:15Z</time>
      </trkpt>
      <trkpt lat="45.68514" lon="4.65886">
        <ele>373</ele>
        <time>2011-11-06T16:01:16Z</time>
      </trkpt>
      <trkpt lat="45.68518" lon="4.65886">
        <ele>373</ele>
        <time>2011-11-06T16:01:17Z</time>
      </trkpt>
      <trkpt lat="45.68521" lon="4.65887">
        <ele>373</ele>
        <time>2011-11-06T16:01:18Z</time>
      </trkpt>
      <trkpt lat="45.68524" lon="4.65888">
        <ele>373</ele>
        <time>2011-11-06T16:01:19Z</time>
      </trkpt>
      <trkpt lat="45.6855" lon="4.65893">
        <ele>374</ele>
        <time>2011-11-06T16:01:27Z</time>
      </trkpt>
      <trkpt lat="45.68567" lon="4.65902">
        <ele>374</ele>
        <time>2011-11-06T16:01:33Z</time>
      </trkpt>
      <trkpt lat="45.68581" lon="4.6592">
        <ele>373</ele>
        <time>2011-11-06T16:01:39Z</time>
      </trkpt>
      <trkpt lat="45.6858" lon="4.65925">
        <ele>373</ele>
        <time>2011-11-06T16:01:40Z</time>
      </trkpt>
      <trkpt lat="45.68566" lon="4.65963">
        <ele>371</ele>
        <time>2011-11-06T16:01:47Z</time>
      </trkpt>
      <trkpt lat="45.68549" lon="4.66014">
        <ele>368</ele>
        <time>2011-11-06T16:01:54Z</time>
      </trkpt>
      <trkpt lat="45.68542" lon="4.66029">
        <ele>368</ele>
        <time>2011-11-06T16:01:56Z</time>
      </trkpt>
      <trkpt lat="45.68526" lon="4.66068">
        <ele>365</ele>
        <time>2011-11-06T16:02:01Z</time>
      </trkpt>
      <trkpt lat="45.68522" lon="4.66077">
        <ele>365</ele>
        <time>2011-11-06T16:02:02Z</time>
      </trkpt>
      <trkpt lat="45.68511" lon="4.66103">
        <ele>364</ele>
        <time>2011-11-06T16:02:05Z</time>
      </trkpt>
      <trkpt lat="45.68496" lon="4.66155">
        <ele>360</ele>
        <time>2011-11-06T16:02:10Z</time>
      </trkpt>
      <trkpt lat="45.68491" lon="4.66174">
        <ele>358</ele>
        <time>2011-11-06T16:02:12Z</time>
      </trkpt>
      <trkpt lat="45.68489" lon="4.66184">
        <ele>358</ele>
        <time>2011-11-06T16:02:13Z</time>
      </trkpt>
      <trkpt lat="45.68486" lon="4.66192">
        <ele>357</ele>
        <time>2011-11-06T16:02:14Z</time>
      </trkpt>
      <trkpt lat="45.68481" lon="4.66202">
        <ele>356</ele>
        <time>2011-11-06T16:02:15Z</time>
      </trkpt>
      <trkpt lat="45.68477" lon="4.66212">
        <ele>355</ele>
        <time>2011-11-06T16:02:16Z</time>
      </trkpt>
      <trkpt lat="45.68462" lon="4.66259">
        <ele>351</ele>
        <time>2011-11-06T16:02:20Z</time>
      </trkpt>
      <trkpt lat="45.68455" lon="4.6629">
        <ele>348</ele>
        <time>2011-11-06T16:02:23Z</time>
      </trkpt>
      <trkpt lat="45.68454" lon="4.66298">
        <ele>347</ele>
        <time>2011-11-06T16:02:24Z</time>
      </trkpt>
      <trkpt lat="45.68456" lon="4.66305">
        <ele>346</ele>
        <time>2011-11-06T16:02:25Z</time>
      </trkpt>
      <trkpt lat="45.68459" lon="4.6631">
        <ele>346</ele>
        <time>2011-11-06T16:02:26Z</time>
      </trkpt>
      <trkpt lat="45.68464" lon="4.66314">
        <ele>345</ele>
        <time>2011-11-06T16:02:27Z</time>
      </trkpt>
      <trkpt lat="45.68468" lon="4.66317">
        <ele>346</ele>
        <time>2011-11-06T16:02:28Z</time>
      </trkpt>
      <trkpt lat="45.68517" lon="4.66344">
        <ele>344</ele>
        <time>2011-11-06T16:02:38Z</time>
      </trkpt>
      <trkpt lat="45.68554" lon="4.66362">
        <ele>343</ele>
        <time>2011-11-06T16:02:45Z</time>
      </trkpt>
      <trkpt lat="45.68601" lon="4.66383">
        <ele>342</ele>
        <time>2011-11-06T16:02:53Z</time>
      </trkpt>
      <trkpt lat="45.6865" lon="4.6641">
        <ele>340</ele>
        <time>2011-11-06T16:03:01Z</time>
      </trkpt>
      <trkpt lat="45.68693" lon="4.66431">
        <ele>339</ele>
        <time>2011-11-06T16:03:08Z</time>
      </trkpt>
      <trkpt lat="45.6873" lon="4.66443">
        <ele>339</ele>
        <time>2011-11-06T16:03:14Z</time>
      </trkpt>
      <trkpt lat="45.68736" lon="4.66446">
        <ele>339</ele>
        <time>2011-11-06T16:03:15Z</time>
      </trkpt>
      <trkpt lat="45.68741" lon="4.66451">
        <ele>339</ele>
        <time>2011-11-06T16:03:16Z</time>
      </trkpt>
      <trkpt lat="45.68746" lon="4.66457">
        <ele>339</ele>
        <time>2011-11-06T16:03:17Z</time>
      </trkpt>
      <trkpt lat="45.68755" lon="4.66469">
        <ele>339</ele>
        <time>2011-11-06T16:03:19Z</time>
      </trkpt>
      <trkpt lat="45.68763" lon="4.66479">
        <ele>339</ele>
        <time>2011-11-06T16:03:21Z</time>
      </trkpt>
      <trkpt lat="45.68784" lon="4.66496">
        <ele>340</ele>
        <time>2011-11-06T16:03:26Z</time>
      </trkpt>
      <trkpt lat="45.68803" lon="4.66513">
        <ele>341</ele>
        <time>2011-11-06T16:03:32Z</time>
      </trkpt>
      <trkpt lat="45.68828" lon="4.66537">
        <ele>343</ele>
        <time>2011-11-06T16:03:41Z</time>
      </trkpt>
      <trkpt lat="45.68853" lon="4.66563">
        <ele>344</ele>
        <time>2011-11-06T16:03:50Z</time>
      </trkpt>
      <trkpt lat="45.68866" lon="4.66576">
        <ele>345</ele>
        <time>2011-11-06T16:03:55Z</time>
      </trkpt>
      <trkpt lat="45.68886" lon="4.66597">
        <ele>347</ele>
        <time>2011-11-06T16:04:04Z</time>
      </trkpt>
      <trkpt lat="45.68906" lon="4.66614">
        <ele>348</ele>
        <time>2011-11-06T16:04:11Z</time>
      </trkpt>
      <trkpt lat="45.68934" lon="4.66625">
        <ele>349</ele>
        <time>2011-11-06T16:04:20Z</time>
      </trkpt>
      <trkpt lat="45.68961" lon="4.66636">
        <ele>350</ele>
        <time>2011-11-06T16:04:28Z</time>
      </trkpt>
      <trkpt lat="45.68985" lon="4.66645">
        <ele>350</ele>
        <time>2011-11-06T16:04:35Z</time>
      </trkpt>
      <trkpt lat="45.69016" lon="4.66664">
        <ele>350</ele>
        <time>2011-11-06T16:04:43Z</time>
      </trkpt>
      <trkpt lat="45.69052" lon="4.66688">
        <ele>349</ele>
        <time>2011-11-06T16:04:51Z</time>
      </trkpt>
      <trkpt lat="45.69056" lon="4.66691">
        <ele>349</ele>
        <time>2011-11-06T16:04:52Z</time>
      </trkpt>
      <trkpt lat="45.69091" lon="4.66716">
        <ele>349</ele>
        <time>2011-11-06T16:05:00Z</time>
      </trkpt>
      <trkpt lat="45.69124" lon="4.66734">
        <ele>349</ele>
        <time>2011-11-06T16:05:07Z</time>
      </trkpt>
      <trkpt lat="45.69171" lon="4.66751">
        <ele>349</ele>
        <time>2011-11-06T16:05:17Z</time>
      </trkpt>
      <trkpt lat="45.69181" lon="4.66757">
        <ele>349</ele>
        <time>2011-11-06T16:05:19Z</time>
      </trkpt>
      <trkpt lat="45.69219" lon="4.66788">
        <ele>349</ele>
        <time>2011-11-06T16:05:27Z</time>
      </trkpt>
      <trkpt lat="45.69272" lon="4.66832">
        <ele>348</ele>
        <time>2011-11-06T16:05:37Z</time>
      </trkpt>
      <trkpt lat="45.69282" lon="4.6684">
        <ele>350</ele>
        <time>2011-11-06T16:05:39Z</time>
      </trkpt>
      <trkpt lat="45.69307" lon="4.66868">
        <ele>346</ele>
        <time>2011-11-06T16:05:44Z</time>
      </trkpt>
      <trkpt lat="45.69348" lon="4.66933">
        <ele>344</ele>
        <time>2011-11-06T16:05:53Z</time>
      </trkpt>
      <trkpt lat="45.69383" lon="4.66992">
        <ele>344</ele>
        <time>2011-11-06T16:06:02Z</time>
      </trkpt>
      <trkpt lat="45.6939" lon="4.67003">
        <ele>345</ele>
        <time>2011-11-06T16:06:04Z</time>
      </trkpt>
      <trkpt lat="45.69418" lon="4.67045">
        <ele>346</ele>
        <time>2011-11-06T16:06:12Z</time>
      </trkpt>
      <trkpt lat="45.69443" lon="4.67079">
        <ele>348</ele>
        <time>2011-11-06T16:06:20Z</time>
      </trkpt>
      <trkpt lat="45.69446" lon="4.67083">
        <ele>348</ele>
        <time>2011-11-06T16:06:21Z</time>
      </trkpt>
      <trkpt lat="45.6945" lon="4.67087">
        <ele>349</ele>
        <time>2011-11-06T16:06:22Z</time>
      </trkpt>
      <trkpt lat="45.69475" lon="4.67115">
        <ele>350</ele>
        <time>2011-11-06T16:06:30Z</time>
      </trkpt>
      <trkpt lat="45.69479" lon="4.67118">
        <ele>350</ele>
        <time>2011-11-06T16:06:31Z</time>
      </trkpt>
      <trkpt lat="45.69511" lon="4.67137">
        <ele>351</ele>
        <time>2011-11-06T16:06:40Z</time>
      </trkpt>
      <trkpt lat="45.6955" lon="4.67152">
        <ele>351</ele>
        <time>2011-11-06T16:06:50Z</time>
      </trkpt>
      <trkpt lat="45.69585" lon="4.67166">
        <ele>353</ele>
        <time>2011-11-06T16:06:59Z</time>
      </trkpt>
      <trkpt lat="45.69609" lon="4.67181">
        <ele>353</ele>
        <time>2011-11-06T16:07:06Z</time>
      </trkpt>
      <trkpt lat="45.6963" lon="4.67201">
        <ele>354</ele>
        <time>2011-11-06T16:07:13Z</time>
      </trkpt>
      <trkpt lat="45.69655" lon="4.67229">
        <ele>354</ele>
        <time>2011-11-06T16:07:21Z</time>
      </trkpt>
      <trkpt lat="45.69667" lon="4.67246">
        <ele>354</ele>
        <time>2011-11-06T16:07:25Z</time>
      </trkpt>
      <trkpt lat="45.6967" lon="4.67251">
        <ele>354</ele>
        <time>2011-11-06T16:07:26Z</time>
      </trkpt>
      <trkpt lat="45.6969" lon="4.67291">
        <ele>353</ele>
        <time>2011-11-06T16:07:34Z</time>
      </trkpt>
      <trkpt lat="45.69705" lon="4.67332">
        <ele>353</ele>
        <time>2011-11-06T16:07:42Z</time>
      </trkpt>
      <trkpt lat="45.69711" lon="4.67355">
        <ele>351</ele>
        <time>2011-11-06T16:07:46Z</time>
      </trkpt>
      <trkpt lat="45.69715" lon="4.67367">
        <ele>353</ele>
        <time>2011-11-06T16:07:48Z</time>
      </trkpt>
      <trkpt lat="45.69716" lon="4.67373">
        <ele>354</ele>
        <time>2011-11-06T16:07:49Z</time>
      </trkpt>
      <trkpt lat="45.69717" lon="4.67385">
        <ele>351</ele>
        <time>2011-11-06T16:07:51Z</time>
      </trkpt>
      <trkpt lat="45.69717" lon="4.67403">
        <ele>351</ele>
        <time>2011-11-06T16:07:54Z</time>
      </trkpt>
      <trkpt lat="45.69719" lon="4.67409">
        <ele>351</ele>
        <time>2011-11-06T16:07:55Z</time>
      </trkpt>
      <trkpt lat="45.69722" lon="4.67414">
        <ele>351</ele>
        <time>2011-11-06T16:07:56Z</time>
      </trkpt>
      <trkpt lat="45.69734" lon="4.67425">
        <ele>351</ele>
        <time>2011-11-06T16:07:59Z</time>
      </trkpt>
      <trkpt lat="45.69738" lon="4.6743">
        <ele>350</ele>
        <time>2011-11-06T16:08:00Z</time>
      </trkpt>
      <trkpt lat="45.69751" lon="4.67451">
        <ele>350</ele>
        <time>2011-11-06T16:08:04Z</time>
      </trkpt>
      <trkpt lat="45.69755" lon="4.67454">
        <ele>350</ele>
        <time>2011-11-06T16:08:05Z</time>
      </trkpt>
      <trkpt lat="45.69759" lon="4.67455">
        <ele>350</ele>
        <time>2011-11-06T16:08:06Z</time>
      </trkpt>
      <trkpt lat="45.69781" lon="4.6746">
        <ele>349</ele>
        <time>2011-11-06T16:08:11Z</time>
      </trkpt>
      <trkpt lat="45.69784" lon="4.67464">
        <ele>349</ele>
        <time>2011-11-06T16:08:12Z</time>
      </trkpt>
      <trkpt lat="45.69784" lon="4.67471">
        <ele>349</ele>
        <time>2011-11-06T16:08:13Z</time>
      </trkpt>
      <trkpt lat="45.69784" lon="4.67478">
        <ele>348</ele>
        <time>2011-11-06T16:08:14Z</time>
      </trkpt>
      <trkpt lat="45.69784" lon="4.67487">
        <ele>348</ele>
        <time>2011-11-06T16:08:15Z</time>
      </trkpt>
      <trkpt lat="45.6978" lon="4.6754">
        <ele>345</ele>
        <time>2011-11-06T16:08:21Z</time>
      </trkpt>
      <trkpt lat="45.6978" lon="4.67548">
        <ele>345</ele>
        <time>2011-11-06T16:08:22Z</time>
      </trkpt>
      <trkpt lat="45.69779" lon="4.67557">
        <ele>345</ele>
        <time>2011-11-06T16:08:23Z</time>
      </trkpt>
      <trkpt lat="45.69774" lon="4.67585">
        <ele>344</ele>
        <time>2011-11-06T16:08:26Z</time>
      </trkpt>
      <trkpt lat="45.69771" lon="4.67595">
        <ele>344</ele>
        <time>2011-11-06T16:08:27Z</time>
      </trkpt>
      <trkpt lat="45.69763" lon="4.67612">
        <ele>343</ele>
        <time>2011-11-06T16:08:29Z</time>
      </trkpt>
      <trkpt lat="45.69739" lon="4.67658">
        <ele>341</ele>
        <time>2011-11-06T16:08:34Z</time>
      </trkpt>
      <trkpt lat="45.69735" lon="4.67668">
        <ele>340</ele>
        <time>2011-11-06T16:08:35Z</time>
      </trkpt>
      <trkpt lat="45.69731" lon="4.67679">
        <ele>340</ele>
        <time>2011-11-06T16:08:36Z</time>
      </trkpt>
      <trkpt lat="45.69729" lon="4.6769">
        <ele>339</ele>
        <time>2011-11-06T16:08:37Z</time>
      </trkpt>
      <trkpt lat="45.69727" lon="4.67702">
        <ele>339</ele>
        <time>2011-11-06T16:08:38Z</time>
      </trkpt>
      <trkpt lat="45.69726" lon="4.67713">
        <ele>339</ele>
        <time>2011-11-06T16:08:39Z</time>
      </trkpt>
      <trkpt lat="45.69725" lon="4.67749">
        <ele>338</ele>
        <time>2011-11-06T16:08:42Z</time>
      </trkpt>
      <trkpt lat="45.69724" lon="4.67759">
        <ele>337</ele>
        <time>2011-11-06T16:08:43Z</time>
      </trkpt>
      <trkpt lat="45.69725" lon="4.67766">
        <ele>336</ele>
        <time>2011-11-06T16:08:44Z</time>
      </trkpt>
      <trkpt lat="45.69729" lon="4.6777">
        <ele>336</ele>
        <time>2011-11-06T16:08:45Z</time>
      </trkpt>
      <trkpt lat="45.69734" lon="4.67772">
        <ele>336</ele>
        <time>2011-11-06T16:08:46Z</time>
      </trkpt>
      <trkpt lat="45.69749" lon="4.67774">
        <ele>335</ele>
        <time>2011-11-06T16:08:49Z</time>
      </trkpt>
      <trkpt lat="45.69758" lon="4.67771">
        <ele>335</ele>
        <time>2011-11-06T16:08:51Z</time>
      </trkpt>
      <trkpt lat="45.69762" lon="4.67767">
        <ele>335</ele>
        <time>2011-11-06T16:08:52Z</time>
      </trkpt>
      <trkpt lat="45.69771" lon="4.6776">
        <ele>335</ele>
        <time>2011-11-06T16:08:55Z</time>
      </trkpt>
      <trkpt lat="45.69781" lon="4.67755">
        <ele>335</ele>
        <time>2011-11-06T16:08:59Z</time>
      </trkpt>
      <trkpt lat="45.69781" lon="4.67751">
        <ele>335</ele>
        <time>2011-11-06T16:09:04Z</time>
      </trkpt>
      <trkpt lat="45.69781" lon="4.67751">
        <ele>335</ele>
        <time>2011-11-06T16:09:21Z</time>
      </trkpt>
      <trkpt lat="45.69781" lon="4.67751">
        <ele>335</ele>
        <time>2011-11-06T16:09:36Z</time>
      </trkpt>
      <trkpt lat="45.69781" lon="4.67749">
        <ele>335</ele>
        <time>2011-11-06T16:09:43Z</time>
      </trkpt>
      <trkpt lat="45.69781" lon="4.67749">
        <ele>335</ele>
        <time>2011-11-06T16:10:00Z</time>
      </trkpt>
      <trkpt lat="45.69781" lon="4.67749">
        <ele>335</ele>
        <time>2011-11-06T16:10:17Z</time>
      </trkpt>
      <trkpt lat="45.69781" lon="4.67749">
        <ele>331</ele>
        <time>2011-11-06T16:10:28Z</time>
      </trkpt>
      <trkpt lat="45.69781" lon="4.67749">
        <ele>335</ele>
        <time>2011-11-06T16:10:29Z</time>
      </trkpt>
      <trkpt lat="45.69781" lon="4.67749">
        <ele>334</ele>
        <time>2011-11-06T16:10:47Z</time>
      </trkpt>
      <trkpt lat="45.69781" lon="4.67749">
        <ele>335</ele>
        <time>2011-11-06T16:11:07Z</time>
      </trkpt>
      <trkpt lat="45.69781" lon="4.67749">
        <ele>335</ele>
        <time>2011-11-06T16:11:29Z</time>
      </trkpt>
      <trkpt lat="45.69781" lon="4.67749">
        <ele>335</ele>
        <time>2011-11-06T16:11:51Z</time>
      </trkpt>
      <trkpt lat="45.69781" lon="4.67749">
        <ele>334</ele>
        <time>2011-11-06T16:12:15Z</time>
      </trkpt>
      <trkpt lat="45.69781" lon="4.67749">
        <ele>335</ele>
        <time>2011-11-06T16:12:36Z</time>
      </trkpt>
      <trkpt lat="45.69781" lon="4.67749">
        <ele>335</ele>
        <time>2011-11-06T16:12:57Z</time>
      </trkpt>
      <trkpt lat="45.69781" lon="4.67751">
        <ele>333</ele>
        <time>2011-11-06T16:13:00Z</time>
      </trkpt>
    </trkseg>
  </trk>
</gpx>